<?xml version="1.0" encoding="UTF-8" standalone="no" ?>
<gpx xmlns="http://www.topografix.com/GPX/1/1" xmlns:xsi="http://www.w3.org/2001/XMLSchema-instance" xsi:schemaLocation="http://www.topografix.com/GPX/1/1 http://www.topografix.com/GPX/1/1/gpx.xsd" version="1.1" creator="VisuGPX - https://www.visugpx.com">
  <metadata>
    <name>SO-NE-St Léger St Pazanne Machecoul St Philbert La Chevrolière Pont St Martin St Aignan</name>
    <desc><![CDATA[SO-NE-St Léger St Pazanne Machecoul St Philbert La Chevrolière Pont St Martin St Aignan]]></desc>
  </metadata>
  <trk>
    <name><![CDATA[2021-06-02 16:48 +02:00]]></name>
    <trkseg>
      <trkpt lat="47.16787" lon="-1.62662">
        <ele>50</ele>
        <time>2021-06-02T14:48:04.000Z</time>
      </trkpt>
      <trkpt lat="47.1678" lon="-1.6265">
        <ele>57</ele>
        <time>2021-06-02T14:48:41.000Z</time>
      </trkpt>
      <trkpt lat="47.16786" lon="-1.62659">
        <ele>61</ele>
        <time>2021-06-02T14:49:02.000Z</time>
      </trkpt>
      <trkpt lat="47.16788" lon="-1.62674">
        <ele>64</ele>
        <time>2021-06-02T14:49:04.000Z</time>
      </trkpt>
      <trkpt lat="47.16777" lon="-1.62678">
        <ele>66</ele>
        <time>2021-06-02T14:49:06.000Z</time>
      </trkpt>
      <trkpt lat="47.16766" lon="-1.62674">
        <ele>68</ele>
        <time>2021-06-02T14:49:07.000Z</time>
      </trkpt>
      <trkpt lat="47.16757" lon="-1.62672">
        <ele>69</ele>
        <time>2021-06-02T14:49:08.000Z</time>
      </trkpt>
      <trkpt lat="47.1674" lon="-1.6268">
        <ele>69</ele>
        <time>2021-06-02T14:49:11.000Z</time>
      </trkpt>
      <trkpt lat="47.16728" lon="-1.62689">
        <ele>69</ele>
        <time>2021-06-02T14:49:13.000Z</time>
      </trkpt>
      <trkpt lat="47.16718" lon="-1.627">
        <ele>70</ele>
        <time>2021-06-02T14:49:15.000Z</time>
      </trkpt>
      <trkpt lat="47.16722" lon="-1.62716">
        <ele>70</ele>
        <time>2021-06-02T14:49:17.000Z</time>
      </trkpt>
      <trkpt lat="47.1673" lon="-1.62729">
        <ele>69</ele>
        <time>2021-06-02T14:49:19.000Z</time>
      </trkpt>
      <trkpt lat="47.16738" lon="-1.62742">
        <ele>69</ele>
        <time>2021-06-02T14:49:21.000Z</time>
      </trkpt>
      <trkpt lat="47.16748" lon="-1.62756">
        <ele>68</ele>
        <time>2021-06-02T14:49:23.000Z</time>
      </trkpt>
      <trkpt lat="47.16758" lon="-1.62769">
        <ele>67</ele>
        <time>2021-06-02T14:49:25.000Z</time>
      </trkpt>
      <trkpt lat="47.16769" lon="-1.62779">
        <ele>66</ele>
        <time>2021-06-02T14:49:27.000Z</time>
      </trkpt>
      <trkpt lat="47.1678" lon="-1.62789">
        <ele>64</ele>
        <time>2021-06-02T14:49:29.000Z</time>
      </trkpt>
      <trkpt lat="47.16798" lon="-1.62802">
        <ele>65</ele>
        <time>2021-06-02T14:49:32.000Z</time>
      </trkpt>
      <trkpt lat="47.16807" lon="-1.6281">
        <ele>67</ele>
        <time>2021-06-02T14:49:34.000Z</time>
      </trkpt>
      <trkpt lat="47.16818" lon="-1.62821">
        <ele>68</ele>
        <time>2021-06-02T14:49:36.000Z</time>
      </trkpt>
      <trkpt lat="47.16829" lon="-1.6283">
        <ele>67</ele>
        <time>2021-06-02T14:49:38.000Z</time>
      </trkpt>
      <trkpt lat="47.1684" lon="-1.6284">
        <ele>67</ele>
        <time>2021-06-02T14:49:40.000Z</time>
      </trkpt>
      <trkpt lat="47.1685" lon="-1.62852">
        <ele>67</ele>
        <time>2021-06-02T14:49:42.000Z</time>
      </trkpt>
      <trkpt lat="47.16861" lon="-1.62862">
        <ele>68</ele>
        <time>2021-06-02T14:49:44.000Z</time>
      </trkpt>
      <trkpt lat="47.1687" lon="-1.62873">
        <ele>69</ele>
        <time>2021-06-02T14:49:46.000Z</time>
      </trkpt>
      <trkpt lat="47.16879" lon="-1.62885">
        <ele>70</ele>
        <time>2021-06-02T14:49:48.000Z</time>
      </trkpt>
      <trkpt lat="47.16886" lon="-1.62901">
        <ele>71</ele>
        <time>2021-06-02T14:49:50.000Z</time>
      </trkpt>
      <trkpt lat="47.16891" lon="-1.62918">
        <ele>71</ele>
        <time>2021-06-02T14:49:52.000Z</time>
      </trkpt>
      <trkpt lat="47.16893" lon="-1.62936">
        <ele>72</ele>
        <time>2021-06-02T14:49:54.000Z</time>
      </trkpt>
      <trkpt lat="47.16895" lon="-1.62954">
        <ele>72</ele>
        <time>2021-06-02T14:49:56.000Z</time>
      </trkpt>
      <trkpt lat="47.16894" lon="-1.62973">
        <ele>72</ele>
        <time>2021-06-02T14:49:58.000Z</time>
      </trkpt>
      <trkpt lat="47.16892" lon="-1.62989">
        <ele>74</ele>
        <time>2021-06-02T14:50:00.000Z</time>
      </trkpt>
      <trkpt lat="47.1689" lon="-1.63007">
        <ele>74</ele>
        <time>2021-06-02T14:50:02.000Z</time>
      </trkpt>
      <trkpt lat="47.16889" lon="-1.63025">
        <ele>74</ele>
        <time>2021-06-02T14:50:04.000Z</time>
      </trkpt>
      <trkpt lat="47.16889" lon="-1.63043">
        <ele>74</ele>
        <time>2021-06-02T14:50:06.000Z</time>
      </trkpt>
      <trkpt lat="47.1689" lon="-1.6306">
        <ele>74</ele>
        <time>2021-06-02T14:50:08.000Z</time>
      </trkpt>
      <trkpt lat="47.16892" lon="-1.63077">
        <ele>75</ele>
        <time>2021-06-02T14:50:10.000Z</time>
      </trkpt>
      <trkpt lat="47.16894" lon="-1.63095">
        <ele>75</ele>
        <time>2021-06-02T14:50:12.000Z</time>
      </trkpt>
      <trkpt lat="47.16899" lon="-1.63111">
        <ele>74</ele>
        <time>2021-06-02T14:50:14.000Z</time>
      </trkpt>
      <trkpt lat="47.16905" lon="-1.63128">
        <ele>74</ele>
        <time>2021-06-02T14:50:16.000Z</time>
      </trkpt>
      <trkpt lat="47.16909" lon="-1.63144">
        <ele>74</ele>
        <time>2021-06-02T14:50:18.000Z</time>
      </trkpt>
      <trkpt lat="47.16914" lon="-1.63159">
        <ele>74</ele>
        <time>2021-06-02T14:50:20.000Z</time>
      </trkpt>
      <trkpt lat="47.1692" lon="-1.63173">
        <ele>74</ele>
        <time>2021-06-02T14:50:22.000Z</time>
      </trkpt>
      <trkpt lat="47.16929" lon="-1.63194">
        <ele>74</ele>
        <time>2021-06-02T14:50:25.000Z</time>
      </trkpt>
      <trkpt lat="47.16936" lon="-1.63208">
        <ele>72</ele>
        <time>2021-06-02T14:50:27.000Z</time>
      </trkpt>
      <trkpt lat="47.16945" lon="-1.63219">
        <ele>72</ele>
        <time>2021-06-02T14:50:29.000Z</time>
      </trkpt>
      <trkpt lat="47.16952" lon="-1.6323">
        <ele>72</ele>
        <time>2021-06-02T14:50:31.000Z</time>
      </trkpt>
      <trkpt lat="47.16962" lon="-1.63242">
        <ele>71</ele>
        <time>2021-06-02T14:50:33.000Z</time>
      </trkpt>
      <trkpt lat="47.16971" lon="-1.63249">
        <ele>70</ele>
        <time>2021-06-02T14:50:35.000Z</time>
      </trkpt>
      <trkpt lat="47.16967" lon="-1.6327">
        <ele>73</ele>
        <time>2021-06-02T14:50:41.000Z</time>
      </trkpt>
      <trkpt lat="47.1696" lon="-1.63282">
        <ele>72</ele>
        <time>2021-06-02T14:50:43.000Z</time>
      </trkpt>
      <trkpt lat="47.16953" lon="-1.63294">
        <ele>72</ele>
        <time>2021-06-02T14:50:45.000Z</time>
      </trkpt>
      <trkpt lat="47.16945" lon="-1.63306">
        <ele>72</ele>
        <time>2021-06-02T14:50:47.000Z</time>
      </trkpt>
      <trkpt lat="47.16929" lon="-1.63328">
        <ele>73</ele>
        <time>2021-06-02T14:50:50.000Z</time>
      </trkpt>
      <trkpt lat="47.16922" lon="-1.63341">
        <ele>74</ele>
        <time>2021-06-02T14:50:52.000Z</time>
      </trkpt>
      <trkpt lat="47.16913" lon="-1.63352">
        <ele>76</ele>
        <time>2021-06-02T14:50:54.000Z</time>
      </trkpt>
      <trkpt lat="47.16904" lon="-1.63365">
        <ele>76</ele>
        <time>2021-06-02T14:50:56.000Z</time>
      </trkpt>
      <trkpt lat="47.16894" lon="-1.63378">
        <ele>77</ele>
        <time>2021-06-02T14:50:58.000Z</time>
      </trkpt>
      <trkpt lat="47.16881" lon="-1.63399">
        <ele>78</ele>
        <time>2021-06-02T14:51:01.000Z</time>
      </trkpt>
      <trkpt lat="47.16872" lon="-1.63413">
        <ele>78</ele>
        <time>2021-06-02T14:51:03.000Z</time>
      </trkpt>
      <trkpt lat="47.16864" lon="-1.63427">
        <ele>79</ele>
        <time>2021-06-02T14:51:05.000Z</time>
      </trkpt>
      <trkpt lat="47.16857" lon="-1.6344">
        <ele>79</ele>
        <time>2021-06-02T14:51:07.000Z</time>
      </trkpt>
      <trkpt lat="47.16849" lon="-1.63454">
        <ele>78</ele>
        <time>2021-06-02T14:51:09.000Z</time>
      </trkpt>
      <trkpt lat="47.1684" lon="-1.63468">
        <ele>78</ele>
        <time>2021-06-02T14:51:11.000Z</time>
      </trkpt>
      <trkpt lat="47.16832" lon="-1.63481">
        <ele>79</ele>
        <time>2021-06-02T14:51:13.000Z</time>
      </trkpt>
      <trkpt lat="47.16825" lon="-1.63492">
        <ele>79</ele>
        <time>2021-06-02T14:51:15.000Z</time>
      </trkpt>
      <trkpt lat="47.16818" lon="-1.63502">
        <ele>79</ele>
        <time>2021-06-02T14:51:17.000Z</time>
      </trkpt>
      <trkpt lat="47.16811" lon="-1.63514">
        <ele>79</ele>
        <time>2021-06-02T14:51:20.000Z</time>
      </trkpt>
      <trkpt lat="47.16804" lon="-1.6353">
        <ele>79</ele>
        <time>2021-06-02T14:51:22.000Z</time>
      </trkpt>
      <trkpt lat="47.16794" lon="-1.63541">
        <ele>79</ele>
        <time>2021-06-02T14:51:25.000Z</time>
      </trkpt>
      <trkpt lat="47.16786" lon="-1.63562">
        <ele>78</ele>
        <time>2021-06-02T14:51:29.000Z</time>
      </trkpt>
      <trkpt lat="47.16775" lon="-1.63578">
        <ele>78</ele>
        <time>2021-06-02T14:51:31.000Z</time>
      </trkpt>
      <trkpt lat="47.16767" lon="-1.63591">
        <ele>78</ele>
        <time>2021-06-02T14:51:33.000Z</time>
      </trkpt>
      <trkpt lat="47.16759" lon="-1.63605">
        <ele>78</ele>
        <time>2021-06-02T14:51:35.000Z</time>
      </trkpt>
      <trkpt lat="47.16752" lon="-1.63619">
        <ele>79</ele>
        <time>2021-06-02T14:51:37.000Z</time>
      </trkpt>
      <trkpt lat="47.16743" lon="-1.6364">
        <ele>78</ele>
        <time>2021-06-02T14:51:40.000Z</time>
      </trkpt>
      <trkpt lat="47.16753" lon="-1.63652">
        <ele>78</ele>
        <time>2021-06-02T14:51:43.000Z</time>
      </trkpt>
      <trkpt lat="47.16764" lon="-1.63653">
        <ele>78</ele>
        <time>2021-06-02T14:51:44.000Z</time>
      </trkpt>
      <trkpt lat="47.16778" lon="-1.63656">
        <ele>77</ele>
        <time>2021-06-02T14:51:46.000Z</time>
      </trkpt>
      <trkpt lat="47.16791" lon="-1.63661">
        <ele>76</ele>
        <time>2021-06-02T14:51:48.000Z</time>
      </trkpt>
      <trkpt lat="47.16801" lon="-1.63665">
        <ele>75</ele>
        <time>2021-06-02T14:51:50.000Z</time>
      </trkpt>
      <trkpt lat="47.16811" lon="-1.63669">
        <ele>73</ele>
        <time>2021-06-02T14:51:52.000Z</time>
      </trkpt>
      <trkpt lat="47.16824" lon="-1.63673">
        <ele>74</ele>
        <time>2021-06-02T14:51:54.000Z</time>
      </trkpt>
      <trkpt lat="47.16837" lon="-1.63676">
        <ele>75</ele>
        <time>2021-06-02T14:51:56.000Z</time>
      </trkpt>
      <trkpt lat="47.16849" lon="-1.63679">
        <ele>74</ele>
        <time>2021-06-02T14:51:58.000Z</time>
      </trkpt>
      <trkpt lat="47.1686" lon="-1.63683">
        <ele>75</ele>
        <time>2021-06-02T14:52:00.000Z</time>
      </trkpt>
      <trkpt lat="47.16872" lon="-1.63689">
        <ele>74</ele>
        <time>2021-06-02T14:52:02.000Z</time>
      </trkpt>
      <trkpt lat="47.16884" lon="-1.63694">
        <ele>74</ele>
        <time>2021-06-02T14:52:04.000Z</time>
      </trkpt>
      <trkpt lat="47.16899" lon="-1.63703">
        <ele>73</ele>
        <time>2021-06-02T14:52:07.000Z</time>
      </trkpt>
      <trkpt lat="47.16919" lon="-1.63711">
        <ele>76</ele>
        <time>2021-06-02T14:52:10.000Z</time>
      </trkpt>
      <trkpt lat="47.16932" lon="-1.63716">
        <ele>77</ele>
        <time>2021-06-02T14:52:12.000Z</time>
      </trkpt>
      <trkpt lat="47.16945" lon="-1.6372">
        <ele>78</ele>
        <time>2021-06-02T14:52:14.000Z</time>
      </trkpt>
      <trkpt lat="47.16959" lon="-1.63723">
        <ele>77</ele>
        <time>2021-06-02T14:52:16.000Z</time>
      </trkpt>
      <trkpt lat="47.16972" lon="-1.63727">
        <ele>76</ele>
        <time>2021-06-02T14:52:18.000Z</time>
      </trkpt>
      <trkpt lat="47.16985" lon="-1.63732">
        <ele>77</ele>
        <time>2021-06-02T14:52:20.000Z</time>
      </trkpt>
      <trkpt lat="47.16997" lon="-1.63736">
        <ele>76</ele>
        <time>2021-06-02T14:52:22.000Z</time>
      </trkpt>
      <trkpt lat="47.1701" lon="-1.63741">
        <ele>76</ele>
        <time>2021-06-02T14:52:24.000Z</time>
      </trkpt>
      <trkpt lat="47.17022" lon="-1.63746">
        <ele>77</ele>
        <time>2021-06-02T14:52:26.000Z</time>
      </trkpt>
      <trkpt lat="47.17035" lon="-1.6375">
        <ele>77</ele>
        <time>2021-06-02T14:52:28.000Z</time>
      </trkpt>
      <trkpt lat="47.17047" lon="-1.63756">
        <ele>76</ele>
        <time>2021-06-02T14:52:30.000Z</time>
      </trkpt>
      <trkpt lat="47.17058" lon="-1.63766">
        <ele>76</ele>
        <time>2021-06-02T14:52:32.000Z</time>
      </trkpt>
      <trkpt lat="47.17066" lon="-1.63783">
        <ele>75</ele>
        <time>2021-06-02T14:52:34.000Z</time>
      </trkpt>
      <trkpt lat="47.17072" lon="-1.638">
        <ele>73</ele>
        <time>2021-06-02T14:52:36.000Z</time>
      </trkpt>
      <trkpt lat="47.17076" lon="-1.63817">
        <ele>74</ele>
        <time>2021-06-02T14:52:38.000Z</time>
      </trkpt>
      <trkpt lat="47.17082" lon="-1.63832">
        <ele>77</ele>
        <time>2021-06-02T14:52:40.000Z</time>
      </trkpt>
      <trkpt lat="47.17088" lon="-1.6385">
        <ele>77</ele>
        <time>2021-06-02T14:52:42.000Z</time>
      </trkpt>
      <trkpt lat="47.17097" lon="-1.63875">
        <ele>77</ele>
        <time>2021-06-02T14:52:45.000Z</time>
      </trkpt>
      <trkpt lat="47.17104" lon="-1.63892">
        <ele>76</ele>
        <time>2021-06-02T14:52:47.000Z</time>
      </trkpt>
      <trkpt lat="47.1711" lon="-1.63908">
        <ele>76</ele>
        <time>2021-06-02T14:52:49.000Z</time>
      </trkpt>
      <trkpt lat="47.17116" lon="-1.63924">
        <ele>77</ele>
        <time>2021-06-02T14:52:51.000Z</time>
      </trkpt>
      <trkpt lat="47.17126" lon="-1.63946">
        <ele>75</ele>
        <time>2021-06-02T14:52:54.000Z</time>
      </trkpt>
      <trkpt lat="47.17135" lon="-1.6395">
        <ele>76</ele>
        <time>2021-06-02T14:52:56.000Z</time>
      </trkpt>
      <trkpt lat="47.1714" lon="-1.63968">
        <ele>77</ele>
        <time>2021-06-02T14:52:59.000Z</time>
      </trkpt>
      <trkpt lat="47.1714" lon="-1.63986">
        <ele>77</ele>
        <time>2021-06-02T14:53:01.000Z</time>
      </trkpt>
      <trkpt lat="47.17137" lon="-1.64014">
        <ele>77</ele>
        <time>2021-06-02T14:53:04.000Z</time>
      </trkpt>
      <trkpt lat="47.17136" lon="-1.64032">
        <ele>77</ele>
        <time>2021-06-02T14:53:06.000Z</time>
      </trkpt>
      <trkpt lat="47.17134" lon="-1.6405">
        <ele>77</ele>
        <time>2021-06-02T14:53:08.000Z</time>
      </trkpt>
      <trkpt lat="47.1713" lon="-1.64078">
        <ele>77</ele>
        <time>2021-06-02T14:53:11.000Z</time>
      </trkpt>
      <trkpt lat="47.17128" lon="-1.64097">
        <ele>76</ele>
        <time>2021-06-02T14:53:13.000Z</time>
      </trkpt>
      <trkpt lat="47.17127" lon="-1.64116">
        <ele>76</ele>
        <time>2021-06-02T14:53:15.000Z</time>
      </trkpt>
      <trkpt lat="47.17125" lon="-1.64134">
        <ele>75</ele>
        <time>2021-06-02T14:53:17.000Z</time>
      </trkpt>
      <trkpt lat="47.17126" lon="-1.64151">
        <ele>74</ele>
        <time>2021-06-02T14:53:19.000Z</time>
      </trkpt>
      <trkpt lat="47.17123" lon="-1.64172">
        <ele>75</ele>
        <time>2021-06-02T14:53:21.000Z</time>
      </trkpt>
      <trkpt lat="47.17121" lon="-1.64191">
        <ele>75</ele>
        <time>2021-06-02T14:53:23.000Z</time>
      </trkpt>
      <trkpt lat="47.17116" lon="-1.64218">
        <ele>75</ele>
        <time>2021-06-02T14:53:26.000Z</time>
      </trkpt>
      <trkpt lat="47.17111" lon="-1.64235">
        <ele>76</ele>
        <time>2021-06-02T14:53:28.000Z</time>
      </trkpt>
      <trkpt lat="47.17109" lon="-1.64255">
        <ele>77</ele>
        <time>2021-06-02T14:53:30.000Z</time>
      </trkpt>
      <trkpt lat="47.17106" lon="-1.64274">
        <ele>75</ele>
        <time>2021-06-02T14:53:32.000Z</time>
      </trkpt>
      <trkpt lat="47.17104" lon="-1.64292">
        <ele>77</ele>
        <time>2021-06-02T14:53:34.000Z</time>
      </trkpt>
      <trkpt lat="47.17103" lon="-1.64313">
        <ele>78</ele>
        <time>2021-06-02T14:53:36.000Z</time>
      </trkpt>
      <trkpt lat="47.17102" lon="-1.64332">
        <ele>77</ele>
        <time>2021-06-02T14:53:38.000Z</time>
      </trkpt>
      <trkpt lat="47.17101" lon="-1.64351">
        <ele>77</ele>
        <time>2021-06-02T14:53:40.000Z</time>
      </trkpt>
      <trkpt lat="47.171" lon="-1.6437">
        <ele>77</ele>
        <time>2021-06-02T14:53:42.000Z</time>
      </trkpt>
      <trkpt lat="47.17097" lon="-1.64389">
        <ele>78</ele>
        <time>2021-06-02T14:53:44.000Z</time>
      </trkpt>
      <trkpt lat="47.17096" lon="-1.64408">
        <ele>78</ele>
        <time>2021-06-02T14:53:46.000Z</time>
      </trkpt>
      <trkpt lat="47.17094" lon="-1.64437">
        <ele>77</ele>
        <time>2021-06-02T14:53:49.000Z</time>
      </trkpt>
      <trkpt lat="47.17094" lon="-1.64457">
        <ele>74</ele>
        <time>2021-06-02T14:53:51.000Z</time>
      </trkpt>
      <trkpt lat="47.17092" lon="-1.64475">
        <ele>75</ele>
        <time>2021-06-02T14:53:53.000Z</time>
      </trkpt>
      <trkpt lat="47.1709" lon="-1.64504">
        <ele>75</ele>
        <time>2021-06-02T14:53:56.000Z</time>
      </trkpt>
      <trkpt lat="47.17091" lon="-1.64526">
        <ele>75</ele>
        <time>2021-06-02T14:53:58.000Z</time>
      </trkpt>
      <trkpt lat="47.1709" lon="-1.64546">
        <ele>77</ele>
        <time>2021-06-02T14:54:00.000Z</time>
      </trkpt>
      <trkpt lat="47.17088" lon="-1.64565">
        <ele>78</ele>
        <time>2021-06-02T14:54:02.000Z</time>
      </trkpt>
      <trkpt lat="47.17089" lon="-1.64584">
        <ele>78</ele>
        <time>2021-06-02T14:54:04.000Z</time>
      </trkpt>
      <trkpt lat="47.1709" lon="-1.64602">
        <ele>77</ele>
        <time>2021-06-02T14:54:06.000Z</time>
      </trkpt>
      <trkpt lat="47.17089" lon="-1.64622">
        <ele>77</ele>
        <time>2021-06-02T14:54:08.000Z</time>
      </trkpt>
      <trkpt lat="47.17088" lon="-1.6464">
        <ele>77</ele>
        <time>2021-06-02T14:54:10.000Z</time>
      </trkpt>
      <trkpt lat="47.17089" lon="-1.64661">
        <ele>77</ele>
        <time>2021-06-02T14:54:12.000Z</time>
      </trkpt>
      <trkpt lat="47.17089" lon="-1.64681">
        <ele>78</ele>
        <time>2021-06-02T14:54:14.000Z</time>
      </trkpt>
      <trkpt lat="47.1709" lon="-1.647">
        <ele>77</ele>
        <time>2021-06-02T14:54:16.000Z</time>
      </trkpt>
      <trkpt lat="47.1709" lon="-1.64738">
        <ele>75</ele>
        <time>2021-06-02T14:54:20.000Z</time>
      </trkpt>
      <trkpt lat="47.1709" lon="-1.64756">
        <ele>75</ele>
        <time>2021-06-02T14:54:22.000Z</time>
      </trkpt>
      <trkpt lat="47.17091" lon="-1.64773">
        <ele>76</ele>
        <time>2021-06-02T14:54:24.000Z</time>
      </trkpt>
      <trkpt lat="47.17092" lon="-1.64791">
        <ele>76</ele>
        <time>2021-06-02T14:54:26.000Z</time>
      </trkpt>
      <trkpt lat="47.17093" lon="-1.6481">
        <ele>77</ele>
        <time>2021-06-02T14:54:28.000Z</time>
      </trkpt>
      <trkpt lat="47.17094" lon="-1.64827">
        <ele>75</ele>
        <time>2021-06-02T14:54:30.000Z</time>
      </trkpt>
      <trkpt lat="47.17097" lon="-1.64854">
        <ele>75</ele>
        <time>2021-06-02T14:54:33.000Z</time>
      </trkpt>
      <trkpt lat="47.17099" lon="-1.64876">
        <ele>76</ele>
        <time>2021-06-02T14:54:35.000Z</time>
      </trkpt>
      <trkpt lat="47.17102" lon="-1.64896">
        <ele>75</ele>
        <time>2021-06-02T14:54:37.000Z</time>
      </trkpt>
      <trkpt lat="47.17104" lon="-1.64914">
        <ele>74</ele>
        <time>2021-06-02T14:54:39.000Z</time>
      </trkpt>
      <trkpt lat="47.17105" lon="-1.64934">
        <ele>75</ele>
        <time>2021-06-02T14:54:41.000Z</time>
      </trkpt>
      <trkpt lat="47.17106" lon="-1.64954">
        <ele>76</ele>
        <time>2021-06-02T14:54:43.000Z</time>
      </trkpt>
      <trkpt lat="47.17107" lon="-1.64975">
        <ele>75</ele>
        <time>2021-06-02T14:54:45.000Z</time>
      </trkpt>
      <trkpt lat="47.17108" lon="-1.64992">
        <ele>75</ele>
        <time>2021-06-02T14:54:47.000Z</time>
      </trkpt>
      <trkpt lat="47.17109" lon="-1.6501">
        <ele>75</ele>
        <time>2021-06-02T14:54:49.000Z</time>
      </trkpt>
      <trkpt lat="47.17111" lon="-1.65028">
        <ele>75</ele>
        <time>2021-06-02T14:54:51.000Z</time>
      </trkpt>
      <trkpt lat="47.17112" lon="-1.65046">
        <ele>75</ele>
        <time>2021-06-02T14:54:53.000Z</time>
      </trkpt>
      <trkpt lat="47.17113" lon="-1.65065">
        <ele>75</ele>
        <time>2021-06-02T14:54:55.000Z</time>
      </trkpt>
      <trkpt lat="47.17114" lon="-1.65083">
        <ele>74</ele>
        <time>2021-06-02T14:54:57.000Z</time>
      </trkpt>
      <trkpt lat="47.17112" lon="-1.65101">
        <ele>74</ele>
        <time>2021-06-02T14:54:59.000Z</time>
      </trkpt>
      <trkpt lat="47.17116" lon="-1.6512">
        <ele>75</ele>
        <time>2021-06-02T14:55:01.000Z</time>
      </trkpt>
      <trkpt lat="47.17118" lon="-1.65137">
        <ele>76</ele>
        <time>2021-06-02T14:55:03.000Z</time>
      </trkpt>
      <trkpt lat="47.17119" lon="-1.65155">
        <ele>77</ele>
        <time>2021-06-02T14:55:05.000Z</time>
      </trkpt>
      <trkpt lat="47.1712" lon="-1.65173">
        <ele>77</ele>
        <time>2021-06-02T14:55:07.000Z</time>
      </trkpt>
      <trkpt lat="47.17121" lon="-1.65188">
        <ele>74</ele>
        <time>2021-06-02T14:55:09.000Z</time>
      </trkpt>
      <trkpt lat="47.17123" lon="-1.65208">
        <ele>75</ele>
        <time>2021-06-02T14:55:11.000Z</time>
      </trkpt>
      <trkpt lat="47.17125" lon="-1.65226">
        <ele>75</ele>
        <time>2021-06-02T14:55:13.000Z</time>
      </trkpt>
      <trkpt lat="47.17125" lon="-1.65241">
        <ele>77</ele>
        <time>2021-06-02T14:55:15.000Z</time>
      </trkpt>
      <trkpt lat="47.17126" lon="-1.65259">
        <ele>78</ele>
        <time>2021-06-02T14:55:18.000Z</time>
      </trkpt>
      <trkpt lat="47.17131" lon="-1.65272">
        <ele>78</ele>
        <time>2021-06-02T14:55:20.000Z</time>
      </trkpt>
      <trkpt lat="47.17136" lon="-1.65287">
        <ele>78</ele>
        <time>2021-06-02T14:55:22.000Z</time>
      </trkpt>
      <trkpt lat="47.17139" lon="-1.65307">
        <ele>78</ele>
        <time>2021-06-02T14:55:24.000Z</time>
      </trkpt>
      <trkpt lat="47.17137" lon="-1.65332">
        <ele>76</ele>
        <time>2021-06-02T14:55:27.000Z</time>
      </trkpt>
      <trkpt lat="47.17126" lon="-1.65344">
        <ele>78</ele>
        <time>2021-06-02T14:55:29.000Z</time>
      </trkpt>
      <trkpt lat="47.17119" lon="-1.6536">
        <ele>79</ele>
        <time>2021-06-02T14:55:31.000Z</time>
      </trkpt>
      <trkpt lat="47.17121" lon="-1.65376">
        <ele>80</ele>
        <time>2021-06-02T14:55:33.000Z</time>
      </trkpt>
      <trkpt lat="47.17123" lon="-1.65402">
        <ele>80</ele>
        <time>2021-06-02T14:55:36.000Z</time>
      </trkpt>
      <trkpt lat="47.17122" lon="-1.65417">
        <ele>81</ele>
        <time>2021-06-02T14:55:38.000Z</time>
      </trkpt>
      <trkpt lat="47.17121" lon="-1.65433">
        <ele>82</ele>
        <time>2021-06-02T14:55:40.000Z</time>
      </trkpt>
      <trkpt lat="47.17121" lon="-1.65463">
        <ele>81</ele>
        <time>2021-06-02T14:55:44.000Z</time>
      </trkpt>
      <trkpt lat="47.17119" lon="-1.6548">
        <ele>82</ele>
        <time>2021-06-02T14:55:46.000Z</time>
      </trkpt>
      <trkpt lat="47.17113" lon="-1.655">
        <ele>83</ele>
        <time>2021-06-02T14:55:49.000Z</time>
      </trkpt>
      <trkpt lat="47.17109" lon="-1.65516">
        <ele>85</ele>
        <time>2021-06-02T14:55:51.000Z</time>
      </trkpt>
      <trkpt lat="47.17105" lon="-1.65529">
        <ele>85</ele>
        <time>2021-06-02T14:55:53.000Z</time>
      </trkpt>
      <trkpt lat="47.17099" lon="-1.65542">
        <ele>86</ele>
        <time>2021-06-02T14:55:55.000Z</time>
      </trkpt>
      <trkpt lat="47.17089" lon="-1.65559">
        <ele>85</ele>
        <time>2021-06-02T14:55:58.000Z</time>
      </trkpt>
      <trkpt lat="47.17081" lon="-1.65571">
        <ele>85</ele>
        <time>2021-06-02T14:56:00.000Z</time>
      </trkpt>
      <trkpt lat="47.17074" lon="-1.65583">
        <ele>85</ele>
        <time>2021-06-02T14:56:02.000Z</time>
      </trkpt>
      <trkpt lat="47.17067" lon="-1.65596">
        <ele>86</ele>
        <time>2021-06-02T14:56:04.000Z</time>
      </trkpt>
      <trkpt lat="47.1706" lon="-1.65609">
        <ele>86</ele>
        <time>2021-06-02T14:56:06.000Z</time>
      </trkpt>
      <trkpt lat="47.17053" lon="-1.65622">
        <ele>86</ele>
        <time>2021-06-02T14:56:08.000Z</time>
      </trkpt>
      <trkpt lat="47.17045" lon="-1.65637">
        <ele>85</ele>
        <time>2021-06-02T14:56:10.000Z</time>
      </trkpt>
      <trkpt lat="47.17037" lon="-1.65652">
        <ele>83</ele>
        <time>2021-06-02T14:56:12.000Z</time>
      </trkpt>
      <trkpt lat="47.1703" lon="-1.65667">
        <ele>84</ele>
        <time>2021-06-02T14:56:14.000Z</time>
      </trkpt>
      <trkpt lat="47.17022" lon="-1.65684">
        <ele>84</ele>
        <time>2021-06-02T14:56:16.000Z</time>
      </trkpt>
      <trkpt lat="47.17015" lon="-1.65699">
        <ele>84</ele>
        <time>2021-06-02T14:56:18.000Z</time>
      </trkpt>
      <trkpt lat="47.17009" lon="-1.65716">
        <ele>84</ele>
        <time>2021-06-02T14:56:20.000Z</time>
      </trkpt>
      <trkpt lat="47.17003" lon="-1.65731">
        <ele>84</ele>
        <time>2021-06-02T14:56:22.000Z</time>
      </trkpt>
      <trkpt lat="47.17003" lon="-1.65749">
        <ele>84</ele>
        <time>2021-06-02T14:56:24.000Z</time>
      </trkpt>
      <trkpt lat="47.16992" lon="-1.65772">
        <ele>83</ele>
        <time>2021-06-02T14:56:27.000Z</time>
      </trkpt>
      <trkpt lat="47.16982" lon="-1.65778">
        <ele>82</ele>
        <time>2021-06-02T14:56:29.000Z</time>
      </trkpt>
      <trkpt lat="47.16969" lon="-1.65786">
        <ele>80</ele>
        <time>2021-06-02T14:56:31.000Z</time>
      </trkpt>
      <trkpt lat="47.16959" lon="-1.65799">
        <ele>82</ele>
        <time>2021-06-02T14:56:33.000Z</time>
      </trkpt>
      <trkpt lat="47.1695" lon="-1.65814">
        <ele>82</ele>
        <time>2021-06-02T14:56:35.000Z</time>
      </trkpt>
      <trkpt lat="47.16942" lon="-1.65831">
        <ele>80</ele>
        <time>2021-06-02T14:56:37.000Z</time>
      </trkpt>
      <trkpt lat="47.16935" lon="-1.65848">
        <ele>79</ele>
        <time>2021-06-02T14:56:39.000Z</time>
      </trkpt>
      <trkpt lat="47.16927" lon="-1.65863">
        <ele>80</ele>
        <time>2021-06-02T14:56:41.000Z</time>
      </trkpt>
      <trkpt lat="47.16919" lon="-1.65878">
        <ele>80</ele>
        <time>2021-06-02T14:56:43.000Z</time>
      </trkpt>
      <trkpt lat="47.16911" lon="-1.65894">
        <ele>80</ele>
        <time>2021-06-02T14:56:45.000Z</time>
      </trkpt>
      <trkpt lat="47.16903" lon="-1.65909">
        <ele>80</ele>
        <time>2021-06-02T14:56:47.000Z</time>
      </trkpt>
      <trkpt lat="47.16896" lon="-1.65926">
        <ele>79</ele>
        <time>2021-06-02T14:56:49.000Z</time>
      </trkpt>
      <trkpt lat="47.16889" lon="-1.65941">
        <ele>79</ele>
        <time>2021-06-02T14:56:51.000Z</time>
      </trkpt>
      <trkpt lat="47.16881" lon="-1.65958">
        <ele>79</ele>
        <time>2021-06-02T14:56:53.000Z</time>
      </trkpt>
      <trkpt lat="47.16872" lon="-1.65983">
        <ele>79</ele>
        <time>2021-06-02T14:56:56.000Z</time>
      </trkpt>
      <trkpt lat="47.16867" lon="-1.66">
        <ele>78</ele>
        <time>2021-06-02T14:56:58.000Z</time>
      </trkpt>
      <trkpt lat="47.16863" lon="-1.66017">
        <ele>77</ele>
        <time>2021-06-02T14:57:00.000Z</time>
      </trkpt>
      <trkpt lat="47.1686" lon="-1.66036">
        <ele>77</ele>
        <time>2021-06-02T14:57:02.000Z</time>
      </trkpt>
      <trkpt lat="47.16855" lon="-1.66055">
        <ele>77</ele>
        <time>2021-06-02T14:57:04.000Z</time>
      </trkpt>
      <trkpt lat="47.16851" lon="-1.66072">
        <ele>77</ele>
        <time>2021-06-02T14:57:06.000Z</time>
      </trkpt>
      <trkpt lat="47.16849" lon="-1.66092">
        <ele>78</ele>
        <time>2021-06-02T14:57:08.000Z</time>
      </trkpt>
      <trkpt lat="47.16847" lon="-1.6611">
        <ele>79</ele>
        <time>2021-06-02T14:57:10.000Z</time>
      </trkpt>
      <trkpt lat="47.16845" lon="-1.66137">
        <ele>79</ele>
        <time>2021-06-02T14:57:13.000Z</time>
      </trkpt>
      <trkpt lat="47.16846" lon="-1.66156">
        <ele>79</ele>
        <time>2021-06-02T14:57:15.000Z</time>
      </trkpt>
      <trkpt lat="47.16849" lon="-1.66175">
        <ele>77</ele>
        <time>2021-06-02T14:57:17.000Z</time>
      </trkpt>
      <trkpt lat="47.16852" lon="-1.66192">
        <ele>77</ele>
        <time>2021-06-02T14:57:19.000Z</time>
      </trkpt>
      <trkpt lat="47.16853" lon="-1.66212">
        <ele>76</ele>
        <time>2021-06-02T14:57:21.000Z</time>
      </trkpt>
      <trkpt lat="47.16853" lon="-1.66232">
        <ele>77</ele>
        <time>2021-06-02T14:57:23.000Z</time>
      </trkpt>
      <trkpt lat="47.16854" lon="-1.66251">
        <ele>78</ele>
        <time>2021-06-02T14:57:25.000Z</time>
      </trkpt>
      <trkpt lat="47.16857" lon="-1.66269">
        <ele>78</ele>
        <time>2021-06-02T14:57:27.000Z</time>
      </trkpt>
      <trkpt lat="47.16857" lon="-1.66286">
        <ele>79</ele>
        <time>2021-06-02T14:57:29.000Z</time>
      </trkpt>
      <trkpt lat="47.16856" lon="-1.66304">
        <ele>79</ele>
        <time>2021-06-02T14:57:31.000Z</time>
      </trkpt>
      <trkpt lat="47.16857" lon="-1.66322">
        <ele>79</ele>
        <time>2021-06-02T14:57:33.000Z</time>
      </trkpt>
      <trkpt lat="47.16859" lon="-1.66338">
        <ele>79</ele>
        <time>2021-06-02T14:57:35.000Z</time>
      </trkpt>
      <trkpt lat="47.16862" lon="-1.66367">
        <ele>79</ele>
        <time>2021-06-02T14:57:38.000Z</time>
      </trkpt>
      <trkpt lat="47.16864" lon="-1.66386">
        <ele>79</ele>
        <time>2021-06-02T14:57:40.000Z</time>
      </trkpt>
      <trkpt lat="47.16867" lon="-1.66404">
        <ele>79</ele>
        <time>2021-06-02T14:57:42.000Z</time>
      </trkpt>
      <trkpt lat="47.16868" lon="-1.66423">
        <ele>78</ele>
        <time>2021-06-02T14:57:44.000Z</time>
      </trkpt>
      <trkpt lat="47.16871" lon="-1.6646">
        <ele>78</ele>
        <time>2021-06-02T14:57:48.000Z</time>
      </trkpt>
      <trkpt lat="47.16874" lon="-1.66478">
        <ele>78</ele>
        <time>2021-06-02T14:57:50.000Z</time>
      </trkpt>
      <trkpt lat="47.16876" lon="-1.66494">
        <ele>77</ele>
        <time>2021-06-02T14:57:52.000Z</time>
      </trkpt>
      <trkpt lat="47.16877" lon="-1.66514">
        <ele>78</ele>
        <time>2021-06-02T14:57:54.000Z</time>
      </trkpt>
      <trkpt lat="47.16882" lon="-1.66532">
        <ele>77</ele>
        <time>2021-06-02T14:57:56.000Z</time>
      </trkpt>
      <trkpt lat="47.16885" lon="-1.66551">
        <ele>77</ele>
        <time>2021-06-02T14:57:58.000Z</time>
      </trkpt>
      <trkpt lat="47.16886" lon="-1.66569">
        <ele>77</ele>
        <time>2021-06-02T14:58:00.000Z</time>
      </trkpt>
      <trkpt lat="47.16887" lon="-1.66586">
        <ele>78</ele>
        <time>2021-06-02T14:58:02.000Z</time>
      </trkpt>
      <trkpt lat="47.16889" lon="-1.66604">
        <ele>79</ele>
        <time>2021-06-02T14:58:04.000Z</time>
      </trkpt>
      <trkpt lat="47.16891" lon="-1.66622">
        <ele>78</ele>
        <time>2021-06-02T14:58:06.000Z</time>
      </trkpt>
      <trkpt lat="47.16892" lon="-1.66639">
        <ele>78</ele>
        <time>2021-06-02T14:58:08.000Z</time>
      </trkpt>
      <trkpt lat="47.16893" lon="-1.66657">
        <ele>78</ele>
        <time>2021-06-02T14:58:10.000Z</time>
      </trkpt>
      <trkpt lat="47.16892" lon="-1.66676">
        <ele>77</ele>
        <time>2021-06-02T14:58:12.000Z</time>
      </trkpt>
      <trkpt lat="47.16889" lon="-1.66694">
        <ele>79</ele>
        <time>2021-06-02T14:58:14.000Z</time>
      </trkpt>
      <trkpt lat="47.16886" lon="-1.66721">
        <ele>79</ele>
        <time>2021-06-02T14:58:17.000Z</time>
      </trkpt>
      <trkpt lat="47.1688" lon="-1.66736">
        <ele>79</ele>
        <time>2021-06-02T14:58:19.000Z</time>
      </trkpt>
      <trkpt lat="47.16872" lon="-1.66754">
        <ele>76</ele>
        <time>2021-06-02T14:58:21.000Z</time>
      </trkpt>
      <trkpt lat="47.16867" lon="-1.66769">
        <ele>77</ele>
        <time>2021-06-02T14:58:23.000Z</time>
      </trkpt>
      <trkpt lat="47.16858" lon="-1.66782">
        <ele>78</ele>
        <time>2021-06-02T14:58:25.000Z</time>
      </trkpt>
      <trkpt lat="47.1685" lon="-1.66795">
        <ele>78</ele>
        <time>2021-06-02T14:58:27.000Z</time>
      </trkpt>
      <trkpt lat="47.16841" lon="-1.6681">
        <ele>77</ele>
        <time>2021-06-02T14:58:29.000Z</time>
      </trkpt>
      <trkpt lat="47.16833" lon="-1.6683">
        <ele>76</ele>
        <time>2021-06-02T14:58:31.000Z</time>
      </trkpt>
      <trkpt lat="47.16824" lon="-1.66845">
        <ele>76</ele>
        <time>2021-06-02T14:58:33.000Z</time>
      </trkpt>
      <trkpt lat="47.16817" lon="-1.66859">
        <ele>77</ele>
        <time>2021-06-02T14:58:35.000Z</time>
      </trkpt>
      <trkpt lat="47.16808" lon="-1.66874">
        <ele>78</ele>
        <time>2021-06-02T14:58:37.000Z</time>
      </trkpt>
      <trkpt lat="47.16798" lon="-1.66887">
        <ele>78</ele>
        <time>2021-06-02T14:58:39.000Z</time>
      </trkpt>
      <trkpt lat="47.16789" lon="-1.66899">
        <ele>79</ele>
        <time>2021-06-02T14:58:41.000Z</time>
      </trkpt>
      <trkpt lat="47.16779" lon="-1.66908">
        <ele>80</ele>
        <time>2021-06-02T14:58:43.000Z</time>
      </trkpt>
      <trkpt lat="47.16768" lon="-1.66915">
        <ele>80</ele>
        <time>2021-06-02T14:58:45.000Z</time>
      </trkpt>
      <trkpt lat="47.16754" lon="-1.66921">
        <ele>80</ele>
        <time>2021-06-02T14:58:47.000Z</time>
      </trkpt>
      <trkpt lat="47.16742" lon="-1.66926">
        <ele>80</ele>
        <time>2021-06-02T14:58:49.000Z</time>
      </trkpt>
      <trkpt lat="47.1673" lon="-1.6693">
        <ele>80</ele>
        <time>2021-06-02T14:58:51.000Z</time>
      </trkpt>
      <trkpt lat="47.16716" lon="-1.66933">
        <ele>80</ele>
        <time>2021-06-02T14:58:53.000Z</time>
      </trkpt>
      <trkpt lat="47.16704" lon="-1.66939">
        <ele>80</ele>
        <time>2021-06-02T14:58:55.000Z</time>
      </trkpt>
      <trkpt lat="47.16693" lon="-1.66946">
        <ele>80</ele>
        <time>2021-06-02T14:58:57.000Z</time>
      </trkpt>
      <trkpt lat="47.16682" lon="-1.66954">
        <ele>77</ele>
        <time>2021-06-02T14:58:59.000Z</time>
      </trkpt>
      <trkpt lat="47.16672" lon="-1.66966">
        <ele>78</ele>
        <time>2021-06-02T14:59:01.000Z</time>
      </trkpt>
      <trkpt lat="47.16662" lon="-1.66993">
        <ele>80</ele>
        <time>2021-06-02T14:59:04.000Z</time>
      </trkpt>
      <trkpt lat="47.16659" lon="-1.67012">
        <ele>79</ele>
        <time>2021-06-02T14:59:06.000Z</time>
      </trkpt>
      <trkpt lat="47.16657" lon="-1.67033">
        <ele>79</ele>
        <time>2021-06-02T14:59:08.000Z</time>
      </trkpt>
      <trkpt lat="47.16654" lon="-1.67052">
        <ele>78</ele>
        <time>2021-06-02T14:59:10.000Z</time>
      </trkpt>
      <trkpt lat="47.16649" lon="-1.67071">
        <ele>78</ele>
        <time>2021-06-02T14:59:12.000Z</time>
      </trkpt>
      <trkpt lat="47.16644" lon="-1.67088">
        <ele>79</ele>
        <time>2021-06-02T14:59:14.000Z</time>
      </trkpt>
      <trkpt lat="47.16638" lon="-1.67112">
        <ele>78</ele>
        <time>2021-06-02T14:59:17.000Z</time>
      </trkpt>
      <trkpt lat="47.16634" lon="-1.67129">
        <ele>77</ele>
        <time>2021-06-02T14:59:19.000Z</time>
      </trkpt>
      <trkpt lat="47.16631" lon="-1.67148">
        <ele>77</ele>
        <time>2021-06-02T14:59:21.000Z</time>
      </trkpt>
      <trkpt lat="47.16628" lon="-1.67166">
        <ele>77</ele>
        <time>2021-06-02T14:59:23.000Z</time>
      </trkpt>
      <trkpt lat="47.16624" lon="-1.67184">
        <ele>77</ele>
        <time>2021-06-02T14:59:25.000Z</time>
      </trkpt>
      <trkpt lat="47.1662" lon="-1.67201">
        <ele>76</ele>
        <time>2021-06-02T14:59:27.000Z</time>
      </trkpt>
      <trkpt lat="47.16617" lon="-1.67218">
        <ele>78</ele>
        <time>2021-06-02T14:59:29.000Z</time>
      </trkpt>
      <trkpt lat="47.16614" lon="-1.67233">
        <ele>78</ele>
        <time>2021-06-02T14:59:31.000Z</time>
      </trkpt>
      <trkpt lat="47.16611" lon="-1.67247">
        <ele>78</ele>
        <time>2021-06-02T14:59:33.000Z</time>
      </trkpt>
      <trkpt lat="47.16606" lon="-1.67271">
        <ele>79</ele>
        <time>2021-06-02T14:59:37.000Z</time>
      </trkpt>
      <trkpt lat="47.166" lon="-1.67285">
        <ele>78</ele>
        <time>2021-06-02T14:59:39.000Z</time>
      </trkpt>
      <trkpt lat="47.16591" lon="-1.67309">
        <ele>78</ele>
        <time>2021-06-02T14:59:42.000Z</time>
      </trkpt>
      <trkpt lat="47.1658" lon="-1.67332">
        <ele>78</ele>
        <time>2021-06-02T14:59:45.000Z</time>
      </trkpt>
      <trkpt lat="47.16573" lon="-1.67348">
        <ele>78</ele>
        <time>2021-06-02T14:59:47.000Z</time>
      </trkpt>
      <trkpt lat="47.16566" lon="-1.67363">
        <ele>78</ele>
        <time>2021-06-02T14:59:49.000Z</time>
      </trkpt>
      <trkpt lat="47.16559" lon="-1.67378">
        <ele>78</ele>
        <time>2021-06-02T14:59:51.000Z</time>
      </trkpt>
      <trkpt lat="47.16547" lon="-1.67392">
        <ele>78</ele>
        <time>2021-06-02T14:59:53.000Z</time>
      </trkpt>
      <trkpt lat="47.16533" lon="-1.67411">
        <ele>77</ele>
        <time>2021-06-02T14:59:56.000Z</time>
      </trkpt>
      <trkpt lat="47.16527" lon="-1.67424">
        <ele>75</ele>
        <time>2021-06-02T14:59:58.000Z</time>
      </trkpt>
      <trkpt lat="47.16518" lon="-1.67438">
        <ele>75</ele>
        <time>2021-06-02T15:00:00.000Z</time>
      </trkpt>
      <trkpt lat="47.16508" lon="-1.6745">
        <ele>76</ele>
        <time>2021-06-02T15:00:02.000Z</time>
      </trkpt>
      <trkpt lat="47.165" lon="-1.67465">
        <ele>77</ele>
        <time>2021-06-02T15:00:04.000Z</time>
      </trkpt>
      <trkpt lat="47.16488" lon="-1.67486">
        <ele>77</ele>
        <time>2021-06-02T15:00:07.000Z</time>
      </trkpt>
      <trkpt lat="47.16479" lon="-1.67499">
        <ele>77</ele>
        <time>2021-06-02T15:00:09.000Z</time>
      </trkpt>
      <trkpt lat="47.16472" lon="-1.67513">
        <ele>78</ele>
        <time>2021-06-02T15:00:11.000Z</time>
      </trkpt>
      <trkpt lat="47.16464" lon="-1.67527">
        <ele>77</ele>
        <time>2021-06-02T15:00:13.000Z</time>
      </trkpt>
      <trkpt lat="47.16453" lon="-1.67548">
        <ele>78</ele>
        <time>2021-06-02T15:00:16.000Z</time>
      </trkpt>
      <trkpt lat="47.16446" lon="-1.67562">
        <ele>78</ele>
        <time>2021-06-02T15:00:18.000Z</time>
      </trkpt>
      <trkpt lat="47.16439" lon="-1.67578">
        <ele>78</ele>
        <time>2021-06-02T15:00:20.000Z</time>
      </trkpt>
      <trkpt lat="47.16431" lon="-1.67594">
        <ele>78</ele>
        <time>2021-06-02T15:00:22.000Z</time>
      </trkpt>
      <trkpt lat="47.16423" lon="-1.67609">
        <ele>77</ele>
        <time>2021-06-02T15:00:24.000Z</time>
      </trkpt>
      <trkpt lat="47.16415" lon="-1.67623">
        <ele>77</ele>
        <time>2021-06-02T15:00:26.000Z</time>
      </trkpt>
      <trkpt lat="47.16406" lon="-1.67639">
        <ele>75</ele>
        <time>2021-06-02T15:00:28.000Z</time>
      </trkpt>
      <trkpt lat="47.16396" lon="-1.67662">
        <ele>76</ele>
        <time>2021-06-02T15:00:31.000Z</time>
      </trkpt>
      <trkpt lat="47.1639" lon="-1.67677">
        <ele>75</ele>
        <time>2021-06-02T15:00:33.000Z</time>
      </trkpt>
      <trkpt lat="47.16382" lon="-1.67693">
        <ele>76</ele>
        <time>2021-06-02T15:00:35.000Z</time>
      </trkpt>
      <trkpt lat="47.16376" lon="-1.67708">
        <ele>77</ele>
        <time>2021-06-02T15:00:37.000Z</time>
      </trkpt>
      <trkpt lat="47.16368" lon="-1.67721">
        <ele>76</ele>
        <time>2021-06-02T15:00:39.000Z</time>
      </trkpt>
      <trkpt lat="47.16362" lon="-1.67736">
        <ele>78</ele>
        <time>2021-06-02T15:00:41.000Z</time>
      </trkpt>
      <trkpt lat="47.16355" lon="-1.67752">
        <ele>79</ele>
        <time>2021-06-02T15:00:43.000Z</time>
      </trkpt>
      <trkpt lat="47.16351" lon="-1.67768">
        <ele>79</ele>
        <time>2021-06-02T15:00:45.000Z</time>
      </trkpt>
      <trkpt lat="47.16343" lon="-1.67781">
        <ele>80</ele>
        <time>2021-06-02T15:00:47.000Z</time>
      </trkpt>
      <trkpt lat="47.16335" lon="-1.67795">
        <ele>81</ele>
        <time>2021-06-02T15:00:49.000Z</time>
      </trkpt>
      <trkpt lat="47.16325" lon="-1.67808">
        <ele>82</ele>
        <time>2021-06-02T15:00:51.000Z</time>
      </trkpt>
      <trkpt lat="47.16315" lon="-1.67821">
        <ele>82</ele>
        <time>2021-06-02T15:00:53.000Z</time>
      </trkpt>
      <trkpt lat="47.16305" lon="-1.67834">
        <ele>81</ele>
        <time>2021-06-02T15:00:55.000Z</time>
      </trkpt>
      <trkpt lat="47.16297" lon="-1.67848">
        <ele>80</ele>
        <time>2021-06-02T15:00:57.000Z</time>
      </trkpt>
      <trkpt lat="47.16287" lon="-1.67869">
        <ele>78</ele>
        <time>2021-06-02T15:01:00.000Z</time>
      </trkpt>
      <trkpt lat="47.16279" lon="-1.67885">
        <ele>76</ele>
        <time>2021-06-02T15:01:02.000Z</time>
      </trkpt>
      <trkpt lat="47.1627" lon="-1.67899">
        <ele>77</ele>
        <time>2021-06-02T15:01:04.000Z</time>
      </trkpt>
      <trkpt lat="47.16265" lon="-1.67911">
        <ele>79</ele>
        <time>2021-06-02T15:01:06.000Z</time>
      </trkpt>
      <trkpt lat="47.16253" lon="-1.67932">
        <ele>79</ele>
        <time>2021-06-02T15:01:09.000Z</time>
      </trkpt>
      <trkpt lat="47.16246" lon="-1.67946">
        <ele>79</ele>
        <time>2021-06-02T15:01:11.000Z</time>
      </trkpt>
      <trkpt lat="47.1624" lon="-1.6796">
        <ele>79</ele>
        <time>2021-06-02T15:01:13.000Z</time>
      </trkpt>
      <trkpt lat="47.16231" lon="-1.67969">
        <ele>80</ele>
        <time>2021-06-02T15:01:15.000Z</time>
      </trkpt>
      <trkpt lat="47.16224" lon="-1.67983">
        <ele>80</ele>
        <time>2021-06-02T15:01:17.000Z</time>
      </trkpt>
      <trkpt lat="47.16217" lon="-1.67995">
        <ele>79</ele>
        <time>2021-06-02T15:01:19.000Z</time>
      </trkpt>
      <trkpt lat="47.16205" lon="-1.68">
        <ele>78</ele>
        <time>2021-06-02T15:01:21.000Z</time>
      </trkpt>
      <trkpt lat="47.16194" lon="-1.68009">
        <ele>78</ele>
        <time>2021-06-02T15:01:23.000Z</time>
      </trkpt>
      <trkpt lat="47.16186" lon="-1.68023">
        <ele>78</ele>
        <time>2021-06-02T15:01:25.000Z</time>
      </trkpt>
      <trkpt lat="47.16177" lon="-1.68035">
        <ele>78</ele>
        <time>2021-06-02T15:01:27.000Z</time>
      </trkpt>
      <trkpt lat="47.16169" lon="-1.68047">
        <ele>77</ele>
        <time>2021-06-02T15:01:29.000Z</time>
      </trkpt>
      <trkpt lat="47.16162" lon="-1.68062">
        <ele>78</ele>
        <time>2021-06-02T15:01:31.000Z</time>
      </trkpt>
      <trkpt lat="47.16157" lon="-1.68078">
        <ele>79</ele>
        <time>2021-06-02T15:01:33.000Z</time>
      </trkpt>
      <trkpt lat="47.16151" lon="-1.6809">
        <ele>80</ele>
        <time>2021-06-02T15:01:35.000Z</time>
      </trkpt>
      <trkpt lat="47.16145" lon="-1.68103">
        <ele>80</ele>
        <time>2021-06-02T15:01:37.000Z</time>
      </trkpt>
      <trkpt lat="47.16141" lon="-1.68118">
        <ele>80</ele>
        <time>2021-06-02T15:01:39.000Z</time>
      </trkpt>
      <trkpt lat="47.16137" lon="-1.68135">
        <ele>79</ele>
        <time>2021-06-02T15:01:41.000Z</time>
      </trkpt>
      <trkpt lat="47.16133" lon="-1.68151">
        <ele>78</ele>
        <time>2021-06-02T15:01:43.000Z</time>
      </trkpt>
      <trkpt lat="47.16129" lon="-1.68167">
        <ele>78</ele>
        <time>2021-06-02T15:01:45.000Z</time>
      </trkpt>
      <trkpt lat="47.16126" lon="-1.68182">
        <ele>77</ele>
        <time>2021-06-02T15:01:47.000Z</time>
      </trkpt>
      <trkpt lat="47.16122" lon="-1.68198">
        <ele>77</ele>
        <time>2021-06-02T15:01:49.000Z</time>
      </trkpt>
      <trkpt lat="47.16118" lon="-1.68215">
        <ele>76</ele>
        <time>2021-06-02T15:01:51.000Z</time>
      </trkpt>
      <trkpt lat="47.16114" lon="-1.68232">
        <ele>75</ele>
        <time>2021-06-02T15:01:53.000Z</time>
      </trkpt>
      <trkpt lat="47.16109" lon="-1.68258">
        <ele>73</ele>
        <time>2021-06-02T15:01:56.000Z</time>
      </trkpt>
      <trkpt lat="47.16105" lon="-1.68275">
        <ele>73</ele>
        <time>2021-06-02T15:01:58.000Z</time>
      </trkpt>
      <trkpt lat="47.16102" lon="-1.68294">
        <ele>72</ele>
        <time>2021-06-02T15:02:00.000Z</time>
      </trkpt>
      <trkpt lat="47.16097" lon="-1.68314">
        <ele>72</ele>
        <time>2021-06-02T15:02:02.000Z</time>
      </trkpt>
      <trkpt lat="47.16094" lon="-1.68334">
        <ele>72</ele>
        <time>2021-06-02T15:02:04.000Z</time>
      </trkpt>
      <trkpt lat="47.1609" lon="-1.68352">
        <ele>73</ele>
        <time>2021-06-02T15:02:06.000Z</time>
      </trkpt>
      <trkpt lat="47.16086" lon="-1.68371">
        <ele>73</ele>
        <time>2021-06-02T15:02:08.000Z</time>
      </trkpt>
      <trkpt lat="47.16082" lon="-1.68389">
        <ele>73</ele>
        <time>2021-06-02T15:02:10.000Z</time>
      </trkpt>
      <trkpt lat="47.16078" lon="-1.68407">
        <ele>73</ele>
        <time>2021-06-02T15:02:12.000Z</time>
      </trkpt>
      <trkpt lat="47.16074" lon="-1.68425">
        <ele>73</ele>
        <time>2021-06-02T15:02:14.000Z</time>
      </trkpt>
      <trkpt lat="47.16072" lon="-1.68442">
        <ele>73</ele>
        <time>2021-06-02T15:02:16.000Z</time>
      </trkpt>
      <trkpt lat="47.16068" lon="-1.6846">
        <ele>74</ele>
        <time>2021-06-02T15:02:18.000Z</time>
      </trkpt>
      <trkpt lat="47.16064" lon="-1.68478">
        <ele>74</ele>
        <time>2021-06-02T15:02:20.000Z</time>
      </trkpt>
      <trkpt lat="47.16062" lon="-1.68496">
        <ele>74</ele>
        <time>2021-06-02T15:02:22.000Z</time>
      </trkpt>
      <trkpt lat="47.16059" lon="-1.68515">
        <ele>74</ele>
        <time>2021-06-02T15:02:24.000Z</time>
      </trkpt>
      <trkpt lat="47.16057" lon="-1.68534">
        <ele>73</ele>
        <time>2021-06-02T15:02:26.000Z</time>
      </trkpt>
      <trkpt lat="47.16056" lon="-1.68554">
        <ele>73</ele>
        <time>2021-06-02T15:02:28.000Z</time>
      </trkpt>
      <trkpt lat="47.16052" lon="-1.68571">
        <ele>73</ele>
        <time>2021-06-02T15:02:30.000Z</time>
      </trkpt>
      <trkpt lat="47.16049" lon="-1.68588">
        <ele>73</ele>
        <time>2021-06-02T15:02:32.000Z</time>
      </trkpt>
      <trkpt lat="47.16047" lon="-1.68616">
        <ele>73</ele>
        <time>2021-06-02T15:02:35.000Z</time>
      </trkpt>
      <trkpt lat="47.16045" lon="-1.68635">
        <ele>73</ele>
        <time>2021-06-02T15:02:37.000Z</time>
      </trkpt>
      <trkpt lat="47.16043" lon="-1.68652">
        <ele>73</ele>
        <time>2021-06-02T15:02:39.000Z</time>
      </trkpt>
      <trkpt lat="47.16043" lon="-1.68669">
        <ele>73</ele>
        <time>2021-06-02T15:02:41.000Z</time>
      </trkpt>
      <trkpt lat="47.16043" lon="-1.68687">
        <ele>73</ele>
        <time>2021-06-02T15:02:43.000Z</time>
      </trkpt>
      <trkpt lat="47.16044" lon="-1.68705">
        <ele>73</ele>
        <time>2021-06-02T15:02:45.000Z</time>
      </trkpt>
      <trkpt lat="47.16046" lon="-1.68723">
        <ele>74</ele>
        <time>2021-06-02T15:02:47.000Z</time>
      </trkpt>
      <trkpt lat="47.16049" lon="-1.68739">
        <ele>74</ele>
        <time>2021-06-02T15:02:49.000Z</time>
      </trkpt>
      <trkpt lat="47.16054" lon="-1.68764">
        <ele>75</ele>
        <time>2021-06-02T15:02:52.000Z</time>
      </trkpt>
      <trkpt lat="47.16058" lon="-1.6878">
        <ele>75</ele>
        <time>2021-06-02T15:02:54.000Z</time>
      </trkpt>
      <trkpt lat="47.16064" lon="-1.68796">
        <ele>75</ele>
        <time>2021-06-02T15:02:56.000Z</time>
      </trkpt>
      <trkpt lat="47.16068" lon="-1.6881">
        <ele>75</ele>
        <time>2021-06-02T15:02:58.000Z</time>
      </trkpt>
      <trkpt lat="47.16071" lon="-1.68826">
        <ele>74</ele>
        <time>2021-06-02T15:03:00.000Z</time>
      </trkpt>
      <trkpt lat="47.16078" lon="-1.68848">
        <ele>75</ele>
        <time>2021-06-02T15:03:03.000Z</time>
      </trkpt>
      <trkpt lat="47.16083" lon="-1.68864">
        <ele>73</ele>
        <time>2021-06-02T15:03:05.000Z</time>
      </trkpt>
      <trkpt lat="47.16088" lon="-1.6888">
        <ele>74</ele>
        <time>2021-06-02T15:03:07.000Z</time>
      </trkpt>
      <trkpt lat="47.16092" lon="-1.68896">
        <ele>76</ele>
        <time>2021-06-02T15:03:09.000Z</time>
      </trkpt>
      <trkpt lat="47.16097" lon="-1.68911">
        <ele>75</ele>
        <time>2021-06-02T15:03:11.000Z</time>
      </trkpt>
      <trkpt lat="47.16101" lon="-1.68928">
        <ele>75</ele>
        <time>2021-06-02T15:03:13.000Z</time>
      </trkpt>
      <trkpt lat="47.16107" lon="-1.68944">
        <ele>74</ele>
        <time>2021-06-02T15:03:15.000Z</time>
      </trkpt>
      <trkpt lat="47.16112" lon="-1.68961">
        <ele>74</ele>
        <time>2021-06-02T15:03:17.000Z</time>
      </trkpt>
      <trkpt lat="47.16116" lon="-1.68977">
        <ele>74</ele>
        <time>2021-06-02T15:03:19.000Z</time>
      </trkpt>
      <trkpt lat="47.16121" lon="-1.68995">
        <ele>73</ele>
        <time>2021-06-02T15:03:21.000Z</time>
      </trkpt>
      <trkpt lat="47.16127" lon="-1.69022">
        <ele>72</ele>
        <time>2021-06-02T15:03:24.000Z</time>
      </trkpt>
      <trkpt lat="47.16132" lon="-1.69042">
        <ele>72</ele>
        <time>2021-06-02T15:03:26.000Z</time>
      </trkpt>
      <trkpt lat="47.16136" lon="-1.69061">
        <ele>72</ele>
        <time>2021-06-02T15:03:28.000Z</time>
      </trkpt>
      <trkpt lat="47.1614" lon="-1.69079">
        <ele>71</ele>
        <time>2021-06-02T15:03:30.000Z</time>
      </trkpt>
      <trkpt lat="47.16142" lon="-1.69107">
        <ele>70</ele>
        <time>2021-06-02T15:03:33.000Z</time>
      </trkpt>
      <trkpt lat="47.16143" lon="-1.69126">
        <ele>71</ele>
        <time>2021-06-02T15:03:35.000Z</time>
      </trkpt>
      <trkpt lat="47.16144" lon="-1.69144">
        <ele>71</ele>
        <time>2021-06-02T15:03:37.000Z</time>
      </trkpt>
      <trkpt lat="47.16145" lon="-1.69163">
        <ele>71</ele>
        <time>2021-06-02T15:03:39.000Z</time>
      </trkpt>
      <trkpt lat="47.16144" lon="-1.69184">
        <ele>71</ele>
        <time>2021-06-02T15:03:41.000Z</time>
      </trkpt>
      <trkpt lat="47.16142" lon="-1.69203">
        <ele>71</ele>
        <time>2021-06-02T15:03:43.000Z</time>
      </trkpt>
      <trkpt lat="47.16141" lon="-1.69221">
        <ele>71</ele>
        <time>2021-06-02T15:03:45.000Z</time>
      </trkpt>
      <trkpt lat="47.16139" lon="-1.6924">
        <ele>71</ele>
        <time>2021-06-02T15:03:47.000Z</time>
      </trkpt>
      <trkpt lat="47.16138" lon="-1.6926">
        <ele>70</ele>
        <time>2021-06-02T15:03:49.000Z</time>
      </trkpt>
      <trkpt lat="47.16134" lon="-1.69288">
        <ele>70</ele>
        <time>2021-06-02T15:03:52.000Z</time>
      </trkpt>
      <trkpt lat="47.16132" lon="-1.69306">
        <ele>70</ele>
        <time>2021-06-02T15:03:54.000Z</time>
      </trkpt>
      <trkpt lat="47.16129" lon="-1.69324">
        <ele>70</ele>
        <time>2021-06-02T15:03:56.000Z</time>
      </trkpt>
      <trkpt lat="47.16126" lon="-1.69342">
        <ele>70</ele>
        <time>2021-06-02T15:03:58.000Z</time>
      </trkpt>
      <trkpt lat="47.16123" lon="-1.6936">
        <ele>71</ele>
        <time>2021-06-02T15:04:00.000Z</time>
      </trkpt>
      <trkpt lat="47.16121" lon="-1.69378">
        <ele>70</ele>
        <time>2021-06-02T15:04:02.000Z</time>
      </trkpt>
      <trkpt lat="47.16121" lon="-1.69395">
        <ele>72</ele>
        <time>2021-06-02T15:04:04.000Z</time>
      </trkpt>
      <trkpt lat="47.16118" lon="-1.69413">
        <ele>73</ele>
        <time>2021-06-02T15:04:06.000Z</time>
      </trkpt>
      <trkpt lat="47.16117" lon="-1.69431">
        <ele>72</ele>
        <time>2021-06-02T15:04:08.000Z</time>
      </trkpt>
      <trkpt lat="47.16117" lon="-1.69449">
        <ele>72</ele>
        <time>2021-06-02T15:04:10.000Z</time>
      </trkpt>
      <trkpt lat="47.16115" lon="-1.69467">
        <ele>71</ele>
        <time>2021-06-02T15:04:12.000Z</time>
      </trkpt>
      <trkpt lat="47.16115" lon="-1.69484">
        <ele>71</ele>
        <time>2021-06-02T15:04:14.000Z</time>
      </trkpt>
      <trkpt lat="47.16112" lon="-1.69502">
        <ele>72</ele>
        <time>2021-06-02T15:04:16.000Z</time>
      </trkpt>
      <trkpt lat="47.16111" lon="-1.69519">
        <ele>71</ele>
        <time>2021-06-02T15:04:18.000Z</time>
      </trkpt>
      <trkpt lat="47.16111" lon="-1.69537">
        <ele>71</ele>
        <time>2021-06-02T15:04:20.000Z</time>
      </trkpt>
      <trkpt lat="47.16108" lon="-1.69555">
        <ele>71</ele>
        <time>2021-06-02T15:04:22.000Z</time>
      </trkpt>
      <trkpt lat="47.16107" lon="-1.69573">
        <ele>71</ele>
        <time>2021-06-02T15:04:24.000Z</time>
      </trkpt>
      <trkpt lat="47.16106" lon="-1.69591">
        <ele>71</ele>
        <time>2021-06-02T15:04:26.000Z</time>
      </trkpt>
      <trkpt lat="47.16105" lon="-1.6961">
        <ele>71</ele>
        <time>2021-06-02T15:04:28.000Z</time>
      </trkpt>
      <trkpt lat="47.16105" lon="-1.69626">
        <ele>70</ele>
        <time>2021-06-02T15:04:30.000Z</time>
      </trkpt>
      <trkpt lat="47.16103" lon="-1.69645">
        <ele>70</ele>
        <time>2021-06-02T15:04:32.000Z</time>
      </trkpt>
      <trkpt lat="47.161" lon="-1.69663">
        <ele>70</ele>
        <time>2021-06-02T15:04:34.000Z</time>
      </trkpt>
      <trkpt lat="47.16098" lon="-1.69681">
        <ele>71</ele>
        <time>2021-06-02T15:04:36.000Z</time>
      </trkpt>
      <trkpt lat="47.16097" lon="-1.69699">
        <ele>71</ele>
        <time>2021-06-02T15:04:38.000Z</time>
      </trkpt>
      <trkpt lat="47.16096" lon="-1.69718">
        <ele>72</ele>
        <time>2021-06-02T15:04:40.000Z</time>
      </trkpt>
      <trkpt lat="47.16097" lon="-1.69737">
        <ele>70</ele>
        <time>2021-06-02T15:04:42.000Z</time>
      </trkpt>
      <trkpt lat="47.16098" lon="-1.69755">
        <ele>72</ele>
        <time>2021-06-02T15:04:44.000Z</time>
      </trkpt>
      <trkpt lat="47.16096" lon="-1.69775">
        <ele>73</ele>
        <time>2021-06-02T15:04:46.000Z</time>
      </trkpt>
      <trkpt lat="47.16094" lon="-1.69804">
        <ele>73</ele>
        <time>2021-06-02T15:04:49.000Z</time>
      </trkpt>
      <trkpt lat="47.16091" lon="-1.69823">
        <ele>73</ele>
        <time>2021-06-02T15:04:51.000Z</time>
      </trkpt>
      <trkpt lat="47.16089" lon="-1.69842">
        <ele>74</ele>
        <time>2021-06-02T15:04:53.000Z</time>
      </trkpt>
      <trkpt lat="47.16089" lon="-1.69859">
        <ele>72</ele>
        <time>2021-06-02T15:04:55.000Z</time>
      </trkpt>
      <trkpt lat="47.16087" lon="-1.69886">
        <ele>72</ele>
        <time>2021-06-02T15:04:58.000Z</time>
      </trkpt>
      <trkpt lat="47.16087" lon="-1.69906">
        <ele>72</ele>
        <time>2021-06-02T15:05:00.000Z</time>
      </trkpt>
      <trkpt lat="47.16086" lon="-1.69926">
        <ele>72</ele>
        <time>2021-06-02T15:05:02.000Z</time>
      </trkpt>
      <trkpt lat="47.16083" lon="-1.69945">
        <ele>73</ele>
        <time>2021-06-02T15:05:04.000Z</time>
      </trkpt>
      <trkpt lat="47.16081" lon="-1.69964">
        <ele>73</ele>
        <time>2021-06-02T15:05:06.000Z</time>
      </trkpt>
      <trkpt lat="47.1608" lon="-1.69983">
        <ele>74</ele>
        <time>2021-06-02T15:05:08.000Z</time>
      </trkpt>
      <trkpt lat="47.16078" lon="-1.70003">
        <ele>74</ele>
        <time>2021-06-02T15:05:10.000Z</time>
      </trkpt>
      <trkpt lat="47.16077" lon="-1.70022">
        <ele>75</ele>
        <time>2021-06-02T15:05:12.000Z</time>
      </trkpt>
      <trkpt lat="47.16076" lon="-1.7004">
        <ele>75</ele>
        <time>2021-06-02T15:05:14.000Z</time>
      </trkpt>
      <trkpt lat="47.16074" lon="-1.7006">
        <ele>75</ele>
        <time>2021-06-02T15:05:16.000Z</time>
      </trkpt>
      <trkpt lat="47.16072" lon="-1.7008">
        <ele>74</ele>
        <time>2021-06-02T15:05:18.000Z</time>
      </trkpt>
      <trkpt lat="47.1607" lon="-1.701">
        <ele>74</ele>
        <time>2021-06-02T15:05:20.000Z</time>
      </trkpt>
      <trkpt lat="47.16067" lon="-1.70118">
        <ele>75</ele>
        <time>2021-06-02T15:05:22.000Z</time>
      </trkpt>
      <trkpt lat="47.16063" lon="-1.70136">
        <ele>75</ele>
        <time>2021-06-02T15:05:24.000Z</time>
      </trkpt>
      <trkpt lat="47.16059" lon="-1.70154">
        <ele>75</ele>
        <time>2021-06-02T15:05:26.000Z</time>
      </trkpt>
      <trkpt lat="47.16053" lon="-1.7017">
        <ele>75</ele>
        <time>2021-06-02T15:05:28.000Z</time>
      </trkpt>
      <trkpt lat="47.16045" lon="-1.70185">
        <ele>75</ele>
        <time>2021-06-02T15:05:30.000Z</time>
      </trkpt>
      <trkpt lat="47.16034" lon="-1.70209">
        <ele>74</ele>
        <time>2021-06-02T15:05:33.000Z</time>
      </trkpt>
      <trkpt lat="47.16029" lon="-1.70223">
        <ele>72</ele>
        <time>2021-06-02T15:05:35.000Z</time>
      </trkpt>
      <trkpt lat="47.16025" lon="-1.70236">
        <ele>73</ele>
        <time>2021-06-02T15:05:37.000Z</time>
      </trkpt>
      <trkpt lat="47.16015" lon="-1.70255">
        <ele>73</ele>
        <time>2021-06-02T15:05:39.000Z</time>
      </trkpt>
      <trkpt lat="47.16006" lon="-1.70271">
        <ele>74</ele>
        <time>2021-06-02T15:05:41.000Z</time>
      </trkpt>
      <trkpt lat="47.16002" lon="-1.70284">
        <ele>70</ele>
        <time>2021-06-02T15:05:43.000Z</time>
      </trkpt>
      <trkpt lat="47.15997" lon="-1.70297">
        <ele>69</ele>
        <time>2021-06-02T15:05:45.000Z</time>
      </trkpt>
      <trkpt lat="47.15989" lon="-1.70316">
        <ele>70</ele>
        <time>2021-06-02T15:05:47.000Z</time>
      </trkpt>
      <trkpt lat="47.1598" lon="-1.70332">
        <ele>70</ele>
        <time>2021-06-02T15:05:49.000Z</time>
      </trkpt>
      <trkpt lat="47.15972" lon="-1.70349">
        <ele>70</ele>
        <time>2021-06-02T15:05:51.000Z</time>
      </trkpt>
      <trkpt lat="47.15965" lon="-1.70365">
        <ele>71</ele>
        <time>2021-06-02T15:05:53.000Z</time>
      </trkpt>
      <trkpt lat="47.15959" lon="-1.7038">
        <ele>71</ele>
        <time>2021-06-02T15:05:55.000Z</time>
      </trkpt>
      <trkpt lat="47.15951" lon="-1.70396">
        <ele>71</ele>
        <time>2021-06-02T15:05:57.000Z</time>
      </trkpt>
      <trkpt lat="47.15944" lon="-1.70412">
        <ele>71</ele>
        <time>2021-06-02T15:05:59.000Z</time>
      </trkpt>
      <trkpt lat="47.15937" lon="-1.70427">
        <ele>70</ele>
        <time>2021-06-02T15:06:01.000Z</time>
      </trkpt>
      <trkpt lat="47.15931" lon="-1.70439">
        <ele>65</ele>
        <time>2021-06-02T15:06:03.000Z</time>
      </trkpt>
      <trkpt lat="47.15924" lon="-1.70456">
        <ele>66</ele>
        <time>2021-06-02T15:06:05.000Z</time>
      </trkpt>
      <trkpt lat="47.15916" lon="-1.70474">
        <ele>68</ele>
        <time>2021-06-02T15:06:07.000Z</time>
      </trkpt>
      <trkpt lat="47.15907" lon="-1.70491">
        <ele>69</ele>
        <time>2021-06-02T15:06:09.000Z</time>
      </trkpt>
      <trkpt lat="47.15902" lon="-1.7051">
        <ele>67</ele>
        <time>2021-06-02T15:06:11.000Z</time>
      </trkpt>
      <trkpt lat="47.15892" lon="-1.70535">
        <ele>68</ele>
        <time>2021-06-02T15:06:14.000Z</time>
      </trkpt>
      <trkpt lat="47.15886" lon="-1.7055">
        <ele>70</ele>
        <time>2021-06-02T15:06:16.000Z</time>
      </trkpt>
      <trkpt lat="47.15884" lon="-1.70569">
        <ele>70</ele>
        <time>2021-06-02T15:06:18.000Z</time>
      </trkpt>
      <trkpt lat="47.15879" lon="-1.70585">
        <ele>71</ele>
        <time>2021-06-02T15:06:20.000Z</time>
      </trkpt>
      <trkpt lat="47.15873" lon="-1.706">
        <ele>71</ele>
        <time>2021-06-02T15:06:22.000Z</time>
      </trkpt>
      <trkpt lat="47.15867" lon="-1.70615">
        <ele>72</ele>
        <time>2021-06-02T15:06:24.000Z</time>
      </trkpt>
      <trkpt lat="47.15862" lon="-1.70631">
        <ele>72</ele>
        <time>2021-06-02T15:06:26.000Z</time>
      </trkpt>
      <trkpt lat="47.15857" lon="-1.70647">
        <ele>72</ele>
        <time>2021-06-02T15:06:28.000Z</time>
      </trkpt>
      <trkpt lat="47.1585" lon="-1.7067">
        <ele>72</ele>
        <time>2021-06-02T15:06:31.000Z</time>
      </trkpt>
      <trkpt lat="47.15843" lon="-1.70684">
        <ele>72</ele>
        <time>2021-06-02T15:06:33.000Z</time>
      </trkpt>
      <trkpt lat="47.15836" lon="-1.70699">
        <ele>72</ele>
        <time>2021-06-02T15:06:35.000Z</time>
      </trkpt>
      <trkpt lat="47.15829" lon="-1.70714">
        <ele>72</ele>
        <time>2021-06-02T15:06:37.000Z</time>
      </trkpt>
      <trkpt lat="47.15822" lon="-1.70728">
        <ele>72</ele>
        <time>2021-06-02T15:06:39.000Z</time>
      </trkpt>
      <trkpt lat="47.15815" lon="-1.70742">
        <ele>73</ele>
        <time>2021-06-02T15:06:41.000Z</time>
      </trkpt>
      <trkpt lat="47.15809" lon="-1.70759">
        <ele>72</ele>
        <time>2021-06-02T15:06:43.000Z</time>
      </trkpt>
      <trkpt lat="47.15801" lon="-1.70775">
        <ele>71</ele>
        <time>2021-06-02T15:06:45.000Z</time>
      </trkpt>
      <trkpt lat="47.15795" lon="-1.70787">
        <ele>72</ele>
        <time>2021-06-02T15:06:47.000Z</time>
      </trkpt>
      <trkpt lat="47.1579" lon="-1.70803">
        <ele>72</ele>
        <time>2021-06-02T15:06:49.000Z</time>
      </trkpt>
      <trkpt lat="47.15784" lon="-1.70818">
        <ele>73</ele>
        <time>2021-06-02T15:06:51.000Z</time>
      </trkpt>
      <trkpt lat="47.15777" lon="-1.70832">
        <ele>72</ele>
        <time>2021-06-02T15:06:53.000Z</time>
      </trkpt>
      <trkpt lat="47.15769" lon="-1.70844">
        <ele>71</ele>
        <time>2021-06-02T15:06:55.000Z</time>
      </trkpt>
      <trkpt lat="47.15756" lon="-1.70864">
        <ele>72</ele>
        <time>2021-06-02T15:06:58.000Z</time>
      </trkpt>
      <trkpt lat="47.15747" lon="-1.70878">
        <ele>72</ele>
        <time>2021-06-02T15:07:00.000Z</time>
      </trkpt>
      <trkpt lat="47.1574" lon="-1.70891">
        <ele>73</ele>
        <time>2021-06-02T15:07:02.000Z</time>
      </trkpt>
      <trkpt lat="47.15733" lon="-1.70904">
        <ele>73</ele>
        <time>2021-06-02T15:07:04.000Z</time>
      </trkpt>
      <trkpt lat="47.15725" lon="-1.70918">
        <ele>73</ele>
        <time>2021-06-02T15:07:06.000Z</time>
      </trkpt>
      <trkpt lat="47.15717" lon="-1.70932">
        <ele>73</ele>
        <time>2021-06-02T15:07:08.000Z</time>
      </trkpt>
      <trkpt lat="47.1571" lon="-1.70946">
        <ele>73</ele>
        <time>2021-06-02T15:07:10.000Z</time>
      </trkpt>
      <trkpt lat="47.15703" lon="-1.70961">
        <ele>73</ele>
        <time>2021-06-02T15:07:12.000Z</time>
      </trkpt>
      <trkpt lat="47.15696" lon="-1.70974">
        <ele>73</ele>
        <time>2021-06-02T15:07:14.000Z</time>
      </trkpt>
      <trkpt lat="47.15686" lon="-1.70996">
        <ele>73</ele>
        <time>2021-06-02T15:07:17.000Z</time>
      </trkpt>
      <trkpt lat="47.15678" lon="-1.71011">
        <ele>73</ele>
        <time>2021-06-02T15:07:19.000Z</time>
      </trkpt>
      <trkpt lat="47.15672" lon="-1.71025">
        <ele>72</ele>
        <time>2021-06-02T15:07:21.000Z</time>
      </trkpt>
      <trkpt lat="47.15668" lon="-1.71038">
        <ele>72</ele>
        <time>2021-06-02T15:07:23.000Z</time>
      </trkpt>
      <trkpt lat="47.15663" lon="-1.7105">
        <ele>72</ele>
        <time>2021-06-02T15:07:25.000Z</time>
      </trkpt>
      <trkpt lat="47.15654" lon="-1.71064">
        <ele>73</ele>
        <time>2021-06-02T15:07:28.000Z</time>
      </trkpt>
      <trkpt lat="47.15646" lon="-1.71073">
        <ele>73</ele>
        <time>2021-06-02T15:07:30.000Z</time>
      </trkpt>
      <trkpt lat="47.15636" lon="-1.71082">
        <ele>72</ele>
        <time>2021-06-02T15:07:32.000Z</time>
      </trkpt>
      <trkpt lat="47.15627" lon="-1.71093">
        <ele>72</ele>
        <time>2021-06-02T15:07:34.000Z</time>
      </trkpt>
      <trkpt lat="47.15619" lon="-1.71104">
        <ele>71</ele>
        <time>2021-06-02T15:07:36.000Z</time>
      </trkpt>
      <trkpt lat="47.15612" lon="-1.71118">
        <ele>72</ele>
        <time>2021-06-02T15:07:38.000Z</time>
      </trkpt>
      <trkpt lat="47.156" lon="-1.71138">
        <ele>73</ele>
        <time>2021-06-02T15:07:41.000Z</time>
      </trkpt>
      <trkpt lat="47.15593" lon="-1.71151">
        <ele>73</ele>
        <time>2021-06-02T15:07:43.000Z</time>
      </trkpt>
      <trkpt lat="47.15586" lon="-1.71163">
        <ele>74</ele>
        <time>2021-06-02T15:07:45.000Z</time>
      </trkpt>
      <trkpt lat="47.15579" lon="-1.71179">
        <ele>70</ele>
        <time>2021-06-02T15:07:47.000Z</time>
      </trkpt>
      <trkpt lat="47.1557" lon="-1.7119">
        <ele>72</ele>
        <time>2021-06-02T15:07:49.000Z</time>
      </trkpt>
      <trkpt lat="47.15562" lon="-1.71204">
        <ele>73</ele>
        <time>2021-06-02T15:07:51.000Z</time>
      </trkpt>
      <trkpt lat="47.15555" lon="-1.71218">
        <ele>73</ele>
        <time>2021-06-02T15:07:53.000Z</time>
      </trkpt>
      <trkpt lat="47.15545" lon="-1.7124">
        <ele>74</ele>
        <time>2021-06-02T15:07:56.000Z</time>
      </trkpt>
      <trkpt lat="47.1554" lon="-1.71258">
        <ele>74</ele>
        <time>2021-06-02T15:07:58.000Z</time>
      </trkpt>
      <trkpt lat="47.15534" lon="-1.71271">
        <ele>73</ele>
        <time>2021-06-02T15:08:00.000Z</time>
      </trkpt>
      <trkpt lat="47.15524" lon="-1.71294">
        <ele>74</ele>
        <time>2021-06-02T15:08:03.000Z</time>
      </trkpt>
      <trkpt lat="47.15516" lon="-1.71307">
        <ele>74</ele>
        <time>2021-06-02T15:08:05.000Z</time>
      </trkpt>
      <trkpt lat="47.1551" lon="-1.7132">
        <ele>75</ele>
        <time>2021-06-02T15:08:07.000Z</time>
      </trkpt>
      <trkpt lat="47.15502" lon="-1.71346">
        <ele>75</ele>
        <time>2021-06-02T15:08:10.000Z</time>
      </trkpt>
      <trkpt lat="47.15491" lon="-1.71356">
        <ele>75</ele>
        <time>2021-06-02T15:08:12.000Z</time>
      </trkpt>
      <trkpt lat="47.15483" lon="-1.7137">
        <ele>74</ele>
        <time>2021-06-02T15:08:14.000Z</time>
      </trkpt>
      <trkpt lat="47.15469" lon="-1.71386">
        <ele>73</ele>
        <time>2021-06-02T15:08:17.000Z</time>
      </trkpt>
      <trkpt lat="47.15459" lon="-1.71396">
        <ele>74</ele>
        <time>2021-06-02T15:08:19.000Z</time>
      </trkpt>
      <trkpt lat="47.15449" lon="-1.71406">
        <ele>74</ele>
        <time>2021-06-02T15:08:21.000Z</time>
      </trkpt>
      <trkpt lat="47.15439" lon="-1.71415">
        <ele>74</ele>
        <time>2021-06-02T15:08:23.000Z</time>
      </trkpt>
      <trkpt lat="47.1543" lon="-1.71425">
        <ele>73</ele>
        <time>2021-06-02T15:08:25.000Z</time>
      </trkpt>
      <trkpt lat="47.15419" lon="-1.71434">
        <ele>74</ele>
        <time>2021-06-02T15:08:27.000Z</time>
      </trkpt>
      <trkpt lat="47.15409" lon="-1.71444">
        <ele>74</ele>
        <time>2021-06-02T15:08:29.000Z</time>
      </trkpt>
      <trkpt lat="47.15398" lon="-1.71453">
        <ele>74</ele>
        <time>2021-06-02T15:08:31.000Z</time>
      </trkpt>
      <trkpt lat="47.15388" lon="-1.71463">
        <ele>73</ele>
        <time>2021-06-02T15:08:33.000Z</time>
      </trkpt>
      <trkpt lat="47.15377" lon="-1.71473">
        <ele>74</ele>
        <time>2021-06-02T15:08:35.000Z</time>
      </trkpt>
      <trkpt lat="47.15366" lon="-1.71481">
        <ele>73</ele>
        <time>2021-06-02T15:08:37.000Z</time>
      </trkpt>
      <trkpt lat="47.15349" lon="-1.71498">
        <ele>72</ele>
        <time>2021-06-02T15:08:40.000Z</time>
      </trkpt>
      <trkpt lat="47.15338" lon="-1.71506">
        <ele>71</ele>
        <time>2021-06-02T15:08:42.000Z</time>
      </trkpt>
      <trkpt lat="47.1533" lon="-1.71517">
        <ele>72</ele>
        <time>2021-06-02T15:08:44.000Z</time>
      </trkpt>
      <trkpt lat="47.15321" lon="-1.71527">
        <ele>72</ele>
        <time>2021-06-02T15:08:46.000Z</time>
      </trkpt>
      <trkpt lat="47.15312" lon="-1.71539">
        <ele>70</ele>
        <time>2021-06-02T15:08:48.000Z</time>
      </trkpt>
      <trkpt lat="47.15301" lon="-1.7155">
        <ele>71</ele>
        <time>2021-06-02T15:08:50.000Z</time>
      </trkpt>
      <trkpt lat="47.15291" lon="-1.71561">
        <ele>70</ele>
        <time>2021-06-02T15:08:52.000Z</time>
      </trkpt>
      <trkpt lat="47.15282" lon="-1.71572">
        <ele>68</ele>
        <time>2021-06-02T15:08:54.000Z</time>
      </trkpt>
      <trkpt lat="47.15273" lon="-1.71583">
        <ele>68</ele>
        <time>2021-06-02T15:08:56.000Z</time>
      </trkpt>
      <trkpt lat="47.15262" lon="-1.71594">
        <ele>69</ele>
        <time>2021-06-02T15:08:58.000Z</time>
      </trkpt>
      <trkpt lat="47.15249" lon="-1.71612">
        <ele>70</ele>
        <time>2021-06-02T15:09:01.000Z</time>
      </trkpt>
      <trkpt lat="47.1524" lon="-1.71623">
        <ele>70</ele>
        <time>2021-06-02T15:09:03.000Z</time>
      </trkpt>
      <trkpt lat="47.15228" lon="-1.71624">
        <ele>71</ele>
        <time>2021-06-02T15:09:05.000Z</time>
      </trkpt>
      <trkpt lat="47.15217" lon="-1.71617">
        <ele>70</ele>
        <time>2021-06-02T15:09:07.000Z</time>
      </trkpt>
      <trkpt lat="47.15207" lon="-1.71608">
        <ele>70</ele>
        <time>2021-06-02T15:09:09.000Z</time>
      </trkpt>
      <trkpt lat="47.15192" lon="-1.71599">
        <ele>71</ele>
        <time>2021-06-02T15:09:12.000Z</time>
      </trkpt>
      <trkpt lat="47.1518" lon="-1.71592">
        <ele>67</ele>
        <time>2021-06-02T15:09:14.000Z</time>
      </trkpt>
      <trkpt lat="47.15167" lon="-1.71584">
        <ele>66</ele>
        <time>2021-06-02T15:09:16.000Z</time>
      </trkpt>
      <trkpt lat="47.15156" lon="-1.71573">
        <ele>68</ele>
        <time>2021-06-02T15:09:18.000Z</time>
      </trkpt>
      <trkpt lat="47.15146" lon="-1.71564">
        <ele>68</ele>
        <time>2021-06-02T15:09:20.000Z</time>
      </trkpt>
      <trkpt lat="47.15134" lon="-1.71554">
        <ele>69</ele>
        <time>2021-06-02T15:09:22.000Z</time>
      </trkpt>
      <trkpt lat="47.15124" lon="-1.71545">
        <ele>70</ele>
        <time>2021-06-02T15:09:24.000Z</time>
      </trkpt>
      <trkpt lat="47.15113" lon="-1.71536">
        <ele>68</ele>
        <time>2021-06-02T15:09:26.000Z</time>
      </trkpt>
      <trkpt lat="47.15103" lon="-1.71526">
        <ele>68</ele>
        <time>2021-06-02T15:09:28.000Z</time>
      </trkpt>
      <trkpt lat="47.15092" lon="-1.71516">
        <ele>69</ele>
        <time>2021-06-02T15:09:30.000Z</time>
      </trkpt>
      <trkpt lat="47.15081" lon="-1.71505">
        <ele>69</ele>
        <time>2021-06-02T15:09:32.000Z</time>
      </trkpt>
      <trkpt lat="47.15071" lon="-1.71495">
        <ele>69</ele>
        <time>2021-06-02T15:09:34.000Z</time>
      </trkpt>
      <trkpt lat="47.1506" lon="-1.71485">
        <ele>70</ele>
        <time>2021-06-02T15:09:36.000Z</time>
      </trkpt>
      <trkpt lat="47.15045" lon="-1.7147">
        <ele>70</ele>
        <time>2021-06-02T15:09:39.000Z</time>
      </trkpt>
      <trkpt lat="47.15035" lon="-1.7146">
        <ele>71</ele>
        <time>2021-06-02T15:09:41.000Z</time>
      </trkpt>
      <trkpt lat="47.15025" lon="-1.71449">
        <ele>71</ele>
        <time>2021-06-02T15:09:43.000Z</time>
      </trkpt>
      <trkpt lat="47.15015" lon="-1.71439">
        <ele>71</ele>
        <time>2021-06-02T15:09:45.000Z</time>
      </trkpt>
      <trkpt lat="47.15004" lon="-1.71429">
        <ele>71</ele>
        <time>2021-06-02T15:09:47.000Z</time>
      </trkpt>
      <trkpt lat="47.14995" lon="-1.71421">
        <ele>71</ele>
        <time>2021-06-02T15:09:49.000Z</time>
      </trkpt>
      <trkpt lat="47.14985" lon="-1.71412">
        <ele>70</ele>
        <time>2021-06-02T15:09:51.000Z</time>
      </trkpt>
      <trkpt lat="47.14973" lon="-1.71401">
        <ele>71</ele>
        <time>2021-06-02T15:09:53.000Z</time>
      </trkpt>
      <trkpt lat="47.14964" lon="-1.7139">
        <ele>71</ele>
        <time>2021-06-02T15:09:55.000Z</time>
      </trkpt>
      <trkpt lat="47.14953" lon="-1.71379">
        <ele>72</ele>
        <time>2021-06-02T15:09:57.000Z</time>
      </trkpt>
      <trkpt lat="47.14945" lon="-1.71368">
        <ele>71</ele>
        <time>2021-06-02T15:09:59.000Z</time>
      </trkpt>
      <trkpt lat="47.1493" lon="-1.71352">
        <ele>71</ele>
        <time>2021-06-02T15:10:02.000Z</time>
      </trkpt>
      <trkpt lat="47.14921" lon="-1.7134">
        <ele>72</ele>
        <time>2021-06-02T15:10:04.000Z</time>
      </trkpt>
      <trkpt lat="47.14913" lon="-1.7133">
        <ele>72</ele>
        <time>2021-06-02T15:10:06.000Z</time>
      </trkpt>
      <trkpt lat="47.14897" lon="-1.71311">
        <ele>71</ele>
        <time>2021-06-02T15:10:09.000Z</time>
      </trkpt>
      <trkpt lat="47.14887" lon="-1.71299">
        <ele>71</ele>
        <time>2021-06-02T15:10:11.000Z</time>
      </trkpt>
      <trkpt lat="47.14877" lon="-1.7129">
        <ele>72</ele>
        <time>2021-06-02T15:10:13.000Z</time>
      </trkpt>
      <trkpt lat="47.14866" lon="-1.7128">
        <ele>73</ele>
        <time>2021-06-02T15:10:15.000Z</time>
      </trkpt>
      <trkpt lat="47.14856" lon="-1.71268">
        <ele>72</ele>
        <time>2021-06-02T15:10:17.000Z</time>
      </trkpt>
      <trkpt lat="47.14847" lon="-1.71257">
        <ele>72</ele>
        <time>2021-06-02T15:10:19.000Z</time>
      </trkpt>
      <trkpt lat="47.14841" lon="-1.71239">
        <ele>72</ele>
        <time>2021-06-02T15:10:21.000Z</time>
      </trkpt>
      <trkpt lat="47.14836" lon="-1.71223">
        <ele>73</ele>
        <time>2021-06-02T15:10:23.000Z</time>
      </trkpt>
      <trkpt lat="47.14829" lon="-1.71199">
        <ele>73</ele>
        <time>2021-06-02T15:10:26.000Z</time>
      </trkpt>
      <trkpt lat="47.14823" lon="-1.71184">
        <ele>72</ele>
        <time>2021-06-02T15:10:28.000Z</time>
      </trkpt>
      <trkpt lat="47.14815" lon="-1.7117">
        <ele>73</ele>
        <time>2021-06-02T15:10:30.000Z</time>
      </trkpt>
      <trkpt lat="47.14807" lon="-1.71145">
        <ele>74</ele>
        <time>2021-06-02T15:10:33.000Z</time>
      </trkpt>
      <trkpt lat="47.14801" lon="-1.7113">
        <ele>74</ele>
        <time>2021-06-02T15:10:35.000Z</time>
      </trkpt>
      <trkpt lat="47.14793" lon="-1.71115">
        <ele>74</ele>
        <time>2021-06-02T15:10:37.000Z</time>
      </trkpt>
      <trkpt lat="47.14786" lon="-1.711">
        <ele>75</ele>
        <time>2021-06-02T15:10:39.000Z</time>
      </trkpt>
      <trkpt lat="47.1478" lon="-1.71085">
        <ele>75</ele>
        <time>2021-06-02T15:10:41.000Z</time>
      </trkpt>
      <trkpt lat="47.14774" lon="-1.71071">
        <ele>74</ele>
        <time>2021-06-02T15:10:43.000Z</time>
      </trkpt>
      <trkpt lat="47.14768" lon="-1.71056">
        <ele>74</ele>
        <time>2021-06-02T15:10:45.000Z</time>
      </trkpt>
      <trkpt lat="47.14762" lon="-1.71039">
        <ele>73</ele>
        <time>2021-06-02T15:10:47.000Z</time>
      </trkpt>
      <trkpt lat="47.14758" lon="-1.7102">
        <ele>73</ele>
        <time>2021-06-02T15:10:49.000Z</time>
      </trkpt>
      <trkpt lat="47.14753" lon="-1.71004">
        <ele>72</ele>
        <time>2021-06-02T15:10:51.000Z</time>
      </trkpt>
      <trkpt lat="47.14748" lon="-1.70989">
        <ele>73</ele>
        <time>2021-06-02T15:10:53.000Z</time>
      </trkpt>
      <trkpt lat="47.14738" lon="-1.70982">
        <ele>72</ele>
        <time>2021-06-02T15:10:55.000Z</time>
      </trkpt>
      <trkpt lat="47.14727" lon="-1.70992">
        <ele>72</ele>
        <time>2021-06-02T15:10:57.000Z</time>
      </trkpt>
      <trkpt lat="47.1472" lon="-1.71005">
        <ele>73</ele>
        <time>2021-06-02T15:10:59.000Z</time>
      </trkpt>
      <trkpt lat="47.14713" lon="-1.7102">
        <ele>72</ele>
        <time>2021-06-02T15:11:01.000Z</time>
      </trkpt>
      <trkpt lat="47.1471" lon="-1.71037">
        <ele>72</ele>
        <time>2021-06-02T15:11:03.000Z</time>
      </trkpt>
      <trkpt lat="47.1471" lon="-1.71056">
        <ele>72</ele>
        <time>2021-06-02T15:11:05.000Z</time>
      </trkpt>
      <trkpt lat="47.14709" lon="-1.71076">
        <ele>72</ele>
        <time>2021-06-02T15:11:07.000Z</time>
      </trkpt>
      <trkpt lat="47.14711" lon="-1.71093">
        <ele>71</ele>
        <time>2021-06-02T15:11:09.000Z</time>
      </trkpt>
      <trkpt lat="47.14716" lon="-1.71112">
        <ele>71</ele>
        <time>2021-06-02T15:11:11.000Z</time>
      </trkpt>
      <trkpt lat="47.14719" lon="-1.7113">
        <ele>71</ele>
        <time>2021-06-02T15:11:13.000Z</time>
      </trkpt>
      <trkpt lat="47.14724" lon="-1.71148">
        <ele>71</ele>
        <time>2021-06-02T15:11:15.000Z</time>
      </trkpt>
      <trkpt lat="47.14728" lon="-1.71165">
        <ele>71</ele>
        <time>2021-06-02T15:11:17.000Z</time>
      </trkpt>
      <trkpt lat="47.14731" lon="-1.71183">
        <ele>71</ele>
        <time>2021-06-02T15:11:19.000Z</time>
      </trkpt>
      <trkpt lat="47.14736" lon="-1.71208">
        <ele>69</ele>
        <time>2021-06-02T15:11:22.000Z</time>
      </trkpt>
      <trkpt lat="47.14741" lon="-1.71223">
        <ele>66</ele>
        <time>2021-06-02T15:11:24.000Z</time>
      </trkpt>
      <trkpt lat="47.14745" lon="-1.71241">
        <ele>68</ele>
        <time>2021-06-02T15:11:26.000Z</time>
      </trkpt>
      <trkpt lat="47.14749" lon="-1.71259">
        <ele>71</ele>
        <time>2021-06-02T15:11:28.000Z</time>
      </trkpt>
      <trkpt lat="47.14754" lon="-1.71278">
        <ele>71</ele>
        <time>2021-06-02T15:11:30.000Z</time>
      </trkpt>
      <trkpt lat="47.14758" lon="-1.71296">
        <ele>71</ele>
        <time>2021-06-02T15:11:32.000Z</time>
      </trkpt>
      <trkpt lat="47.14763" lon="-1.71312">
        <ele>70</ele>
        <time>2021-06-02T15:11:34.000Z</time>
      </trkpt>
      <trkpt lat="47.14765" lon="-1.71332">
        <ele>72</ele>
        <time>2021-06-02T15:11:36.000Z</time>
      </trkpt>
      <trkpt lat="47.14767" lon="-1.71361">
        <ele>72</ele>
        <time>2021-06-02T15:11:39.000Z</time>
      </trkpt>
      <trkpt lat="47.14769" lon="-1.7138">
        <ele>73</ele>
        <time>2021-06-02T15:11:41.000Z</time>
      </trkpt>
      <trkpt lat="47.14773" lon="-1.71398">
        <ele>73</ele>
        <time>2021-06-02T15:11:43.000Z</time>
      </trkpt>
      <trkpt lat="47.14776" lon="-1.71416">
        <ele>73</ele>
        <time>2021-06-02T15:11:45.000Z</time>
      </trkpt>
      <trkpt lat="47.1478" lon="-1.71442">
        <ele>73</ele>
        <time>2021-06-02T15:11:48.000Z</time>
      </trkpt>
      <trkpt lat="47.14783" lon="-1.71461">
        <ele>73</ele>
        <time>2021-06-02T15:11:50.000Z</time>
      </trkpt>
      <trkpt lat="47.14786" lon="-1.71479">
        <ele>73</ele>
        <time>2021-06-02T15:11:52.000Z</time>
      </trkpt>
      <trkpt lat="47.14789" lon="-1.71498">
        <ele>73</ele>
        <time>2021-06-02T15:11:54.000Z</time>
      </trkpt>
      <trkpt lat="47.14791" lon="-1.71515">
        <ele>73</ele>
        <time>2021-06-02T15:11:56.000Z</time>
      </trkpt>
      <trkpt lat="47.14792" lon="-1.71533">
        <ele>73</ele>
        <time>2021-06-02T15:11:58.000Z</time>
      </trkpt>
      <trkpt lat="47.14792" lon="-1.7156">
        <ele>73</ele>
        <time>2021-06-02T15:12:01.000Z</time>
      </trkpt>
      <trkpt lat="47.14791" lon="-1.71578">
        <ele>73</ele>
        <time>2021-06-02T15:12:03.000Z</time>
      </trkpt>
      <trkpt lat="47.14788" lon="-1.71597">
        <ele>73</ele>
        <time>2021-06-02T15:12:05.000Z</time>
      </trkpt>
      <trkpt lat="47.14785" lon="-1.71615">
        <ele>74</ele>
        <time>2021-06-02T15:12:07.000Z</time>
      </trkpt>
      <trkpt lat="47.14785" lon="-1.71632">
        <ele>73</ele>
        <time>2021-06-02T15:12:09.000Z</time>
      </trkpt>
      <trkpt lat="47.14781" lon="-1.71657">
        <ele>72</ele>
        <time>2021-06-02T15:12:12.000Z</time>
      </trkpt>
      <trkpt lat="47.14776" lon="-1.71673">
        <ele>73</ele>
        <time>2021-06-02T15:12:14.000Z</time>
      </trkpt>
      <trkpt lat="47.14772" lon="-1.71697">
        <ele>74</ele>
        <time>2021-06-02T15:12:17.000Z</time>
      </trkpt>
      <trkpt lat="47.1477" lon="-1.71714">
        <ele>73</ele>
        <time>2021-06-02T15:12:19.000Z</time>
      </trkpt>
      <trkpt lat="47.14768" lon="-1.7173">
        <ele>72</ele>
        <time>2021-06-02T15:12:21.000Z</time>
      </trkpt>
      <trkpt lat="47.14764" lon="-1.71746">
        <ele>73</ele>
        <time>2021-06-02T15:12:23.000Z</time>
      </trkpt>
      <trkpt lat="47.14761" lon="-1.71761">
        <ele>74</ele>
        <time>2021-06-02T15:12:25.000Z</time>
      </trkpt>
      <trkpt lat="47.14756" lon="-1.71778">
        <ele>74</ele>
        <time>2021-06-02T15:12:27.000Z</time>
      </trkpt>
      <trkpt lat="47.14751" lon="-1.71793">
        <ele>75</ele>
        <time>2021-06-02T15:12:29.000Z</time>
      </trkpt>
      <trkpt lat="47.14737" lon="-1.71814">
        <ele>73</ele>
        <time>2021-06-02T15:12:32.000Z</time>
      </trkpt>
      <trkpt lat="47.14725" lon="-1.7182">
        <ele>74</ele>
        <time>2021-06-02T15:12:34.000Z</time>
      </trkpt>
      <trkpt lat="47.14713" lon="-1.71827">
        <ele>74</ele>
        <time>2021-06-02T15:12:36.000Z</time>
      </trkpt>
      <trkpt lat="47.14701" lon="-1.71833">
        <ele>73</ele>
        <time>2021-06-02T15:12:38.000Z</time>
      </trkpt>
      <trkpt lat="47.14689" lon="-1.71838">
        <ele>73</ele>
        <time>2021-06-02T15:12:40.000Z</time>
      </trkpt>
      <trkpt lat="47.14677" lon="-1.71844">
        <ele>73</ele>
        <time>2021-06-02T15:12:42.000Z</time>
      </trkpt>
      <trkpt lat="47.14665" lon="-1.71849">
        <ele>74</ele>
        <time>2021-06-02T15:12:44.000Z</time>
      </trkpt>
      <trkpt lat="47.14653" lon="-1.71854">
        <ele>73</ele>
        <time>2021-06-02T15:12:46.000Z</time>
      </trkpt>
      <trkpt lat="47.1464" lon="-1.71856">
        <ele>73</ele>
        <time>2021-06-02T15:12:48.000Z</time>
      </trkpt>
      <trkpt lat="47.14627" lon="-1.71856">
        <ele>73</ele>
        <time>2021-06-02T15:12:50.000Z</time>
      </trkpt>
      <trkpt lat="47.14615" lon="-1.71855">
        <ele>73</ele>
        <time>2021-06-02T15:12:52.000Z</time>
      </trkpt>
      <trkpt lat="47.14602" lon="-1.71852">
        <ele>72</ele>
        <time>2021-06-02T15:12:54.000Z</time>
      </trkpt>
      <trkpt lat="47.14589" lon="-1.71848">
        <ele>73</ele>
        <time>2021-06-02T15:12:56.000Z</time>
      </trkpt>
      <trkpt lat="47.14577" lon="-1.71843">
        <ele>73</ele>
        <time>2021-06-02T15:12:58.000Z</time>
      </trkpt>
      <trkpt lat="47.14565" lon="-1.71837">
        <ele>73</ele>
        <time>2021-06-02T15:13:00.000Z</time>
      </trkpt>
      <trkpt lat="47.14553" lon="-1.71831">
        <ele>73</ele>
        <time>2021-06-02T15:13:02.000Z</time>
      </trkpt>
      <trkpt lat="47.14541" lon="-1.71825">
        <ele>73</ele>
        <time>2021-06-02T15:13:04.000Z</time>
      </trkpt>
      <trkpt lat="47.14529" lon="-1.71818">
        <ele>72</ele>
        <time>2021-06-02T15:13:06.000Z</time>
      </trkpt>
      <trkpt lat="47.14517" lon="-1.71812">
        <ele>72</ele>
        <time>2021-06-02T15:13:08.000Z</time>
      </trkpt>
      <trkpt lat="47.14505" lon="-1.71807">
        <ele>72</ele>
        <time>2021-06-02T15:13:10.000Z</time>
      </trkpt>
      <trkpt lat="47.14487" lon="-1.71802">
        <ele>72</ele>
        <time>2021-06-02T15:13:13.000Z</time>
      </trkpt>
      <trkpt lat="47.14474" lon="-1.71794">
        <ele>72</ele>
        <time>2021-06-02T15:13:15.000Z</time>
      </trkpt>
      <trkpt lat="47.14462" lon="-1.71788">
        <ele>71</ele>
        <time>2021-06-02T15:13:17.000Z</time>
      </trkpt>
      <trkpt lat="47.1445" lon="-1.71785">
        <ele>71</ele>
        <time>2021-06-02T15:13:19.000Z</time>
      </trkpt>
      <trkpt lat="47.14429" lon="-1.71781">
        <ele>71</ele>
        <time>2021-06-02T15:13:22.000Z</time>
      </trkpt>
      <trkpt lat="47.14417" lon="-1.71781">
        <ele>71</ele>
        <time>2021-06-02T15:13:24.000Z</time>
      </trkpt>
      <trkpt lat="47.14404" lon="-1.71781">
        <ele>71</ele>
        <time>2021-06-02T15:13:26.000Z</time>
      </trkpt>
      <trkpt lat="47.14392" lon="-1.71785">
        <ele>71</ele>
        <time>2021-06-02T15:13:28.000Z</time>
      </trkpt>
      <trkpt lat="47.1438" lon="-1.71788">
        <ele>70</ele>
        <time>2021-06-02T15:13:30.000Z</time>
      </trkpt>
      <trkpt lat="47.14368" lon="-1.71792">
        <ele>70</ele>
        <time>2021-06-02T15:13:32.000Z</time>
      </trkpt>
      <trkpt lat="47.14352" lon="-1.71799">
        <ele>70</ele>
        <time>2021-06-02T15:13:35.000Z</time>
      </trkpt>
      <trkpt lat="47.14333" lon="-1.71805">
        <ele>70</ele>
        <time>2021-06-02T15:13:38.000Z</time>
      </trkpt>
      <trkpt lat="47.14321" lon="-1.71809">
        <ele>70</ele>
        <time>2021-06-02T15:13:40.000Z</time>
      </trkpt>
      <trkpt lat="47.14309" lon="-1.71812">
        <ele>69</ele>
        <time>2021-06-02T15:13:42.000Z</time>
      </trkpt>
      <trkpt lat="47.14298" lon="-1.71816">
        <ele>68</ele>
        <time>2021-06-02T15:13:44.000Z</time>
      </trkpt>
      <trkpt lat="47.14287" lon="-1.7182">
        <ele>70</ele>
        <time>2021-06-02T15:13:46.000Z</time>
      </trkpt>
      <trkpt lat="47.14273" lon="-1.71825">
        <ele>70</ele>
        <time>2021-06-02T15:13:48.000Z</time>
      </trkpt>
      <trkpt lat="47.1426" lon="-1.71829">
        <ele>70</ele>
        <time>2021-06-02T15:13:50.000Z</time>
      </trkpt>
      <trkpt lat="47.14249" lon="-1.71834">
        <ele>69</ele>
        <time>2021-06-02T15:13:52.000Z</time>
      </trkpt>
      <trkpt lat="47.14236" lon="-1.71837">
        <ele>69</ele>
        <time>2021-06-02T15:13:54.000Z</time>
      </trkpt>
      <trkpt lat="47.14217" lon="-1.71844">
        <ele>69</ele>
        <time>2021-06-02T15:13:57.000Z</time>
      </trkpt>
      <trkpt lat="47.14205" lon="-1.71849">
        <ele>69</ele>
        <time>2021-06-02T15:13:59.000Z</time>
      </trkpt>
      <trkpt lat="47.14192" lon="-1.71852">
        <ele>69</ele>
        <time>2021-06-02T15:14:01.000Z</time>
      </trkpt>
      <trkpt lat="47.1418" lon="-1.71856">
        <ele>69</ele>
        <time>2021-06-02T15:14:03.000Z</time>
      </trkpt>
      <trkpt lat="47.14167" lon="-1.7186">
        <ele>68</ele>
        <time>2021-06-02T15:14:05.000Z</time>
      </trkpt>
      <trkpt lat="47.14155" lon="-1.71864">
        <ele>68</ele>
        <time>2021-06-02T15:14:07.000Z</time>
      </trkpt>
      <trkpt lat="47.14142" lon="-1.71868">
        <ele>67</ele>
        <time>2021-06-02T15:14:09.000Z</time>
      </trkpt>
      <trkpt lat="47.14123" lon="-1.71875">
        <ele>66</ele>
        <time>2021-06-02T15:14:12.000Z</time>
      </trkpt>
      <trkpt lat="47.14109" lon="-1.71878">
        <ele>65</ele>
        <time>2021-06-02T15:14:14.000Z</time>
      </trkpt>
      <trkpt lat="47.14095" lon="-1.71883">
        <ele>64</ele>
        <time>2021-06-02T15:14:16.000Z</time>
      </trkpt>
      <trkpt lat="47.1408" lon="-1.71888">
        <ele>64</ele>
        <time>2021-06-02T15:14:18.000Z</time>
      </trkpt>
      <trkpt lat="47.14065" lon="-1.71892">
        <ele>62</ele>
        <time>2021-06-02T15:14:20.000Z</time>
      </trkpt>
      <trkpt lat="47.1405" lon="-1.71897">
        <ele>62</ele>
        <time>2021-06-02T15:14:22.000Z</time>
      </trkpt>
      <trkpt lat="47.14036" lon="-1.71904">
        <ele>61</ele>
        <time>2021-06-02T15:14:24.000Z</time>
      </trkpt>
      <trkpt lat="47.1402" lon="-1.7191">
        <ele>61</ele>
        <time>2021-06-02T15:14:26.000Z</time>
      </trkpt>
      <trkpt lat="47.13996" lon="-1.71904">
        <ele>60</ele>
        <time>2021-06-02T15:14:29.000Z</time>
      </trkpt>
      <trkpt lat="47.13981" lon="-1.71902">
        <ele>59</ele>
        <time>2021-06-02T15:14:31.000Z</time>
      </trkpt>
      <trkpt lat="47.13966" lon="-1.71916">
        <ele>57</ele>
        <time>2021-06-02T15:14:34.000Z</time>
      </trkpt>
      <trkpt lat="47.13967" lon="-1.71935">
        <ele>57</ele>
        <time>2021-06-02T15:14:36.000Z</time>
      </trkpt>
      <trkpt lat="47.13965" lon="-1.71953">
        <ele>56</ele>
        <time>2021-06-02T15:14:38.000Z</time>
      </trkpt>
      <trkpt lat="47.13958" lon="-1.71967">
        <ele>56</ele>
        <time>2021-06-02T15:14:40.000Z</time>
      </trkpt>
      <trkpt lat="47.13945" lon="-1.71976">
        <ele>57</ele>
        <time>2021-06-02T15:14:42.000Z</time>
      </trkpt>
      <trkpt lat="47.13934" lon="-1.71982">
        <ele>58</ele>
        <time>2021-06-02T15:14:44.000Z</time>
      </trkpt>
      <trkpt lat="47.13924" lon="-1.71987">
        <ele>58</ele>
        <time>2021-06-02T15:14:46.000Z</time>
      </trkpt>
      <trkpt lat="47.13908" lon="-1.71995">
        <ele>59</ele>
        <time>2021-06-02T15:14:49.000Z</time>
      </trkpt>
      <trkpt lat="47.13897" lon="-1.72001">
        <ele>60</ele>
        <time>2021-06-02T15:14:51.000Z</time>
      </trkpt>
      <trkpt lat="47.13886" lon="-1.72008">
        <ele>60</ele>
        <time>2021-06-02T15:14:53.000Z</time>
      </trkpt>
      <trkpt lat="47.13873" lon="-1.72022">
        <ele>61</ele>
        <time>2021-06-02T15:14:56.000Z</time>
      </trkpt>
      <trkpt lat="47.13864" lon="-1.72034">
        <ele>61</ele>
        <time>2021-06-02T15:14:58.000Z</time>
      </trkpt>
      <trkpt lat="47.13857" lon="-1.72046">
        <ele>61</ele>
        <time>2021-06-02T15:15:00.000Z</time>
      </trkpt>
      <trkpt lat="47.13846" lon="-1.72068">
        <ele>60</ele>
        <time>2021-06-02T15:15:03.000Z</time>
      </trkpt>
      <trkpt lat="47.13839" lon="-1.72079">
        <ele>61</ele>
        <time>2021-06-02T15:15:05.000Z</time>
      </trkpt>
      <trkpt lat="47.13831" lon="-1.72091">
        <ele>62</ele>
        <time>2021-06-02T15:15:07.000Z</time>
      </trkpt>
      <trkpt lat="47.13819" lon="-1.72109">
        <ele>63</ele>
        <time>2021-06-02T15:15:10.000Z</time>
      </trkpt>
      <trkpt lat="47.13807" lon="-1.72126">
        <ele>64</ele>
        <time>2021-06-02T15:15:13.000Z</time>
      </trkpt>
      <trkpt lat="47.13801" lon="-1.72139">
        <ele>62</ele>
        <time>2021-06-02T15:15:15.000Z</time>
      </trkpt>
      <trkpt lat="47.13788" lon="-1.72159">
        <ele>63</ele>
        <time>2021-06-02T15:15:18.000Z</time>
      </trkpt>
      <trkpt lat="47.1378" lon="-1.72171">
        <ele>64</ele>
        <time>2021-06-02T15:15:20.000Z</time>
      </trkpt>
      <trkpt lat="47.13773" lon="-1.72184">
        <ele>65</ele>
        <time>2021-06-02T15:15:22.000Z</time>
      </trkpt>
      <trkpt lat="47.13765" lon="-1.72198">
        <ele>65</ele>
        <time>2021-06-02T15:15:24.000Z</time>
      </trkpt>
      <trkpt lat="47.13758" lon="-1.72211">
        <ele>66</ele>
        <time>2021-06-02T15:15:26.000Z</time>
      </trkpt>
      <trkpt lat="47.13751" lon="-1.72225">
        <ele>67</ele>
        <time>2021-06-02T15:15:28.000Z</time>
      </trkpt>
      <trkpt lat="47.13745" lon="-1.72238">
        <ele>68</ele>
        <time>2021-06-02T15:15:30.000Z</time>
      </trkpt>
      <trkpt lat="47.13741" lon="-1.72251">
        <ele>68</ele>
        <time>2021-06-02T15:15:32.000Z</time>
      </trkpt>
      <trkpt lat="47.13737" lon="-1.72264">
        <ele>68</ele>
        <time>2021-06-02T15:15:34.000Z</time>
      </trkpt>
      <trkpt lat="47.13735" lon="-1.7228">
        <ele>68</ele>
        <time>2021-06-02T15:15:36.000Z</time>
      </trkpt>
      <trkpt lat="47.13732" lon="-1.72302">
        <ele>69</ele>
        <time>2021-06-02T15:15:39.000Z</time>
      </trkpt>
      <trkpt lat="47.13731" lon="-1.72316">
        <ele>69</ele>
        <time>2021-06-02T15:15:41.000Z</time>
      </trkpt>
      <trkpt lat="47.13731" lon="-1.72333">
        <ele>70</ele>
        <time>2021-06-02T15:15:43.000Z</time>
      </trkpt>
      <trkpt lat="47.13729" lon="-1.7235">
        <ele>70</ele>
        <time>2021-06-02T15:15:45.000Z</time>
      </trkpt>
      <trkpt lat="47.13723" lon="-1.72371">
        <ele>70</ele>
        <time>2021-06-02T15:15:48.000Z</time>
      </trkpt>
      <trkpt lat="47.13719" lon="-1.72384">
        <ele>70</ele>
        <time>2021-06-02T15:15:50.000Z</time>
      </trkpt>
      <trkpt lat="47.13715" lon="-1.72398">
        <ele>72</ele>
        <time>2021-06-02T15:15:52.000Z</time>
      </trkpt>
      <trkpt lat="47.13711" lon="-1.72413">
        <ele>72</ele>
        <time>2021-06-02T15:15:54.000Z</time>
      </trkpt>
      <trkpt lat="47.13707" lon="-1.72428">
        <ele>72</ele>
        <time>2021-06-02T15:15:56.000Z</time>
      </trkpt>
      <trkpt lat="47.13702" lon="-1.72442">
        <ele>72</ele>
        <time>2021-06-02T15:15:58.000Z</time>
      </trkpt>
      <trkpt lat="47.13699" lon="-1.72456">
        <ele>72</ele>
        <time>2021-06-02T15:16:00.000Z</time>
      </trkpt>
      <trkpt lat="47.13694" lon="-1.72472">
        <ele>71</ele>
        <time>2021-06-02T15:16:02.000Z</time>
      </trkpt>
      <trkpt lat="47.13691" lon="-1.72486">
        <ele>71</ele>
        <time>2021-06-02T15:16:04.000Z</time>
      </trkpt>
      <trkpt lat="47.13687" lon="-1.72501">
        <ele>73</ele>
        <time>2021-06-02T15:16:06.000Z</time>
      </trkpt>
      <trkpt lat="47.13684" lon="-1.72516">
        <ele>72</ele>
        <time>2021-06-02T15:16:08.000Z</time>
      </trkpt>
      <trkpt lat="47.13682" lon="-1.72533">
        <ele>72</ele>
        <time>2021-06-02T15:16:10.000Z</time>
      </trkpt>
      <trkpt lat="47.13681" lon="-1.7255">
        <ele>72</ele>
        <time>2021-06-02T15:16:12.000Z</time>
      </trkpt>
      <trkpt lat="47.1368" lon="-1.72567">
        <ele>71</ele>
        <time>2021-06-02T15:16:14.000Z</time>
      </trkpt>
      <trkpt lat="47.1368" lon="-1.72582">
        <ele>72</ele>
        <time>2021-06-02T15:16:16.000Z</time>
      </trkpt>
      <trkpt lat="47.13678" lon="-1.72598">
        <ele>72</ele>
        <time>2021-06-02T15:16:18.000Z</time>
      </trkpt>
      <trkpt lat="47.13677" lon="-1.72612">
        <ele>71</ele>
        <time>2021-06-02T15:16:20.000Z</time>
      </trkpt>
      <trkpt lat="47.13674" lon="-1.72634">
        <ele>71</ele>
        <time>2021-06-02T15:16:23.000Z</time>
      </trkpt>
      <trkpt lat="47.13671" lon="-1.72649">
        <ele>71</ele>
        <time>2021-06-02T15:16:25.000Z</time>
      </trkpt>
      <trkpt lat="47.13671" lon="-1.72665">
        <ele>69</ele>
        <time>2021-06-02T15:16:27.000Z</time>
      </trkpt>
      <trkpt lat="47.13668" lon="-1.72679">
        <ele>69</ele>
        <time>2021-06-02T15:16:29.000Z</time>
      </trkpt>
      <trkpt lat="47.13664" lon="-1.72712">
        <ele>71</ele>
        <time>2021-06-02T15:16:33.000Z</time>
      </trkpt>
      <trkpt lat="47.13662" lon="-1.72727">
        <ele>72</ele>
        <time>2021-06-02T15:16:35.000Z</time>
      </trkpt>
      <trkpt lat="47.1366" lon="-1.72742">
        <ele>72</ele>
        <time>2021-06-02T15:16:37.000Z</time>
      </trkpt>
      <trkpt lat="47.13659" lon="-1.72758">
        <ele>72</ele>
        <time>2021-06-02T15:16:39.000Z</time>
      </trkpt>
      <trkpt lat="47.13658" lon="-1.72774">
        <ele>71</ele>
        <time>2021-06-02T15:16:41.000Z</time>
      </trkpt>
      <trkpt lat="47.13658" lon="-1.72791">
        <ele>71</ele>
        <time>2021-06-02T15:16:43.000Z</time>
      </trkpt>
      <trkpt lat="47.13657" lon="-1.72807">
        <ele>70</ele>
        <time>2021-06-02T15:16:45.000Z</time>
      </trkpt>
      <trkpt lat="47.13655" lon="-1.72823">
        <ele>70</ele>
        <time>2021-06-02T15:16:47.000Z</time>
      </trkpt>
      <trkpt lat="47.13653" lon="-1.7284">
        <ele>70</ele>
        <time>2021-06-02T15:16:49.000Z</time>
      </trkpt>
      <trkpt lat="47.13652" lon="-1.72858">
        <ele>69</ele>
        <time>2021-06-02T15:16:51.000Z</time>
      </trkpt>
      <trkpt lat="47.13647" lon="-1.72876">
        <ele>68</ele>
        <time>2021-06-02T15:16:53.000Z</time>
      </trkpt>
      <trkpt lat="47.13646" lon="-1.72895">
        <ele>67</ele>
        <time>2021-06-02T15:16:55.000Z</time>
      </trkpt>
      <trkpt lat="47.13644" lon="-1.72917">
        <ele>66</ele>
        <time>2021-06-02T15:16:57.000Z</time>
      </trkpt>
      <trkpt lat="47.13642" lon="-1.72951">
        <ele>67</ele>
        <time>2021-06-02T15:17:00.000Z</time>
      </trkpt>
      <trkpt lat="47.13639" lon="-1.72973">
        <ele>66</ele>
        <time>2021-06-02T15:17:02.000Z</time>
      </trkpt>
      <trkpt lat="47.13637" lon="-1.72996">
        <ele>66</ele>
        <time>2021-06-02T15:17:04.000Z</time>
      </trkpt>
      <trkpt lat="47.13635" lon="-1.73018">
        <ele>64</ele>
        <time>2021-06-02T15:17:06.000Z</time>
      </trkpt>
      <trkpt lat="47.13629" lon="-1.73037">
        <ele>63</ele>
        <time>2021-06-02T15:17:08.000Z</time>
      </trkpt>
      <trkpt lat="47.1362" lon="-1.73053">
        <ele>64</ele>
        <time>2021-06-02T15:17:10.000Z</time>
      </trkpt>
      <trkpt lat="47.13607" lon="-1.73063">
        <ele>63</ele>
        <time>2021-06-02T15:17:12.000Z</time>
      </trkpt>
      <trkpt lat="47.13595" lon="-1.73073">
        <ele>63</ele>
        <time>2021-06-02T15:17:14.000Z</time>
      </trkpt>
      <trkpt lat="47.13583" lon="-1.73082">
        <ele>63</ele>
        <time>2021-06-02T15:17:16.000Z</time>
      </trkpt>
      <trkpt lat="47.13571" lon="-1.73092">
        <ele>62</ele>
        <time>2021-06-02T15:17:18.000Z</time>
      </trkpt>
      <trkpt lat="47.1356" lon="-1.73104">
        <ele>62</ele>
        <time>2021-06-02T15:17:20.000Z</time>
      </trkpt>
      <trkpt lat="47.1355" lon="-1.73114">
        <ele>61</ele>
        <time>2021-06-02T15:17:22.000Z</time>
      </trkpt>
      <trkpt lat="47.13541" lon="-1.73125">
        <ele>61</ele>
        <time>2021-06-02T15:17:24.000Z</time>
      </trkpt>
      <trkpt lat="47.13531" lon="-1.73136">
        <ele>60</ele>
        <time>2021-06-02T15:17:26.000Z</time>
      </trkpt>
      <trkpt lat="47.13521" lon="-1.73149">
        <ele>60</ele>
        <time>2021-06-02T15:17:28.000Z</time>
      </trkpt>
      <trkpt lat="47.13513" lon="-1.73166">
        <ele>59</ele>
        <time>2021-06-02T15:17:30.000Z</time>
      </trkpt>
      <trkpt lat="47.13509" lon="-1.73195">
        <ele>58</ele>
        <time>2021-06-02T15:17:33.000Z</time>
      </trkpt>
      <trkpt lat="47.13507" lon="-1.73215">
        <ele>58</ele>
        <time>2021-06-02T15:17:35.000Z</time>
      </trkpt>
      <trkpt lat="47.13506" lon="-1.73235">
        <ele>56</ele>
        <time>2021-06-02T15:17:37.000Z</time>
      </trkpt>
      <trkpt lat="47.13504" lon="-1.73255">
        <ele>56</ele>
        <time>2021-06-02T15:17:39.000Z</time>
      </trkpt>
      <trkpt lat="47.13503" lon="-1.73276">
        <ele>55</ele>
        <time>2021-06-02T15:17:41.000Z</time>
      </trkpt>
      <trkpt lat="47.13504" lon="-1.73297">
        <ele>55</ele>
        <time>2021-06-02T15:17:43.000Z</time>
      </trkpt>
      <trkpt lat="47.13508" lon="-1.73316">
        <ele>55</ele>
        <time>2021-06-02T15:17:45.000Z</time>
      </trkpt>
      <trkpt lat="47.13515" lon="-1.73343">
        <ele>56</ele>
        <time>2021-06-02T15:17:48.000Z</time>
      </trkpt>
      <trkpt lat="47.13519" lon="-1.7336">
        <ele>57</ele>
        <time>2021-06-02T15:17:50.000Z</time>
      </trkpt>
      <trkpt lat="47.13525" lon="-1.73376">
        <ele>57</ele>
        <time>2021-06-02T15:17:52.000Z</time>
      </trkpt>
      <trkpt lat="47.13532" lon="-1.73393">
        <ele>58</ele>
        <time>2021-06-02T15:17:54.000Z</time>
      </trkpt>
      <trkpt lat="47.13537" lon="-1.7341">
        <ele>58</ele>
        <time>2021-06-02T15:17:56.000Z</time>
      </trkpt>
      <trkpt lat="47.13542" lon="-1.73427">
        <ele>59</ele>
        <time>2021-06-02T15:17:58.000Z</time>
      </trkpt>
      <trkpt lat="47.13548" lon="-1.73444">
        <ele>59</ele>
        <time>2021-06-02T15:18:00.000Z</time>
      </trkpt>
      <trkpt lat="47.13553" lon="-1.73461">
        <ele>59</ele>
        <time>2021-06-02T15:18:02.000Z</time>
      </trkpt>
      <trkpt lat="47.13558" lon="-1.73478">
        <ele>60</ele>
        <time>2021-06-02T15:18:04.000Z</time>
      </trkpt>
      <trkpt lat="47.13562" lon="-1.73495">
        <ele>60</ele>
        <time>2021-06-02T15:18:06.000Z</time>
      </trkpt>
      <trkpt lat="47.13568" lon="-1.73514">
        <ele>59</ele>
        <time>2021-06-02T15:18:08.000Z</time>
      </trkpt>
      <trkpt lat="47.13574" lon="-1.7354">
        <ele>59</ele>
        <time>2021-06-02T15:18:11.000Z</time>
      </trkpt>
      <trkpt lat="47.13581" lon="-1.73562">
        <ele>52</ele>
        <time>2021-06-02T15:18:14.000Z</time>
      </trkpt>
      <trkpt lat="47.13587" lon="-1.73581">
        <ele>53</ele>
        <time>2021-06-02T15:18:16.000Z</time>
      </trkpt>
      <trkpt lat="47.13595" lon="-1.73596">
        <ele>53</ele>
        <time>2021-06-02T15:18:18.000Z</time>
      </trkpt>
      <trkpt lat="47.13602" lon="-1.73613">
        <ele>56</ele>
        <time>2021-06-02T15:18:20.000Z</time>
      </trkpt>
      <trkpt lat="47.13608" lon="-1.73631">
        <ele>57</ele>
        <time>2021-06-02T15:18:22.000Z</time>
      </trkpt>
      <trkpt lat="47.13612" lon="-1.73649">
        <ele>57</ele>
        <time>2021-06-02T15:18:24.000Z</time>
      </trkpt>
      <trkpt lat="47.13617" lon="-1.73665">
        <ele>58</ele>
        <time>2021-06-02T15:18:26.000Z</time>
      </trkpt>
      <trkpt lat="47.13623" lon="-1.73681">
        <ele>58</ele>
        <time>2021-06-02T15:18:28.000Z</time>
      </trkpt>
      <trkpt lat="47.13628" lon="-1.73699">
        <ele>59</ele>
        <time>2021-06-02T15:18:30.000Z</time>
      </trkpt>
      <trkpt lat="47.13631" lon="-1.73718">
        <ele>58</ele>
        <time>2021-06-02T15:18:32.000Z</time>
      </trkpt>
      <trkpt lat="47.13633" lon="-1.73738">
        <ele>58</ele>
        <time>2021-06-02T15:18:34.000Z</time>
      </trkpt>
      <trkpt lat="47.13636" lon="-1.73757">
        <ele>57</ele>
        <time>2021-06-02T15:18:36.000Z</time>
      </trkpt>
      <trkpt lat="47.13637" lon="-1.73779">
        <ele>57</ele>
        <time>2021-06-02T15:18:38.000Z</time>
      </trkpt>
      <trkpt lat="47.13638" lon="-1.73803">
        <ele>56</ele>
        <time>2021-06-02T15:18:40.000Z</time>
      </trkpt>
      <trkpt lat="47.13642" lon="-1.73831">
        <ele>57</ele>
        <time>2021-06-02T15:18:42.000Z</time>
      </trkpt>
      <trkpt lat="47.13645" lon="-1.7386">
        <ele>56</ele>
        <time>2021-06-02T15:18:45.000Z</time>
      </trkpt>
      <trkpt lat="47.13645" lon="-1.73879">
        <ele>57</ele>
        <time>2021-06-02T15:18:47.000Z</time>
      </trkpt>
      <trkpt lat="47.13645" lon="-1.73897">
        <ele>57</ele>
        <time>2021-06-02T15:18:49.000Z</time>
      </trkpt>
      <trkpt lat="47.13646" lon="-1.73914">
        <ele>56</ele>
        <time>2021-06-02T15:18:51.000Z</time>
      </trkpt>
      <trkpt lat="47.13646" lon="-1.73931">
        <ele>56</ele>
        <time>2021-06-02T15:18:53.000Z</time>
      </trkpt>
      <trkpt lat="47.13646" lon="-1.73956">
        <ele>57</ele>
        <time>2021-06-02T15:18:56.000Z</time>
      </trkpt>
      <trkpt lat="47.13646" lon="-1.73972">
        <ele>57</ele>
        <time>2021-06-02T15:18:58.000Z</time>
      </trkpt>
      <trkpt lat="47.13646" lon="-1.7399">
        <ele>56</ele>
        <time>2021-06-02T15:19:00.000Z</time>
      </trkpt>
      <trkpt lat="47.13645" lon="-1.74006">
        <ele>57</ele>
        <time>2021-06-02T15:19:02.000Z</time>
      </trkpt>
      <trkpt lat="47.13644" lon="-1.74022">
        <ele>58</ele>
        <time>2021-06-02T15:19:04.000Z</time>
      </trkpt>
      <trkpt lat="47.13642" lon="-1.74037">
        <ele>59</ele>
        <time>2021-06-02T15:19:06.000Z</time>
      </trkpt>
      <trkpt lat="47.1364" lon="-1.74054">
        <ele>60</ele>
        <time>2021-06-02T15:19:08.000Z</time>
      </trkpt>
      <trkpt lat="47.13639" lon="-1.7407">
        <ele>60</ele>
        <time>2021-06-02T15:19:10.000Z</time>
      </trkpt>
      <trkpt lat="47.13639" lon="-1.74092">
        <ele>62</ele>
        <time>2021-06-02T15:19:13.000Z</time>
      </trkpt>
      <trkpt lat="47.13641" lon="-1.7411">
        <ele>62</ele>
        <time>2021-06-02T15:19:15.000Z</time>
      </trkpt>
      <trkpt lat="47.13643" lon="-1.74126">
        <ele>63</ele>
        <time>2021-06-02T15:19:17.000Z</time>
      </trkpt>
      <trkpt lat="47.13645" lon="-1.74143">
        <ele>62</ele>
        <time>2021-06-02T15:19:19.000Z</time>
      </trkpt>
      <trkpt lat="47.13649" lon="-1.74159">
        <ele>63</ele>
        <time>2021-06-02T15:19:21.000Z</time>
      </trkpt>
      <trkpt lat="47.13652" lon="-1.74174">
        <ele>64</ele>
        <time>2021-06-02T15:19:23.000Z</time>
      </trkpt>
      <trkpt lat="47.13656" lon="-1.74191">
        <ele>63</ele>
        <time>2021-06-02T15:19:25.000Z</time>
      </trkpt>
      <trkpt lat="47.13663" lon="-1.74215">
        <ele>63</ele>
        <time>2021-06-02T15:19:28.000Z</time>
      </trkpt>
      <trkpt lat="47.13669" lon="-1.74232">
        <ele>63</ele>
        <time>2021-06-02T15:19:30.000Z</time>
      </trkpt>
      <trkpt lat="47.13672" lon="-1.74247">
        <ele>62</ele>
        <time>2021-06-02T15:19:32.000Z</time>
      </trkpt>
      <trkpt lat="47.13677" lon="-1.74273">
        <ele>60</ele>
        <time>2021-06-02T15:19:35.000Z</time>
      </trkpt>
      <trkpt lat="47.13687" lon="-1.74297">
        <ele>60</ele>
        <time>2021-06-02T15:19:38.000Z</time>
      </trkpt>
      <trkpt lat="47.13692" lon="-1.74315">
        <ele>60</ele>
        <time>2021-06-02T15:19:40.000Z</time>
      </trkpt>
      <trkpt lat="47.13694" lon="-1.74334">
        <ele>59</ele>
        <time>2021-06-02T15:19:42.000Z</time>
      </trkpt>
      <trkpt lat="47.13695" lon="-1.74355">
        <ele>58</ele>
        <time>2021-06-02T15:19:44.000Z</time>
      </trkpt>
      <trkpt lat="47.13696" lon="-1.74375">
        <ele>56</ele>
        <time>2021-06-02T15:19:46.000Z</time>
      </trkpt>
      <trkpt lat="47.13697" lon="-1.74397">
        <ele>55</ele>
        <time>2021-06-02T15:19:48.000Z</time>
      </trkpt>
      <trkpt lat="47.13695" lon="-1.7442">
        <ele>54</ele>
        <time>2021-06-02T15:19:50.000Z</time>
      </trkpt>
      <trkpt lat="47.13694" lon="-1.74443">
        <ele>54</ele>
        <time>2021-06-02T15:19:52.000Z</time>
      </trkpt>
      <trkpt lat="47.13688" lon="-1.74464">
        <ele>54</ele>
        <time>2021-06-02T15:19:54.000Z</time>
      </trkpt>
      <trkpt lat="47.13669" lon="-1.74487">
        <ele>52</ele>
        <time>2021-06-02T15:19:57.000Z</time>
      </trkpt>
      <trkpt lat="47.13657" lon="-1.745">
        <ele>52</ele>
        <time>2021-06-02T15:19:59.000Z</time>
      </trkpt>
      <trkpt lat="47.13646" lon="-1.74511">
        <ele>52</ele>
        <time>2021-06-02T15:20:01.000Z</time>
      </trkpt>
      <trkpt lat="47.13635" lon="-1.74521">
        <ele>53</ele>
        <time>2021-06-02T15:20:03.000Z</time>
      </trkpt>
      <trkpt lat="47.13619" lon="-1.74536">
        <ele>53</ele>
        <time>2021-06-02T15:20:06.000Z</time>
      </trkpt>
      <trkpt lat="47.13607" lon="-1.74548">
        <ele>53</ele>
        <time>2021-06-02T15:20:08.000Z</time>
      </trkpt>
      <trkpt lat="47.13595" lon="-1.74561">
        <ele>52</ele>
        <time>2021-06-02T15:20:10.000Z</time>
      </trkpt>
      <trkpt lat="47.13583" lon="-1.74574">
        <ele>52</ele>
        <time>2021-06-02T15:20:12.000Z</time>
      </trkpt>
      <trkpt lat="47.1357" lon="-1.74586">
        <ele>51</ele>
        <time>2021-06-02T15:20:14.000Z</time>
      </trkpt>
      <trkpt lat="47.13558" lon="-1.74599">
        <ele>51</ele>
        <time>2021-06-02T15:20:16.000Z</time>
      </trkpt>
      <trkpt lat="47.13545" lon="-1.74611">
        <ele>52</ele>
        <time>2021-06-02T15:20:18.000Z</time>
      </trkpt>
      <trkpt lat="47.13534" lon="-1.74623">
        <ele>52</ele>
        <time>2021-06-02T15:20:20.000Z</time>
      </trkpt>
      <trkpt lat="47.13523" lon="-1.74634">
        <ele>53</ele>
        <time>2021-06-02T15:20:22.000Z</time>
      </trkpt>
      <trkpt lat="47.13507" lon="-1.74649">
        <ele>54</ele>
        <time>2021-06-02T15:20:25.000Z</time>
      </trkpt>
      <trkpt lat="47.135" lon="-1.74659">
        <ele>54</ele>
        <time>2021-06-02T15:20:27.000Z</time>
      </trkpt>
      <trkpt lat="47.13495" lon="-1.74672">
        <ele>54</ele>
        <time>2021-06-02T15:20:29.000Z</time>
      </trkpt>
      <trkpt lat="47.13491" lon="-1.74686">
        <ele>55</ele>
        <time>2021-06-02T15:20:31.000Z</time>
      </trkpt>
      <trkpt lat="47.13487" lon="-1.74698">
        <ele>56</ele>
        <time>2021-06-02T15:20:33.000Z</time>
      </trkpt>
      <trkpt lat="47.13483" lon="-1.74711">
        <ele>57</ele>
        <time>2021-06-02T15:20:35.000Z</time>
      </trkpt>
      <trkpt lat="47.13477" lon="-1.74722">
        <ele>57</ele>
        <time>2021-06-02T15:20:37.000Z</time>
      </trkpt>
      <trkpt lat="47.13469" lon="-1.74733">
        <ele>58</ele>
        <time>2021-06-02T15:20:39.000Z</time>
      </trkpt>
      <trkpt lat="47.13461" lon="-1.74743">
        <ele>59</ele>
        <time>2021-06-02T15:20:41.000Z</time>
      </trkpt>
      <trkpt lat="47.13453" lon="-1.74753">
        <ele>59</ele>
        <time>2021-06-02T15:20:43.000Z</time>
      </trkpt>
      <trkpt lat="47.13443" lon="-1.74759">
        <ele>60</ele>
        <time>2021-06-02T15:20:45.000Z</time>
      </trkpt>
      <trkpt lat="47.13433" lon="-1.74764">
        <ele>61</ele>
        <time>2021-06-02T15:20:47.000Z</time>
      </trkpt>
      <trkpt lat="47.13424" lon="-1.74771">
        <ele>61</ele>
        <time>2021-06-02T15:20:49.000Z</time>
      </trkpt>
      <trkpt lat="47.13414" lon="-1.74779">
        <ele>61</ele>
        <time>2021-06-02T15:20:51.000Z</time>
      </trkpt>
      <trkpt lat="47.134" lon="-1.74794">
        <ele>62</ele>
        <time>2021-06-02T15:20:54.000Z</time>
      </trkpt>
      <trkpt lat="47.13392" lon="-1.74803">
        <ele>62</ele>
        <time>2021-06-02T15:20:56.000Z</time>
      </trkpt>
      <trkpt lat="47.13385" lon="-1.74814">
        <ele>62</ele>
        <time>2021-06-02T15:20:58.000Z</time>
      </trkpt>
      <trkpt lat="47.13379" lon="-1.74826">
        <ele>62</ele>
        <time>2021-06-02T15:21:00.000Z</time>
      </trkpt>
      <trkpt lat="47.13375" lon="-1.7484">
        <ele>62</ele>
        <time>2021-06-02T15:21:02.000Z</time>
      </trkpt>
      <trkpt lat="47.13373" lon="-1.74855">
        <ele>62</ele>
        <time>2021-06-02T15:21:04.000Z</time>
      </trkpt>
      <trkpt lat="47.1337" lon="-1.7487">
        <ele>63</ele>
        <time>2021-06-02T15:21:06.000Z</time>
      </trkpt>
      <trkpt lat="47.13365" lon="-1.74892">
        <ele>62</ele>
        <time>2021-06-02T15:21:09.000Z</time>
      </trkpt>
      <trkpt lat="47.13362" lon="-1.74908">
        <ele>61</ele>
        <time>2021-06-02T15:21:11.000Z</time>
      </trkpt>
      <trkpt lat="47.13357" lon="-1.74921">
        <ele>63</ele>
        <time>2021-06-02T15:21:13.000Z</time>
      </trkpt>
      <trkpt lat="47.13351" lon="-1.74935">
        <ele>63</ele>
        <time>2021-06-02T15:21:15.000Z</time>
      </trkpt>
      <trkpt lat="47.13345" lon="-1.74947">
        <ele>64</ele>
        <time>2021-06-02T15:21:17.000Z</time>
      </trkpt>
      <trkpt lat="47.13336" lon="-1.74965">
        <ele>63</ele>
        <time>2021-06-02T15:21:21.000Z</time>
      </trkpt>
      <trkpt lat="47.13329" lon="-1.74977">
        <ele>65</ele>
        <time>2021-06-02T15:21:25.000Z</time>
      </trkpt>
      <trkpt lat="47.13323" lon="-1.74987">
        <ele>65</ele>
        <time>2021-06-02T15:21:27.000Z</time>
      </trkpt>
      <trkpt lat="47.13316" lon="-1.74997">
        <ele>65</ele>
        <time>2021-06-02T15:21:29.000Z</time>
      </trkpt>
      <trkpt lat="47.13308" lon="-1.75008">
        <ele>65</ele>
        <time>2021-06-02T15:21:31.000Z</time>
      </trkpt>
      <trkpt lat="47.13299" lon="-1.75015">
        <ele>65</ele>
        <time>2021-06-02T15:21:33.000Z</time>
      </trkpt>
      <trkpt lat="47.1329" lon="-1.75022">
        <ele>66</ele>
        <time>2021-06-02T15:21:35.000Z</time>
      </trkpt>
      <trkpt lat="47.13272" lon="-1.75039">
        <ele>67</ele>
        <time>2021-06-02T15:21:39.000Z</time>
      </trkpt>
      <trkpt lat="47.13261" lon="-1.75047">
        <ele>67</ele>
        <time>2021-06-02T15:21:41.000Z</time>
      </trkpt>
      <trkpt lat="47.13249" lon="-1.75052">
        <ele>70</ele>
        <time>2021-06-02T15:21:44.000Z</time>
      </trkpt>
      <trkpt lat="47.13241" lon="-1.7506">
        <ele>69</ele>
        <time>2021-06-02T15:21:46.000Z</time>
      </trkpt>
      <trkpt lat="47.13232" lon="-1.75067">
        <ele>70</ele>
        <time>2021-06-02T15:21:48.000Z</time>
      </trkpt>
      <trkpt lat="47.13221" lon="-1.75082">
        <ele>69</ele>
        <time>2021-06-02T15:21:51.000Z</time>
      </trkpt>
      <trkpt lat="47.1321" lon="-1.75098">
        <ele>69</ele>
        <time>2021-06-02T15:21:54.000Z</time>
      </trkpt>
      <trkpt lat="47.13203" lon="-1.75109">
        <ele>69</ele>
        <time>2021-06-02T15:21:56.000Z</time>
      </trkpt>
      <trkpt lat="47.13196" lon="-1.75119">
        <ele>69</ele>
        <time>2021-06-02T15:21:58.000Z</time>
      </trkpt>
      <trkpt lat="47.13191" lon="-1.75133">
        <ele>66</ele>
        <time>2021-06-02T15:22:00.000Z</time>
      </trkpt>
      <trkpt lat="47.13184" lon="-1.75148">
        <ele>65</ele>
        <time>2021-06-02T15:22:02.000Z</time>
      </trkpt>
      <trkpt lat="47.13177" lon="-1.7516">
        <ele>66</ele>
        <time>2021-06-02T15:22:04.000Z</time>
      </trkpt>
      <trkpt lat="47.13171" lon="-1.75172">
        <ele>67</ele>
        <time>2021-06-02T15:22:06.000Z</time>
      </trkpt>
      <trkpt lat="47.13162" lon="-1.75191">
        <ele>66</ele>
        <time>2021-06-02T15:22:09.000Z</time>
      </trkpt>
      <trkpt lat="47.13159" lon="-1.75206">
        <ele>66</ele>
        <time>2021-06-02T15:22:11.000Z</time>
      </trkpt>
      <trkpt lat="47.13156" lon="-1.7522">
        <ele>66</ele>
        <time>2021-06-02T15:22:13.000Z</time>
      </trkpt>
      <trkpt lat="47.13153" lon="-1.75235">
        <ele>67</ele>
        <time>2021-06-02T15:22:15.000Z</time>
      </trkpt>
      <trkpt lat="47.1315" lon="-1.75251">
        <ele>67</ele>
        <time>2021-06-02T15:22:17.000Z</time>
      </trkpt>
      <trkpt lat="47.13147" lon="-1.75267">
        <ele>66</ele>
        <time>2021-06-02T15:22:19.000Z</time>
      </trkpt>
      <trkpt lat="47.13148" lon="-1.75282">
        <ele>67</ele>
        <time>2021-06-02T15:22:21.000Z</time>
      </trkpt>
      <trkpt lat="47.13147" lon="-1.75296">
        <ele>68</ele>
        <time>2021-06-02T15:22:23.000Z</time>
      </trkpt>
      <trkpt lat="47.13142" lon="-1.75311">
        <ele>68</ele>
        <time>2021-06-02T15:22:25.000Z</time>
      </trkpt>
      <trkpt lat="47.13137" lon="-1.75324">
        <ele>68</ele>
        <time>2021-06-02T15:22:27.000Z</time>
      </trkpt>
      <trkpt lat="47.13134" lon="-1.75339">
        <ele>69</ele>
        <time>2021-06-02T15:22:29.000Z</time>
      </trkpt>
      <trkpt lat="47.1313" lon="-1.75354">
        <ele>70</ele>
        <time>2021-06-02T15:22:31.000Z</time>
      </trkpt>
      <trkpt lat="47.13126" lon="-1.75376">
        <ele>70</ele>
        <time>2021-06-02T15:22:34.000Z</time>
      </trkpt>
      <trkpt lat="47.13124" lon="-1.75389">
        <ele>70</ele>
        <time>2021-06-02T15:22:36.000Z</time>
      </trkpt>
      <trkpt lat="47.1312" lon="-1.75403">
        <ele>71</ele>
        <time>2021-06-02T15:22:38.000Z</time>
      </trkpt>
      <trkpt lat="47.13116" lon="-1.75416">
        <ele>71</ele>
        <time>2021-06-02T15:22:40.000Z</time>
      </trkpt>
      <trkpt lat="47.13114" lon="-1.7543">
        <ele>71</ele>
        <time>2021-06-02T15:22:42.000Z</time>
      </trkpt>
      <trkpt lat="47.13113" lon="-1.75445">
        <ele>72</ele>
        <time>2021-06-02T15:22:44.000Z</time>
      </trkpt>
      <trkpt lat="47.1311" lon="-1.75462">
        <ele>72</ele>
        <time>2021-06-02T15:22:46.000Z</time>
      </trkpt>
      <trkpt lat="47.13107" lon="-1.75476">
        <ele>72</ele>
        <time>2021-06-02T15:22:48.000Z</time>
      </trkpt>
      <trkpt lat="47.13107" lon="-1.75491">
        <ele>72</ele>
        <time>2021-06-02T15:22:50.000Z</time>
      </trkpt>
      <trkpt lat="47.13105" lon="-1.75506">
        <ele>73</ele>
        <time>2021-06-02T15:22:52.000Z</time>
      </trkpt>
      <trkpt lat="47.13102" lon="-1.7552">
        <ele>73</ele>
        <time>2021-06-02T15:22:54.000Z</time>
      </trkpt>
      <trkpt lat="47.131" lon="-1.75535">
        <ele>74</ele>
        <time>2021-06-02T15:22:56.000Z</time>
      </trkpt>
      <trkpt lat="47.13097" lon="-1.7555">
        <ele>74</ele>
        <time>2021-06-02T15:22:58.000Z</time>
      </trkpt>
      <trkpt lat="47.13095" lon="-1.75567">
        <ele>73</ele>
        <time>2021-06-02T15:23:00.000Z</time>
      </trkpt>
      <trkpt lat="47.13093" lon="-1.75582">
        <ele>74</ele>
        <time>2021-06-02T15:23:02.000Z</time>
      </trkpt>
      <trkpt lat="47.1309" lon="-1.75596">
        <ele>75</ele>
        <time>2021-06-02T15:23:04.000Z</time>
      </trkpt>
      <trkpt lat="47.13087" lon="-1.75611">
        <ele>74</ele>
        <time>2021-06-02T15:23:06.000Z</time>
      </trkpt>
      <trkpt lat="47.13083" lon="-1.75626">
        <ele>74</ele>
        <time>2021-06-02T15:23:08.000Z</time>
      </trkpt>
      <trkpt lat="47.13081" lon="-1.7564">
        <ele>74</ele>
        <time>2021-06-02T15:23:10.000Z</time>
      </trkpt>
      <trkpt lat="47.13079" lon="-1.75657">
        <ele>72</ele>
        <time>2021-06-02T15:23:12.000Z</time>
      </trkpt>
      <trkpt lat="47.13076" lon="-1.75672">
        <ele>73</ele>
        <time>2021-06-02T15:23:14.000Z</time>
      </trkpt>
      <trkpt lat="47.13073" lon="-1.75686">
        <ele>73</ele>
        <time>2021-06-02T15:23:16.000Z</time>
      </trkpt>
      <trkpt lat="47.1307" lon="-1.757">
        <ele>74</ele>
        <time>2021-06-02T15:23:18.000Z</time>
      </trkpt>
      <trkpt lat="47.13061" lon="-1.75728">
        <ele>73</ele>
        <time>2021-06-02T15:23:22.000Z</time>
      </trkpt>
      <trkpt lat="47.13056" lon="-1.7574">
        <ele>75</ele>
        <time>2021-06-02T15:23:24.000Z</time>
      </trkpt>
      <trkpt lat="47.13049" lon="-1.75752">
        <ele>76</ele>
        <time>2021-06-02T15:23:26.000Z</time>
      </trkpt>
      <trkpt lat="47.13042" lon="-1.75764">
        <ele>76</ele>
        <time>2021-06-02T15:23:28.000Z</time>
      </trkpt>
      <trkpt lat="47.13036" lon="-1.75778">
        <ele>76</ele>
        <time>2021-06-02T15:23:30.000Z</time>
      </trkpt>
      <trkpt lat="47.13027" lon="-1.75788">
        <ele>76</ele>
        <time>2021-06-02T15:23:32.000Z</time>
      </trkpt>
      <trkpt lat="47.13019" lon="-1.75801">
        <ele>76</ele>
        <time>2021-06-02T15:23:34.000Z</time>
      </trkpt>
      <trkpt lat="47.13012" lon="-1.75814">
        <ele>76</ele>
        <time>2021-06-02T15:23:36.000Z</time>
      </trkpt>
      <trkpt lat="47.13005" lon="-1.75824">
        <ele>74</ele>
        <time>2021-06-02T15:23:38.000Z</time>
      </trkpt>
      <trkpt lat="47.13002" lon="-1.75839">
        <ele>71</ele>
        <time>2021-06-02T15:23:40.000Z</time>
      </trkpt>
      <trkpt lat="47.13007" lon="-1.75858">
        <ele>75</ele>
        <time>2021-06-02T15:23:42.000Z</time>
      </trkpt>
      <trkpt lat="47.13008" lon="-1.75883">
        <ele>76</ele>
        <time>2021-06-02T15:23:45.000Z</time>
      </trkpt>
      <trkpt lat="47.13008" lon="-1.759">
        <ele>75</ele>
        <time>2021-06-02T15:23:47.000Z</time>
      </trkpt>
      <trkpt lat="47.13003" lon="-1.75915">
        <ele>77</ele>
        <time>2021-06-02T15:23:49.000Z</time>
      </trkpt>
      <trkpt lat="47.12999" lon="-1.7593">
        <ele>77</ele>
        <time>2021-06-02T15:23:51.000Z</time>
      </trkpt>
      <trkpt lat="47.12995" lon="-1.75945">
        <ele>76</ele>
        <time>2021-06-02T15:23:53.000Z</time>
      </trkpt>
      <trkpt lat="47.12992" lon="-1.7596">
        <ele>76</ele>
        <time>2021-06-02T15:23:55.000Z</time>
      </trkpt>
      <trkpt lat="47.12989" lon="-1.75975">
        <ele>77</ele>
        <time>2021-06-02T15:23:57.000Z</time>
      </trkpt>
      <trkpt lat="47.12986" lon="-1.7599">
        <ele>77</ele>
        <time>2021-06-02T15:23:59.000Z</time>
      </trkpt>
      <trkpt lat="47.12986" lon="-1.76006">
        <ele>77</ele>
        <time>2021-06-02T15:24:01.000Z</time>
      </trkpt>
      <trkpt lat="47.12985" lon="-1.76021">
        <ele>77</ele>
        <time>2021-06-02T15:24:03.000Z</time>
      </trkpt>
      <trkpt lat="47.12983" lon="-1.76036">
        <ele>77</ele>
        <time>2021-06-02T15:24:05.000Z</time>
      </trkpt>
      <trkpt lat="47.12982" lon="-1.76053">
        <ele>78</ele>
        <time>2021-06-02T15:24:07.000Z</time>
      </trkpt>
      <trkpt lat="47.12982" lon="-1.76068">
        <ele>78</ele>
        <time>2021-06-02T15:24:09.000Z</time>
      </trkpt>
      <trkpt lat="47.12983" lon="-1.76084">
        <ele>79</ele>
        <time>2021-06-02T15:24:11.000Z</time>
      </trkpt>
      <trkpt lat="47.12985" lon="-1.76101">
        <ele>78</ele>
        <time>2021-06-02T15:24:13.000Z</time>
      </trkpt>
      <trkpt lat="47.12987" lon="-1.76116">
        <ele>78</ele>
        <time>2021-06-02T15:24:15.000Z</time>
      </trkpt>
      <trkpt lat="47.12991" lon="-1.76131">
        <ele>78</ele>
        <time>2021-06-02T15:24:17.000Z</time>
      </trkpt>
      <trkpt lat="47.12995" lon="-1.76147">
        <ele>79</ele>
        <time>2021-06-02T15:24:19.000Z</time>
      </trkpt>
      <trkpt lat="47.12999" lon="-1.76163">
        <ele>78</ele>
        <time>2021-06-02T15:24:21.000Z</time>
      </trkpt>
      <trkpt lat="47.13003" lon="-1.76179">
        <ele>78</ele>
        <time>2021-06-02T15:24:23.000Z</time>
      </trkpt>
      <trkpt lat="47.13007" lon="-1.76196">
        <ele>78</ele>
        <time>2021-06-02T15:24:25.000Z</time>
      </trkpt>
      <trkpt lat="47.13011" lon="-1.76211">
        <ele>79</ele>
        <time>2021-06-02T15:24:27.000Z</time>
      </trkpt>
      <trkpt lat="47.13016" lon="-1.76225">
        <ele>79</ele>
        <time>2021-06-02T15:24:29.000Z</time>
      </trkpt>
      <trkpt lat="47.1302" lon="-1.7624">
        <ele>79</ele>
        <time>2021-06-02T15:24:31.000Z</time>
      </trkpt>
      <trkpt lat="47.13023" lon="-1.76256">
        <ele>79</ele>
        <time>2021-06-02T15:24:33.000Z</time>
      </trkpt>
      <trkpt lat="47.13027" lon="-1.76273">
        <ele>79</ele>
        <time>2021-06-02T15:24:35.000Z</time>
      </trkpt>
      <trkpt lat="47.13031" lon="-1.76298">
        <ele>78</ele>
        <time>2021-06-02T15:24:38.000Z</time>
      </trkpt>
      <trkpt lat="47.13034" lon="-1.76314">
        <ele>77</ele>
        <time>2021-06-02T15:24:40.000Z</time>
      </trkpt>
      <trkpt lat="47.13038" lon="-1.7633">
        <ele>77</ele>
        <time>2021-06-02T15:24:42.000Z</time>
      </trkpt>
      <trkpt lat="47.13041" lon="-1.76347">
        <ele>77</ele>
        <time>2021-06-02T15:24:44.000Z</time>
      </trkpt>
      <trkpt lat="47.13044" lon="-1.76363">
        <ele>77</ele>
        <time>2021-06-02T15:24:46.000Z</time>
      </trkpt>
      <trkpt lat="47.13047" lon="-1.7638">
        <ele>77</ele>
        <time>2021-06-02T15:24:48.000Z</time>
      </trkpt>
      <trkpt lat="47.1305" lon="-1.76396">
        <ele>76</ele>
        <time>2021-06-02T15:24:50.000Z</time>
      </trkpt>
      <trkpt lat="47.13051" lon="-1.76413">
        <ele>77</ele>
        <time>2021-06-02T15:24:52.000Z</time>
      </trkpt>
      <trkpt lat="47.13052" lon="-1.76429">
        <ele>77</ele>
        <time>2021-06-02T15:24:54.000Z</time>
      </trkpt>
      <trkpt lat="47.13054" lon="-1.76447">
        <ele>77</ele>
        <time>2021-06-02T15:24:56.000Z</time>
      </trkpt>
      <trkpt lat="47.13053" lon="-1.76472">
        <ele>76</ele>
        <time>2021-06-02T15:24:59.000Z</time>
      </trkpt>
      <trkpt lat="47.13053" lon="-1.7649">
        <ele>76</ele>
        <time>2021-06-02T15:25:01.000Z</time>
      </trkpt>
      <trkpt lat="47.13055" lon="-1.76507">
        <ele>75</ele>
        <time>2021-06-02T15:25:03.000Z</time>
      </trkpt>
      <trkpt lat="47.13056" lon="-1.76523">
        <ele>75</ele>
        <time>2021-06-02T15:25:05.000Z</time>
      </trkpt>
      <trkpt lat="47.13057" lon="-1.76541">
        <ele>76</ele>
        <time>2021-06-02T15:25:07.000Z</time>
      </trkpt>
      <trkpt lat="47.13058" lon="-1.76559">
        <ele>76</ele>
        <time>2021-06-02T15:25:09.000Z</time>
      </trkpt>
      <trkpt lat="47.1306" lon="-1.76574">
        <ele>77</ele>
        <time>2021-06-02T15:25:11.000Z</time>
      </trkpt>
      <trkpt lat="47.13061" lon="-1.76591">
        <ele>77</ele>
        <time>2021-06-02T15:25:13.000Z</time>
      </trkpt>
      <trkpt lat="47.13062" lon="-1.76607">
        <ele>76</ele>
        <time>2021-06-02T15:25:15.000Z</time>
      </trkpt>
      <trkpt lat="47.13065" lon="-1.76633">
        <ele>77</ele>
        <time>2021-06-02T15:25:18.000Z</time>
      </trkpt>
      <trkpt lat="47.13067" lon="-1.76649">
        <ele>77</ele>
        <time>2021-06-02T15:25:20.000Z</time>
      </trkpt>
      <trkpt lat="47.13069" lon="-1.76665">
        <ele>77</ele>
        <time>2021-06-02T15:25:22.000Z</time>
      </trkpt>
      <trkpt lat="47.13069" lon="-1.76681">
        <ele>77</ele>
        <time>2021-06-02T15:25:24.000Z</time>
      </trkpt>
      <trkpt lat="47.13068" lon="-1.76698">
        <ele>77</ele>
        <time>2021-06-02T15:25:26.000Z</time>
      </trkpt>
      <trkpt lat="47.13066" lon="-1.76713">
        <ele>76</ele>
        <time>2021-06-02T15:25:28.000Z</time>
      </trkpt>
      <trkpt lat="47.13065" lon="-1.7673">
        <ele>77</ele>
        <time>2021-06-02T15:25:30.000Z</time>
      </trkpt>
      <trkpt lat="47.13063" lon="-1.76746">
        <ele>77</ele>
        <time>2021-06-02T15:25:32.000Z</time>
      </trkpt>
      <trkpt lat="47.13061" lon="-1.76771">
        <ele>76</ele>
        <time>2021-06-02T15:25:35.000Z</time>
      </trkpt>
      <trkpt lat="47.13057" lon="-1.76794">
        <ele>77</ele>
        <time>2021-06-02T15:25:38.000Z</time>
      </trkpt>
      <trkpt lat="47.13054" lon="-1.76819">
        <ele>77</ele>
        <time>2021-06-02T15:25:41.000Z</time>
      </trkpt>
      <trkpt lat="47.13054" lon="-1.76836">
        <ele>76</ele>
        <time>2021-06-02T15:25:43.000Z</time>
      </trkpt>
      <trkpt lat="47.1305" lon="-1.76852">
        <ele>75</ele>
        <time>2021-06-02T15:25:45.000Z</time>
      </trkpt>
      <trkpt lat="47.13048" lon="-1.76868">
        <ele>77</ele>
        <time>2021-06-02T15:25:47.000Z</time>
      </trkpt>
      <trkpt lat="47.13047" lon="-1.76883">
        <ele>78</ele>
        <time>2021-06-02T15:25:49.000Z</time>
      </trkpt>
      <trkpt lat="47.13045" lon="-1.76898">
        <ele>79</ele>
        <time>2021-06-02T15:25:51.000Z</time>
      </trkpt>
      <trkpt lat="47.13043" lon="-1.76914">
        <ele>79</ele>
        <time>2021-06-02T15:25:53.000Z</time>
      </trkpt>
      <trkpt lat="47.13042" lon="-1.76939">
        <ele>78</ele>
        <time>2021-06-02T15:25:56.000Z</time>
      </trkpt>
      <trkpt lat="47.13041" lon="-1.76954">
        <ele>78</ele>
        <time>2021-06-02T15:25:58.000Z</time>
      </trkpt>
      <trkpt lat="47.13039" lon="-1.7697">
        <ele>77</ele>
        <time>2021-06-02T15:26:00.000Z</time>
      </trkpt>
      <trkpt lat="47.13037" lon="-1.76993">
        <ele>78</ele>
        <time>2021-06-02T15:26:03.000Z</time>
      </trkpt>
      <trkpt lat="47.13038" lon="-1.77009">
        <ele>78</ele>
        <time>2021-06-02T15:26:05.000Z</time>
      </trkpt>
      <trkpt lat="47.13036" lon="-1.77025">
        <ele>78</ele>
        <time>2021-06-02T15:26:07.000Z</time>
      </trkpt>
      <trkpt lat="47.13036" lon="-1.77041">
        <ele>79</ele>
        <time>2021-06-02T15:26:09.000Z</time>
      </trkpt>
      <trkpt lat="47.13034" lon="-1.77056">
        <ele>79</ele>
        <time>2021-06-02T15:26:11.000Z</time>
      </trkpt>
      <trkpt lat="47.13033" lon="-1.77073">
        <ele>78</ele>
        <time>2021-06-02T15:26:13.000Z</time>
      </trkpt>
      <trkpt lat="47.13031" lon="-1.7709">
        <ele>77</ele>
        <time>2021-06-02T15:26:15.000Z</time>
      </trkpt>
      <trkpt lat="47.13027" lon="-1.77111">
        <ele>77</ele>
        <time>2021-06-02T15:26:17.000Z</time>
      </trkpt>
      <trkpt lat="47.13026" lon="-1.77125">
        <ele>79</ele>
        <time>2021-06-02T15:26:19.000Z</time>
      </trkpt>
      <trkpt lat="47.13024" lon="-1.77138">
        <ele>80</ele>
        <time>2021-06-02T15:26:21.000Z</time>
      </trkpt>
      <trkpt lat="47.13022" lon="-1.77156">
        <ele>80</ele>
        <time>2021-06-02T15:26:23.000Z</time>
      </trkpt>
      <trkpt lat="47.13019" lon="-1.77171">
        <ele>81</ele>
        <time>2021-06-02T15:26:25.000Z</time>
      </trkpt>
      <trkpt lat="47.13015" lon="-1.77187">
        <ele>81</ele>
        <time>2021-06-02T15:26:27.000Z</time>
      </trkpt>
      <trkpt lat="47.13011" lon="-1.77203">
        <ele>81</ele>
        <time>2021-06-02T15:26:29.000Z</time>
      </trkpt>
      <trkpt lat="47.13007" lon="-1.77219">
        <ele>82</ele>
        <time>2021-06-02T15:26:31.000Z</time>
      </trkpt>
      <trkpt lat="47.12999" lon="-1.77242">
        <ele>80</ele>
        <time>2021-06-02T15:26:34.000Z</time>
      </trkpt>
      <trkpt lat="47.12994" lon="-1.77257">
        <ele>81</ele>
        <time>2021-06-02T15:26:36.000Z</time>
      </trkpt>
      <trkpt lat="47.1299" lon="-1.77275">
        <ele>82</ele>
        <time>2021-06-02T15:26:38.000Z</time>
      </trkpt>
      <trkpt lat="47.12982" lon="-1.773">
        <ele>81</ele>
        <time>2021-06-02T15:26:41.000Z</time>
      </trkpt>
      <trkpt lat="47.12973" lon="-1.77324">
        <ele>81</ele>
        <time>2021-06-02T15:26:44.000Z</time>
      </trkpt>
      <trkpt lat="47.12967" lon="-1.7734">
        <ele>81</ele>
        <time>2021-06-02T15:26:46.000Z</time>
      </trkpt>
      <trkpt lat="47.12961" lon="-1.77355">
        <ele>81</ele>
        <time>2021-06-02T15:26:48.000Z</time>
      </trkpt>
      <trkpt lat="47.12951" lon="-1.7738">
        <ele>81</ele>
        <time>2021-06-02T15:26:51.000Z</time>
      </trkpt>
      <trkpt lat="47.12945" lon="-1.77395">
        <ele>81</ele>
        <time>2021-06-02T15:26:53.000Z</time>
      </trkpt>
      <trkpt lat="47.12938" lon="-1.77411">
        <ele>81</ele>
        <time>2021-06-02T15:26:55.000Z</time>
      </trkpt>
      <trkpt lat="47.12932" lon="-1.77426">
        <ele>81</ele>
        <time>2021-06-02T15:26:57.000Z</time>
      </trkpt>
      <trkpt lat="47.12927" lon="-1.77444">
        <ele>80</ele>
        <time>2021-06-02T15:26:59.000Z</time>
      </trkpt>
      <trkpt lat="47.12921" lon="-1.77461">
        <ele>80</ele>
        <time>2021-06-02T15:27:01.000Z</time>
      </trkpt>
      <trkpt lat="47.12916" lon="-1.77479">
        <ele>80</ele>
        <time>2021-06-02T15:27:03.000Z</time>
      </trkpt>
      <trkpt lat="47.12911" lon="-1.77496">
        <ele>81</ele>
        <time>2021-06-02T15:27:05.000Z</time>
      </trkpt>
      <trkpt lat="47.12907" lon="-1.77512">
        <ele>81</ele>
        <time>2021-06-02T15:27:07.000Z</time>
      </trkpt>
      <trkpt lat="47.12903" lon="-1.77529">
        <ele>81</ele>
        <time>2021-06-02T15:27:09.000Z</time>
      </trkpt>
      <trkpt lat="47.12898" lon="-1.77546">
        <ele>81</ele>
        <time>2021-06-02T15:27:11.000Z</time>
      </trkpt>
      <trkpt lat="47.12894" lon="-1.77563">
        <ele>81</ele>
        <time>2021-06-02T15:27:13.000Z</time>
      </trkpt>
      <trkpt lat="47.12889" lon="-1.77581">
        <ele>81</ele>
        <time>2021-06-02T15:27:15.000Z</time>
      </trkpt>
      <trkpt lat="47.12885" lon="-1.77598">
        <ele>82</ele>
        <time>2021-06-02T15:27:17.000Z</time>
      </trkpt>
      <trkpt lat="47.12881" lon="-1.77615">
        <ele>82</ele>
        <time>2021-06-02T15:27:19.000Z</time>
      </trkpt>
      <trkpt lat="47.12877" lon="-1.77632">
        <ele>82</ele>
        <time>2021-06-02T15:27:21.000Z</time>
      </trkpt>
      <trkpt lat="47.1287" lon="-1.77658">
        <ele>82</ele>
        <time>2021-06-02T15:27:24.000Z</time>
      </trkpt>
      <trkpt lat="47.12866" lon="-1.77675">
        <ele>83</ele>
        <time>2021-06-02T15:27:26.000Z</time>
      </trkpt>
      <trkpt lat="47.12861" lon="-1.77694">
        <ele>82</ele>
        <time>2021-06-02T15:27:28.000Z</time>
      </trkpt>
      <trkpt lat="47.12857" lon="-1.7771">
        <ele>82</ele>
        <time>2021-06-02T15:27:30.000Z</time>
      </trkpt>
      <trkpt lat="47.12853" lon="-1.77727">
        <ele>82</ele>
        <time>2021-06-02T15:27:32.000Z</time>
      </trkpt>
      <trkpt lat="47.12849" lon="-1.77744">
        <ele>83</ele>
        <time>2021-06-02T15:27:34.000Z</time>
      </trkpt>
      <trkpt lat="47.12843" lon="-1.7776">
        <ele>83</ele>
        <time>2021-06-02T15:27:36.000Z</time>
      </trkpt>
      <trkpt lat="47.12838" lon="-1.77779">
        <ele>84</ele>
        <time>2021-06-02T15:27:38.000Z</time>
      </trkpt>
      <trkpt lat="47.12832" lon="-1.77795">
        <ele>84</ele>
        <time>2021-06-02T15:27:40.000Z</time>
      </trkpt>
      <trkpt lat="47.12825" lon="-1.77809">
        <ele>83</ele>
        <time>2021-06-02T15:27:42.000Z</time>
      </trkpt>
      <trkpt lat="47.12819" lon="-1.77826">
        <ele>83</ele>
        <time>2021-06-02T15:27:44.000Z</time>
      </trkpt>
      <trkpt lat="47.12812" lon="-1.77844">
        <ele>83</ele>
        <time>2021-06-02T15:27:46.000Z</time>
      </trkpt>
      <trkpt lat="47.12807" lon="-1.7786">
        <ele>84</ele>
        <time>2021-06-02T15:27:48.000Z</time>
      </trkpt>
      <trkpt lat="47.12802" lon="-1.77875">
        <ele>83</ele>
        <time>2021-06-02T15:27:50.000Z</time>
      </trkpt>
      <trkpt lat="47.12797" lon="-1.7789">
        <ele>83</ele>
        <time>2021-06-02T15:27:52.000Z</time>
      </trkpt>
      <trkpt lat="47.12792" lon="-1.77906">
        <ele>82</ele>
        <time>2021-06-02T15:27:54.000Z</time>
      </trkpt>
      <trkpt lat="47.12787" lon="-1.77923">
        <ele>83</ele>
        <time>2021-06-02T15:27:56.000Z</time>
      </trkpt>
      <trkpt lat="47.12782" lon="-1.77939">
        <ele>83</ele>
        <time>2021-06-02T15:27:58.000Z</time>
      </trkpt>
      <trkpt lat="47.12778" lon="-1.77956">
        <ele>83</ele>
        <time>2021-06-02T15:28:00.000Z</time>
      </trkpt>
      <trkpt lat="47.12773" lon="-1.77973">
        <ele>83</ele>
        <time>2021-06-02T15:28:02.000Z</time>
      </trkpt>
      <trkpt lat="47.12769" lon="-1.77989">
        <ele>83</ele>
        <time>2021-06-02T15:28:04.000Z</time>
      </trkpt>
      <trkpt lat="47.12764" lon="-1.78005">
        <ele>83</ele>
        <time>2021-06-02T15:28:06.000Z</time>
      </trkpt>
      <trkpt lat="47.12758" lon="-1.78022">
        <ele>83</ele>
        <time>2021-06-02T15:28:08.000Z</time>
      </trkpt>
      <trkpt lat="47.12753" lon="-1.78038">
        <ele>83</ele>
        <time>2021-06-02T15:28:10.000Z</time>
      </trkpt>
      <trkpt lat="47.12746" lon="-1.78053">
        <ele>82</ele>
        <time>2021-06-02T15:28:12.000Z</time>
      </trkpt>
      <trkpt lat="47.12738" lon="-1.78067">
        <ele>82</ele>
        <time>2021-06-02T15:28:14.000Z</time>
      </trkpt>
      <trkpt lat="47.12728" lon="-1.78081">
        <ele>81</ele>
        <time>2021-06-02T15:28:16.000Z</time>
      </trkpt>
      <trkpt lat="47.12714" lon="-1.78101">
        <ele>80</ele>
        <time>2021-06-02T15:28:19.000Z</time>
      </trkpt>
      <trkpt lat="47.12705" lon="-1.78116">
        <ele>81</ele>
        <time>2021-06-02T15:28:21.000Z</time>
      </trkpt>
      <trkpt lat="47.12696" lon="-1.78128">
        <ele>80</ele>
        <time>2021-06-02T15:28:23.000Z</time>
      </trkpt>
      <trkpt lat="47.12685" lon="-1.78141">
        <ele>81</ele>
        <time>2021-06-02T15:28:25.000Z</time>
      </trkpt>
      <trkpt lat="47.12676" lon="-1.78152">
        <ele>80</ele>
        <time>2021-06-02T15:28:27.000Z</time>
      </trkpt>
      <trkpt lat="47.12666" lon="-1.78166">
        <ele>79</ele>
        <time>2021-06-02T15:28:29.000Z</time>
      </trkpt>
      <trkpt lat="47.12657" lon="-1.78179">
        <ele>80</ele>
        <time>2021-06-02T15:28:31.000Z</time>
      </trkpt>
      <trkpt lat="47.12648" lon="-1.78192">
        <ele>80</ele>
        <time>2021-06-02T15:28:33.000Z</time>
      </trkpt>
      <trkpt lat="47.12639" lon="-1.78205">
        <ele>79</ele>
        <time>2021-06-02T15:28:35.000Z</time>
      </trkpt>
      <trkpt lat="47.1263" lon="-1.78218">
        <ele>79</ele>
        <time>2021-06-02T15:28:37.000Z</time>
      </trkpt>
      <trkpt lat="47.12623" lon="-1.78233">
        <ele>79</ele>
        <time>2021-06-02T15:28:39.000Z</time>
      </trkpt>
      <trkpt lat="47.12618" lon="-1.7825">
        <ele>79</ele>
        <time>2021-06-02T15:28:41.000Z</time>
      </trkpt>
      <trkpt lat="47.12615" lon="-1.78267">
        <ele>80</ele>
        <time>2021-06-02T15:28:43.000Z</time>
      </trkpt>
      <trkpt lat="47.12612" lon="-1.78284">
        <ele>80</ele>
        <time>2021-06-02T15:28:45.000Z</time>
      </trkpt>
      <trkpt lat="47.12608" lon="-1.783">
        <ele>81</ele>
        <time>2021-06-02T15:28:47.000Z</time>
      </trkpt>
      <trkpt lat="47.12605" lon="-1.78317">
        <ele>80</ele>
        <time>2021-06-02T15:28:49.000Z</time>
      </trkpt>
      <trkpt lat="47.126" lon="-1.78334">
        <ele>80</ele>
        <time>2021-06-02T15:28:51.000Z</time>
      </trkpt>
      <trkpt lat="47.12595" lon="-1.78359">
        <ele>80</ele>
        <time>2021-06-02T15:28:54.000Z</time>
      </trkpt>
      <trkpt lat="47.12591" lon="-1.78376">
        <ele>80</ele>
        <time>2021-06-02T15:28:56.000Z</time>
      </trkpt>
      <trkpt lat="47.12587" lon="-1.78392">
        <ele>79</ele>
        <time>2021-06-02T15:28:58.000Z</time>
      </trkpt>
      <trkpt lat="47.12583" lon="-1.78409">
        <ele>79</ele>
        <time>2021-06-02T15:29:00.000Z</time>
      </trkpt>
      <trkpt lat="47.12579" lon="-1.78426">
        <ele>79</ele>
        <time>2021-06-02T15:29:02.000Z</time>
      </trkpt>
      <trkpt lat="47.12575" lon="-1.78442">
        <ele>78</ele>
        <time>2021-06-02T15:29:04.000Z</time>
      </trkpt>
      <trkpt lat="47.12573" lon="-1.7846">
        <ele>79</ele>
        <time>2021-06-02T15:29:06.000Z</time>
      </trkpt>
      <trkpt lat="47.12568" lon="-1.78476">
        <ele>78</ele>
        <time>2021-06-02T15:29:08.000Z</time>
      </trkpt>
      <trkpt lat="47.12564" lon="-1.78492">
        <ele>78</ele>
        <time>2021-06-02T15:29:10.000Z</time>
      </trkpt>
      <trkpt lat="47.1256" lon="-1.78508">
        <ele>78</ele>
        <time>2021-06-02T15:29:12.000Z</time>
      </trkpt>
      <trkpt lat="47.12555" lon="-1.78525">
        <ele>79</ele>
        <time>2021-06-02T15:29:14.000Z</time>
      </trkpt>
      <trkpt lat="47.12551" lon="-1.78541">
        <ele>78</ele>
        <time>2021-06-02T15:29:16.000Z</time>
      </trkpt>
      <trkpt lat="47.12547" lon="-1.78559">
        <ele>78</ele>
        <time>2021-06-02T15:29:18.000Z</time>
      </trkpt>
      <trkpt lat="47.12541" lon="-1.78585">
        <ele>77</ele>
        <time>2021-06-02T15:29:21.000Z</time>
      </trkpt>
      <trkpt lat="47.12537" lon="-1.78603">
        <ele>76</ele>
        <time>2021-06-02T15:29:23.000Z</time>
      </trkpt>
      <trkpt lat="47.12533" lon="-1.78618">
        <ele>76</ele>
        <time>2021-06-02T15:29:25.000Z</time>
      </trkpt>
      <trkpt lat="47.12525" lon="-1.78644">
        <ele>76</ele>
        <time>2021-06-02T15:29:28.000Z</time>
      </trkpt>
      <trkpt lat="47.12518" lon="-1.78661">
        <ele>76</ele>
        <time>2021-06-02T15:29:30.000Z</time>
      </trkpt>
      <trkpt lat="47.12509" lon="-1.78684">
        <ele>76</ele>
        <time>2021-06-02T15:29:33.000Z</time>
      </trkpt>
      <trkpt lat="47.12503" lon="-1.787">
        <ele>76</ele>
        <time>2021-06-02T15:29:35.000Z</time>
      </trkpt>
      <trkpt lat="47.12498" lon="-1.78716">
        <ele>77</ele>
        <time>2021-06-02T15:29:37.000Z</time>
      </trkpt>
      <trkpt lat="47.12494" lon="-1.78733">
        <ele>76</ele>
        <time>2021-06-02T15:29:39.000Z</time>
      </trkpt>
      <trkpt lat="47.1249" lon="-1.7875">
        <ele>76</ele>
        <time>2021-06-02T15:29:41.000Z</time>
      </trkpt>
      <trkpt lat="47.12485" lon="-1.78768">
        <ele>76</ele>
        <time>2021-06-02T15:29:43.000Z</time>
      </trkpt>
      <trkpt lat="47.12482" lon="-1.78784">
        <ele>76</ele>
        <time>2021-06-02T15:29:45.000Z</time>
      </trkpt>
      <trkpt lat="47.12478" lon="-1.78801">
        <ele>76</ele>
        <time>2021-06-02T15:29:47.000Z</time>
      </trkpt>
      <trkpt lat="47.12474" lon="-1.78818">
        <ele>76</ele>
        <time>2021-06-02T15:29:49.000Z</time>
      </trkpt>
      <trkpt lat="47.12471" lon="-1.78837">
        <ele>76</ele>
        <time>2021-06-02T15:29:51.000Z</time>
      </trkpt>
      <trkpt lat="47.12469" lon="-1.78855">
        <ele>76</ele>
        <time>2021-06-02T15:29:53.000Z</time>
      </trkpt>
      <trkpt lat="47.12468" lon="-1.78872">
        <ele>76</ele>
        <time>2021-06-02T15:29:55.000Z</time>
      </trkpt>
      <trkpt lat="47.12467" lon="-1.7889">
        <ele>76</ele>
        <time>2021-06-02T15:29:57.000Z</time>
      </trkpt>
      <trkpt lat="47.12465" lon="-1.78908">
        <ele>77</ele>
        <time>2021-06-02T15:29:59.000Z</time>
      </trkpt>
      <trkpt lat="47.12462" lon="-1.78925">
        <ele>77</ele>
        <time>2021-06-02T15:30:01.000Z</time>
      </trkpt>
      <trkpt lat="47.12459" lon="-1.78943">
        <ele>77</ele>
        <time>2021-06-02T15:30:03.000Z</time>
      </trkpt>
      <trkpt lat="47.12456" lon="-1.78961">
        <ele>76</ele>
        <time>2021-06-02T15:30:05.000Z</time>
      </trkpt>
      <trkpt lat="47.12453" lon="-1.78977">
        <ele>75</ele>
        <time>2021-06-02T15:30:07.000Z</time>
      </trkpt>
      <trkpt lat="47.12447" lon="-1.78995">
        <ele>76</ele>
        <time>2021-06-02T15:30:09.000Z</time>
      </trkpt>
      <trkpt lat="47.12442" lon="-1.79012">
        <ele>75</ele>
        <time>2021-06-02T15:30:11.000Z</time>
      </trkpt>
      <trkpt lat="47.12438" lon="-1.79029">
        <ele>75</ele>
        <time>2021-06-02T15:30:13.000Z</time>
      </trkpt>
      <trkpt lat="47.12434" lon="-1.79046">
        <ele>75</ele>
        <time>2021-06-02T15:30:15.000Z</time>
      </trkpt>
      <trkpt lat="47.12431" lon="-1.79062">
        <ele>76</ele>
        <time>2021-06-02T15:30:17.000Z</time>
      </trkpt>
      <trkpt lat="47.12427" lon="-1.79078">
        <ele>76</ele>
        <time>2021-06-02T15:30:19.000Z</time>
      </trkpt>
      <trkpt lat="47.12424" lon="-1.79095">
        <ele>76</ele>
        <time>2021-06-02T15:30:21.000Z</time>
      </trkpt>
      <trkpt lat="47.12421" lon="-1.79112">
        <ele>76</ele>
        <time>2021-06-02T15:30:23.000Z</time>
      </trkpt>
      <trkpt lat="47.12419" lon="-1.79129">
        <ele>76</ele>
        <time>2021-06-02T15:30:25.000Z</time>
      </trkpt>
      <trkpt lat="47.12418" lon="-1.79156">
        <ele>75</ele>
        <time>2021-06-02T15:30:28.000Z</time>
      </trkpt>
      <trkpt lat="47.12419" lon="-1.79174">
        <ele>76</ele>
        <time>2021-06-02T15:30:30.000Z</time>
      </trkpt>
      <trkpt lat="47.12421" lon="-1.79192">
        <ele>76</ele>
        <time>2021-06-02T15:30:32.000Z</time>
      </trkpt>
      <trkpt lat="47.12422" lon="-1.79209">
        <ele>76</ele>
        <time>2021-06-02T15:30:34.000Z</time>
      </trkpt>
      <trkpt lat="47.12423" lon="-1.79227">
        <ele>77</ele>
        <time>2021-06-02T15:30:36.000Z</time>
      </trkpt>
      <trkpt lat="47.12424" lon="-1.79244">
        <ele>77</ele>
        <time>2021-06-02T15:30:38.000Z</time>
      </trkpt>
      <trkpt lat="47.12423" lon="-1.79261">
        <ele>77</ele>
        <time>2021-06-02T15:30:40.000Z</time>
      </trkpt>
      <trkpt lat="47.12419" lon="-1.79277">
        <ele>77</ele>
        <time>2021-06-02T15:30:42.000Z</time>
      </trkpt>
      <trkpt lat="47.12414" lon="-1.7929">
        <ele>77</ele>
        <time>2021-06-02T15:30:44.000Z</time>
      </trkpt>
      <trkpt lat="47.12407" lon="-1.79305">
        <ele>76</ele>
        <time>2021-06-02T15:30:46.000Z</time>
      </trkpt>
      <trkpt lat="47.124" lon="-1.7932">
        <ele>76</ele>
        <time>2021-06-02T15:30:48.000Z</time>
      </trkpt>
      <trkpt lat="47.12394" lon="-1.79335">
        <ele>76</ele>
        <time>2021-06-02T15:30:50.000Z</time>
      </trkpt>
      <trkpt lat="47.12387" lon="-1.7935">
        <ele>76</ele>
        <time>2021-06-02T15:30:52.000Z</time>
      </trkpt>
      <trkpt lat="47.1238" lon="-1.79364">
        <ele>76</ele>
        <time>2021-06-02T15:30:54.000Z</time>
      </trkpt>
      <trkpt lat="47.12374" lon="-1.79379">
        <ele>76</ele>
        <time>2021-06-02T15:30:56.000Z</time>
      </trkpt>
      <trkpt lat="47.12368" lon="-1.79394">
        <ele>77</ele>
        <time>2021-06-02T15:30:58.000Z</time>
      </trkpt>
      <trkpt lat="47.12362" lon="-1.79408">
        <ele>76</ele>
        <time>2021-06-02T15:31:00.000Z</time>
      </trkpt>
      <trkpt lat="47.12359" lon="-1.79423">
        <ele>71</ele>
        <time>2021-06-02T15:31:02.000Z</time>
      </trkpt>
      <trkpt lat="47.12353" lon="-1.79442">
        <ele>71</ele>
        <time>2021-06-02T15:31:04.000Z</time>
      </trkpt>
      <trkpt lat="47.12349" lon="-1.7946">
        <ele>72</ele>
        <time>2021-06-02T15:31:06.000Z</time>
      </trkpt>
      <trkpt lat="47.12346" lon="-1.79478">
        <ele>74</ele>
        <time>2021-06-02T15:31:08.000Z</time>
      </trkpt>
      <trkpt lat="47.12345" lon="-1.79506">
        <ele>72</ele>
        <time>2021-06-02T15:31:11.000Z</time>
      </trkpt>
      <trkpt lat="47.12341" lon="-1.79523">
        <ele>74</ele>
        <time>2021-06-02T15:31:13.000Z</time>
      </trkpt>
      <trkpt lat="47.12338" lon="-1.7954">
        <ele>75</ele>
        <time>2021-06-02T15:31:15.000Z</time>
      </trkpt>
      <trkpt lat="47.12336" lon="-1.79558">
        <ele>75</ele>
        <time>2021-06-02T15:31:17.000Z</time>
      </trkpt>
      <trkpt lat="47.12331" lon="-1.79583">
        <ele>75</ele>
        <time>2021-06-02T15:31:20.000Z</time>
      </trkpt>
      <trkpt lat="47.12315" lon="-1.79598">
        <ele>75</ele>
        <time>2021-06-02T15:31:23.000Z</time>
      </trkpt>
      <trkpt lat="47.12302" lon="-1.79599">
        <ele>74</ele>
        <time>2021-06-02T15:31:25.000Z</time>
      </trkpt>
      <trkpt lat="47.1229" lon="-1.79599">
        <ele>75</ele>
        <time>2021-06-02T15:31:27.000Z</time>
      </trkpt>
      <trkpt lat="47.12272" lon="-1.79598">
        <ele>75</ele>
        <time>2021-06-02T15:31:30.000Z</time>
      </trkpt>
      <trkpt lat="47.1226" lon="-1.79598">
        <ele>75</ele>
        <time>2021-06-02T15:31:32.000Z</time>
      </trkpt>
      <trkpt lat="47.12247" lon="-1.79598">
        <ele>75</ele>
        <time>2021-06-02T15:31:34.000Z</time>
      </trkpt>
      <trkpt lat="47.12235" lon="-1.79597">
        <ele>75</ele>
        <time>2021-06-02T15:31:36.000Z</time>
      </trkpt>
      <trkpt lat="47.12223" lon="-1.79597">
        <ele>75</ele>
        <time>2021-06-02T15:31:38.000Z</time>
      </trkpt>
      <trkpt lat="47.12211" lon="-1.79596">
        <ele>75</ele>
        <time>2021-06-02T15:31:40.000Z</time>
      </trkpt>
      <trkpt lat="47.12198" lon="-1.79596">
        <ele>75</ele>
        <time>2021-06-02T15:31:42.000Z</time>
      </trkpt>
      <trkpt lat="47.12186" lon="-1.79595">
        <ele>75</ele>
        <time>2021-06-02T15:31:44.000Z</time>
      </trkpt>
      <trkpt lat="47.12175" lon="-1.79595">
        <ele>75</ele>
        <time>2021-06-02T15:31:46.000Z</time>
      </trkpt>
      <trkpt lat="47.12163" lon="-1.79595">
        <ele>75</ele>
        <time>2021-06-02T15:31:48.000Z</time>
      </trkpt>
      <trkpt lat="47.12144" lon="-1.79595">
        <ele>74</ele>
        <time>2021-06-02T15:31:51.000Z</time>
      </trkpt>
      <trkpt lat="47.12132" lon="-1.79595">
        <ele>74</ele>
        <time>2021-06-02T15:31:53.000Z</time>
      </trkpt>
      <trkpt lat="47.12115" lon="-1.79595">
        <ele>74</ele>
        <time>2021-06-02T15:31:56.000Z</time>
      </trkpt>
      <trkpt lat="47.12104" lon="-1.79597">
        <ele>73</ele>
        <time>2021-06-02T15:31:58.000Z</time>
      </trkpt>
      <trkpt lat="47.1209" lon="-1.79603">
        <ele>73</ele>
        <time>2021-06-02T15:32:00.000Z</time>
      </trkpt>
      <trkpt lat="47.1208" lon="-1.79613">
        <ele>73</ele>
        <time>2021-06-02T15:32:02.000Z</time>
      </trkpt>
      <trkpt lat="47.12069" lon="-1.79623">
        <ele>73</ele>
        <time>2021-06-02T15:32:04.000Z</time>
      </trkpt>
      <trkpt lat="47.12059" lon="-1.79634">
        <ele>72</ele>
        <time>2021-06-02T15:32:06.000Z</time>
      </trkpt>
      <trkpt lat="47.12049" lon="-1.79645">
        <ele>71</ele>
        <time>2021-06-02T15:32:08.000Z</time>
      </trkpt>
      <trkpt lat="47.12039" lon="-1.79657">
        <ele>71</ele>
        <time>2021-06-02T15:32:10.000Z</time>
      </trkpt>
      <trkpt lat="47.12027" lon="-1.79666">
        <ele>71</ele>
        <time>2021-06-02T15:32:12.000Z</time>
      </trkpt>
      <trkpt lat="47.12017" lon="-1.79677">
        <ele>71</ele>
        <time>2021-06-02T15:32:14.000Z</time>
      </trkpt>
      <trkpt lat="47.12005" lon="-1.79688">
        <ele>71</ele>
        <time>2021-06-02T15:32:16.000Z</time>
      </trkpt>
      <trkpt lat="47.11994" lon="-1.79696">
        <ele>70</ele>
        <time>2021-06-02T15:32:18.000Z</time>
      </trkpt>
      <trkpt lat="47.11985" lon="-1.79708">
        <ele>70</ele>
        <time>2021-06-02T15:32:20.000Z</time>
      </trkpt>
      <trkpt lat="47.11976" lon="-1.79719">
        <ele>71</ele>
        <time>2021-06-02T15:32:22.000Z</time>
      </trkpt>
      <trkpt lat="47.11966" lon="-1.79731">
        <ele>71</ele>
        <time>2021-06-02T15:32:24.000Z</time>
      </trkpt>
      <trkpt lat="47.11956" lon="-1.79743">
        <ele>71</ele>
        <time>2021-06-02T15:32:26.000Z</time>
      </trkpt>
      <trkpt lat="47.11946" lon="-1.79753">
        <ele>71</ele>
        <time>2021-06-02T15:32:28.000Z</time>
      </trkpt>
      <trkpt lat="47.11936" lon="-1.79766">
        <ele>70</ele>
        <time>2021-06-02T15:32:30.000Z</time>
      </trkpt>
      <trkpt lat="47.11923" lon="-1.79786">
        <ele>70</ele>
        <time>2021-06-02T15:32:33.000Z</time>
      </trkpt>
      <trkpt lat="47.11909" lon="-1.79805">
        <ele>68</ele>
        <time>2021-06-02T15:32:36.000Z</time>
      </trkpt>
      <trkpt lat="47.11901" lon="-1.79817">
        <ele>67</ele>
        <time>2021-06-02T15:32:38.000Z</time>
      </trkpt>
      <trkpt lat="47.11884" lon="-1.79833">
        <ele>68</ele>
        <time>2021-06-02T15:32:41.000Z</time>
      </trkpt>
      <trkpt lat="47.11868" lon="-1.7985">
        <ele>68</ele>
        <time>2021-06-02T15:32:44.000Z</time>
      </trkpt>
      <trkpt lat="47.1186" lon="-1.79862">
        <ele>67</ele>
        <time>2021-06-02T15:32:46.000Z</time>
      </trkpt>
      <trkpt lat="47.11847" lon="-1.79873">
        <ele>68</ele>
        <time>2021-06-02T15:32:48.000Z</time>
      </trkpt>
      <trkpt lat="47.11838" lon="-1.79884">
        <ele>69</ele>
        <time>2021-06-02T15:32:50.000Z</time>
      </trkpt>
      <trkpt lat="47.11827" lon="-1.79894">
        <ele>70</ele>
        <time>2021-06-02T15:32:52.000Z</time>
      </trkpt>
      <trkpt lat="47.11818" lon="-1.79905">
        <ele>70</ele>
        <time>2021-06-02T15:32:54.000Z</time>
      </trkpt>
      <trkpt lat="47.11807" lon="-1.79916">
        <ele>70</ele>
        <time>2021-06-02T15:32:56.000Z</time>
      </trkpt>
      <trkpt lat="47.11797" lon="-1.79928">
        <ele>70</ele>
        <time>2021-06-02T15:32:58.000Z</time>
      </trkpt>
      <trkpt lat="47.11784" lon="-1.79944">
        <ele>71</ele>
        <time>2021-06-02T15:33:01.000Z</time>
      </trkpt>
      <trkpt lat="47.11775" lon="-1.79955">
        <ele>71</ele>
        <time>2021-06-02T15:33:03.000Z</time>
      </trkpt>
      <trkpt lat="47.11767" lon="-1.79965">
        <ele>70</ele>
        <time>2021-06-02T15:33:05.000Z</time>
      </trkpt>
      <trkpt lat="47.1176" lon="-1.79974">
        <ele>71</ele>
        <time>2021-06-02T15:33:07.000Z</time>
      </trkpt>
      <trkpt lat="47.1175" lon="-1.79979">
        <ele>71</ele>
        <time>2021-06-02T15:33:09.000Z</time>
      </trkpt>
      <trkpt lat="47.11739" lon="-1.79978">
        <ele>71</ele>
        <time>2021-06-02T15:33:11.000Z</time>
      </trkpt>
      <trkpt lat="47.11723" lon="-1.79974">
        <ele>71</ele>
        <time>2021-06-02T15:33:14.000Z</time>
      </trkpt>
      <trkpt lat="47.11704" lon="-1.7997">
        <ele>71</ele>
        <time>2021-06-02T15:33:17.000Z</time>
      </trkpt>
      <trkpt lat="47.11683" lon="-1.79968">
        <ele>71</ele>
        <time>2021-06-02T15:33:20.000Z</time>
      </trkpt>
      <trkpt lat="47.11668" lon="-1.79963">
        <ele>71</ele>
        <time>2021-06-02T15:33:22.000Z</time>
      </trkpt>
      <trkpt lat="47.11654" lon="-1.79962">
        <ele>71</ele>
        <time>2021-06-02T15:33:24.000Z</time>
      </trkpt>
      <trkpt lat="47.11639" lon="-1.79962">
        <ele>71</ele>
        <time>2021-06-02T15:33:26.000Z</time>
      </trkpt>
      <trkpt lat="47.11624" lon="-1.7996">
        <ele>71</ele>
        <time>2021-06-02T15:33:28.000Z</time>
      </trkpt>
      <trkpt lat="47.1161" lon="-1.79957">
        <ele>70</ele>
        <time>2021-06-02T15:33:30.000Z</time>
      </trkpt>
      <trkpt lat="47.11595" lon="-1.79954">
        <ele>70</ele>
        <time>2021-06-02T15:33:32.000Z</time>
      </trkpt>
      <trkpt lat="47.11581" lon="-1.79953">
        <ele>69</ele>
        <time>2021-06-02T15:33:34.000Z</time>
      </trkpt>
      <trkpt lat="47.11565" lon="-1.79955">
        <ele>69</ele>
        <time>2021-06-02T15:33:36.000Z</time>
      </trkpt>
      <trkpt lat="47.11552" lon="-1.7996">
        <ele>69</ele>
        <time>2021-06-02T15:33:38.000Z</time>
      </trkpt>
      <trkpt lat="47.11539" lon="-1.79967">
        <ele>67</ele>
        <time>2021-06-02T15:33:40.000Z</time>
      </trkpt>
      <trkpt lat="47.11525" lon="-1.79977">
        <ele>65</ele>
        <time>2021-06-02T15:33:42.000Z</time>
      </trkpt>
      <trkpt lat="47.11512" lon="-1.7999">
        <ele>65</ele>
        <time>2021-06-02T15:33:44.000Z</time>
      </trkpt>
      <trkpt lat="47.11502" lon="-1.80006">
        <ele>66</ele>
        <time>2021-06-02T15:33:46.000Z</time>
      </trkpt>
      <trkpt lat="47.11494" lon="-1.80023">
        <ele>64</ele>
        <time>2021-06-02T15:33:48.000Z</time>
      </trkpt>
      <trkpt lat="47.11484" lon="-1.80039">
        <ele>65</ele>
        <time>2021-06-02T15:33:50.000Z</time>
      </trkpt>
      <trkpt lat="47.11473" lon="-1.80051">
        <ele>65</ele>
        <time>2021-06-02T15:33:52.000Z</time>
      </trkpt>
      <trkpt lat="47.11462" lon="-1.80063">
        <ele>67</ele>
        <time>2021-06-02T15:33:54.000Z</time>
      </trkpt>
      <trkpt lat="47.11452" lon="-1.80077">
        <ele>67</ele>
        <time>2021-06-02T15:33:56.000Z</time>
      </trkpt>
      <trkpt lat="47.11442" lon="-1.80091">
        <ele>67</ele>
        <time>2021-06-02T15:33:58.000Z</time>
      </trkpt>
      <trkpt lat="47.11431" lon="-1.80105">
        <ele>65</ele>
        <time>2021-06-02T15:34:00.000Z</time>
      </trkpt>
      <trkpt lat="47.11421" lon="-1.8012">
        <ele>66</ele>
        <time>2021-06-02T15:34:02.000Z</time>
      </trkpt>
      <trkpt lat="47.11411" lon="-1.80132">
        <ele>68</ele>
        <time>2021-06-02T15:34:04.000Z</time>
      </trkpt>
      <trkpt lat="47.11401" lon="-1.80144">
        <ele>69</ele>
        <time>2021-06-02T15:34:06.000Z</time>
      </trkpt>
      <trkpt lat="47.11391" lon="-1.80157">
        <ele>69</ele>
        <time>2021-06-02T15:34:08.000Z</time>
      </trkpt>
      <trkpt lat="47.11381" lon="-1.80171">
        <ele>69</ele>
        <time>2021-06-02T15:34:10.000Z</time>
      </trkpt>
      <trkpt lat="47.11371" lon="-1.80184">
        <ele>68</ele>
        <time>2021-06-02T15:34:12.000Z</time>
      </trkpt>
      <trkpt lat="47.11361" lon="-1.80196">
        <ele>68</ele>
        <time>2021-06-02T15:34:14.000Z</time>
      </trkpt>
      <trkpt lat="47.11347" lon="-1.80217">
        <ele>68</ele>
        <time>2021-06-02T15:34:17.000Z</time>
      </trkpt>
      <trkpt lat="47.11332" lon="-1.80238">
        <ele>67</ele>
        <time>2021-06-02T15:34:20.000Z</time>
      </trkpt>
      <trkpt lat="47.11321" lon="-1.80252">
        <ele>66</ele>
        <time>2021-06-02T15:34:22.000Z</time>
      </trkpt>
      <trkpt lat="47.11304" lon="-1.80272">
        <ele>63</ele>
        <time>2021-06-02T15:34:25.000Z</time>
      </trkpt>
      <trkpt lat="47.11295" lon="-1.80286">
        <ele>63</ele>
        <time>2021-06-02T15:34:27.000Z</time>
      </trkpt>
      <trkpt lat="47.11286" lon="-1.80299">
        <ele>64</ele>
        <time>2021-06-02T15:34:29.000Z</time>
      </trkpt>
      <trkpt lat="47.11276" lon="-1.80315">
        <ele>64</ele>
        <time>2021-06-02T15:34:31.000Z</time>
      </trkpt>
      <trkpt lat="47.11266" lon="-1.80329">
        <ele>64</ele>
        <time>2021-06-02T15:34:33.000Z</time>
      </trkpt>
      <trkpt lat="47.11256" lon="-1.80344">
        <ele>64</ele>
        <time>2021-06-02T15:34:35.000Z</time>
      </trkpt>
      <trkpt lat="47.11245" lon="-1.80357">
        <ele>64</ele>
        <time>2021-06-02T15:34:37.000Z</time>
      </trkpt>
      <trkpt lat="47.11234" lon="-1.80372">
        <ele>64</ele>
        <time>2021-06-02T15:34:39.000Z</time>
      </trkpt>
      <trkpt lat="47.11224" lon="-1.80384">
        <ele>63</ele>
        <time>2021-06-02T15:34:41.000Z</time>
      </trkpt>
      <trkpt lat="47.11215" lon="-1.80396">
        <ele>64</ele>
        <time>2021-06-02T15:34:43.000Z</time>
      </trkpt>
      <trkpt lat="47.11199" lon="-1.80414">
        <ele>63</ele>
        <time>2021-06-02T15:34:46.000Z</time>
      </trkpt>
      <trkpt lat="47.11188" lon="-1.80426">
        <ele>62</ele>
        <time>2021-06-02T15:34:48.000Z</time>
      </trkpt>
      <trkpt lat="47.11176" lon="-1.80435">
        <ele>62</ele>
        <time>2021-06-02T15:34:50.000Z</time>
      </trkpt>
      <trkpt lat="47.11164" lon="-1.80442">
        <ele>64</ele>
        <time>2021-06-02T15:34:52.000Z</time>
      </trkpt>
      <trkpt lat="47.11152" lon="-1.8045">
        <ele>65</ele>
        <time>2021-06-02T15:34:54.000Z</time>
      </trkpt>
      <trkpt lat="47.11139" lon="-1.8046">
        <ele>65</ele>
        <time>2021-06-02T15:34:56.000Z</time>
      </trkpt>
      <trkpt lat="47.11127" lon="-1.80466">
        <ele>64</ele>
        <time>2021-06-02T15:34:58.000Z</time>
      </trkpt>
      <trkpt lat="47.11108" lon="-1.8048">
        <ele>61</ele>
        <time>2021-06-02T15:35:01.000Z</time>
      </trkpt>
      <trkpt lat="47.11097" lon="-1.8049">
        <ele>61</ele>
        <time>2021-06-02T15:35:03.000Z</time>
      </trkpt>
      <trkpt lat="47.1108" lon="-1.80499">
        <ele>61</ele>
        <time>2021-06-02T15:35:06.000Z</time>
      </trkpt>
      <trkpt lat="47.11063" lon="-1.80508">
        <ele>64</ele>
        <time>2021-06-02T15:35:09.000Z</time>
      </trkpt>
      <trkpt lat="47.11051" lon="-1.80515">
        <ele>64</ele>
        <time>2021-06-02T15:35:11.000Z</time>
      </trkpt>
      <trkpt lat="47.11034" lon="-1.80529">
        <ele>61</ele>
        <time>2021-06-02T15:35:14.000Z</time>
      </trkpt>
      <trkpt lat="47.11022" lon="-1.80537">
        <ele>61</ele>
        <time>2021-06-02T15:35:16.000Z</time>
      </trkpt>
      <trkpt lat="47.1101" lon="-1.80543">
        <ele>62</ele>
        <time>2021-06-02T15:35:18.000Z</time>
      </trkpt>
      <trkpt lat="47.10997" lon="-1.8055">
        <ele>62</ele>
        <time>2021-06-02T15:35:20.000Z</time>
      </trkpt>
      <trkpt lat="47.10985" lon="-1.8056">
        <ele>61</ele>
        <time>2021-06-02T15:35:22.000Z</time>
      </trkpt>
      <trkpt lat="47.10966" lon="-1.80573">
        <ele>59</ele>
        <time>2021-06-02T15:35:25.000Z</time>
      </trkpt>
      <trkpt lat="47.10953" lon="-1.80581">
        <ele>62</ele>
        <time>2021-06-02T15:35:27.000Z</time>
      </trkpt>
      <trkpt lat="47.10943" lon="-1.80588">
        <ele>64</ele>
        <time>2021-06-02T15:35:29.000Z</time>
      </trkpt>
      <trkpt lat="47.10934" lon="-1.80594">
        <ele>64</ele>
        <time>2021-06-02T15:35:31.000Z</time>
      </trkpt>
      <trkpt lat="47.10925" lon="-1.806">
        <ele>64</ele>
        <time>2021-06-02T15:35:33.000Z</time>
      </trkpt>
      <trkpt lat="47.10913" lon="-1.80609">
        <ele>64</ele>
        <time>2021-06-02T15:35:36.000Z</time>
      </trkpt>
      <trkpt lat="47.10901" lon="-1.80616">
        <ele>65</ele>
        <time>2021-06-02T15:35:39.000Z</time>
      </trkpt>
      <trkpt lat="47.10891" lon="-1.80623">
        <ele>65</ele>
        <time>2021-06-02T15:35:42.000Z</time>
      </trkpt>
      <trkpt lat="47.1088" lon="-1.80629">
        <ele>65</ele>
        <time>2021-06-02T15:35:45.000Z</time>
      </trkpt>
      <trkpt lat="47.1087" lon="-1.80636">
        <ele>65</ele>
        <time>2021-06-02T15:35:48.000Z</time>
      </trkpt>
      <trkpt lat="47.10859" lon="-1.80641">
        <ele>65</ele>
        <time>2021-06-02T15:35:51.000Z</time>
      </trkpt>
      <trkpt lat="47.10839" lon="-1.80647">
        <ele>66</ele>
        <time>2021-06-02T15:35:55.000Z</time>
      </trkpt>
      <trkpt lat="47.10826" lon="-1.80653">
        <ele>66</ele>
        <time>2021-06-02T15:35:57.000Z</time>
      </trkpt>
      <trkpt lat="47.10809" lon="-1.80659">
        <ele>65</ele>
        <time>2021-06-02T15:35:59.000Z</time>
      </trkpt>
      <trkpt lat="47.108" lon="-1.80663">
        <ele>65</ele>
        <time>2021-06-02T15:36:00.000Z</time>
      </trkpt>
      <trkpt lat="47.10782" lon="-1.80669">
        <ele>65</ele>
        <time>2021-06-02T15:36:02.000Z</time>
      </trkpt>
      <trkpt lat="47.10774" lon="-1.80672">
        <ele>65</ele>
        <time>2021-06-02T15:36:03.000Z</time>
      </trkpt>
      <trkpt lat="47.10758" lon="-1.80678">
        <ele>64</ele>
        <time>2021-06-02T15:36:05.000Z</time>
      </trkpt>
      <trkpt lat="47.1074" lon="-1.80683">
        <ele>64</ele>
        <time>2021-06-02T15:36:07.000Z</time>
      </trkpt>
      <trkpt lat="47.10724" lon="-1.80686">
        <ele>64</ele>
        <time>2021-06-02T15:36:09.000Z</time>
      </trkpt>
      <trkpt lat="47.10705" lon="-1.80688">
        <ele>63</ele>
        <time>2021-06-02T15:36:11.000Z</time>
      </trkpt>
      <trkpt lat="47.10695" lon="-1.80689">
        <ele>62</ele>
        <time>2021-06-02T15:36:12.000Z</time>
      </trkpt>
      <trkpt lat="47.10679" lon="-1.80692">
        <ele>58</ele>
        <time>2021-06-02T15:36:14.000Z</time>
      </trkpt>
      <trkpt lat="47.10664" lon="-1.80693">
        <ele>58</ele>
        <time>2021-06-02T15:36:16.000Z</time>
      </trkpt>
      <trkpt lat="47.10649" lon="-1.80694">
        <ele>60</ele>
        <time>2021-06-02T15:36:18.000Z</time>
      </trkpt>
      <trkpt lat="47.10633" lon="-1.80696">
        <ele>59</ele>
        <time>2021-06-02T15:36:20.000Z</time>
      </trkpt>
      <trkpt lat="47.10616" lon="-1.80705">
        <ele>59</ele>
        <time>2021-06-02T15:36:22.000Z</time>
      </trkpt>
      <trkpt lat="47.10602" lon="-1.80709">
        <ele>60</ele>
        <time>2021-06-02T15:36:24.000Z</time>
      </trkpt>
      <trkpt lat="47.10589" lon="-1.80714">
        <ele>60</ele>
        <time>2021-06-02T15:36:26.000Z</time>
      </trkpt>
      <trkpt lat="47.10576" lon="-1.80726">
        <ele>58</ele>
        <time>2021-06-02T15:36:28.000Z</time>
      </trkpt>
      <trkpt lat="47.10564" lon="-1.80738">
        <ele>58</ele>
        <time>2021-06-02T15:36:30.000Z</time>
      </trkpt>
      <trkpt lat="47.10554" lon="-1.8075">
        <ele>59</ele>
        <time>2021-06-02T15:36:32.000Z</time>
      </trkpt>
      <trkpt lat="47.10545" lon="-1.80763">
        <ele>61</ele>
        <time>2021-06-02T15:36:34.000Z</time>
      </trkpt>
      <trkpt lat="47.10529" lon="-1.80785">
        <ele>60</ele>
        <time>2021-06-02T15:36:37.000Z</time>
      </trkpt>
      <trkpt lat="47.10518" lon="-1.80799">
        <ele>61</ele>
        <time>2021-06-02T15:36:39.000Z</time>
      </trkpt>
      <trkpt lat="47.10507" lon="-1.80809">
        <ele>61</ele>
        <time>2021-06-02T15:36:41.000Z</time>
      </trkpt>
      <trkpt lat="47.10494" lon="-1.80818">
        <ele>60</ele>
        <time>2021-06-02T15:36:43.000Z</time>
      </trkpt>
      <trkpt lat="47.10481" lon="-1.8083">
        <ele>61</ele>
        <time>2021-06-02T15:36:45.000Z</time>
      </trkpt>
      <trkpt lat="47.10471" lon="-1.80844">
        <ele>62</ele>
        <time>2021-06-02T15:36:47.000Z</time>
      </trkpt>
      <trkpt lat="47.10463" lon="-1.8086">
        <ele>62</ele>
        <time>2021-06-02T15:36:49.000Z</time>
      </trkpt>
      <trkpt lat="47.10455" lon="-1.80874">
        <ele>63</ele>
        <time>2021-06-02T15:36:51.000Z</time>
      </trkpt>
      <trkpt lat="47.10447" lon="-1.80889">
        <ele>63</ele>
        <time>2021-06-02T15:36:53.000Z</time>
      </trkpt>
      <trkpt lat="47.10437" lon="-1.80904">
        <ele>63</ele>
        <time>2021-06-02T15:36:55.000Z</time>
      </trkpt>
      <trkpt lat="47.10428" lon="-1.80918">
        <ele>64</ele>
        <time>2021-06-02T15:36:57.000Z</time>
      </trkpt>
      <trkpt lat="47.10419" lon="-1.80934">
        <ele>61</ele>
        <time>2021-06-02T15:36:59.000Z</time>
      </trkpt>
      <trkpt lat="47.10411" lon="-1.80948">
        <ele>61</ele>
        <time>2021-06-02T15:37:01.000Z</time>
      </trkpt>
      <trkpt lat="47.10403" lon="-1.80963">
        <ele>62</ele>
        <time>2021-06-02T15:37:03.000Z</time>
      </trkpt>
      <trkpt lat="47.10395" lon="-1.80976">
        <ele>63</ele>
        <time>2021-06-02T15:37:05.000Z</time>
      </trkpt>
      <trkpt lat="47.10388" lon="-1.80987">
        <ele>62</ele>
        <time>2021-06-02T15:37:07.000Z</time>
      </trkpt>
      <trkpt lat="47.10381" lon="-1.80997">
        <ele>59</ele>
        <time>2021-06-02T15:37:09.000Z</time>
      </trkpt>
      <trkpt lat="47.10375" lon="-1.81011">
        <ele>61</ele>
        <time>2021-06-02T15:37:13.000Z</time>
      </trkpt>
      <trkpt lat="47.1037" lon="-1.81027">
        <ele>61</ele>
        <time>2021-06-02T15:37:17.000Z</time>
      </trkpt>
      <trkpt lat="47.10359" lon="-1.81045">
        <ele>62</ele>
        <time>2021-06-02T15:37:21.000Z</time>
      </trkpt>
      <trkpt lat="47.10348" lon="-1.81038">
        <ele>58</ele>
        <time>2021-06-02T15:37:24.000Z</time>
      </trkpt>
      <trkpt lat="47.10341" lon="-1.81025">
        <ele>62</ele>
        <time>2021-06-02T15:37:26.000Z</time>
      </trkpt>
      <trkpt lat="47.10334" lon="-1.81013">
        <ele>66</ele>
        <time>2021-06-02T15:37:28.000Z</time>
      </trkpt>
      <trkpt lat="47.1032" lon="-1.81013">
        <ele>65</ele>
        <time>2021-06-02T15:37:31.000Z</time>
      </trkpt>
      <trkpt lat="47.10311" lon="-1.81013">
        <ele>65</ele>
        <time>2021-06-02T15:37:33.000Z</time>
      </trkpt>
      <trkpt lat="47.10298" lon="-1.81011">
        <ele>64</ele>
        <time>2021-06-02T15:37:35.000Z</time>
      </trkpt>
      <trkpt lat="47.10285" lon="-1.81009">
        <ele>64</ele>
        <time>2021-06-02T15:37:37.000Z</time>
      </trkpt>
      <trkpt lat="47.10272" lon="-1.81008">
        <ele>63</ele>
        <time>2021-06-02T15:37:39.000Z</time>
      </trkpt>
      <trkpt lat="47.10258" lon="-1.8101">
        <ele>64</ele>
        <time>2021-06-02T15:37:41.000Z</time>
      </trkpt>
      <trkpt lat="47.10244" lon="-1.81011">
        <ele>64</ele>
        <time>2021-06-02T15:37:43.000Z</time>
      </trkpt>
      <trkpt lat="47.1023" lon="-1.81013">
        <ele>65</ele>
        <time>2021-06-02T15:37:45.000Z</time>
      </trkpt>
      <trkpt lat="47.10209" lon="-1.81012">
        <ele>65</ele>
        <time>2021-06-02T15:37:48.000Z</time>
      </trkpt>
      <trkpt lat="47.10194" lon="-1.81004">
        <ele>65</ele>
        <time>2021-06-02T15:37:50.000Z</time>
      </trkpt>
      <trkpt lat="47.10182" lon="-1.80997">
        <ele>64</ele>
        <time>2021-06-02T15:37:52.000Z</time>
      </trkpt>
      <trkpt lat="47.1017" lon="-1.80988">
        <ele>62</ele>
        <time>2021-06-02T15:37:54.000Z</time>
      </trkpt>
      <trkpt lat="47.10159" lon="-1.8098">
        <ele>62</ele>
        <time>2021-06-02T15:37:56.000Z</time>
      </trkpt>
      <trkpt lat="47.10143" lon="-1.80969">
        <ele>63</ele>
        <time>2021-06-02T15:37:59.000Z</time>
      </trkpt>
      <trkpt lat="47.10131" lon="-1.80969">
        <ele>61</ele>
        <time>2021-06-02T15:38:01.000Z</time>
      </trkpt>
      <trkpt lat="47.10119" lon="-1.80969">
        <ele>59</ele>
        <time>2021-06-02T15:38:03.000Z</time>
      </trkpt>
      <trkpt lat="47.10106" lon="-1.80971">
        <ele>58</ele>
        <time>2021-06-02T15:38:05.000Z</time>
      </trkpt>
      <trkpt lat="47.10093" lon="-1.80972">
        <ele>58</ele>
        <time>2021-06-02T15:38:07.000Z</time>
      </trkpt>
      <trkpt lat="47.10081" lon="-1.80973">
        <ele>59</ele>
        <time>2021-06-02T15:38:09.000Z</time>
      </trkpt>
      <trkpt lat="47.10069" lon="-1.80973">
        <ele>59</ele>
        <time>2021-06-02T15:38:11.000Z</time>
      </trkpt>
      <trkpt lat="47.10057" lon="-1.80973">
        <ele>60</ele>
        <time>2021-06-02T15:38:13.000Z</time>
      </trkpt>
      <trkpt lat="47.10046" lon="-1.80974">
        <ele>60</ele>
        <time>2021-06-02T15:38:15.000Z</time>
      </trkpt>
      <trkpt lat="47.10035" lon="-1.80975">
        <ele>61</ele>
        <time>2021-06-02T15:38:17.000Z</time>
      </trkpt>
      <trkpt lat="47.10024" lon="-1.80977">
        <ele>61</ele>
        <time>2021-06-02T15:38:19.000Z</time>
      </trkpt>
      <trkpt lat="47.10012" lon="-1.80978">
        <ele>60</ele>
        <time>2021-06-02T15:38:21.000Z</time>
      </trkpt>
      <trkpt lat="47.1" lon="-1.80978">
        <ele>61</ele>
        <time>2021-06-02T15:38:23.000Z</time>
      </trkpt>
      <trkpt lat="47.09982" lon="-1.8098">
        <ele>62</ele>
        <time>2021-06-02T15:38:26.000Z</time>
      </trkpt>
      <trkpt lat="47.09969" lon="-1.80981">
        <ele>61</ele>
        <time>2021-06-02T15:38:28.000Z</time>
      </trkpt>
      <trkpt lat="47.09956" lon="-1.80982">
        <ele>60</ele>
        <time>2021-06-02T15:38:30.000Z</time>
      </trkpt>
      <trkpt lat="47.09945" lon="-1.80984">
        <ele>60</ele>
        <time>2021-06-02T15:38:32.000Z</time>
      </trkpt>
      <trkpt lat="47.0993" lon="-1.80987">
        <ele>61</ele>
        <time>2021-06-02T15:38:35.000Z</time>
      </trkpt>
      <trkpt lat="47.09916" lon="-1.80986">
        <ele>61</ele>
        <time>2021-06-02T15:38:37.000Z</time>
      </trkpt>
      <trkpt lat="47.09904" lon="-1.80985">
        <ele>62</ele>
        <time>2021-06-02T15:38:40.000Z</time>
      </trkpt>
      <trkpt lat="47.09886" lon="-1.80986">
        <ele>63</ele>
        <time>2021-06-02T15:38:43.000Z</time>
      </trkpt>
      <trkpt lat="47.09873" lon="-1.80988">
        <ele>64</ele>
        <time>2021-06-02T15:38:45.000Z</time>
      </trkpt>
      <trkpt lat="47.09862" lon="-1.80987">
        <ele>64</ele>
        <time>2021-06-02T15:38:47.000Z</time>
      </trkpt>
      <trkpt lat="47.09852" lon="-1.80987">
        <ele>64</ele>
        <time>2021-06-02T15:38:49.000Z</time>
      </trkpt>
      <trkpt lat="47.0984" lon="-1.80988">
        <ele>64</ele>
        <time>2021-06-02T15:38:51.000Z</time>
      </trkpt>
      <trkpt lat="47.09829" lon="-1.80988">
        <ele>64</ele>
        <time>2021-06-02T15:38:53.000Z</time>
      </trkpt>
      <trkpt lat="47.09819" lon="-1.8099">
        <ele>64</ele>
        <time>2021-06-02T15:38:55.000Z</time>
      </trkpt>
      <trkpt lat="47.09808" lon="-1.80988">
        <ele>64</ele>
        <time>2021-06-02T15:38:57.000Z</time>
      </trkpt>
      <trkpt lat="47.09795" lon="-1.8099">
        <ele>64</ele>
        <time>2021-06-02T15:38:59.000Z</time>
      </trkpt>
      <trkpt lat="47.09782" lon="-1.80989">
        <ele>65</ele>
        <time>2021-06-02T15:39:01.000Z</time>
      </trkpt>
      <trkpt lat="47.09769" lon="-1.80987">
        <ele>65</ele>
        <time>2021-06-02T15:39:03.000Z</time>
      </trkpt>
      <trkpt lat="47.09757" lon="-1.80985">
        <ele>65</ele>
        <time>2021-06-02T15:39:05.000Z</time>
      </trkpt>
      <trkpt lat="47.0974" lon="-1.80982">
        <ele>64</ele>
        <time>2021-06-02T15:39:08.000Z</time>
      </trkpt>
      <trkpt lat="47.09721" lon="-1.80978">
        <ele>63</ele>
        <time>2021-06-02T15:39:11.000Z</time>
      </trkpt>
      <trkpt lat="47.0971" lon="-1.80974">
        <ele>63</ele>
        <time>2021-06-02T15:39:13.000Z</time>
      </trkpt>
      <trkpt lat="47.09697" lon="-1.80972">
        <ele>63</ele>
        <time>2021-06-02T15:39:15.000Z</time>
      </trkpt>
      <trkpt lat="47.09685" lon="-1.8097">
        <ele>62</ele>
        <time>2021-06-02T15:39:17.000Z</time>
      </trkpt>
      <trkpt lat="47.09672" lon="-1.80967">
        <ele>62</ele>
        <time>2021-06-02T15:39:19.000Z</time>
      </trkpt>
      <trkpt lat="47.09659" lon="-1.80964">
        <ele>62</ele>
        <time>2021-06-02T15:39:21.000Z</time>
      </trkpt>
      <trkpt lat="47.09646" lon="-1.80962">
        <ele>60</ele>
        <time>2021-06-02T15:39:23.000Z</time>
      </trkpt>
      <trkpt lat="47.09628" lon="-1.80957">
        <ele>61</ele>
        <time>2021-06-02T15:39:26.000Z</time>
      </trkpt>
      <trkpt lat="47.09616" lon="-1.80953">
        <ele>61</ele>
        <time>2021-06-02T15:39:28.000Z</time>
      </trkpt>
      <trkpt lat="47.09603" lon="-1.80951">
        <ele>59</ele>
        <time>2021-06-02T15:39:30.000Z</time>
      </trkpt>
      <trkpt lat="47.09591" lon="-1.80948">
        <ele>60</ele>
        <time>2021-06-02T15:39:32.000Z</time>
      </trkpt>
      <trkpt lat="47.0958" lon="-1.80944">
        <ele>60</ele>
        <time>2021-06-02T15:39:34.000Z</time>
      </trkpt>
      <trkpt lat="47.09568" lon="-1.80941">
        <ele>59</ele>
        <time>2021-06-02T15:39:36.000Z</time>
      </trkpt>
      <trkpt lat="47.09549" lon="-1.80938">
        <ele>58</ele>
        <time>2021-06-02T15:39:39.000Z</time>
      </trkpt>
      <trkpt lat="47.09537" lon="-1.80935">
        <ele>59</ele>
        <time>2021-06-02T15:39:41.000Z</time>
      </trkpt>
      <trkpt lat="47.09525" lon="-1.80933">
        <ele>60</ele>
        <time>2021-06-02T15:39:43.000Z</time>
      </trkpt>
      <trkpt lat="47.09514" lon="-1.8093">
        <ele>60</ele>
        <time>2021-06-02T15:39:45.000Z</time>
      </trkpt>
      <trkpt lat="47.09495" lon="-1.80926">
        <ele>57</ele>
        <time>2021-06-02T15:39:48.000Z</time>
      </trkpt>
      <trkpt lat="47.09477" lon="-1.80931">
        <ele>60</ele>
        <time>2021-06-02T15:39:51.000Z</time>
      </trkpt>
      <trkpt lat="47.09462" lon="-1.8094">
        <ele>61</ele>
        <time>2021-06-02T15:39:54.000Z</time>
      </trkpt>
      <trkpt lat="47.0945" lon="-1.80946">
        <ele>61</ele>
        <time>2021-06-02T15:39:56.000Z</time>
      </trkpt>
      <trkpt lat="47.09437" lon="-1.80953">
        <ele>60</ele>
        <time>2021-06-02T15:39:58.000Z</time>
      </trkpt>
      <trkpt lat="47.0942" lon="-1.80964">
        <ele>60</ele>
        <time>2021-06-02T15:40:01.000Z</time>
      </trkpt>
      <trkpt lat="47.09408" lon="-1.8097">
        <ele>59</ele>
        <time>2021-06-02T15:40:03.000Z</time>
      </trkpt>
      <trkpt lat="47.09393" lon="-1.80978">
        <ele>54</ele>
        <time>2021-06-02T15:40:06.000Z</time>
      </trkpt>
      <trkpt lat="47.09375" lon="-1.80989">
        <ele>54</ele>
        <time>2021-06-02T15:40:09.000Z</time>
      </trkpt>
      <trkpt lat="47.09362" lon="-1.80997">
        <ele>54</ele>
        <time>2021-06-02T15:40:11.000Z</time>
      </trkpt>
      <trkpt lat="47.09349" lon="-1.81005">
        <ele>55</ele>
        <time>2021-06-02T15:40:13.000Z</time>
      </trkpt>
      <trkpt lat="47.09336" lon="-1.81013">
        <ele>54</ele>
        <time>2021-06-02T15:40:15.000Z</time>
      </trkpt>
      <trkpt lat="47.09324" lon="-1.8102">
        <ele>55</ele>
        <time>2021-06-02T15:40:17.000Z</time>
      </trkpt>
      <trkpt lat="47.09311" lon="-1.81027">
        <ele>54</ele>
        <time>2021-06-02T15:40:19.000Z</time>
      </trkpt>
      <trkpt lat="47.09299" lon="-1.81034">
        <ele>54</ele>
        <time>2021-06-02T15:40:21.000Z</time>
      </trkpt>
      <trkpt lat="47.09281" lon="-1.81046">
        <ele>54</ele>
        <time>2021-06-02T15:40:24.000Z</time>
      </trkpt>
      <trkpt lat="47.09269" lon="-1.81053">
        <ele>54</ele>
        <time>2021-06-02T15:40:26.000Z</time>
      </trkpt>
      <trkpt lat="47.09257" lon="-1.8106">
        <ele>54</ele>
        <time>2021-06-02T15:40:28.000Z</time>
      </trkpt>
      <trkpt lat="47.09247" lon="-1.81069">
        <ele>53</ele>
        <time>2021-06-02T15:40:30.000Z</time>
      </trkpt>
      <trkpt lat="47.09236" lon="-1.81077">
        <ele>53</ele>
        <time>2021-06-02T15:40:32.000Z</time>
      </trkpt>
      <trkpt lat="47.09228" lon="-1.81085">
        <ele>54</ele>
        <time>2021-06-02T15:40:34.000Z</time>
      </trkpt>
      <trkpt lat="47.09208" lon="-1.81089">
        <ele>53</ele>
        <time>2021-06-02T15:40:38.000Z</time>
      </trkpt>
      <trkpt lat="47.09199" lon="-1.81078">
        <ele>53</ele>
        <time>2021-06-02T15:40:40.000Z</time>
      </trkpt>
      <trkpt lat="47.09189" lon="-1.81066">
        <ele>54</ele>
        <time>2021-06-02T15:40:42.000Z</time>
      </trkpt>
      <trkpt lat="47.09179" lon="-1.81058">
        <ele>54</ele>
        <time>2021-06-02T15:40:44.000Z</time>
      </trkpt>
      <trkpt lat="47.09156" lon="-1.81068">
        <ele>52</ele>
        <time>2021-06-02T15:40:48.000Z</time>
      </trkpt>
      <trkpt lat="47.09149" lon="-1.8109">
        <ele>56</ele>
        <time>2021-06-02T15:40:51.000Z</time>
      </trkpt>
      <trkpt lat="47.09139" lon="-1.81106">
        <ele>57</ele>
        <time>2021-06-02T15:40:53.000Z</time>
      </trkpt>
      <trkpt lat="47.09129" lon="-1.81117">
        <ele>57</ele>
        <time>2021-06-02T15:40:55.000Z</time>
      </trkpt>
      <trkpt lat="47.09116" lon="-1.81118">
        <ele>58</ele>
        <time>2021-06-02T15:40:57.000Z</time>
      </trkpt>
      <trkpt lat="47.09103" lon="-1.81119">
        <ele>57</ele>
        <time>2021-06-02T15:40:59.000Z</time>
      </trkpt>
      <trkpt lat="47.0909" lon="-1.8112">
        <ele>56</ele>
        <time>2021-06-02T15:41:01.000Z</time>
      </trkpt>
      <trkpt lat="47.09077" lon="-1.81125">
        <ele>54</ele>
        <time>2021-06-02T15:41:03.000Z</time>
      </trkpt>
      <trkpt lat="47.09064" lon="-1.81132">
        <ele>53</ele>
        <time>2021-06-02T15:41:05.000Z</time>
      </trkpt>
      <trkpt lat="47.09051" lon="-1.81152">
        <ele>53</ele>
        <time>2021-06-02T15:41:08.000Z</time>
      </trkpt>
      <trkpt lat="47.09047" lon="-1.81169">
        <ele>54</ele>
        <time>2021-06-02T15:41:10.000Z</time>
      </trkpt>
      <trkpt lat="47.09041" lon="-1.81183">
        <ele>56</ele>
        <time>2021-06-02T15:41:12.000Z</time>
      </trkpt>
      <trkpt lat="47.09037" lon="-1.81199">
        <ele>56</ele>
        <time>2021-06-02T15:41:14.000Z</time>
      </trkpt>
      <trkpt lat="47.09032" lon="-1.81213">
        <ele>51</ele>
        <time>2021-06-02T15:41:16.000Z</time>
      </trkpt>
      <trkpt lat="47.09025" lon="-1.81228">
        <ele>49</ele>
        <time>2021-06-02T15:41:18.000Z</time>
      </trkpt>
      <trkpt lat="47.09019" lon="-1.81244">
        <ele>52</ele>
        <time>2021-06-02T15:41:20.000Z</time>
      </trkpt>
      <trkpt lat="47.09012" lon="-1.81258">
        <ele>54</ele>
        <time>2021-06-02T15:41:22.000Z</time>
      </trkpt>
      <trkpt lat="47.09005" lon="-1.81272">
        <ele>54</ele>
        <time>2021-06-02T15:41:24.000Z</time>
      </trkpt>
      <trkpt lat="47.08997" lon="-1.81284">
        <ele>56</ele>
        <time>2021-06-02T15:41:26.000Z</time>
      </trkpt>
      <trkpt lat="47.08984" lon="-1.81301">
        <ele>57</ele>
        <time>2021-06-02T15:41:29.000Z</time>
      </trkpt>
      <trkpt lat="47.08975" lon="-1.81312">
        <ele>55</ele>
        <time>2021-06-02T15:41:31.000Z</time>
      </trkpt>
      <trkpt lat="47.08965" lon="-1.81323">
        <ele>55</ele>
        <time>2021-06-02T15:41:33.000Z</time>
      </trkpt>
      <trkpt lat="47.08957" lon="-1.81336">
        <ele>57</ele>
        <time>2021-06-02T15:41:35.000Z</time>
      </trkpt>
      <trkpt lat="47.08948" lon="-1.81349">
        <ele>58</ele>
        <time>2021-06-02T15:41:37.000Z</time>
      </trkpt>
      <trkpt lat="47.08939" lon="-1.81361">
        <ele>59</ele>
        <time>2021-06-02T15:41:39.000Z</time>
      </trkpt>
      <trkpt lat="47.0893" lon="-1.81373">
        <ele>56</ele>
        <time>2021-06-02T15:41:41.000Z</time>
      </trkpt>
      <trkpt lat="47.0892" lon="-1.81383">
        <ele>58</ele>
        <time>2021-06-02T15:41:43.000Z</time>
      </trkpt>
      <trkpt lat="47.08908" lon="-1.81393">
        <ele>58</ele>
        <time>2021-06-02T15:41:45.000Z</time>
      </trkpt>
      <trkpt lat="47.08898" lon="-1.81403">
        <ele>58</ele>
        <time>2021-06-02T15:41:47.000Z</time>
      </trkpt>
      <trkpt lat="47.0889" lon="-1.81414">
        <ele>53</ele>
        <time>2021-06-02T15:41:49.000Z</time>
      </trkpt>
      <trkpt lat="47.0888" lon="-1.81424">
        <ele>55</ele>
        <time>2021-06-02T15:41:51.000Z</time>
      </trkpt>
      <trkpt lat="47.08872" lon="-1.81436">
        <ele>57</ele>
        <time>2021-06-02T15:41:53.000Z</time>
      </trkpt>
      <trkpt lat="47.08858" lon="-1.81452">
        <ele>56</ele>
        <time>2021-06-02T15:41:56.000Z</time>
      </trkpt>
      <trkpt lat="47.08847" lon="-1.81461">
        <ele>55</ele>
        <time>2021-06-02T15:41:58.000Z</time>
      </trkpt>
      <trkpt lat="47.08837" lon="-1.8147">
        <ele>58</ele>
        <time>2021-06-02T15:42:00.000Z</time>
      </trkpt>
      <trkpt lat="47.08827" lon="-1.81478">
        <ele>59</ele>
        <time>2021-06-02T15:42:02.000Z</time>
      </trkpt>
      <trkpt lat="47.08818" lon="-1.81487">
        <ele>59</ele>
        <time>2021-06-02T15:42:04.000Z</time>
      </trkpt>
      <trkpt lat="47.08803" lon="-1.81498">
        <ele>58</ele>
        <time>2021-06-02T15:42:07.000Z</time>
      </trkpt>
      <trkpt lat="47.08791" lon="-1.81509">
        <ele>59</ele>
        <time>2021-06-02T15:42:10.000Z</time>
      </trkpt>
      <trkpt lat="47.08782" lon="-1.81516">
        <ele>60</ele>
        <time>2021-06-02T15:42:12.000Z</time>
      </trkpt>
      <trkpt lat="47.08773" lon="-1.81523">
        <ele>60</ele>
        <time>2021-06-02T15:42:14.000Z</time>
      </trkpt>
      <trkpt lat="47.08764" lon="-1.81532">
        <ele>61</ele>
        <time>2021-06-02T15:42:16.000Z</time>
      </trkpt>
      <trkpt lat="47.08755" lon="-1.81539">
        <ele>62</ele>
        <time>2021-06-02T15:42:18.000Z</time>
      </trkpt>
      <trkpt lat="47.08746" lon="-1.81548">
        <ele>62</ele>
        <time>2021-06-02T15:42:20.000Z</time>
      </trkpt>
      <trkpt lat="47.08739" lon="-1.81558">
        <ele>62</ele>
        <time>2021-06-02T15:42:22.000Z</time>
      </trkpt>
      <trkpt lat="47.08732" lon="-1.81569">
        <ele>63</ele>
        <time>2021-06-02T15:42:24.000Z</time>
      </trkpt>
      <trkpt lat="47.08727" lon="-1.81582">
        <ele>63</ele>
        <time>2021-06-02T15:42:26.000Z</time>
      </trkpt>
      <trkpt lat="47.08721" lon="-1.81597">
        <ele>65</ele>
        <time>2021-06-02T15:42:28.000Z</time>
      </trkpt>
      <trkpt lat="47.08715" lon="-1.81611">
        <ele>66</ele>
        <time>2021-06-02T15:42:30.000Z</time>
      </trkpt>
      <trkpt lat="47.0871" lon="-1.81625">
        <ele>67</ele>
        <time>2021-06-02T15:42:32.000Z</time>
      </trkpt>
      <trkpt lat="47.08706" lon="-1.81638">
        <ele>68</ele>
        <time>2021-06-02T15:42:34.000Z</time>
      </trkpt>
      <trkpt lat="47.08701" lon="-1.81651">
        <ele>65</ele>
        <time>2021-06-02T15:42:36.000Z</time>
      </trkpt>
      <trkpt lat="47.08694" lon="-1.81666">
        <ele>65</ele>
        <time>2021-06-02T15:42:38.000Z</time>
      </trkpt>
      <trkpt lat="47.08689" lon="-1.8168">
        <ele>65</ele>
        <time>2021-06-02T15:42:40.000Z</time>
      </trkpt>
      <trkpt lat="47.08678" lon="-1.81687">
        <ele>66</ele>
        <time>2021-06-02T15:42:42.000Z</time>
      </trkpt>
      <trkpt lat="47.08667" lon="-1.81695">
        <ele>66</ele>
        <time>2021-06-02T15:42:44.000Z</time>
      </trkpt>
      <trkpt lat="47.08656" lon="-1.81698">
        <ele>68</ele>
        <time>2021-06-02T15:42:46.000Z</time>
      </trkpt>
      <trkpt lat="47.08646" lon="-1.81696">
        <ele>68</ele>
        <time>2021-06-02T15:42:48.000Z</time>
      </trkpt>
      <trkpt lat="47.08635" lon="-1.81693">
        <ele>68</ele>
        <time>2021-06-02T15:42:50.000Z</time>
      </trkpt>
      <trkpt lat="47.08623" lon="-1.81694">
        <ele>67</ele>
        <time>2021-06-02T15:42:52.000Z</time>
      </trkpt>
      <trkpt lat="47.08611" lon="-1.8169">
        <ele>66</ele>
        <time>2021-06-02T15:42:54.000Z</time>
      </trkpt>
      <trkpt lat="47.08601" lon="-1.81687">
        <ele>66</ele>
        <time>2021-06-02T15:42:56.000Z</time>
      </trkpt>
      <trkpt lat="47.0859" lon="-1.81681">
        <ele>67</ele>
        <time>2021-06-02T15:42:58.000Z</time>
      </trkpt>
      <trkpt lat="47.0858" lon="-1.81678">
        <ele>67</ele>
        <time>2021-06-02T15:43:00.000Z</time>
      </trkpt>
      <trkpt lat="47.08569" lon="-1.81675">
        <ele>67</ele>
        <time>2021-06-02T15:43:02.000Z</time>
      </trkpt>
      <trkpt lat="47.08557" lon="-1.81671">
        <ele>68</ele>
        <time>2021-06-02T15:43:04.000Z</time>
      </trkpt>
      <trkpt lat="47.08546" lon="-1.81669">
        <ele>68</ele>
        <time>2021-06-02T15:43:06.000Z</time>
      </trkpt>
      <trkpt lat="47.08529" lon="-1.81666">
        <ele>69</ele>
        <time>2021-06-02T15:43:09.000Z</time>
      </trkpt>
      <trkpt lat="47.08519" lon="-1.81664">
        <ele>69</ele>
        <time>2021-06-02T15:43:11.000Z</time>
      </trkpt>
      <trkpt lat="47.08507" lon="-1.81661">
        <ele>69</ele>
        <time>2021-06-02T15:43:13.000Z</time>
      </trkpt>
      <trkpt lat="47.08496" lon="-1.8166">
        <ele>69</ele>
        <time>2021-06-02T15:43:15.000Z</time>
      </trkpt>
      <trkpt lat="47.08483" lon="-1.81659">
        <ele>66</ele>
        <time>2021-06-02T15:43:17.000Z</time>
      </trkpt>
      <trkpt lat="47.08472" lon="-1.81658">
        <ele>67</ele>
        <time>2021-06-02T15:43:19.000Z</time>
      </trkpt>
      <trkpt lat="47.08462" lon="-1.81656">
        <ele>67</ele>
        <time>2021-06-02T15:43:21.000Z</time>
      </trkpt>
      <trkpt lat="47.0845" lon="-1.81654">
        <ele>67</ele>
        <time>2021-06-02T15:43:23.000Z</time>
      </trkpt>
      <trkpt lat="47.08438" lon="-1.81652">
        <ele>66</ele>
        <time>2021-06-02T15:43:25.000Z</time>
      </trkpt>
      <trkpt lat="47.08426" lon="-1.81651">
        <ele>65</ele>
        <time>2021-06-02T15:43:27.000Z</time>
      </trkpt>
      <trkpt lat="47.08414" lon="-1.81649">
        <ele>66</ele>
        <time>2021-06-02T15:43:29.000Z</time>
      </trkpt>
      <trkpt lat="47.08403" lon="-1.81647">
        <ele>67</ele>
        <time>2021-06-02T15:43:31.000Z</time>
      </trkpt>
      <trkpt lat="47.08391" lon="-1.8165">
        <ele>66</ele>
        <time>2021-06-02T15:43:33.000Z</time>
      </trkpt>
      <trkpt lat="47.08379" lon="-1.81646">
        <ele>67</ele>
        <time>2021-06-02T15:43:35.000Z</time>
      </trkpt>
      <trkpt lat="47.08368" lon="-1.81643">
        <ele>68</ele>
        <time>2021-06-02T15:43:37.000Z</time>
      </trkpt>
      <trkpt lat="47.08357" lon="-1.81642">
        <ele>68</ele>
        <time>2021-06-02T15:43:39.000Z</time>
      </trkpt>
      <trkpt lat="47.08346" lon="-1.8164">
        <ele>67</ele>
        <time>2021-06-02T15:43:41.000Z</time>
      </trkpt>
      <trkpt lat="47.08335" lon="-1.81638">
        <ele>67</ele>
        <time>2021-06-02T15:43:43.000Z</time>
      </trkpt>
      <trkpt lat="47.08324" lon="-1.81634">
        <ele>67</ele>
        <time>2021-06-02T15:43:45.000Z</time>
      </trkpt>
      <trkpt lat="47.08314" lon="-1.81634">
        <ele>68</ele>
        <time>2021-06-02T15:43:47.000Z</time>
      </trkpt>
      <trkpt lat="47.08303" lon="-1.81636">
        <ele>67</ele>
        <time>2021-06-02T15:43:49.000Z</time>
      </trkpt>
      <trkpt lat="47.08292" lon="-1.81636">
        <ele>67</ele>
        <time>2021-06-02T15:43:51.000Z</time>
      </trkpt>
      <trkpt lat="47.0828" lon="-1.81636">
        <ele>68</ele>
        <time>2021-06-02T15:43:53.000Z</time>
      </trkpt>
      <trkpt lat="47.08268" lon="-1.81635">
        <ele>68</ele>
        <time>2021-06-02T15:43:55.000Z</time>
      </trkpt>
      <trkpt lat="47.08256" lon="-1.81635">
        <ele>68</ele>
        <time>2021-06-02T15:43:57.000Z</time>
      </trkpt>
      <trkpt lat="47.08245" lon="-1.81634">
        <ele>69</ele>
        <time>2021-06-02T15:43:59.000Z</time>
      </trkpt>
      <trkpt lat="47.08233" lon="-1.81632">
        <ele>68</ele>
        <time>2021-06-02T15:44:01.000Z</time>
      </trkpt>
      <trkpt lat="47.08213" lon="-1.81633">
        <ele>67</ele>
        <time>2021-06-02T15:44:04.000Z</time>
      </trkpt>
      <trkpt lat="47.08199" lon="-1.81632">
        <ele>66</ele>
        <time>2021-06-02T15:44:06.000Z</time>
      </trkpt>
      <trkpt lat="47.08188" lon="-1.81631">
        <ele>67</ele>
        <time>2021-06-02T15:44:08.000Z</time>
      </trkpt>
      <trkpt lat="47.08176" lon="-1.8163">
        <ele>67</ele>
        <time>2021-06-02T15:44:10.000Z</time>
      </trkpt>
      <trkpt lat="47.08163" lon="-1.8163">
        <ele>67</ele>
        <time>2021-06-02T15:44:12.000Z</time>
      </trkpt>
      <trkpt lat="47.08152" lon="-1.8163">
        <ele>67</ele>
        <time>2021-06-02T15:44:14.000Z</time>
      </trkpt>
      <trkpt lat="47.08139" lon="-1.81628">
        <ele>67</ele>
        <time>2021-06-02T15:44:16.000Z</time>
      </trkpt>
      <trkpt lat="47.08126" lon="-1.81627">
        <ele>68</ele>
        <time>2021-06-02T15:44:18.000Z</time>
      </trkpt>
      <trkpt lat="47.08114" lon="-1.81625">
        <ele>68</ele>
        <time>2021-06-02T15:44:20.000Z</time>
      </trkpt>
      <trkpt lat="47.08102" lon="-1.81623">
        <ele>68</ele>
        <time>2021-06-02T15:44:22.000Z</time>
      </trkpt>
      <trkpt lat="47.08089" lon="-1.81619">
        <ele>69</ele>
        <time>2021-06-02T15:44:24.000Z</time>
      </trkpt>
      <trkpt lat="47.08077" lon="-1.81615">
        <ele>68</ele>
        <time>2021-06-02T15:44:26.000Z</time>
      </trkpt>
      <trkpt lat="47.08064" lon="-1.81611">
        <ele>65</ele>
        <time>2021-06-02T15:44:28.000Z</time>
      </trkpt>
      <trkpt lat="47.08053" lon="-1.81605">
        <ele>66</ele>
        <time>2021-06-02T15:44:30.000Z</time>
      </trkpt>
      <trkpt lat="47.08041" lon="-1.81597">
        <ele>66</ele>
        <time>2021-06-02T15:44:32.000Z</time>
      </trkpt>
      <trkpt lat="47.08029" lon="-1.81589">
        <ele>66</ele>
        <time>2021-06-02T15:44:34.000Z</time>
      </trkpt>
      <trkpt lat="47.08017" lon="-1.81583">
        <ele>66</ele>
        <time>2021-06-02T15:44:36.000Z</time>
      </trkpt>
      <trkpt lat="47.08006" lon="-1.81577">
        <ele>66</ele>
        <time>2021-06-02T15:44:38.000Z</time>
      </trkpt>
      <trkpt lat="47.07994" lon="-1.81571">
        <ele>66</ele>
        <time>2021-06-02T15:44:40.000Z</time>
      </trkpt>
      <trkpt lat="47.07981" lon="-1.81566">
        <ele>66</ele>
        <time>2021-06-02T15:44:42.000Z</time>
      </trkpt>
      <trkpt lat="47.07966" lon="-1.81565">
        <ele>66</ele>
        <time>2021-06-02T15:44:44.000Z</time>
      </trkpt>
      <trkpt lat="47.07956" lon="-1.81564">
        <ele>65</ele>
        <time>2021-06-02T15:44:46.000Z</time>
      </trkpt>
      <trkpt lat="47.07944" lon="-1.81563">
        <ele>66</ele>
        <time>2021-06-02T15:44:48.000Z</time>
      </trkpt>
      <trkpt lat="47.07931" lon="-1.81562">
        <ele>68</ele>
        <time>2021-06-02T15:44:50.000Z</time>
      </trkpt>
      <trkpt lat="47.07916" lon="-1.81564">
        <ele>68</ele>
        <time>2021-06-02T15:44:52.000Z</time>
      </trkpt>
      <trkpt lat="47.07908" lon="-1.81568">
        <ele>68</ele>
        <time>2021-06-02T15:44:53.000Z</time>
      </trkpt>
      <trkpt lat="47.07896" lon="-1.81566">
        <ele>68</ele>
        <time>2021-06-02T15:44:55.000Z</time>
      </trkpt>
      <trkpt lat="47.07885" lon="-1.81566">
        <ele>68</ele>
        <time>2021-06-02T15:44:57.000Z</time>
      </trkpt>
      <trkpt lat="47.07873" lon="-1.81568">
        <ele>68</ele>
        <time>2021-06-02T15:44:59.000Z</time>
      </trkpt>
      <trkpt lat="47.07861" lon="-1.8157">
        <ele>66</ele>
        <time>2021-06-02T15:45:01.000Z</time>
      </trkpt>
      <trkpt lat="47.07842" lon="-1.81565">
        <ele>66</ele>
        <time>2021-06-02T15:45:04.000Z</time>
      </trkpt>
      <trkpt lat="47.0783" lon="-1.81562">
        <ele>67</ele>
        <time>2021-06-02T15:45:06.000Z</time>
      </trkpt>
      <trkpt lat="47.07817" lon="-1.81562">
        <ele>67</ele>
        <time>2021-06-02T15:45:08.000Z</time>
      </trkpt>
      <trkpt lat="47.07803" lon="-1.8156">
        <ele>68</ele>
        <time>2021-06-02T15:45:10.000Z</time>
      </trkpt>
      <trkpt lat="47.07793" lon="-1.81555">
        <ele>68</ele>
        <time>2021-06-02T15:45:12.000Z</time>
      </trkpt>
      <trkpt lat="47.07782" lon="-1.81553">
        <ele>68</ele>
        <time>2021-06-02T15:45:14.000Z</time>
      </trkpt>
      <trkpt lat="47.07769" lon="-1.81552">
        <ele>68</ele>
        <time>2021-06-02T15:45:16.000Z</time>
      </trkpt>
      <trkpt lat="47.07758" lon="-1.81551">
        <ele>68</ele>
        <time>2021-06-02T15:45:18.000Z</time>
      </trkpt>
      <trkpt lat="47.07745" lon="-1.8155">
        <ele>69</ele>
        <time>2021-06-02T15:45:20.000Z</time>
      </trkpt>
      <trkpt lat="47.07733" lon="-1.8155">
        <ele>69</ele>
        <time>2021-06-02T15:45:22.000Z</time>
      </trkpt>
      <trkpt lat="47.07713" lon="-1.81553">
        <ele>69</ele>
        <time>2021-06-02T15:45:25.000Z</time>
      </trkpt>
      <trkpt lat="47.07701" lon="-1.81549">
        <ele>69</ele>
        <time>2021-06-02T15:45:27.000Z</time>
      </trkpt>
      <trkpt lat="47.0769" lon="-1.81548">
        <ele>69</ele>
        <time>2021-06-02T15:45:29.000Z</time>
      </trkpt>
      <trkpt lat="47.07678" lon="-1.81547">
        <ele>70</ele>
        <time>2021-06-02T15:45:31.000Z</time>
      </trkpt>
      <trkpt lat="47.07666" lon="-1.81546">
        <ele>70</ele>
        <time>2021-06-02T15:45:33.000Z</time>
      </trkpt>
      <trkpt lat="47.07654" lon="-1.81544">
        <ele>70</ele>
        <time>2021-06-02T15:45:35.000Z</time>
      </trkpt>
      <trkpt lat="47.07641" lon="-1.8154">
        <ele>70</ele>
        <time>2021-06-02T15:45:37.000Z</time>
      </trkpt>
      <trkpt lat="47.0763" lon="-1.81533">
        <ele>70</ele>
        <time>2021-06-02T15:45:39.000Z</time>
      </trkpt>
      <trkpt lat="47.07621" lon="-1.81524">
        <ele>66</ele>
        <time>2021-06-02T15:45:41.000Z</time>
      </trkpt>
      <trkpt lat="47.07609" lon="-1.81513">
        <ele>67</ele>
        <time>2021-06-02T15:45:43.000Z</time>
      </trkpt>
      <trkpt lat="47.07599" lon="-1.81504">
        <ele>68</ele>
        <time>2021-06-02T15:45:45.000Z</time>
      </trkpt>
      <trkpt lat="47.07583" lon="-1.81488">
        <ele>68</ele>
        <time>2021-06-02T15:45:48.000Z</time>
      </trkpt>
      <trkpt lat="47.07573" lon="-1.8148">
        <ele>68</ele>
        <time>2021-06-02T15:45:50.000Z</time>
      </trkpt>
      <trkpt lat="47.07563" lon="-1.81469">
        <ele>69</ele>
        <time>2021-06-02T15:45:52.000Z</time>
      </trkpt>
      <trkpt lat="47.07554" lon="-1.81458">
        <ele>69</ele>
        <time>2021-06-02T15:45:54.000Z</time>
      </trkpt>
      <trkpt lat="47.07543" lon="-1.81449">
        <ele>69</ele>
        <time>2021-06-02T15:45:56.000Z</time>
      </trkpt>
      <trkpt lat="47.07532" lon="-1.81444">
        <ele>69</ele>
        <time>2021-06-02T15:45:58.000Z</time>
      </trkpt>
      <trkpt lat="47.0752" lon="-1.81445">
        <ele>70</ele>
        <time>2021-06-02T15:46:00.000Z</time>
      </trkpt>
      <trkpt lat="47.07502" lon="-1.81453">
        <ele>70</ele>
        <time>2021-06-02T15:46:03.000Z</time>
      </trkpt>
      <trkpt lat="47.07492" lon="-1.81461">
        <ele>70</ele>
        <time>2021-06-02T15:46:05.000Z</time>
      </trkpt>
      <trkpt lat="47.0748" lon="-1.81469">
        <ele>71</ele>
        <time>2021-06-02T15:46:07.000Z</time>
      </trkpt>
      <trkpt lat="47.07469" lon="-1.81475">
        <ele>71</ele>
        <time>2021-06-02T15:46:09.000Z</time>
      </trkpt>
      <trkpt lat="47.07456" lon="-1.81479">
        <ele>69</ele>
        <time>2021-06-02T15:46:11.000Z</time>
      </trkpt>
      <trkpt lat="47.07442" lon="-1.81485">
        <ele>69</ele>
        <time>2021-06-02T15:46:13.000Z</time>
      </trkpt>
      <trkpt lat="47.0743" lon="-1.81487">
        <ele>70</ele>
        <time>2021-06-02T15:46:15.000Z</time>
      </trkpt>
      <trkpt lat="47.07418" lon="-1.81487">
        <ele>70</ele>
        <time>2021-06-02T15:46:17.000Z</time>
      </trkpt>
      <trkpt lat="47.07405" lon="-1.81489">
        <ele>68</ele>
        <time>2021-06-02T15:46:19.000Z</time>
      </trkpt>
      <trkpt lat="47.07393" lon="-1.81491">
        <ele>68</ele>
        <time>2021-06-02T15:46:21.000Z</time>
      </trkpt>
      <trkpt lat="47.07383" lon="-1.81491">
        <ele>68</ele>
        <time>2021-06-02T15:46:23.000Z</time>
      </trkpt>
      <trkpt lat="47.07371" lon="-1.81488">
        <ele>70</ele>
        <time>2021-06-02T15:46:25.000Z</time>
      </trkpt>
      <trkpt lat="47.07359" lon="-1.81482">
        <ele>71</ele>
        <time>2021-06-02T15:46:27.000Z</time>
      </trkpt>
      <trkpt lat="47.07347" lon="-1.81477">
        <ele>69</ele>
        <time>2021-06-02T15:46:29.000Z</time>
      </trkpt>
      <trkpt lat="47.07321" lon="-1.81465">
        <ele>70</ele>
        <time>2021-06-02T15:46:33.000Z</time>
      </trkpt>
      <trkpt lat="47.07309" lon="-1.81459">
        <ele>71</ele>
        <time>2021-06-02T15:46:35.000Z</time>
      </trkpt>
      <trkpt lat="47.07297" lon="-1.81451">
        <ele>70</ele>
        <time>2021-06-02T15:46:37.000Z</time>
      </trkpt>
      <trkpt lat="47.07287" lon="-1.81443">
        <ele>70</ele>
        <time>2021-06-02T15:46:39.000Z</time>
      </trkpt>
      <trkpt lat="47.07276" lon="-1.81433">
        <ele>70</ele>
        <time>2021-06-02T15:46:41.000Z</time>
      </trkpt>
      <trkpt lat="47.07265" lon="-1.81423">
        <ele>71</ele>
        <time>2021-06-02T15:46:43.000Z</time>
      </trkpt>
      <trkpt lat="47.07255" lon="-1.81412">
        <ele>71</ele>
        <time>2021-06-02T15:46:45.000Z</time>
      </trkpt>
      <trkpt lat="47.07239" lon="-1.81397">
        <ele>72</ele>
        <time>2021-06-02T15:46:48.000Z</time>
      </trkpt>
      <trkpt lat="47.07228" lon="-1.81387">
        <ele>72</ele>
        <time>2021-06-02T15:46:50.000Z</time>
      </trkpt>
      <trkpt lat="47.07218" lon="-1.81377">
        <ele>72</ele>
        <time>2021-06-02T15:46:52.000Z</time>
      </trkpt>
      <trkpt lat="47.07208" lon="-1.81368">
        <ele>72</ele>
        <time>2021-06-02T15:46:54.000Z</time>
      </trkpt>
      <trkpt lat="47.07198" lon="-1.81358">
        <ele>71</ele>
        <time>2021-06-02T15:46:56.000Z</time>
      </trkpt>
      <trkpt lat="47.07187" lon="-1.81349">
        <ele>71</ele>
        <time>2021-06-02T15:46:58.000Z</time>
      </trkpt>
      <trkpt lat="47.07176" lon="-1.81346">
        <ele>71</ele>
        <time>2021-06-02T15:47:00.000Z</time>
      </trkpt>
      <trkpt lat="47.07163" lon="-1.81351">
        <ele>72</ele>
        <time>2021-06-02T15:47:02.000Z</time>
      </trkpt>
      <trkpt lat="47.07153" lon="-1.81362">
        <ele>72</ele>
        <time>2021-06-02T15:47:04.000Z</time>
      </trkpt>
      <trkpt lat="47.07143" lon="-1.81374">
        <ele>73</ele>
        <time>2021-06-02T15:47:06.000Z</time>
      </trkpt>
      <trkpt lat="47.07134" lon="-1.81384">
        <ele>70</ele>
        <time>2021-06-02T15:47:08.000Z</time>
      </trkpt>
      <trkpt lat="47.07125" lon="-1.81395">
        <ele>70</ele>
        <time>2021-06-02T15:47:10.000Z</time>
      </trkpt>
      <trkpt lat="47.07115" lon="-1.81405">
        <ele>70</ele>
        <time>2021-06-02T15:47:12.000Z</time>
      </trkpt>
      <trkpt lat="47.07107" lon="-1.81416">
        <ele>70</ele>
        <time>2021-06-02T15:47:14.000Z</time>
      </trkpt>
      <trkpt lat="47.07094" lon="-1.81436">
        <ele>70</ele>
        <time>2021-06-02T15:47:17.000Z</time>
      </trkpt>
      <trkpt lat="47.07083" lon="-1.81449">
        <ele>71</ele>
        <time>2021-06-02T15:47:19.000Z</time>
      </trkpt>
      <trkpt lat="47.07076" lon="-1.81462">
        <ele>72</ele>
        <time>2021-06-02T15:47:21.000Z</time>
      </trkpt>
      <trkpt lat="47.07068" lon="-1.81474">
        <ele>73</ele>
        <time>2021-06-02T15:47:23.000Z</time>
      </trkpt>
      <trkpt lat="47.07061" lon="-1.81487">
        <ele>74</ele>
        <time>2021-06-02T15:47:25.000Z</time>
      </trkpt>
      <trkpt lat="47.07055" lon="-1.81502">
        <ele>74</ele>
        <time>2021-06-02T15:47:27.000Z</time>
      </trkpt>
      <trkpt lat="47.07049" lon="-1.81516">
        <ele>75</ele>
        <time>2021-06-02T15:47:29.000Z</time>
      </trkpt>
      <trkpt lat="47.07043" lon="-1.81529">
        <ele>76</ele>
        <time>2021-06-02T15:47:31.000Z</time>
      </trkpt>
      <trkpt lat="47.07037" lon="-1.81543">
        <ele>76</ele>
        <time>2021-06-02T15:47:33.000Z</time>
      </trkpt>
      <trkpt lat="47.07028" lon="-1.81565">
        <ele>77</ele>
        <time>2021-06-02T15:47:36.000Z</time>
      </trkpt>
      <trkpt lat="47.07024" lon="-1.8158">
        <ele>78</ele>
        <time>2021-06-02T15:47:38.000Z</time>
      </trkpt>
      <trkpt lat="47.07017" lon="-1.81602">
        <ele>78</ele>
        <time>2021-06-02T15:47:41.000Z</time>
      </trkpt>
      <trkpt lat="47.07012" lon="-1.81617">
        <ele>78</ele>
        <time>2021-06-02T15:47:43.000Z</time>
      </trkpt>
      <trkpt lat="47.07008" lon="-1.81633">
        <ele>78</ele>
        <time>2021-06-02T15:47:45.000Z</time>
      </trkpt>
      <trkpt lat="47.07003" lon="-1.81649">
        <ele>78</ele>
        <time>2021-06-02T15:47:47.000Z</time>
      </trkpt>
      <trkpt lat="47.06998" lon="-1.81666">
        <ele>78</ele>
        <time>2021-06-02T15:47:49.000Z</time>
      </trkpt>
      <trkpt lat="47.06993" lon="-1.81682">
        <ele>78</ele>
        <time>2021-06-02T15:47:51.000Z</time>
      </trkpt>
      <trkpt lat="47.06988" lon="-1.81698">
        <ele>77</ele>
        <time>2021-06-02T15:47:53.000Z</time>
      </trkpt>
      <trkpt lat="47.06983" lon="-1.81712">
        <ele>78</ele>
        <time>2021-06-02T15:47:55.000Z</time>
      </trkpt>
      <trkpt lat="47.06976" lon="-1.81735">
        <ele>74</ele>
        <time>2021-06-02T15:47:58.000Z</time>
      </trkpt>
      <trkpt lat="47.06969" lon="-1.81748">
        <ele>75</ele>
        <time>2021-06-02T15:48:00.000Z</time>
      </trkpt>
      <trkpt lat="47.06964" lon="-1.81762">
        <ele>76</ele>
        <time>2021-06-02T15:48:02.000Z</time>
      </trkpt>
      <trkpt lat="47.06955" lon="-1.81774">
        <ele>76</ele>
        <time>2021-06-02T15:48:04.000Z</time>
      </trkpt>
      <trkpt lat="47.06947" lon="-1.81787">
        <ele>76</ele>
        <time>2021-06-02T15:48:06.000Z</time>
      </trkpt>
      <trkpt lat="47.06944" lon="-1.81803">
        <ele>75</ele>
        <time>2021-06-02T15:48:08.000Z</time>
      </trkpt>
      <trkpt lat="47.0694" lon="-1.81819">
        <ele>75</ele>
        <time>2021-06-02T15:48:10.000Z</time>
      </trkpt>
      <trkpt lat="47.06936" lon="-1.81833">
        <ele>73</ele>
        <time>2021-06-02T15:48:12.000Z</time>
      </trkpt>
      <trkpt lat="47.06932" lon="-1.81848">
        <ele>75</ele>
        <time>2021-06-02T15:48:14.000Z</time>
      </trkpt>
      <trkpt lat="47.06924" lon="-1.8186">
        <ele>77</ele>
        <time>2021-06-02T15:48:16.000Z</time>
      </trkpt>
      <trkpt lat="47.06918" lon="-1.81871">
        <ele>78</ele>
        <time>2021-06-02T15:48:18.000Z</time>
      </trkpt>
      <trkpt lat="47.06912" lon="-1.81883">
        <ele>77</ele>
        <time>2021-06-02T15:48:20.000Z</time>
      </trkpt>
      <trkpt lat="47.06907" lon="-1.81896">
        <ele>75</ele>
        <time>2021-06-02T15:48:22.000Z</time>
      </trkpt>
      <trkpt lat="47.06901" lon="-1.81911">
        <ele>76</ele>
        <time>2021-06-02T15:48:24.000Z</time>
      </trkpt>
      <trkpt lat="47.06896" lon="-1.81924">
        <ele>78</ele>
        <time>2021-06-02T15:48:26.000Z</time>
      </trkpt>
      <trkpt lat="47.06893" lon="-1.8194">
        <ele>78</ele>
        <time>2021-06-02T15:48:28.000Z</time>
      </trkpt>
      <trkpt lat="47.06891" lon="-1.81956">
        <ele>80</ele>
        <time>2021-06-02T15:48:30.000Z</time>
      </trkpt>
      <trkpt lat="47.06892" lon="-1.81972">
        <ele>81</ele>
        <time>2021-06-02T15:48:32.000Z</time>
      </trkpt>
      <trkpt lat="47.06893" lon="-1.81987">
        <ele>81</ele>
        <time>2021-06-02T15:48:34.000Z</time>
      </trkpt>
      <trkpt lat="47.06894" lon="-1.82003">
        <ele>80</ele>
        <time>2021-06-02T15:48:36.000Z</time>
      </trkpt>
      <trkpt lat="47.06895" lon="-1.82019">
        <ele>78</ele>
        <time>2021-06-02T15:48:38.000Z</time>
      </trkpt>
      <trkpt lat="47.06896" lon="-1.82034">
        <ele>79</ele>
        <time>2021-06-02T15:48:40.000Z</time>
      </trkpt>
      <trkpt lat="47.06897" lon="-1.82049">
        <ele>79</ele>
        <time>2021-06-02T15:48:42.000Z</time>
      </trkpt>
      <trkpt lat="47.06899" lon="-1.82064">
        <ele>79</ele>
        <time>2021-06-02T15:48:44.000Z</time>
      </trkpt>
      <trkpt lat="47.06901" lon="-1.82079">
        <ele>80</ele>
        <time>2021-06-02T15:48:46.000Z</time>
      </trkpt>
      <trkpt lat="47.06901" lon="-1.82095">
        <ele>80</ele>
        <time>2021-06-02T15:48:48.000Z</time>
      </trkpt>
      <trkpt lat="47.06903" lon="-1.82113">
        <ele>82</ele>
        <time>2021-06-02T15:48:50.000Z</time>
      </trkpt>
      <trkpt lat="47.06903" lon="-1.8213">
        <ele>83</ele>
        <time>2021-06-02T15:48:52.000Z</time>
      </trkpt>
      <trkpt lat="47.06904" lon="-1.82148">
        <ele>84</ele>
        <time>2021-06-02T15:48:54.000Z</time>
      </trkpt>
      <trkpt lat="47.06904" lon="-1.82165">
        <ele>85</ele>
        <time>2021-06-02T15:48:56.000Z</time>
      </trkpt>
      <trkpt lat="47.06903" lon="-1.82187">
        <ele>85</ele>
        <time>2021-06-02T15:48:59.000Z</time>
      </trkpt>
      <trkpt lat="47.06903" lon="-1.82204">
        <ele>85</ele>
        <time>2021-06-02T15:49:01.000Z</time>
      </trkpt>
      <trkpt lat="47.06903" lon="-1.82222">
        <ele>85</ele>
        <time>2021-06-02T15:49:03.000Z</time>
      </trkpt>
      <trkpt lat="47.06902" lon="-1.82247">
        <ele>85</ele>
        <time>2021-06-02T15:49:06.000Z</time>
      </trkpt>
      <trkpt lat="47.06901" lon="-1.82264">
        <ele>84</ele>
        <time>2021-06-02T15:49:08.000Z</time>
      </trkpt>
      <trkpt lat="47.06899" lon="-1.8228">
        <ele>85</ele>
        <time>2021-06-02T15:49:10.000Z</time>
      </trkpt>
      <trkpt lat="47.06899" lon="-1.82298">
        <ele>86</ele>
        <time>2021-06-02T15:49:12.000Z</time>
      </trkpt>
      <trkpt lat="47.06897" lon="-1.82323">
        <ele>86</ele>
        <time>2021-06-02T15:49:15.000Z</time>
      </trkpt>
      <trkpt lat="47.06896" lon="-1.8234">
        <ele>86</ele>
        <time>2021-06-02T15:49:17.000Z</time>
      </trkpt>
      <trkpt lat="47.06893" lon="-1.82357">
        <ele>85</ele>
        <time>2021-06-02T15:49:19.000Z</time>
      </trkpt>
      <trkpt lat="47.06891" lon="-1.82372">
        <ele>85</ele>
        <time>2021-06-02T15:49:21.000Z</time>
      </trkpt>
      <trkpt lat="47.06888" lon="-1.82389">
        <ele>86</ele>
        <time>2021-06-02T15:49:23.000Z</time>
      </trkpt>
      <trkpt lat="47.06885" lon="-1.82406">
        <ele>84</ele>
        <time>2021-06-02T15:49:25.000Z</time>
      </trkpt>
      <trkpt lat="47.06882" lon="-1.8242">
        <ele>84</ele>
        <time>2021-06-02T15:49:27.000Z</time>
      </trkpt>
      <trkpt lat="47.0688" lon="-1.82439">
        <ele>84</ele>
        <time>2021-06-02T15:49:29.000Z</time>
      </trkpt>
      <trkpt lat="47.06879" lon="-1.82457">
        <ele>86</ele>
        <time>2021-06-02T15:49:31.000Z</time>
      </trkpt>
      <trkpt lat="47.06878" lon="-1.82483">
        <ele>87</ele>
        <time>2021-06-02T15:49:34.000Z</time>
      </trkpt>
      <trkpt lat="47.0688" lon="-1.82501">
        <ele>87</ele>
        <time>2021-06-02T15:49:36.000Z</time>
      </trkpt>
      <trkpt lat="47.06882" lon="-1.82518">
        <ele>85</ele>
        <time>2021-06-02T15:49:38.000Z</time>
      </trkpt>
      <trkpt lat="47.06883" lon="-1.82536">
        <ele>85</ele>
        <time>2021-06-02T15:49:40.000Z</time>
      </trkpt>
      <trkpt lat="47.06885" lon="-1.82554">
        <ele>85</ele>
        <time>2021-06-02T15:49:42.000Z</time>
      </trkpt>
      <trkpt lat="47.06887" lon="-1.82572">
        <ele>85</ele>
        <time>2021-06-02T15:49:44.000Z</time>
      </trkpt>
      <trkpt lat="47.06889" lon="-1.82589">
        <ele>85</ele>
        <time>2021-06-02T15:49:46.000Z</time>
      </trkpt>
      <trkpt lat="47.06892" lon="-1.82606">
        <ele>81</ele>
        <time>2021-06-02T15:49:48.000Z</time>
      </trkpt>
      <trkpt lat="47.06892" lon="-1.82623">
        <ele>82</ele>
        <time>2021-06-02T15:49:50.000Z</time>
      </trkpt>
      <trkpt lat="47.06892" lon="-1.82642">
        <ele>83</ele>
        <time>2021-06-02T15:49:52.000Z</time>
      </trkpt>
      <trkpt lat="47.06893" lon="-1.82659">
        <ele>84</ele>
        <time>2021-06-02T15:49:54.000Z</time>
      </trkpt>
      <trkpt lat="47.06895" lon="-1.82677">
        <ele>83</ele>
        <time>2021-06-02T15:49:56.000Z</time>
      </trkpt>
      <trkpt lat="47.06898" lon="-1.82694">
        <ele>83</ele>
        <time>2021-06-02T15:49:58.000Z</time>
      </trkpt>
      <trkpt lat="47.06896" lon="-1.82713">
        <ele>85</ele>
        <time>2021-06-02T15:50:00.000Z</time>
      </trkpt>
      <trkpt lat="47.06895" lon="-1.82731">
        <ele>87</ele>
        <time>2021-06-02T15:50:02.000Z</time>
      </trkpt>
      <trkpt lat="47.06894" lon="-1.82758">
        <ele>86</ele>
        <time>2021-06-02T15:50:05.000Z</time>
      </trkpt>
      <trkpt lat="47.06895" lon="-1.82777">
        <ele>86</ele>
        <time>2021-06-02T15:50:07.000Z</time>
      </trkpt>
      <trkpt lat="47.06896" lon="-1.82795">
        <ele>86</ele>
        <time>2021-06-02T15:50:09.000Z</time>
      </trkpt>
      <trkpt lat="47.06896" lon="-1.82812">
        <ele>85</ele>
        <time>2021-06-02T15:50:11.000Z</time>
      </trkpt>
      <trkpt lat="47.06897" lon="-1.82829">
        <ele>85</ele>
        <time>2021-06-02T15:50:13.000Z</time>
      </trkpt>
      <trkpt lat="47.06898" lon="-1.82847">
        <ele>85</ele>
        <time>2021-06-02T15:50:15.000Z</time>
      </trkpt>
      <trkpt lat="47.06899" lon="-1.82864">
        <ele>85</ele>
        <time>2021-06-02T15:50:17.000Z</time>
      </trkpt>
      <trkpt lat="47.06899" lon="-1.82881">
        <ele>85</ele>
        <time>2021-06-02T15:50:19.000Z</time>
      </trkpt>
      <trkpt lat="47.069" lon="-1.82898">
        <ele>85</ele>
        <time>2021-06-02T15:50:21.000Z</time>
      </trkpt>
      <trkpt lat="47.06901" lon="-1.82917">
        <ele>84</ele>
        <time>2021-06-02T15:50:23.000Z</time>
      </trkpt>
      <trkpt lat="47.06903" lon="-1.82934">
        <ele>84</ele>
        <time>2021-06-02T15:50:25.000Z</time>
      </trkpt>
      <trkpt lat="47.06904" lon="-1.82951">
        <ele>84</ele>
        <time>2021-06-02T15:50:27.000Z</time>
      </trkpt>
      <trkpt lat="47.06905" lon="-1.82968">
        <ele>84</ele>
        <time>2021-06-02T15:50:29.000Z</time>
      </trkpt>
      <trkpt lat="47.06906" lon="-1.82986">
        <ele>84</ele>
        <time>2021-06-02T15:50:31.000Z</time>
      </trkpt>
      <trkpt lat="47.06909" lon="-1.8301">
        <ele>84</ele>
        <time>2021-06-02T15:50:34.000Z</time>
      </trkpt>
      <trkpt lat="47.06913" lon="-1.83025">
        <ele>84</ele>
        <time>2021-06-02T15:50:36.000Z</time>
      </trkpt>
      <trkpt lat="47.06907" lon="-1.83042">
        <ele>91</ele>
        <time>2021-06-02T15:50:39.999Z</time>
      </trkpt>
      <trkpt lat="47.06898" lon="-1.83044">
        <ele>86</ele>
        <time>2021-06-02T15:50:41.000Z</time>
      </trkpt>
      <trkpt lat="47.06884" lon="-1.83041">
        <ele>85</ele>
        <time>2021-06-02T15:50:43.000Z</time>
      </trkpt>
      <trkpt lat="47.06866" lon="-1.8304">
        <ele>83</ele>
        <time>2021-06-02T15:50:46.000Z</time>
      </trkpt>
      <trkpt lat="47.06854" lon="-1.83038">
        <ele>83</ele>
        <time>2021-06-02T15:50:48.000Z</time>
      </trkpt>
      <trkpt lat="47.0684" lon="-1.83037">
        <ele>84</ele>
        <time>2021-06-02T15:50:50.000Z</time>
      </trkpt>
      <trkpt lat="47.06819" lon="-1.83039">
        <ele>80</ele>
        <time>2021-06-02T15:50:53.000Z</time>
      </trkpt>
      <trkpt lat="47.06808" lon="-1.83039">
        <ele>80</ele>
        <time>2021-06-02T15:50:55.000Z</time>
      </trkpt>
      <trkpt lat="47.06798" lon="-1.8304">
        <ele>81</ele>
        <time>2021-06-02T15:50:57.000Z</time>
      </trkpt>
      <trkpt lat="47.06786" lon="-1.8304">
        <ele>82</ele>
        <time>2021-06-02T15:50:59.000Z</time>
      </trkpt>
      <trkpt lat="47.06775" lon="-1.83041">
        <ele>83</ele>
        <time>2021-06-02T15:51:01.000Z</time>
      </trkpt>
      <trkpt lat="47.06762" lon="-1.83045">
        <ele>83</ele>
        <time>2021-06-02T15:51:03.000Z</time>
      </trkpt>
      <trkpt lat="47.0675" lon="-1.83047">
        <ele>83</ele>
        <time>2021-06-02T15:51:05.000Z</time>
      </trkpt>
      <trkpt lat="47.06738" lon="-1.83048">
        <ele>83</ele>
        <time>2021-06-02T15:51:07.000Z</time>
      </trkpt>
      <trkpt lat="47.0672" lon="-1.83051">
        <ele>83</ele>
        <time>2021-06-02T15:51:10.000Z</time>
      </trkpt>
      <trkpt lat="47.06706" lon="-1.83056">
        <ele>82</ele>
        <time>2021-06-02T15:51:12.000Z</time>
      </trkpt>
      <trkpt lat="47.06693" lon="-1.83057">
        <ele>81</ele>
        <time>2021-06-02T15:51:14.000Z</time>
      </trkpt>
      <trkpt lat="47.06682" lon="-1.83059">
        <ele>82</ele>
        <time>2021-06-02T15:51:16.000Z</time>
      </trkpt>
      <trkpt lat="47.06669" lon="-1.83061">
        <ele>82</ele>
        <time>2021-06-02T15:51:18.000Z</time>
      </trkpt>
      <trkpt lat="47.06651" lon="-1.83066">
        <ele>82</ele>
        <time>2021-06-02T15:51:21.000Z</time>
      </trkpt>
      <trkpt lat="47.06638" lon="-1.83069">
        <ele>82</ele>
        <time>2021-06-02T15:51:23.000Z</time>
      </trkpt>
      <trkpt lat="47.06627" lon="-1.83072">
        <ele>81</ele>
        <time>2021-06-02T15:51:25.000Z</time>
      </trkpt>
      <trkpt lat="47.06611" lon="-1.83077">
        <ele>82</ele>
        <time>2021-06-02T15:51:28.000Z</time>
      </trkpt>
      <trkpt lat="47.06598" lon="-1.83078">
        <ele>84</ele>
        <time>2021-06-02T15:51:30.000Z</time>
      </trkpt>
      <trkpt lat="47.06588" lon="-1.83083">
        <ele>84</ele>
        <time>2021-06-02T15:51:32.000Z</time>
      </trkpt>
      <trkpt lat="47.06576" lon="-1.83085">
        <ele>83</ele>
        <time>2021-06-02T15:51:34.000Z</time>
      </trkpt>
      <trkpt lat="47.06563" lon="-1.83089">
        <ele>82</ele>
        <time>2021-06-02T15:51:36.000Z</time>
      </trkpt>
      <trkpt lat="47.06553" lon="-1.83092">
        <ele>82</ele>
        <time>2021-06-02T15:51:38.000Z</time>
      </trkpt>
      <trkpt lat="47.06535" lon="-1.83101">
        <ele>82</ele>
        <time>2021-06-02T15:51:41.000Z</time>
      </trkpt>
      <trkpt lat="47.06523" lon="-1.83108">
        <ele>82</ele>
        <time>2021-06-02T15:51:43.000Z</time>
      </trkpt>
      <trkpt lat="47.06508" lon="-1.83112">
        <ele>81</ele>
        <time>2021-06-02T15:51:46.000Z</time>
      </trkpt>
      <trkpt lat="47.06496" lon="-1.83117">
        <ele>80</ele>
        <time>2021-06-02T15:51:48.000Z</time>
      </trkpt>
      <trkpt lat="47.06486" lon="-1.83122">
        <ele>80</ele>
        <time>2021-06-02T15:51:50.000Z</time>
      </trkpt>
      <trkpt lat="47.06475" lon="-1.83125">
        <ele>80</ele>
        <time>2021-06-02T15:51:52.000Z</time>
      </trkpt>
      <trkpt lat="47.06464" lon="-1.83129">
        <ele>81</ele>
        <time>2021-06-02T15:51:54.000Z</time>
      </trkpt>
      <trkpt lat="47.06453" lon="-1.83134">
        <ele>80</ele>
        <time>2021-06-02T15:51:56.000Z</time>
      </trkpt>
      <trkpt lat="47.06441" lon="-1.83139">
        <ele>79</ele>
        <time>2021-06-02T15:51:58.000Z</time>
      </trkpt>
      <trkpt lat="47.06428" lon="-1.83147">
        <ele>79</ele>
        <time>2021-06-02T15:52:00.000Z</time>
      </trkpt>
      <trkpt lat="47.06418" lon="-1.83152">
        <ele>77</ele>
        <time>2021-06-02T15:52:02.000Z</time>
      </trkpt>
      <trkpt lat="47.06408" lon="-1.83154">
        <ele>79</ele>
        <time>2021-06-02T15:52:04.000Z</time>
      </trkpt>
      <trkpt lat="47.06397" lon="-1.83157">
        <ele>78</ele>
        <time>2021-06-02T15:52:06.000Z</time>
      </trkpt>
      <trkpt lat="47.0638" lon="-1.83165">
        <ele>80</ele>
        <time>2021-06-02T15:52:09.000Z</time>
      </trkpt>
      <trkpt lat="47.0637" lon="-1.83171">
        <ele>80</ele>
        <time>2021-06-02T15:52:11.000Z</time>
      </trkpt>
      <trkpt lat="47.06362" lon="-1.83179">
        <ele>79</ele>
        <time>2021-06-02T15:52:13.000Z</time>
      </trkpt>
      <trkpt lat="47.0635" lon="-1.83182">
        <ele>79</ele>
        <time>2021-06-02T15:52:15.000Z</time>
      </trkpt>
      <trkpt lat="47.06339" lon="-1.83184">
        <ele>81</ele>
        <time>2021-06-02T15:52:17.000Z</time>
      </trkpt>
      <trkpt lat="47.06328" lon="-1.83188">
        <ele>81</ele>
        <time>2021-06-02T15:52:19.000Z</time>
      </trkpt>
      <trkpt lat="47.06317" lon="-1.83192">
        <ele>82</ele>
        <time>2021-06-02T15:52:21.000Z</time>
      </trkpt>
      <trkpt lat="47.06306" lon="-1.83196">
        <ele>82</ele>
        <time>2021-06-02T15:52:23.000Z</time>
      </trkpt>
      <trkpt lat="47.06295" lon="-1.83198">
        <ele>83</ele>
        <time>2021-06-02T15:52:25.000Z</time>
      </trkpt>
      <trkpt lat="47.06284" lon="-1.83201">
        <ele>83</ele>
        <time>2021-06-02T15:52:27.000Z</time>
      </trkpt>
      <trkpt lat="47.06273" lon="-1.83203">
        <ele>83</ele>
        <time>2021-06-02T15:52:29.000Z</time>
      </trkpt>
      <trkpt lat="47.06261" lon="-1.83204">
        <ele>83</ele>
        <time>2021-06-02T15:52:31.000Z</time>
      </trkpt>
      <trkpt lat="47.0625" lon="-1.83205">
        <ele>83</ele>
        <time>2021-06-02T15:52:33.000Z</time>
      </trkpt>
      <trkpt lat="47.06239" lon="-1.83205">
        <ele>84</ele>
        <time>2021-06-02T15:52:35.000Z</time>
      </trkpt>
      <trkpt lat="47.06221" lon="-1.83209">
        <ele>82</ele>
        <time>2021-06-02T15:52:38.000Z</time>
      </trkpt>
      <trkpt lat="47.06209" lon="-1.83208">
        <ele>81</ele>
        <time>2021-06-02T15:52:40.000Z</time>
      </trkpt>
      <trkpt lat="47.06199" lon="-1.83209">
        <ele>82</ele>
        <time>2021-06-02T15:52:42.000Z</time>
      </trkpt>
      <trkpt lat="47.06181" lon="-1.8321">
        <ele>82</ele>
        <time>2021-06-02T15:52:45.000Z</time>
      </trkpt>
      <trkpt lat="47.06169" lon="-1.83211">
        <ele>84</ele>
        <time>2021-06-02T15:52:47.000Z</time>
      </trkpt>
      <trkpt lat="47.06157" lon="-1.83212">
        <ele>84</ele>
        <time>2021-06-02T15:52:49.000Z</time>
      </trkpt>
      <trkpt lat="47.0614" lon="-1.83214">
        <ele>84</ele>
        <time>2021-06-02T15:52:52.000Z</time>
      </trkpt>
      <trkpt lat="47.06128" lon="-1.83216">
        <ele>84</ele>
        <time>2021-06-02T15:52:54.000Z</time>
      </trkpt>
      <trkpt lat="47.06109" lon="-1.83217">
        <ele>82</ele>
        <time>2021-06-02T15:52:57.000Z</time>
      </trkpt>
      <trkpt lat="47.061" lon="-1.83214">
        <ele>84</ele>
        <time>2021-06-02T15:52:59.000Z</time>
      </trkpt>
      <trkpt lat="47.06083" lon="-1.83214">
        <ele>85</ele>
        <time>2021-06-02T15:53:02.000Z</time>
      </trkpt>
      <trkpt lat="47.06071" lon="-1.83211">
        <ele>82</ele>
        <time>2021-06-02T15:53:04.000Z</time>
      </trkpt>
      <trkpt lat="47.06058" lon="-1.83213">
        <ele>85</ele>
        <time>2021-06-02T15:53:06.000Z</time>
      </trkpt>
      <trkpt lat="47.06048" lon="-1.83214">
        <ele>85</ele>
        <time>2021-06-02T15:53:08.000Z</time>
      </trkpt>
      <trkpt lat="47.06031" lon="-1.83215">
        <ele>86</ele>
        <time>2021-06-02T15:53:11.000Z</time>
      </trkpt>
      <trkpt lat="47.06019" lon="-1.83217">
        <ele>86</ele>
        <time>2021-06-02T15:53:13.000Z</time>
      </trkpt>
      <trkpt lat="47.06007" lon="-1.8322">
        <ele>85</ele>
        <time>2021-06-02T15:53:15.000Z</time>
      </trkpt>
      <trkpt lat="47.05994" lon="-1.83221">
        <ele>83</ele>
        <time>2021-06-02T15:53:17.000Z</time>
      </trkpt>
      <trkpt lat="47.05983" lon="-1.83221">
        <ele>82</ele>
        <time>2021-06-02T15:53:19.000Z</time>
      </trkpt>
      <trkpt lat="47.05972" lon="-1.83226">
        <ele>82</ele>
        <time>2021-06-02T15:53:21.000Z</time>
      </trkpt>
      <trkpt lat="47.05964" lon="-1.83237">
        <ele>83</ele>
        <time>2021-06-02T15:53:23.000Z</time>
      </trkpt>
      <trkpt lat="47.05956" lon="-1.83249">
        <ele>84</ele>
        <time>2021-06-02T15:53:25.000Z</time>
      </trkpt>
      <trkpt lat="47.05947" lon="-1.83262">
        <ele>83</ele>
        <time>2021-06-02T15:53:27.000Z</time>
      </trkpt>
      <trkpt lat="47.05939" lon="-1.83276">
        <ele>83</ele>
        <time>2021-06-02T15:53:29.000Z</time>
      </trkpt>
      <trkpt lat="47.05933" lon="-1.83288">
        <ele>83</ele>
        <time>2021-06-02T15:53:31.000Z</time>
      </trkpt>
      <trkpt lat="47.05924" lon="-1.83298">
        <ele>83</ele>
        <time>2021-06-02T15:53:33.000Z</time>
      </trkpt>
      <trkpt lat="47.05915" lon="-1.8331">
        <ele>83</ele>
        <time>2021-06-02T15:53:35.000Z</time>
      </trkpt>
      <trkpt lat="47.05907" lon="-1.83322">
        <ele>83</ele>
        <time>2021-06-02T15:53:37.000Z</time>
      </trkpt>
      <trkpt lat="47.05898" lon="-1.83333">
        <ele>84</ele>
        <time>2021-06-02T15:53:39.000Z</time>
      </trkpt>
      <trkpt lat="47.05885" lon="-1.83352">
        <ele>84</ele>
        <time>2021-06-02T15:53:42.000Z</time>
      </trkpt>
      <trkpt lat="47.05877" lon="-1.83364">
        <ele>84</ele>
        <time>2021-06-02T15:53:44.000Z</time>
      </trkpt>
      <trkpt lat="47.0587" lon="-1.83377">
        <ele>84</ele>
        <time>2021-06-02T15:53:46.000Z</time>
      </trkpt>
      <trkpt lat="47.05862" lon="-1.83388">
        <ele>84</ele>
        <time>2021-06-02T15:53:48.000Z</time>
      </trkpt>
      <trkpt lat="47.05855" lon="-1.834">
        <ele>84</ele>
        <time>2021-06-02T15:53:50.000Z</time>
      </trkpt>
      <trkpt lat="47.05849" lon="-1.83413">
        <ele>84</ele>
        <time>2021-06-02T15:53:52.000Z</time>
      </trkpt>
      <trkpt lat="47.05834" lon="-1.83431">
        <ele>85</ele>
        <time>2021-06-02T15:53:55.000Z</time>
      </trkpt>
      <trkpt lat="47.05825" lon="-1.83442">
        <ele>85</ele>
        <time>2021-06-02T15:53:57.000Z</time>
      </trkpt>
      <trkpt lat="47.05818" lon="-1.83454">
        <ele>85</ele>
        <time>2021-06-02T15:53:59.000Z</time>
      </trkpt>
      <trkpt lat="47.05809" lon="-1.83466">
        <ele>85</ele>
        <time>2021-06-02T15:54:01.000Z</time>
      </trkpt>
      <trkpt lat="47.05801" lon="-1.83477">
        <ele>85</ele>
        <time>2021-06-02T15:54:03.000Z</time>
      </trkpt>
      <trkpt lat="47.05792" lon="-1.83487">
        <ele>85</ele>
        <time>2021-06-02T15:54:05.000Z</time>
      </trkpt>
      <trkpt lat="47.05784" lon="-1.83498">
        <ele>86</ele>
        <time>2021-06-02T15:54:07.000Z</time>
      </trkpt>
      <trkpt lat="47.0577" lon="-1.83514">
        <ele>86</ele>
        <time>2021-06-02T15:54:10.000Z</time>
      </trkpt>
      <trkpt lat="47.05761" lon="-1.83526">
        <ele>86</ele>
        <time>2021-06-02T15:54:12.000Z</time>
      </trkpt>
      <trkpt lat="47.05753" lon="-1.83535">
        <ele>87</ele>
        <time>2021-06-02T15:54:14.000Z</time>
      </trkpt>
      <trkpt lat="47.05744" lon="-1.83545">
        <ele>87</ele>
        <time>2021-06-02T15:54:16.000Z</time>
      </trkpt>
      <trkpt lat="47.05736" lon="-1.83556">
        <ele>87</ele>
        <time>2021-06-02T15:54:18.000Z</time>
      </trkpt>
      <trkpt lat="47.05728" lon="-1.83568">
        <ele>87</ele>
        <time>2021-06-02T15:54:20.000Z</time>
      </trkpt>
      <trkpt lat="47.0572" lon="-1.8358">
        <ele>87</ele>
        <time>2021-06-02T15:54:22.000Z</time>
      </trkpt>
      <trkpt lat="47.05713" lon="-1.83594">
        <ele>87</ele>
        <time>2021-06-02T15:54:24.000Z</time>
      </trkpt>
      <trkpt lat="47.05703" lon="-1.83613">
        <ele>87</ele>
        <time>2021-06-02T15:54:27.000Z</time>
      </trkpt>
      <trkpt lat="47.05694" lon="-1.83626">
        <ele>88</ele>
        <time>2021-06-02T15:54:29.000Z</time>
      </trkpt>
      <trkpt lat="47.05688" lon="-1.83639">
        <ele>87</ele>
        <time>2021-06-02T15:54:31.000Z</time>
      </trkpt>
      <trkpt lat="47.05682" lon="-1.83652">
        <ele>87</ele>
        <time>2021-06-02T15:54:33.000Z</time>
      </trkpt>
      <trkpt lat="47.05675" lon="-1.83665">
        <ele>89</ele>
        <time>2021-06-02T15:54:35.000Z</time>
      </trkpt>
      <trkpt lat="47.05665" lon="-1.8368">
        <ele>88</ele>
        <time>2021-06-02T15:54:37.000Z</time>
      </trkpt>
      <trkpt lat="47.05657" lon="-1.83693">
        <ele>88</ele>
        <time>2021-06-02T15:54:39.000Z</time>
      </trkpt>
      <trkpt lat="47.0565" lon="-1.83708">
        <ele>87</ele>
        <time>2021-06-02T15:54:41.000Z</time>
      </trkpt>
      <trkpt lat="47.05641" lon="-1.8372">
        <ele>88</ele>
        <time>2021-06-02T15:54:43.000Z</time>
      </trkpt>
      <trkpt lat="47.05635" lon="-1.83733">
        <ele>87</ele>
        <time>2021-06-02T15:54:45.000Z</time>
      </trkpt>
      <trkpt lat="47.05624" lon="-1.83753">
        <ele>84</ele>
        <time>2021-06-02T15:54:48.000Z</time>
      </trkpt>
      <trkpt lat="47.05618" lon="-1.83767">
        <ele>85</ele>
        <time>2021-06-02T15:54:50.000Z</time>
      </trkpt>
      <trkpt lat="47.05609" lon="-1.8378">
        <ele>86</ele>
        <time>2021-06-02T15:54:52.000Z</time>
      </trkpt>
      <trkpt lat="47.05601" lon="-1.83792">
        <ele>87</ele>
        <time>2021-06-02T15:54:54.000Z</time>
      </trkpt>
      <trkpt lat="47.05595" lon="-1.83804">
        <ele>86</ele>
        <time>2021-06-02T15:54:56.000Z</time>
      </trkpt>
      <trkpt lat="47.05587" lon="-1.83819">
        <ele>86</ele>
        <time>2021-06-02T15:54:58.000Z</time>
      </trkpt>
      <trkpt lat="47.05579" lon="-1.83832">
        <ele>87</ele>
        <time>2021-06-02T15:55:00.000Z</time>
      </trkpt>
      <trkpt lat="47.05572" lon="-1.83844">
        <ele>87</ele>
        <time>2021-06-02T15:55:02.000Z</time>
      </trkpt>
      <trkpt lat="47.05563" lon="-1.83864">
        <ele>86</ele>
        <time>2021-06-02T15:55:05.000Z</time>
      </trkpt>
      <trkpt lat="47.05558" lon="-1.83878">
        <ele>86</ele>
        <time>2021-06-02T15:55:07.000Z</time>
      </trkpt>
      <trkpt lat="47.05549" lon="-1.8389">
        <ele>87</ele>
        <time>2021-06-02T15:55:09.000Z</time>
      </trkpt>
      <trkpt lat="47.05536" lon="-1.83907">
        <ele>85</ele>
        <time>2021-06-02T15:55:12.000Z</time>
      </trkpt>
      <trkpt lat="47.05525" lon="-1.83929">
        <ele>86</ele>
        <time>2021-06-02T15:55:15.000Z</time>
      </trkpt>
      <trkpt lat="47.05515" lon="-1.83947">
        <ele>85</ele>
        <time>2021-06-02T15:55:18.000Z</time>
      </trkpt>
      <trkpt lat="47.05507" lon="-1.8396">
        <ele>85</ele>
        <time>2021-06-02T15:55:20.000Z</time>
      </trkpt>
      <trkpt lat="47.05499" lon="-1.83973">
        <ele>86</ele>
        <time>2021-06-02T15:55:22.000Z</time>
      </trkpt>
      <trkpt lat="47.0549" lon="-1.83992">
        <ele>87</ele>
        <time>2021-06-02T15:55:25.000Z</time>
      </trkpt>
      <trkpt lat="47.05485" lon="-1.84007">
        <ele>83</ele>
        <time>2021-06-02T15:55:27.000Z</time>
      </trkpt>
      <trkpt lat="47.05477" lon="-1.8402">
        <ele>85</ele>
        <time>2021-06-02T15:55:29.000Z</time>
      </trkpt>
      <trkpt lat="47.0547" lon="-1.84033">
        <ele>86</ele>
        <time>2021-06-02T15:55:31.000Z</time>
      </trkpt>
      <trkpt lat="47.05464" lon="-1.84047">
        <ele>85</ele>
        <time>2021-06-02T15:55:33.000Z</time>
      </trkpt>
      <trkpt lat="47.05456" lon="-1.8406">
        <ele>85</ele>
        <time>2021-06-02T15:55:35.000Z</time>
      </trkpt>
      <trkpt lat="47.05449" lon="-1.84073">
        <ele>86</ele>
        <time>2021-06-02T15:55:37.000Z</time>
      </trkpt>
      <trkpt lat="47.05442" lon="-1.84086">
        <ele>86</ele>
        <time>2021-06-02T15:55:39.000Z</time>
      </trkpt>
      <trkpt lat="47.05436" lon="-1.84099">
        <ele>86</ele>
        <time>2021-06-02T15:55:41.000Z</time>
      </trkpt>
      <trkpt lat="47.05429" lon="-1.84114">
        <ele>86</ele>
        <time>2021-06-02T15:55:43.000Z</time>
      </trkpt>
      <trkpt lat="47.05422" lon="-1.84127">
        <ele>86</ele>
        <time>2021-06-02T15:55:45.000Z</time>
      </trkpt>
      <trkpt lat="47.05412" lon="-1.84146">
        <ele>86</ele>
        <time>2021-06-02T15:55:48.000Z</time>
      </trkpt>
      <trkpt lat="47.05405" lon="-1.8416">
        <ele>87</ele>
        <time>2021-06-02T15:55:50.000Z</time>
      </trkpt>
      <trkpt lat="47.05401" lon="-1.84171">
        <ele>83</ele>
        <time>2021-06-02T15:55:52.000Z</time>
      </trkpt>
      <trkpt lat="47.05391" lon="-1.84191">
        <ele>84</ele>
        <time>2021-06-02T15:55:55.000Z</time>
      </trkpt>
      <trkpt lat="47.05383" lon="-1.84205">
        <ele>85</ele>
        <time>2021-06-02T15:55:57.000Z</time>
      </trkpt>
      <trkpt lat="47.05376" lon="-1.84218">
        <ele>84</ele>
        <time>2021-06-02T15:55:59.000Z</time>
      </trkpt>
      <trkpt lat="47.05366" lon="-1.84239">
        <ele>85</ele>
        <time>2021-06-02T15:56:02.000Z</time>
      </trkpt>
      <trkpt lat="47.05359" lon="-1.84251">
        <ele>86</ele>
        <time>2021-06-02T15:56:04.000Z</time>
      </trkpt>
      <trkpt lat="47.05352" lon="-1.84263">
        <ele>86</ele>
        <time>2021-06-02T15:56:06.000Z</time>
      </trkpt>
      <trkpt lat="47.05346" lon="-1.84275">
        <ele>86</ele>
        <time>2021-06-02T15:56:08.000Z</time>
      </trkpt>
      <trkpt lat="47.05339" lon="-1.84288">
        <ele>87</ele>
        <time>2021-06-02T15:56:10.000Z</time>
      </trkpt>
      <trkpt lat="47.05329" lon="-1.84308">
        <ele>87</ele>
        <time>2021-06-02T15:56:13.000Z</time>
      </trkpt>
      <trkpt lat="47.05323" lon="-1.84321">
        <ele>87</ele>
        <time>2021-06-02T15:56:15.000Z</time>
      </trkpt>
      <trkpt lat="47.05314" lon="-1.84342">
        <ele>86</ele>
        <time>2021-06-02T15:56:18.000Z</time>
      </trkpt>
      <trkpt lat="47.05306" lon="-1.84355">
        <ele>85</ele>
        <time>2021-06-02T15:56:20.000Z</time>
      </trkpt>
      <trkpt lat="47.053" lon="-1.84367">
        <ele>85</ele>
        <time>2021-06-02T15:56:22.000Z</time>
      </trkpt>
      <trkpt lat="47.05294" lon="-1.8438">
        <ele>86</ele>
        <time>2021-06-02T15:56:24.000Z</time>
      </trkpt>
      <trkpt lat="47.05288" lon="-1.84393">
        <ele>87</ele>
        <time>2021-06-02T15:56:26.000Z</time>
      </trkpt>
      <trkpt lat="47.05284" lon="-1.84407">
        <ele>87</ele>
        <time>2021-06-02T15:56:28.000Z</time>
      </trkpt>
      <trkpt lat="47.05276" lon="-1.84419">
        <ele>87</ele>
        <time>2021-06-02T15:56:30.000Z</time>
      </trkpt>
      <trkpt lat="47.0527" lon="-1.84432">
        <ele>84</ele>
        <time>2021-06-02T15:56:32.000Z</time>
      </trkpt>
      <trkpt lat="47.05259" lon="-1.84452">
        <ele>85</ele>
        <time>2021-06-02T15:56:35.000Z</time>
      </trkpt>
      <trkpt lat="47.05253" lon="-1.84465">
        <ele>86</ele>
        <time>2021-06-02T15:56:37.000Z</time>
      </trkpt>
      <trkpt lat="47.05248" lon="-1.84476">
        <ele>83</ele>
        <time>2021-06-02T15:56:39.000Z</time>
      </trkpt>
      <trkpt lat="47.05235" lon="-1.84496">
        <ele>83</ele>
        <time>2021-06-02T15:56:42.000Z</time>
      </trkpt>
      <trkpt lat="47.05228" lon="-1.84511">
        <ele>84</ele>
        <time>2021-06-02T15:56:44.000Z</time>
      </trkpt>
      <trkpt lat="47.05222" lon="-1.84523">
        <ele>86</ele>
        <time>2021-06-02T15:56:46.000Z</time>
      </trkpt>
      <trkpt lat="47.05215" lon="-1.84535">
        <ele>86</ele>
        <time>2021-06-02T15:56:48.000Z</time>
      </trkpt>
      <trkpt lat="47.05204" lon="-1.84545">
        <ele>86</ele>
        <time>2021-06-02T15:56:51.000Z</time>
      </trkpt>
      <trkpt lat="47.05195" lon="-1.84538">
        <ele>87</ele>
        <time>2021-06-02T15:56:53.000Z</time>
      </trkpt>
      <trkpt lat="47.05182" lon="-1.84521">
        <ele>88</ele>
        <time>2021-06-02T15:56:56.000Z</time>
      </trkpt>
      <trkpt lat="47.05174" lon="-1.84508">
        <ele>88</ele>
        <time>2021-06-02T15:56:58.000Z</time>
      </trkpt>
      <trkpt lat="47.05165" lon="-1.84496">
        <ele>87</ele>
        <time>2021-06-02T15:57:00.000Z</time>
      </trkpt>
      <trkpt lat="47.05157" lon="-1.84484">
        <ele>87</ele>
        <time>2021-06-02T15:57:02.000Z</time>
      </trkpt>
      <trkpt lat="47.05148" lon="-1.84472">
        <ele>87</ele>
        <time>2021-06-02T15:57:04.000Z</time>
      </trkpt>
      <trkpt lat="47.05135" lon="-1.84454">
        <ele>87</ele>
        <time>2021-06-02T15:57:07.000Z</time>
      </trkpt>
      <trkpt lat="47.05126" lon="-1.84441">
        <ele>87</ele>
        <time>2021-06-02T15:57:09.000Z</time>
      </trkpt>
      <trkpt lat="47.05118" lon="-1.84429">
        <ele>87</ele>
        <time>2021-06-02T15:57:11.000Z</time>
      </trkpt>
      <trkpt lat="47.05109" lon="-1.84417">
        <ele>88</ele>
        <time>2021-06-02T15:57:13.000Z</time>
      </trkpt>
      <trkpt lat="47.051" lon="-1.84405">
        <ele>86</ele>
        <time>2021-06-02T15:57:15.000Z</time>
      </trkpt>
      <trkpt lat="47.0509" lon="-1.84395">
        <ele>85</ele>
        <time>2021-06-02T15:57:17.000Z</time>
      </trkpt>
      <trkpt lat="47.0508" lon="-1.84383">
        <ele>85</ele>
        <time>2021-06-02T15:57:19.000Z</time>
      </trkpt>
      <trkpt lat="47.05066" lon="-1.84366">
        <ele>86</ele>
        <time>2021-06-02T15:57:22.000Z</time>
      </trkpt>
      <trkpt lat="47.05056" lon="-1.84355">
        <ele>86</ele>
        <time>2021-06-02T15:57:24.000Z</time>
      </trkpt>
      <trkpt lat="47.05044" lon="-1.84338">
        <ele>86</ele>
        <time>2021-06-02T15:57:27.000Z</time>
      </trkpt>
      <trkpt lat="47.05037" lon="-1.84328">
        <ele>86</ele>
        <time>2021-06-02T15:57:29.000Z</time>
      </trkpt>
      <trkpt lat="47.05025" lon="-1.8432">
        <ele>86</ele>
        <time>2021-06-02T15:57:31.000Z</time>
      </trkpt>
      <trkpt lat="47.05015" lon="-1.84311">
        <ele>87</ele>
        <time>2021-06-02T15:57:33.000Z</time>
      </trkpt>
      <trkpt lat="47.04997" lon="-1.843">
        <ele>86</ele>
        <time>2021-06-02T15:57:36.000Z</time>
      </trkpt>
      <trkpt lat="47.04987" lon="-1.84292">
        <ele>87</ele>
        <time>2021-06-02T15:57:38.000Z</time>
      </trkpt>
      <trkpt lat="47.04978" lon="-1.84284">
        <ele>88</ele>
        <time>2021-06-02T15:57:40.000Z</time>
      </trkpt>
      <trkpt lat="47.04968" lon="-1.84275">
        <ele>87</ele>
        <time>2021-06-02T15:57:42.000Z</time>
      </trkpt>
      <trkpt lat="47.04958" lon="-1.84265">
        <ele>87</ele>
        <time>2021-06-02T15:57:44.000Z</time>
      </trkpt>
      <trkpt lat="47.04947" lon="-1.84255">
        <ele>87</ele>
        <time>2021-06-02T15:57:46.000Z</time>
      </trkpt>
      <trkpt lat="47.04937" lon="-1.84245">
        <ele>88</ele>
        <time>2021-06-02T15:57:48.000Z</time>
      </trkpt>
      <trkpt lat="47.04927" lon="-1.84236">
        <ele>88</ele>
        <time>2021-06-02T15:57:50.000Z</time>
      </trkpt>
      <trkpt lat="47.04918" lon="-1.84228">
        <ele>87</ele>
        <time>2021-06-02T15:57:52.000Z</time>
      </trkpt>
      <trkpt lat="47.0491" lon="-1.84219">
        <ele>88</ele>
        <time>2021-06-02T15:57:54.000Z</time>
      </trkpt>
      <trkpt lat="47.049" lon="-1.84208">
        <ele>88</ele>
        <time>2021-06-02T15:57:56.000Z</time>
      </trkpt>
      <trkpt lat="47.0489" lon="-1.84198">
        <ele>88</ele>
        <time>2021-06-02T15:57:58.000Z</time>
      </trkpt>
      <trkpt lat="47.04878" lon="-1.84188">
        <ele>86</ele>
        <time>2021-06-02T15:58:00.000Z</time>
      </trkpt>
      <trkpt lat="47.04868" lon="-1.84178">
        <ele>86</ele>
        <time>2021-06-02T15:58:02.000Z</time>
      </trkpt>
      <trkpt lat="47.04859" lon="-1.84168">
        <ele>86</ele>
        <time>2021-06-02T15:58:04.000Z</time>
      </trkpt>
      <trkpt lat="47.0485" lon="-1.84157">
        <ele>86</ele>
        <time>2021-06-02T15:58:06.000Z</time>
      </trkpt>
      <trkpt lat="47.0484" lon="-1.84146">
        <ele>86</ele>
        <time>2021-06-02T15:58:08.000Z</time>
      </trkpt>
      <trkpt lat="47.04831" lon="-1.84135">
        <ele>85</ele>
        <time>2021-06-02T15:58:10.000Z</time>
      </trkpt>
      <trkpt lat="47.04822" lon="-1.84123">
        <ele>86</ele>
        <time>2021-06-02T15:58:12.000Z</time>
      </trkpt>
      <trkpt lat="47.04813" lon="-1.84112">
        <ele>86</ele>
        <time>2021-06-02T15:58:14.000Z</time>
      </trkpt>
      <trkpt lat="47.04804" lon="-1.841">
        <ele>86</ele>
        <time>2021-06-02T15:58:16.000Z</time>
      </trkpt>
      <trkpt lat="47.04794" lon="-1.84087">
        <ele>86</ele>
        <time>2021-06-02T15:58:18.000Z</time>
      </trkpt>
      <trkpt lat="47.04785" lon="-1.84075">
        <ele>86</ele>
        <time>2021-06-02T15:58:20.000Z</time>
      </trkpt>
      <trkpt lat="47.04775" lon="-1.84063">
        <ele>86</ele>
        <time>2021-06-02T15:58:22.000Z</time>
      </trkpt>
      <trkpt lat="47.04766" lon="-1.84051">
        <ele>86</ele>
        <time>2021-06-02T15:58:24.000Z</time>
      </trkpt>
      <trkpt lat="47.04757" lon="-1.84038">
        <ele>86</ele>
        <time>2021-06-02T15:58:26.000Z</time>
      </trkpt>
      <trkpt lat="47.04748" lon="-1.84026">
        <ele>86</ele>
        <time>2021-06-02T15:58:28.000Z</time>
      </trkpt>
      <trkpt lat="47.04738" lon="-1.84015">
        <ele>85</ele>
        <time>2021-06-02T15:58:30.000Z</time>
      </trkpt>
      <trkpt lat="47.04727" lon="-1.84006">
        <ele>84</ele>
        <time>2021-06-02T15:58:32.000Z</time>
      </trkpt>
      <trkpt lat="47.04717" lon="-1.83995">
        <ele>84</ele>
        <time>2021-06-02T15:58:36.000Z</time>
      </trkpt>
      <trkpt lat="47.04709" lon="-1.84002">
        <ele>76</ele>
        <time>2021-06-02T15:59:43.000Z</time>
      </trkpt>
      <trkpt lat="47.04713" lon="-1.83989">
        <ele>81</ele>
        <time>2021-06-02T16:00:17.000Z</time>
      </trkpt>
      <trkpt lat="47.04705" lon="-1.83974">
        <ele>84</ele>
        <time>2021-06-02T16:00:20.000Z</time>
      </trkpt>
      <trkpt lat="47.04697" lon="-1.83966">
        <ele>86</ele>
        <time>2021-06-02T16:00:22.000Z</time>
      </trkpt>
      <trkpt lat="47.04688" lon="-1.83957">
        <ele>85</ele>
        <time>2021-06-02T16:00:24.000Z</time>
      </trkpt>
      <trkpt lat="47.04677" lon="-1.83943">
        <ele>85</ele>
        <time>2021-06-02T16:00:26.000Z</time>
      </trkpt>
      <trkpt lat="47.04668" lon="-1.83931">
        <ele>85</ele>
        <time>2021-06-02T16:00:28.000Z</time>
      </trkpt>
      <trkpt lat="47.04659" lon="-1.83919">
        <ele>85</ele>
        <time>2021-06-02T16:00:30.000Z</time>
      </trkpt>
      <trkpt lat="47.04651" lon="-1.83904">
        <ele>84</ele>
        <time>2021-06-02T16:00:32.000Z</time>
      </trkpt>
      <trkpt lat="47.04641" lon="-1.83891">
        <ele>85</ele>
        <time>2021-06-02T16:00:34.000Z</time>
      </trkpt>
      <trkpt lat="47.04632" lon="-1.83879">
        <ele>85</ele>
        <time>2021-06-02T16:00:36.000Z</time>
      </trkpt>
      <trkpt lat="47.04622" lon="-1.83867">
        <ele>85</ele>
        <time>2021-06-02T16:00:38.000Z</time>
      </trkpt>
      <trkpt lat="47.04607" lon="-1.83848">
        <ele>84</ele>
        <time>2021-06-02T16:00:41.000Z</time>
      </trkpt>
      <trkpt lat="47.04597" lon="-1.83837">
        <ele>84</ele>
        <time>2021-06-02T16:00:43.000Z</time>
      </trkpt>
      <trkpt lat="47.04585" lon="-1.83828">
        <ele>85</ele>
        <time>2021-06-02T16:00:45.000Z</time>
      </trkpt>
      <trkpt lat="47.04573" lon="-1.83823">
        <ele>85</ele>
        <time>2021-06-02T16:00:47.000Z</time>
      </trkpt>
      <trkpt lat="47.0456" lon="-1.83817">
        <ele>86</ele>
        <time>2021-06-02T16:00:49.000Z</time>
      </trkpt>
      <trkpt lat="47.04543" lon="-1.83801">
        <ele>86</ele>
        <time>2021-06-02T16:00:52.000Z</time>
      </trkpt>
      <trkpt lat="47.04532" lon="-1.83793">
        <ele>86</ele>
        <time>2021-06-02T16:00:54.000Z</time>
      </trkpt>
      <trkpt lat="47.0452" lon="-1.83786">
        <ele>85</ele>
        <time>2021-06-02T16:00:56.000Z</time>
      </trkpt>
      <trkpt lat="47.04508" lon="-1.83777">
        <ele>83</ele>
        <time>2021-06-02T16:00:58.000Z</time>
      </trkpt>
      <trkpt lat="47.04497" lon="-1.83767">
        <ele>84</ele>
        <time>2021-06-02T16:01:00.000Z</time>
      </trkpt>
      <trkpt lat="47.04486" lon="-1.83757">
        <ele>85</ele>
        <time>2021-06-02T16:01:02.000Z</time>
      </trkpt>
      <trkpt lat="47.04475" lon="-1.83748">
        <ele>85</ele>
        <time>2021-06-02T16:01:04.000Z</time>
      </trkpt>
      <trkpt lat="47.04464" lon="-1.83739">
        <ele>86</ele>
        <time>2021-06-02T16:01:06.000Z</time>
      </trkpt>
      <trkpt lat="47.04447" lon="-1.83726">
        <ele>87</ele>
        <time>2021-06-02T16:01:09.000Z</time>
      </trkpt>
      <trkpt lat="47.04437" lon="-1.83716">
        <ele>87</ele>
        <time>2021-06-02T16:01:11.000Z</time>
      </trkpt>
      <trkpt lat="47.04427" lon="-1.83707">
        <ele>87</ele>
        <time>2021-06-02T16:01:13.000Z</time>
      </trkpt>
      <trkpt lat="47.04415" lon="-1.83699">
        <ele>88</ele>
        <time>2021-06-02T16:01:15.000Z</time>
      </trkpt>
      <trkpt lat="47.04404" lon="-1.83691">
        <ele>87</ele>
        <time>2021-06-02T16:01:17.000Z</time>
      </trkpt>
      <trkpt lat="47.04392" lon="-1.83682">
        <ele>87</ele>
        <time>2021-06-02T16:01:19.000Z</time>
      </trkpt>
      <trkpt lat="47.04379" lon="-1.83675">
        <ele>87</ele>
        <time>2021-06-02T16:01:21.000Z</time>
      </trkpt>
      <trkpt lat="47.04366" lon="-1.8367">
        <ele>87</ele>
        <time>2021-06-02T16:01:23.000Z</time>
      </trkpt>
      <trkpt lat="47.04352" lon="-1.83666">
        <ele>86</ele>
        <time>2021-06-02T16:01:25.000Z</time>
      </trkpt>
      <trkpt lat="47.04339" lon="-1.83666">
        <ele>86</ele>
        <time>2021-06-02T16:01:27.000Z</time>
      </trkpt>
      <trkpt lat="47.04327" lon="-1.83667">
        <ele>85</ele>
        <time>2021-06-02T16:01:29.000Z</time>
      </trkpt>
      <trkpt lat="47.04313" lon="-1.83662">
        <ele>86</ele>
        <time>2021-06-02T16:01:31.000Z</time>
      </trkpt>
      <trkpt lat="47.04299" lon="-1.83657">
        <ele>86</ele>
        <time>2021-06-02T16:01:33.000Z</time>
      </trkpt>
      <trkpt lat="47.04287" lon="-1.83652">
        <ele>86</ele>
        <time>2021-06-02T16:01:35.000Z</time>
      </trkpt>
      <trkpt lat="47.04273" lon="-1.83649">
        <ele>86</ele>
        <time>2021-06-02T16:01:37.000Z</time>
      </trkpt>
      <trkpt lat="47.0426" lon="-1.83645">
        <ele>86</ele>
        <time>2021-06-02T16:01:39.000Z</time>
      </trkpt>
      <trkpt lat="47.04247" lon="-1.83641">
        <ele>85</ele>
        <time>2021-06-02T16:01:41.000Z</time>
      </trkpt>
      <trkpt lat="47.04234" lon="-1.83638">
        <ele>85</ele>
        <time>2021-06-02T16:01:43.000Z</time>
      </trkpt>
      <trkpt lat="47.04223" lon="-1.83631">
        <ele>84</ele>
        <time>2021-06-02T16:01:45.000Z</time>
      </trkpt>
      <trkpt lat="47.04212" lon="-1.83622">
        <ele>84</ele>
        <time>2021-06-02T16:01:47.000Z</time>
      </trkpt>
      <trkpt lat="47.042" lon="-1.83616">
        <ele>84</ele>
        <time>2021-06-02T16:01:49.000Z</time>
      </trkpt>
      <trkpt lat="47.04189" lon="-1.83616">
        <ele>84</ele>
        <time>2021-06-02T16:01:51.000Z</time>
      </trkpt>
      <trkpt lat="47.04176" lon="-1.83615">
        <ele>85</ele>
        <time>2021-06-02T16:01:53.000Z</time>
      </trkpt>
      <trkpt lat="47.04164" lon="-1.8361">
        <ele>85</ele>
        <time>2021-06-02T16:01:55.000Z</time>
      </trkpt>
      <trkpt lat="47.04152" lon="-1.83604">
        <ele>85</ele>
        <time>2021-06-02T16:01:57.000Z</time>
      </trkpt>
      <trkpt lat="47.0414" lon="-1.836">
        <ele>84</ele>
        <time>2021-06-02T16:01:59.000Z</time>
      </trkpt>
      <trkpt lat="47.04129" lon="-1.83595">
        <ele>84</ele>
        <time>2021-06-02T16:02:01.000Z</time>
      </trkpt>
      <trkpt lat="47.04117" lon="-1.83588">
        <ele>84</ele>
        <time>2021-06-02T16:02:03.000Z</time>
      </trkpt>
      <trkpt lat="47.04098" lon="-1.83581">
        <ele>81</ele>
        <time>2021-06-02T16:02:06.000Z</time>
      </trkpt>
      <trkpt lat="47.04086" lon="-1.83575">
        <ele>83</ele>
        <time>2021-06-02T16:02:08.000Z</time>
      </trkpt>
      <trkpt lat="47.04073" lon="-1.83572">
        <ele>83</ele>
        <time>2021-06-02T16:02:10.000Z</time>
      </trkpt>
      <trkpt lat="47.04059" lon="-1.83571">
        <ele>83</ele>
        <time>2021-06-02T16:02:12.000Z</time>
      </trkpt>
      <trkpt lat="47.04045" lon="-1.83571">
        <ele>82</ele>
        <time>2021-06-02T16:02:14.000Z</time>
      </trkpt>
      <trkpt lat="47.04033" lon="-1.83567">
        <ele>83</ele>
        <time>2021-06-02T16:02:16.000Z</time>
      </trkpt>
      <trkpt lat="47.04021" lon="-1.83565">
        <ele>84</ele>
        <time>2021-06-02T16:02:18.000Z</time>
      </trkpt>
      <trkpt lat="47.04009" lon="-1.83563">
        <ele>84</ele>
        <time>2021-06-02T16:02:20.000Z</time>
      </trkpt>
      <trkpt lat="47.03997" lon="-1.83561">
        <ele>85</ele>
        <time>2021-06-02T16:02:22.000Z</time>
      </trkpt>
      <trkpt lat="47.03985" lon="-1.83559">
        <ele>85</ele>
        <time>2021-06-02T16:02:24.000Z</time>
      </trkpt>
      <trkpt lat="47.03973" lon="-1.83558">
        <ele>86</ele>
        <time>2021-06-02T16:02:26.000Z</time>
      </trkpt>
      <trkpt lat="47.0396" lon="-1.83556">
        <ele>86</ele>
        <time>2021-06-02T16:02:28.000Z</time>
      </trkpt>
      <trkpt lat="47.03947" lon="-1.83555">
        <ele>86</ele>
        <time>2021-06-02T16:02:30.000Z</time>
      </trkpt>
      <trkpt lat="47.03935" lon="-1.83554">
        <ele>86</ele>
        <time>2021-06-02T16:02:32.000Z</time>
      </trkpt>
      <trkpt lat="47.03922" lon="-1.83552">
        <ele>86</ele>
        <time>2021-06-02T16:02:34.000Z</time>
      </trkpt>
      <trkpt lat="47.03904" lon="-1.83552">
        <ele>83</ele>
        <time>2021-06-02T16:02:37.000Z</time>
      </trkpt>
      <trkpt lat="47.03889" lon="-1.83548">
        <ele>83</ele>
        <time>2021-06-02T16:02:39.000Z</time>
      </trkpt>
      <trkpt lat="47.03875" lon="-1.83549">
        <ele>83</ele>
        <time>2021-06-02T16:02:41.000Z</time>
      </trkpt>
      <trkpt lat="47.03858" lon="-1.83545">
        <ele>85</ele>
        <time>2021-06-02T16:02:44.000Z</time>
      </trkpt>
      <trkpt lat="47.03846" lon="-1.83544">
        <ele>85</ele>
        <time>2021-06-02T16:02:46.000Z</time>
      </trkpt>
      <trkpt lat="47.03834" lon="-1.83545">
        <ele>84</ele>
        <time>2021-06-02T16:02:48.000Z</time>
      </trkpt>
      <trkpt lat="47.03821" lon="-1.83541">
        <ele>85</ele>
        <time>2021-06-02T16:02:50.000Z</time>
      </trkpt>
      <trkpt lat="47.038" lon="-1.83538">
        <ele>86</ele>
        <time>2021-06-02T16:02:53.000Z</time>
      </trkpt>
      <trkpt lat="47.03787" lon="-1.83538">
        <ele>86</ele>
        <time>2021-06-02T16:02:55.000Z</time>
      </trkpt>
      <trkpt lat="47.03774" lon="-1.83539">
        <ele>86</ele>
        <time>2021-06-02T16:02:57.000Z</time>
      </trkpt>
      <trkpt lat="47.03761" lon="-1.83538">
        <ele>85</ele>
        <time>2021-06-02T16:02:59.000Z</time>
      </trkpt>
      <trkpt lat="47.03748" lon="-1.83537">
        <ele>84</ele>
        <time>2021-06-02T16:03:01.000Z</time>
      </trkpt>
      <trkpt lat="47.03735" lon="-1.8354">
        <ele>84</ele>
        <time>2021-06-02T16:03:03.000Z</time>
      </trkpt>
      <trkpt lat="47.03722" lon="-1.83539">
        <ele>84</ele>
        <time>2021-06-02T16:03:05.000Z</time>
      </trkpt>
      <trkpt lat="47.0371" lon="-1.83538">
        <ele>84</ele>
        <time>2021-06-02T16:03:07.000Z</time>
      </trkpt>
      <trkpt lat="47.03691" lon="-1.83537">
        <ele>83</ele>
        <time>2021-06-02T16:03:10.000Z</time>
      </trkpt>
      <trkpt lat="47.03678" lon="-1.83538">
        <ele>83</ele>
        <time>2021-06-02T16:03:12.000Z</time>
      </trkpt>
      <trkpt lat="47.03666" lon="-1.83537">
        <ele>82</ele>
        <time>2021-06-02T16:03:14.000Z</time>
      </trkpt>
      <trkpt lat="47.03652" lon="-1.83537">
        <ele>82</ele>
        <time>2021-06-02T16:03:16.000Z</time>
      </trkpt>
      <trkpt lat="47.0364" lon="-1.83538">
        <ele>82</ele>
        <time>2021-06-02T16:03:18.000Z</time>
      </trkpt>
      <trkpt lat="47.03627" lon="-1.8354">
        <ele>82</ele>
        <time>2021-06-02T16:03:20.000Z</time>
      </trkpt>
      <trkpt lat="47.03614" lon="-1.8354">
        <ele>82</ele>
        <time>2021-06-02T16:03:22.000Z</time>
      </trkpt>
      <trkpt lat="47.03601" lon="-1.83541">
        <ele>82</ele>
        <time>2021-06-02T16:03:24.000Z</time>
      </trkpt>
      <trkpt lat="47.03588" lon="-1.83542">
        <ele>82</ele>
        <time>2021-06-02T16:03:26.000Z</time>
      </trkpt>
      <trkpt lat="47.03576" lon="-1.83541">
        <ele>82</ele>
        <time>2021-06-02T16:03:28.000Z</time>
      </trkpt>
      <trkpt lat="47.03564" lon="-1.83541">
        <ele>82</ele>
        <time>2021-06-02T16:03:30.000Z</time>
      </trkpt>
      <trkpt lat="47.03551" lon="-1.83542">
        <ele>82</ele>
        <time>2021-06-02T16:03:32.000Z</time>
      </trkpt>
      <trkpt lat="47.03538" lon="-1.83542">
        <ele>82</ele>
        <time>2021-06-02T16:03:34.000Z</time>
      </trkpt>
      <trkpt lat="47.03526" lon="-1.83541">
        <ele>82</ele>
        <time>2021-06-02T16:03:36.000Z</time>
      </trkpt>
      <trkpt lat="47.03513" lon="-1.8354">
        <ele>82</ele>
        <time>2021-06-02T16:03:38.000Z</time>
      </trkpt>
      <trkpt lat="47.03498" lon="-1.83541">
        <ele>82</ele>
        <time>2021-06-02T16:03:40.000Z</time>
      </trkpt>
      <trkpt lat="47.03486" lon="-1.83539">
        <ele>82</ele>
        <time>2021-06-02T16:03:42.000Z</time>
      </trkpt>
      <trkpt lat="47.03474" lon="-1.83535">
        <ele>82</ele>
        <time>2021-06-02T16:03:44.000Z</time>
      </trkpt>
      <trkpt lat="47.03463" lon="-1.83531">
        <ele>82</ele>
        <time>2021-06-02T16:03:46.000Z</time>
      </trkpt>
      <trkpt lat="47.0345" lon="-1.83527">
        <ele>82</ele>
        <time>2021-06-02T16:03:48.000Z</time>
      </trkpt>
      <trkpt lat="47.0343" lon="-1.83523">
        <ele>82</ele>
        <time>2021-06-02T16:03:51.000Z</time>
      </trkpt>
      <trkpt lat="47.03418" lon="-1.83519">
        <ele>82</ele>
        <time>2021-06-02T16:03:53.000Z</time>
      </trkpt>
      <trkpt lat="47.03406" lon="-1.83515">
        <ele>81</ele>
        <time>2021-06-02T16:03:55.000Z</time>
      </trkpt>
      <trkpt lat="47.03392" lon="-1.83511">
        <ele>77</ele>
        <time>2021-06-02T16:03:57.000Z</time>
      </trkpt>
      <trkpt lat="47.03379" lon="-1.83507">
        <ele>78</ele>
        <time>2021-06-02T16:03:59.000Z</time>
      </trkpt>
      <trkpt lat="47.03367" lon="-1.83503">
        <ele>78</ele>
        <time>2021-06-02T16:04:01.000Z</time>
      </trkpt>
      <trkpt lat="47.03355" lon="-1.835">
        <ele>76</ele>
        <time>2021-06-02T16:04:03.000Z</time>
      </trkpt>
      <trkpt lat="47.03343" lon="-1.83498">
        <ele>72</ele>
        <time>2021-06-02T16:04:05.000Z</time>
      </trkpt>
      <trkpt lat="47.03324" lon="-1.83491">
        <ele>74</ele>
        <time>2021-06-02T16:04:08.000Z</time>
      </trkpt>
      <trkpt lat="47.0331" lon="-1.83488">
        <ele>74</ele>
        <time>2021-06-02T16:04:10.000Z</time>
      </trkpt>
      <trkpt lat="47.03299" lon="-1.83484">
        <ele>75</ele>
        <time>2021-06-02T16:04:12.000Z</time>
      </trkpt>
      <trkpt lat="47.03287" lon="-1.8348">
        <ele>76</ele>
        <time>2021-06-02T16:04:14.000Z</time>
      </trkpt>
      <trkpt lat="47.03269" lon="-1.83476">
        <ele>77</ele>
        <time>2021-06-02T16:04:17.000Z</time>
      </trkpt>
      <trkpt lat="47.03258" lon="-1.83472">
        <ele>78</ele>
        <time>2021-06-02T16:04:19.000Z</time>
      </trkpt>
      <trkpt lat="47.03245" lon="-1.83469">
        <ele>79</ele>
        <time>2021-06-02T16:04:21.000Z</time>
      </trkpt>
      <trkpt lat="47.03233" lon="-1.83466">
        <ele>79</ele>
        <time>2021-06-02T16:04:23.000Z</time>
      </trkpt>
      <trkpt lat="47.0322" lon="-1.83463">
        <ele>78</ele>
        <time>2021-06-02T16:04:25.000Z</time>
      </trkpt>
      <trkpt lat="47.0321" lon="-1.83459">
        <ele>79</ele>
        <time>2021-06-02T16:04:27.000Z</time>
      </trkpt>
      <trkpt lat="47.03199" lon="-1.83455">
        <ele>80</ele>
        <time>2021-06-02T16:04:29.000Z</time>
      </trkpt>
      <trkpt lat="47.03187" lon="-1.83452">
        <ele>81</ele>
        <time>2021-06-02T16:04:31.000Z</time>
      </trkpt>
      <trkpt lat="47.03176" lon="-1.8345">
        <ele>80</ele>
        <time>2021-06-02T16:04:33.000Z</time>
      </trkpt>
      <trkpt lat="47.03167" lon="-1.83456">
        <ele>79</ele>
        <time>2021-06-02T16:04:35.000Z</time>
      </trkpt>
      <trkpt lat="47.03161" lon="-1.83469">
        <ele>78</ele>
        <time>2021-06-02T16:04:37.000Z</time>
      </trkpt>
      <trkpt lat="47.0315" lon="-1.83486">
        <ele>79</ele>
        <time>2021-06-02T16:04:40.000Z</time>
      </trkpt>
      <trkpt lat="47.03137" lon="-1.83489">
        <ele>80</ele>
        <time>2021-06-02T16:04:42.000Z</time>
      </trkpt>
      <trkpt lat="47.03125" lon="-1.8349">
        <ele>79</ele>
        <time>2021-06-02T16:04:44.000Z</time>
      </trkpt>
      <trkpt lat="47.03113" lon="-1.83493">
        <ele>78</ele>
        <time>2021-06-02T16:04:46.000Z</time>
      </trkpt>
      <trkpt lat="47.031" lon="-1.83494">
        <ele>79</ele>
        <time>2021-06-02T16:04:48.000Z</time>
      </trkpt>
      <trkpt lat="47.03088" lon="-1.83495">
        <ele>78</ele>
        <time>2021-06-02T16:04:50.000Z</time>
      </trkpt>
      <trkpt lat="47.03072" lon="-1.83498">
        <ele>75</ele>
        <time>2021-06-02T16:04:52.000Z</time>
      </trkpt>
      <trkpt lat="47.0306" lon="-1.83499">
        <ele>75</ele>
        <time>2021-06-02T16:04:54.000Z</time>
      </trkpt>
      <trkpt lat="47.03049" lon="-1.835">
        <ele>76</ele>
        <time>2021-06-02T16:04:56.000Z</time>
      </trkpt>
      <trkpt lat="47.03037" lon="-1.83501">
        <ele>76</ele>
        <time>2021-06-02T16:04:58.000Z</time>
      </trkpt>
      <trkpt lat="47.03025" lon="-1.83502">
        <ele>76</ele>
        <time>2021-06-02T16:05:00.000Z</time>
      </trkpt>
      <trkpt lat="47.03012" lon="-1.83503">
        <ele>76</ele>
        <time>2021-06-02T16:05:02.000Z</time>
      </trkpt>
      <trkpt lat="47.03" lon="-1.83504">
        <ele>76</ele>
        <time>2021-06-02T16:05:04.000Z</time>
      </trkpt>
      <trkpt lat="47.02987" lon="-1.83506">
        <ele>77</ele>
        <time>2021-06-02T16:05:06.000Z</time>
      </trkpt>
      <trkpt lat="47.02975" lon="-1.83508">
        <ele>77</ele>
        <time>2021-06-02T16:05:08.000Z</time>
      </trkpt>
      <trkpt lat="47.02962" lon="-1.83509">
        <ele>77</ele>
        <time>2021-06-02T16:05:10.000Z</time>
      </trkpt>
      <trkpt lat="47.0295" lon="-1.8351">
        <ele>76</ele>
        <time>2021-06-02T16:05:12.000Z</time>
      </trkpt>
      <trkpt lat="47.02937" lon="-1.83514">
        <ele>77</ele>
        <time>2021-06-02T16:05:14.000Z</time>
      </trkpt>
      <trkpt lat="47.02925" lon="-1.83516">
        <ele>77</ele>
        <time>2021-06-02T16:05:16.000Z</time>
      </trkpt>
      <trkpt lat="47.02913" lon="-1.83518">
        <ele>77</ele>
        <time>2021-06-02T16:05:18.000Z</time>
      </trkpt>
      <trkpt lat="47.02894" lon="-1.83523">
        <ele>77</ele>
        <time>2021-06-02T16:05:21.000Z</time>
      </trkpt>
      <trkpt lat="47.02883" lon="-1.83527">
        <ele>77</ele>
        <time>2021-06-02T16:05:23.000Z</time>
      </trkpt>
      <trkpt lat="47.02871" lon="-1.83532">
        <ele>77</ele>
        <time>2021-06-02T16:05:25.000Z</time>
      </trkpt>
      <trkpt lat="47.02859" lon="-1.83535">
        <ele>78</ele>
        <time>2021-06-02T16:05:27.000Z</time>
      </trkpt>
      <trkpt lat="47.02847" lon="-1.8354">
        <ele>78</ele>
        <time>2021-06-02T16:05:29.000Z</time>
      </trkpt>
      <trkpt lat="47.02837" lon="-1.83547">
        <ele>79</ele>
        <time>2021-06-02T16:05:31.000Z</time>
      </trkpt>
      <trkpt lat="47.02827" lon="-1.83555">
        <ele>78</ele>
        <time>2021-06-02T16:05:33.000Z</time>
      </trkpt>
      <trkpt lat="47.02816" lon="-1.83564">
        <ele>78</ele>
        <time>2021-06-02T16:05:35.000Z</time>
      </trkpt>
      <trkpt lat="47.02807" lon="-1.83574">
        <ele>79</ele>
        <time>2021-06-02T16:05:37.000Z</time>
      </trkpt>
      <trkpt lat="47.02797" lon="-1.83583">
        <ele>78</ele>
        <time>2021-06-02T16:05:39.000Z</time>
      </trkpt>
      <trkpt lat="47.02787" lon="-1.83593">
        <ele>76</ele>
        <time>2021-06-02T16:05:41.000Z</time>
      </trkpt>
      <trkpt lat="47.02775" lon="-1.83599">
        <ele>77</ele>
        <time>2021-06-02T16:05:43.000Z</time>
      </trkpt>
      <trkpt lat="47.02764" lon="-1.83606">
        <ele>77</ele>
        <time>2021-06-02T16:05:45.000Z</time>
      </trkpt>
      <trkpt lat="47.02753" lon="-1.83612">
        <ele>77</ele>
        <time>2021-06-02T16:05:47.000Z</time>
      </trkpt>
      <trkpt lat="47.0274" lon="-1.83616">
        <ele>77</ele>
        <time>2021-06-02T16:05:49.000Z</time>
      </trkpt>
      <trkpt lat="47.02727" lon="-1.83619">
        <ele>77</ele>
        <time>2021-06-02T16:05:51.000Z</time>
      </trkpt>
      <trkpt lat="47.02714" lon="-1.83619">
        <ele>78</ele>
        <time>2021-06-02T16:05:53.000Z</time>
      </trkpt>
      <trkpt lat="47.02701" lon="-1.83621">
        <ele>79</ele>
        <time>2021-06-02T16:05:55.000Z</time>
      </trkpt>
      <trkpt lat="47.02688" lon="-1.8362">
        <ele>78</ele>
        <time>2021-06-02T16:05:57.000Z</time>
      </trkpt>
      <trkpt lat="47.02677" lon="-1.83623">
        <ele>77</ele>
        <time>2021-06-02T16:05:59.000Z</time>
      </trkpt>
      <trkpt lat="47.02663" lon="-1.83624">
        <ele>78</ele>
        <time>2021-06-02T16:06:01.000Z</time>
      </trkpt>
      <trkpt lat="47.0265" lon="-1.83624">
        <ele>78</ele>
        <time>2021-06-02T16:06:03.000Z</time>
      </trkpt>
      <trkpt lat="47.02639" lon="-1.83623">
        <ele>78</ele>
        <time>2021-06-02T16:06:05.000Z</time>
      </trkpt>
      <trkpt lat="47.02628" lon="-1.83624">
        <ele>78</ele>
        <time>2021-06-02T16:06:07.000Z</time>
      </trkpt>
      <trkpt lat="47.02615" lon="-1.83625">
        <ele>78</ele>
        <time>2021-06-02T16:06:09.000Z</time>
      </trkpt>
      <trkpt lat="47.02603" lon="-1.83627">
        <ele>78</ele>
        <time>2021-06-02T16:06:11.000Z</time>
      </trkpt>
      <trkpt lat="47.02591" lon="-1.83629">
        <ele>77</ele>
        <time>2021-06-02T16:06:13.000Z</time>
      </trkpt>
      <trkpt lat="47.02572" lon="-1.8363">
        <ele>76</ele>
        <time>2021-06-02T16:06:16.000Z</time>
      </trkpt>
      <trkpt lat="47.02559" lon="-1.83629">
        <ele>76</ele>
        <time>2021-06-02T16:06:18.000Z</time>
      </trkpt>
      <trkpt lat="47.02528" lon="-1.83633">
        <ele>76</ele>
        <time>2021-06-02T16:06:23.000Z</time>
      </trkpt>
      <trkpt lat="47.02515" lon="-1.83635">
        <ele>76</ele>
        <time>2021-06-02T16:06:25.000Z</time>
      </trkpt>
      <trkpt lat="47.02503" lon="-1.83638">
        <ele>76</ele>
        <time>2021-06-02T16:06:27.000Z</time>
      </trkpt>
      <trkpt lat="47.02491" lon="-1.83641">
        <ele>76</ele>
        <time>2021-06-02T16:06:29.000Z</time>
      </trkpt>
      <trkpt lat="47.02478" lon="-1.83643">
        <ele>77</ele>
        <time>2021-06-02T16:06:31.000Z</time>
      </trkpt>
      <trkpt lat="47.02466" lon="-1.83646">
        <ele>77</ele>
        <time>2021-06-02T16:06:33.000Z</time>
      </trkpt>
      <trkpt lat="47.02453" lon="-1.83649">
        <ele>76</ele>
        <time>2021-06-02T16:06:35.000Z</time>
      </trkpt>
      <trkpt lat="47.0244" lon="-1.83652">
        <ele>76</ele>
        <time>2021-06-02T16:06:37.000Z</time>
      </trkpt>
      <trkpt lat="47.02427" lon="-1.83655">
        <ele>76</ele>
        <time>2021-06-02T16:06:39.000Z</time>
      </trkpt>
      <trkpt lat="47.02415" lon="-1.83657">
        <ele>76</ele>
        <time>2021-06-02T16:06:41.000Z</time>
      </trkpt>
      <trkpt lat="47.02402" lon="-1.83658">
        <ele>76</ele>
        <time>2021-06-02T16:06:43.000Z</time>
      </trkpt>
      <trkpt lat="47.02383" lon="-1.83659">
        <ele>76</ele>
        <time>2021-06-02T16:06:46.000Z</time>
      </trkpt>
      <trkpt lat="47.0237" lon="-1.83659">
        <ele>76</ele>
        <time>2021-06-02T16:06:48.000Z</time>
      </trkpt>
      <trkpt lat="47.02358" lon="-1.83658">
        <ele>76</ele>
        <time>2021-06-02T16:06:50.000Z</time>
      </trkpt>
      <trkpt lat="47.02345" lon="-1.83657">
        <ele>76</ele>
        <time>2021-06-02T16:06:52.000Z</time>
      </trkpt>
      <trkpt lat="47.02333" lon="-1.83656">
        <ele>75</ele>
        <time>2021-06-02T16:06:54.000Z</time>
      </trkpt>
      <trkpt lat="47.0232" lon="-1.83657">
        <ele>75</ele>
        <time>2021-06-02T16:06:56.000Z</time>
      </trkpt>
      <trkpt lat="47.02307" lon="-1.83657">
        <ele>76</ele>
        <time>2021-06-02T16:06:58.000Z</time>
      </trkpt>
      <trkpt lat="47.02295" lon="-1.83654">
        <ele>75</ele>
        <time>2021-06-02T16:07:00.000Z</time>
      </trkpt>
      <trkpt lat="47.02283" lon="-1.83653">
        <ele>75</ele>
        <time>2021-06-02T16:07:02.000Z</time>
      </trkpt>
      <trkpt lat="47.02271" lon="-1.83653">
        <ele>76</ele>
        <time>2021-06-02T16:07:04.000Z</time>
      </trkpt>
      <trkpt lat="47.02257" lon="-1.83652">
        <ele>76</ele>
        <time>2021-06-02T16:07:06.000Z</time>
      </trkpt>
      <trkpt lat="47.02243" lon="-1.83653">
        <ele>76</ele>
        <time>2021-06-02T16:07:08.000Z</time>
      </trkpt>
      <trkpt lat="47.0223" lon="-1.83653">
        <ele>76</ele>
        <time>2021-06-02T16:07:10.000Z</time>
      </trkpt>
      <trkpt lat="47.02217" lon="-1.83649">
        <ele>76</ele>
        <time>2021-06-02T16:07:12.000Z</time>
      </trkpt>
      <trkpt lat="47.02203" lon="-1.83645">
        <ele>75</ele>
        <time>2021-06-02T16:07:14.000Z</time>
      </trkpt>
      <trkpt lat="47.02187" lon="-1.83646">
        <ele>72</ele>
        <time>2021-06-02T16:07:16.000Z</time>
      </trkpt>
      <trkpt lat="47.02176" lon="-1.83639">
        <ele>74</ele>
        <time>2021-06-02T16:07:18.000Z</time>
      </trkpt>
      <trkpt lat="47.02165" lon="-1.8363">
        <ele>73</ele>
        <time>2021-06-02T16:07:20.000Z</time>
      </trkpt>
      <trkpt lat="47.02153" lon="-1.83622">
        <ele>73</ele>
        <time>2021-06-02T16:07:22.000Z</time>
      </trkpt>
      <trkpt lat="47.02141" lon="-1.83616">
        <ele>72</ele>
        <time>2021-06-02T16:07:24.000Z</time>
      </trkpt>
      <trkpt lat="47.0213" lon="-1.83612">
        <ele>72</ele>
        <time>2021-06-02T16:07:26.000Z</time>
      </trkpt>
      <trkpt lat="47.02118" lon="-1.83601">
        <ele>72</ele>
        <time>2021-06-02T16:07:28.000Z</time>
      </trkpt>
      <trkpt lat="47.02106" lon="-1.83593">
        <ele>73</ele>
        <time>2021-06-02T16:07:30.000Z</time>
      </trkpt>
      <trkpt lat="47.02093" lon="-1.83586">
        <ele>72</ele>
        <time>2021-06-02T16:07:32.000Z</time>
      </trkpt>
      <trkpt lat="47.02079" lon="-1.8358">
        <ele>71</ele>
        <time>2021-06-02T16:07:34.000Z</time>
      </trkpt>
      <trkpt lat="47.02067" lon="-1.83572">
        <ele>71</ele>
        <time>2021-06-02T16:07:36.000Z</time>
      </trkpt>
      <trkpt lat="47.02056" lon="-1.83563">
        <ele>72</ele>
        <time>2021-06-02T16:07:38.000Z</time>
      </trkpt>
      <trkpt lat="47.02036" lon="-1.83555">
        <ele>68</ele>
        <time>2021-06-02T16:07:41.000Z</time>
      </trkpt>
      <trkpt lat="47.02025" lon="-1.83546">
        <ele>68</ele>
        <time>2021-06-02T16:07:43.000Z</time>
      </trkpt>
      <trkpt lat="47.02014" lon="-1.83538">
        <ele>69</ele>
        <time>2021-06-02T16:07:45.000Z</time>
      </trkpt>
      <trkpt lat="47.02002" lon="-1.83531">
        <ele>69</ele>
        <time>2021-06-02T16:07:47.000Z</time>
      </trkpt>
      <trkpt lat="47.01991" lon="-1.83526">
        <ele>69</ele>
        <time>2021-06-02T16:07:49.000Z</time>
      </trkpt>
      <trkpt lat="47.01979" lon="-1.83517">
        <ele>69</ele>
        <time>2021-06-02T16:07:51.000Z</time>
      </trkpt>
      <trkpt lat="47.01967" lon="-1.83511">
        <ele>68</ele>
        <time>2021-06-02T16:07:53.000Z</time>
      </trkpt>
      <trkpt lat="47.01955" lon="-1.83505">
        <ele>69</ele>
        <time>2021-06-02T16:07:55.000Z</time>
      </trkpt>
      <trkpt lat="47.01942" lon="-1.83499">
        <ele>69</ele>
        <time>2021-06-02T16:07:57.000Z</time>
      </trkpt>
      <trkpt lat="47.0193" lon="-1.83499">
        <ele>69</ele>
        <time>2021-06-02T16:07:59.000Z</time>
      </trkpt>
      <trkpt lat="47.01915" lon="-1.83501">
        <ele>68</ele>
        <time>2021-06-02T16:08:01.000Z</time>
      </trkpt>
      <trkpt lat="47.01901" lon="-1.83504">
        <ele>67</ele>
        <time>2021-06-02T16:08:03.000Z</time>
      </trkpt>
      <trkpt lat="47.01886" lon="-1.83507">
        <ele>67</ele>
        <time>2021-06-02T16:08:05.000Z</time>
      </trkpt>
      <trkpt lat="47.01872" lon="-1.83511">
        <ele>67</ele>
        <time>2021-06-02T16:08:07.000Z</time>
      </trkpt>
      <trkpt lat="47.0185" lon="-1.83516">
        <ele>66</ele>
        <time>2021-06-02T16:08:10.000Z</time>
      </trkpt>
      <trkpt lat="47.01835" lon="-1.8352">
        <ele>66</ele>
        <time>2021-06-02T16:08:12.000Z</time>
      </trkpt>
      <trkpt lat="47.01821" lon="-1.83523">
        <ele>66</ele>
        <time>2021-06-02T16:08:14.000Z</time>
      </trkpt>
      <trkpt lat="47.01806" lon="-1.83526">
        <ele>66</ele>
        <time>2021-06-02T16:08:16.000Z</time>
      </trkpt>
      <trkpt lat="47.01792" lon="-1.8353">
        <ele>65</ele>
        <time>2021-06-02T16:08:18.000Z</time>
      </trkpt>
      <trkpt lat="47.01775" lon="-1.83532">
        <ele>63</ele>
        <time>2021-06-02T16:08:20.000Z</time>
      </trkpt>
      <trkpt lat="47.01761" lon="-1.83539">
        <ele>62</ele>
        <time>2021-06-02T16:08:22.000Z</time>
      </trkpt>
      <trkpt lat="47.01745" lon="-1.83554">
        <ele>63</ele>
        <time>2021-06-02T16:08:25.000Z</time>
      </trkpt>
      <trkpt lat="47.01735" lon="-1.83568">
        <ele>64</ele>
        <time>2021-06-02T16:08:27.000Z</time>
      </trkpt>
      <trkpt lat="47.01727" lon="-1.83582">
        <ele>63</ele>
        <time>2021-06-02T16:08:29.000Z</time>
      </trkpt>
      <trkpt lat="47.0172" lon="-1.83596">
        <ele>62</ele>
        <time>2021-06-02T16:08:31.000Z</time>
      </trkpt>
      <trkpt lat="47.01712" lon="-1.83613">
        <ele>63</ele>
        <time>2021-06-02T16:08:33.000Z</time>
      </trkpt>
      <trkpt lat="47.01701" lon="-1.83637">
        <ele>62</ele>
        <time>2021-06-02T16:08:36.000Z</time>
      </trkpt>
      <trkpt lat="47.01691" lon="-1.83652">
        <ele>62</ele>
        <time>2021-06-02T16:08:38.000Z</time>
      </trkpt>
      <trkpt lat="47.01682" lon="-1.83666">
        <ele>62</ele>
        <time>2021-06-02T16:08:40.000Z</time>
      </trkpt>
      <trkpt lat="47.01673" lon="-1.83679">
        <ele>63</ele>
        <time>2021-06-02T16:08:42.000Z</time>
      </trkpt>
      <trkpt lat="47.01663" lon="-1.83691">
        <ele>64</ele>
        <time>2021-06-02T16:08:44.000Z</time>
      </trkpt>
      <trkpt lat="47.01653" lon="-1.83702">
        <ele>63</ele>
        <time>2021-06-02T16:08:46.000Z</time>
      </trkpt>
      <trkpt lat="47.0164" lon="-1.83716">
        <ele>61</ele>
        <time>2021-06-02T16:08:48.000Z</time>
      </trkpt>
      <trkpt lat="47.0163" lon="-1.83728">
        <ele>61</ele>
        <time>2021-06-02T16:08:50.000Z</time>
      </trkpt>
      <trkpt lat="47.01621" lon="-1.83739">
        <ele>63</ele>
        <time>2021-06-02T16:08:52.000Z</time>
      </trkpt>
      <trkpt lat="47.01612" lon="-1.83751">
        <ele>63</ele>
        <time>2021-06-02T16:08:54.000Z</time>
      </trkpt>
      <trkpt lat="47.01601" lon="-1.83763">
        <ele>62</ele>
        <time>2021-06-02T16:08:56.000Z</time>
      </trkpt>
      <trkpt lat="47.01591" lon="-1.83775">
        <ele>62</ele>
        <time>2021-06-02T16:08:58.000Z</time>
      </trkpt>
      <trkpt lat="47.01576" lon="-1.83794">
        <ele>62</ele>
        <time>2021-06-02T16:09:01.000Z</time>
      </trkpt>
      <trkpt lat="47.01566" lon="-1.83808">
        <ele>63</ele>
        <time>2021-06-02T16:09:03.000Z</time>
      </trkpt>
      <trkpt lat="47.01556" lon="-1.83819">
        <ele>62</ele>
        <time>2021-06-02T16:09:05.000Z</time>
      </trkpt>
      <trkpt lat="47.01546" lon="-1.83833">
        <ele>61</ele>
        <time>2021-06-02T16:09:07.000Z</time>
      </trkpt>
      <trkpt lat="47.01537" lon="-1.83846">
        <ele>61</ele>
        <time>2021-06-02T16:09:09.000Z</time>
      </trkpt>
      <trkpt lat="47.01527" lon="-1.8386">
        <ele>61</ele>
        <time>2021-06-02T16:09:11.000Z</time>
      </trkpt>
      <trkpt lat="47.01517" lon="-1.83874">
        <ele>62</ele>
        <time>2021-06-02T16:09:13.000Z</time>
      </trkpt>
      <trkpt lat="47.01509" lon="-1.83887">
        <ele>63</ele>
        <time>2021-06-02T16:09:15.000Z</time>
      </trkpt>
      <trkpt lat="47.015" lon="-1.839">
        <ele>58</ele>
        <time>2021-06-02T16:09:17.000Z</time>
      </trkpt>
      <trkpt lat="47.01492" lon="-1.83913">
        <ele>60</ele>
        <time>2021-06-02T16:09:19.000Z</time>
      </trkpt>
      <trkpt lat="47.01482" lon="-1.83928">
        <ele>60</ele>
        <time>2021-06-02T16:09:21.000Z</time>
      </trkpt>
      <trkpt lat="47.01473" lon="-1.83943">
        <ele>59</ele>
        <time>2021-06-02T16:09:23.000Z</time>
      </trkpt>
      <trkpt lat="47.01465" lon="-1.83956">
        <ele>57</ele>
        <time>2021-06-02T16:09:25.000Z</time>
      </trkpt>
      <trkpt lat="47.01458" lon="-1.83969">
        <ele>56</ele>
        <time>2021-06-02T16:09:27.000Z</time>
      </trkpt>
      <trkpt lat="47.01446" lon="-1.83985">
        <ele>58</ele>
        <time>2021-06-02T16:09:29.000Z</time>
      </trkpt>
      <trkpt lat="47.01436" lon="-1.84">
        <ele>58</ele>
        <time>2021-06-02T16:09:31.000Z</time>
      </trkpt>
      <trkpt lat="47.01428" lon="-1.84014">
        <ele>58</ele>
        <time>2021-06-02T16:09:33.000Z</time>
      </trkpt>
      <trkpt lat="47.01417" lon="-1.8403">
        <ele>58</ele>
        <time>2021-06-02T16:09:35.000Z</time>
      </trkpt>
      <trkpt lat="47.01406" lon="-1.84044">
        <ele>58</ele>
        <time>2021-06-02T16:09:37.000Z</time>
      </trkpt>
      <trkpt lat="47.0139" lon="-1.84065">
        <ele>56</ele>
        <time>2021-06-02T16:09:40.000Z</time>
      </trkpt>
      <trkpt lat="47.0138" lon="-1.84078">
        <ele>55</ele>
        <time>2021-06-02T16:09:42.000Z</time>
      </trkpt>
      <trkpt lat="47.01369" lon="-1.84092">
        <ele>56</ele>
        <time>2021-06-02T16:09:44.000Z</time>
      </trkpt>
      <trkpt lat="47.01359" lon="-1.84104">
        <ele>56</ele>
        <time>2021-06-02T16:09:46.000Z</time>
      </trkpt>
      <trkpt lat="47.01346" lon="-1.84117">
        <ele>56</ele>
        <time>2021-06-02T16:09:48.000Z</time>
      </trkpt>
      <trkpt lat="47.0133" lon="-1.84135">
        <ele>56</ele>
        <time>2021-06-02T16:09:51.000Z</time>
      </trkpt>
      <trkpt lat="47.0132" lon="-1.84149">
        <ele>55</ele>
        <time>2021-06-02T16:09:53.000Z</time>
      </trkpt>
      <trkpt lat="47.01309" lon="-1.84161">
        <ele>54</ele>
        <time>2021-06-02T16:09:55.000Z</time>
      </trkpt>
      <trkpt lat="47.01299" lon="-1.84172">
        <ele>55</ele>
        <time>2021-06-02T16:09:57.000Z</time>
      </trkpt>
      <trkpt lat="47.01288" lon="-1.84182">
        <ele>55</ele>
        <time>2021-06-02T16:09:59.000Z</time>
      </trkpt>
      <trkpt lat="47.01278" lon="-1.84196">
        <ele>54</ele>
        <time>2021-06-02T16:10:01.000Z</time>
      </trkpt>
      <trkpt lat="47.01268" lon="-1.84207">
        <ele>55</ele>
        <time>2021-06-02T16:10:03.000Z</time>
      </trkpt>
      <trkpt lat="47.01257" lon="-1.84218">
        <ele>55</ele>
        <time>2021-06-02T16:10:05.000Z</time>
      </trkpt>
      <trkpt lat="47.01247" lon="-1.84229">
        <ele>56</ele>
        <time>2021-06-02T16:10:07.000Z</time>
      </trkpt>
      <trkpt lat="47.01236" lon="-1.8424">
        <ele>56</ele>
        <time>2021-06-02T16:10:09.000Z</time>
      </trkpt>
      <trkpt lat="47.01224" lon="-1.84252">
        <ele>55</ele>
        <time>2021-06-02T16:10:11.000Z</time>
      </trkpt>
      <trkpt lat="47.01213" lon="-1.84264">
        <ele>55</ele>
        <time>2021-06-02T16:10:13.000Z</time>
      </trkpt>
      <trkpt lat="47.01198" lon="-1.84283">
        <ele>56</ele>
        <time>2021-06-02T16:10:16.000Z</time>
      </trkpt>
      <trkpt lat="47.01189" lon="-1.84297">
        <ele>56</ele>
        <time>2021-06-02T16:10:18.000Z</time>
      </trkpt>
      <trkpt lat="47.01182" lon="-1.84313">
        <ele>56</ele>
        <time>2021-06-02T16:10:20.000Z</time>
      </trkpt>
      <trkpt lat="47.01177" lon="-1.8433">
        <ele>56</ele>
        <time>2021-06-02T16:10:22.000Z</time>
      </trkpt>
      <trkpt lat="47.01172" lon="-1.84347">
        <ele>56</ele>
        <time>2021-06-02T16:10:24.000Z</time>
      </trkpt>
      <trkpt lat="47.01168" lon="-1.84364">
        <ele>56</ele>
        <time>2021-06-02T16:10:26.000Z</time>
      </trkpt>
      <trkpt lat="47.01164" lon="-1.84384">
        <ele>53</ele>
        <time>2021-06-02T16:10:28.000Z</time>
      </trkpt>
      <trkpt lat="47.01161" lon="-1.84401">
        <ele>53</ele>
        <time>2021-06-02T16:10:30.000Z</time>
      </trkpt>
      <trkpt lat="47.01156" lon="-1.84418">
        <ele>54</ele>
        <time>2021-06-02T16:10:32.000Z</time>
      </trkpt>
      <trkpt lat="47.01151" lon="-1.84436">
        <ele>54</ele>
        <time>2021-06-02T16:10:34.000Z</time>
      </trkpt>
      <trkpt lat="47.01145" lon="-1.84453">
        <ele>54</ele>
        <time>2021-06-02T16:10:36.000Z</time>
      </trkpt>
      <trkpt lat="47.0114" lon="-1.8447">
        <ele>53</ele>
        <time>2021-06-02T16:10:38.000Z</time>
      </trkpt>
      <trkpt lat="47.01136" lon="-1.84488">
        <ele>54</ele>
        <time>2021-06-02T16:10:40.000Z</time>
      </trkpt>
      <trkpt lat="47.01131" lon="-1.84506">
        <ele>54</ele>
        <time>2021-06-02T16:10:42.000Z</time>
      </trkpt>
      <trkpt lat="47.01125" lon="-1.84523">
        <ele>54</ele>
        <time>2021-06-02T16:10:44.000Z</time>
      </trkpt>
      <trkpt lat="47.01119" lon="-1.84538">
        <ele>55</ele>
        <time>2021-06-02T16:10:46.000Z</time>
      </trkpt>
      <trkpt lat="47.01104" lon="-1.8456">
        <ele>53</ele>
        <time>2021-06-02T16:10:49.000Z</time>
      </trkpt>
      <trkpt lat="47.01096" lon="-1.84572">
        <ele>53</ele>
        <time>2021-06-02T16:10:51.000Z</time>
      </trkpt>
      <trkpt lat="47.01086" lon="-1.84582">
        <ele>54</ele>
        <time>2021-06-02T16:10:53.000Z</time>
      </trkpt>
      <trkpt lat="47.01072" lon="-1.846">
        <ele>55</ele>
        <time>2021-06-02T16:10:56.000Z</time>
      </trkpt>
      <trkpt lat="47.01062" lon="-1.84611">
        <ele>55</ele>
        <time>2021-06-02T16:10:58.000Z</time>
      </trkpt>
      <trkpt lat="47.01053" lon="-1.84622">
        <ele>55</ele>
        <time>2021-06-02T16:11:00.000Z</time>
      </trkpt>
      <trkpt lat="47.01043" lon="-1.84635">
        <ele>53</ele>
        <time>2021-06-02T16:11:02.000Z</time>
      </trkpt>
      <trkpt lat="47.01031" lon="-1.84646">
        <ele>53</ele>
        <time>2021-06-02T16:11:04.000Z</time>
      </trkpt>
      <trkpt lat="47.01015" lon="-1.84661">
        <ele>54</ele>
        <time>2021-06-02T16:11:07.000Z</time>
      </trkpt>
      <trkpt lat="47.01004" lon="-1.8467">
        <ele>52</ele>
        <time>2021-06-02T16:11:09.000Z</time>
      </trkpt>
      <trkpt lat="47.00988" lon="-1.84681">
        <ele>51</ele>
        <time>2021-06-02T16:11:12.000Z</time>
      </trkpt>
      <trkpt lat="47.00976" lon="-1.84688">
        <ele>53</ele>
        <time>2021-06-02T16:11:14.000Z</time>
      </trkpt>
      <trkpt lat="47.00965" lon="-1.84693">
        <ele>53</ele>
        <time>2021-06-02T16:11:16.000Z</time>
      </trkpt>
      <trkpt lat="47.00953" lon="-1.84698">
        <ele>52</ele>
        <time>2021-06-02T16:11:18.000Z</time>
      </trkpt>
      <trkpt lat="47.00941" lon="-1.84705">
        <ele>53</ele>
        <time>2021-06-02T16:11:20.000Z</time>
      </trkpt>
      <trkpt lat="47.0093" lon="-1.84709">
        <ele>53</ele>
        <time>2021-06-02T16:11:22.000Z</time>
      </trkpt>
      <trkpt lat="47.00921" lon="-1.84713">
        <ele>53</ele>
        <time>2021-06-02T16:11:24.000Z</time>
      </trkpt>
      <trkpt lat="47.00911" lon="-1.84721">
        <ele>53</ele>
        <time>2021-06-02T16:11:26.000Z</time>
      </trkpt>
      <trkpt lat="47.00902" lon="-1.84726">
        <ele>54</ele>
        <time>2021-06-02T16:11:29.000Z</time>
      </trkpt>
      <trkpt lat="47.00893" lon="-1.8473">
        <ele>53</ele>
        <time>2021-06-02T16:11:43.000Z</time>
      </trkpt>
      <trkpt lat="47.00886" lon="-1.84739">
        <ele>52</ele>
        <time>2021-06-02T16:11:50.000Z</time>
      </trkpt>
      <trkpt lat="47.00872" lon="-1.84752">
        <ele>52</ele>
        <time>2021-06-02T16:11:53.000Z</time>
      </trkpt>
      <trkpt lat="47.00864" lon="-1.84759">
        <ele>55</ele>
        <time>2021-06-02T16:11:55.000Z</time>
      </trkpt>
      <trkpt lat="47.00853" lon="-1.84766">
        <ele>55</ele>
        <time>2021-06-02T16:11:57.000Z</time>
      </trkpt>
      <trkpt lat="47.00841" lon="-1.84774">
        <ele>55</ele>
        <time>2021-06-02T16:11:59.000Z</time>
      </trkpt>
      <trkpt lat="47.0083" lon="-1.84781">
        <ele>55</ele>
        <time>2021-06-02T16:12:01.000Z</time>
      </trkpt>
      <trkpt lat="47.00813" lon="-1.84794">
        <ele>54</ele>
        <time>2021-06-02T16:12:04.000Z</time>
      </trkpt>
      <trkpt lat="47.008" lon="-1.84798">
        <ele>55</ele>
        <time>2021-06-02T16:12:06.000Z</time>
      </trkpt>
      <trkpt lat="47.00789" lon="-1.84804">
        <ele>55</ele>
        <time>2021-06-02T16:12:08.000Z</time>
      </trkpt>
      <trkpt lat="47.00778" lon="-1.84809">
        <ele>56</ele>
        <time>2021-06-02T16:12:10.000Z</time>
      </trkpt>
      <trkpt lat="47.00768" lon="-1.84817">
        <ele>54</ele>
        <time>2021-06-02T16:12:12.000Z</time>
      </trkpt>
      <trkpt lat="47.00757" lon="-1.84826">
        <ele>53</ele>
        <time>2021-06-02T16:12:14.000Z</time>
      </trkpt>
      <trkpt lat="47.00739" lon="-1.84831">
        <ele>52</ele>
        <time>2021-06-02T16:12:17.000Z</time>
      </trkpt>
      <trkpt lat="47.00727" lon="-1.84838">
        <ele>53</ele>
        <time>2021-06-02T16:12:19.000Z</time>
      </trkpt>
      <trkpt lat="47.00713" lon="-1.84845">
        <ele>53</ele>
        <time>2021-06-02T16:12:21.000Z</time>
      </trkpt>
      <trkpt lat="47.00702" lon="-1.8485">
        <ele>54</ele>
        <time>2021-06-02T16:12:23.000Z</time>
      </trkpt>
      <trkpt lat="47.00692" lon="-1.84853">
        <ele>54</ele>
        <time>2021-06-02T16:12:25.000Z</time>
      </trkpt>
      <trkpt lat="47.00681" lon="-1.84859">
        <ele>54</ele>
        <time>2021-06-02T16:12:27.000Z</time>
      </trkpt>
      <trkpt lat="47.00671" lon="-1.84865">
        <ele>54</ele>
        <time>2021-06-02T16:12:29.000Z</time>
      </trkpt>
      <trkpt lat="47.00654" lon="-1.84875">
        <ele>55</ele>
        <time>2021-06-02T16:12:32.000Z</time>
      </trkpt>
      <trkpt lat="47.00643" lon="-1.84881">
        <ele>55</ele>
        <time>2021-06-02T16:12:34.000Z</time>
      </trkpt>
      <trkpt lat="47.00632" lon="-1.84888">
        <ele>55</ele>
        <time>2021-06-02T16:12:36.000Z</time>
      </trkpt>
      <trkpt lat="47.00622" lon="-1.84895">
        <ele>55</ele>
        <time>2021-06-02T16:12:38.000Z</time>
      </trkpt>
      <trkpt lat="47.00612" lon="-1.84905">
        <ele>55</ele>
        <time>2021-06-02T16:12:40.000Z</time>
      </trkpt>
      <trkpt lat="47.00603" lon="-1.84914">
        <ele>56</ele>
        <time>2021-06-02T16:12:42.000Z</time>
      </trkpt>
      <trkpt lat="47.00593" lon="-1.84924">
        <ele>56</ele>
        <time>2021-06-02T16:12:44.000Z</time>
      </trkpt>
      <trkpt lat="47.00584" lon="-1.84936">
        <ele>56</ele>
        <time>2021-06-02T16:12:46.000Z</time>
      </trkpt>
      <trkpt lat="47.00575" lon="-1.84947">
        <ele>55</ele>
        <time>2021-06-02T16:12:48.000Z</time>
      </trkpt>
      <trkpt lat="47.00566" lon="-1.84959">
        <ele>56</ele>
        <time>2021-06-02T16:12:50.000Z</time>
      </trkpt>
      <trkpt lat="47.00558" lon="-1.84971">
        <ele>56</ele>
        <time>2021-06-02T16:12:52.000Z</time>
      </trkpt>
      <trkpt lat="47.00549" lon="-1.84982">
        <ele>56</ele>
        <time>2021-06-02T16:12:54.000Z</time>
      </trkpt>
      <trkpt lat="47.0054" lon="-1.84994">
        <ele>55</ele>
        <time>2021-06-02T16:12:56.000Z</time>
      </trkpt>
      <trkpt lat="47.00531" lon="-1.85005">
        <ele>55</ele>
        <time>2021-06-02T16:12:58.000Z</time>
      </trkpt>
      <trkpt lat="47.00522" lon="-1.85016">
        <ele>55</ele>
        <time>2021-06-02T16:13:00.000Z</time>
      </trkpt>
      <trkpt lat="47.00513" lon="-1.85028">
        <ele>55</ele>
        <time>2021-06-02T16:13:02.000Z</time>
      </trkpt>
      <trkpt lat="47.00504" lon="-1.85038">
        <ele>55</ele>
        <time>2021-06-02T16:13:04.000Z</time>
      </trkpt>
      <trkpt lat="47.0049" lon="-1.85057">
        <ele>55</ele>
        <time>2021-06-02T16:13:07.000Z</time>
      </trkpt>
      <trkpt lat="47.00481" lon="-1.85069">
        <ele>55</ele>
        <time>2021-06-02T16:13:09.000Z</time>
      </trkpt>
      <trkpt lat="47.0047" lon="-1.85075">
        <ele>54</ele>
        <time>2021-06-02T16:13:11.000Z</time>
      </trkpt>
      <trkpt lat="47.00456" lon="-1.85088">
        <ele>55</ele>
        <time>2021-06-02T16:13:14.000Z</time>
      </trkpt>
      <trkpt lat="47.00446" lon="-1.85096">
        <ele>53</ele>
        <time>2021-06-02T16:13:16.000Z</time>
      </trkpt>
      <trkpt lat="47.00436" lon="-1.85108">
        <ele>52</ele>
        <time>2021-06-02T16:13:18.000Z</time>
      </trkpt>
      <trkpt lat="47.00425" lon="-1.85115">
        <ele>53</ele>
        <time>2021-06-02T16:13:20.000Z</time>
      </trkpt>
      <trkpt lat="47.00414" lon="-1.85122">
        <ele>54</ele>
        <time>2021-06-02T16:13:22.000Z</time>
      </trkpt>
      <trkpt lat="47.00404" lon="-1.8513">
        <ele>54</ele>
        <time>2021-06-02T16:13:24.000Z</time>
      </trkpt>
      <trkpt lat="47.00393" lon="-1.85139">
        <ele>54</ele>
        <time>2021-06-02T16:13:26.000Z</time>
      </trkpt>
      <trkpt lat="47.00384" lon="-1.85148">
        <ele>54</ele>
        <time>2021-06-02T16:13:28.000Z</time>
      </trkpt>
      <trkpt lat="47.00374" lon="-1.85155">
        <ele>55</ele>
        <time>2021-06-02T16:13:30.000Z</time>
      </trkpt>
      <trkpt lat="47.00358" lon="-1.85168">
        <ele>54</ele>
        <time>2021-06-02T16:13:33.000Z</time>
      </trkpt>
      <trkpt lat="47.00347" lon="-1.85178">
        <ele>54</ele>
        <time>2021-06-02T16:13:35.000Z</time>
      </trkpt>
      <trkpt lat="47.00331" lon="-1.85189">
        <ele>54</ele>
        <time>2021-06-02T16:13:38.000Z</time>
      </trkpt>
      <trkpt lat="47.00321" lon="-1.85199">
        <ele>54</ele>
        <time>2021-06-02T16:13:40.000Z</time>
      </trkpt>
      <trkpt lat="47.00311" lon="-1.85208">
        <ele>54</ele>
        <time>2021-06-02T16:13:42.000Z</time>
      </trkpt>
      <trkpt lat="47.00297" lon="-1.85219">
        <ele>54</ele>
        <time>2021-06-02T16:13:45.000Z</time>
      </trkpt>
      <trkpt lat="47.00287" lon="-1.85228">
        <ele>54</ele>
        <time>2021-06-02T16:13:47.000Z</time>
      </trkpt>
      <trkpt lat="47.00277" lon="-1.85236">
        <ele>53</ele>
        <time>2021-06-02T16:13:49.000Z</time>
      </trkpt>
      <trkpt lat="47.00267" lon="-1.85244">
        <ele>53</ele>
        <time>2021-06-02T16:13:51.000Z</time>
      </trkpt>
      <trkpt lat="47.00257" lon="-1.85254">
        <ele>53</ele>
        <time>2021-06-02T16:13:53.000Z</time>
      </trkpt>
      <trkpt lat="47.00247" lon="-1.85263">
        <ele>49</ele>
        <time>2021-06-02T16:13:55.000Z</time>
      </trkpt>
      <trkpt lat="47.00237" lon="-1.85272">
        <ele>50</ele>
        <time>2021-06-02T16:13:57.000Z</time>
      </trkpt>
      <trkpt lat="47.00226" lon="-1.85283">
        <ele>51</ele>
        <time>2021-06-02T16:13:59.000Z</time>
      </trkpt>
      <trkpt lat="47.00219" lon="-1.85293">
        <ele>53</ele>
        <time>2021-06-02T16:14:01.000Z</time>
      </trkpt>
      <trkpt lat="47.00211" lon="-1.85304">
        <ele>54</ele>
        <time>2021-06-02T16:14:03.000Z</time>
      </trkpt>
      <trkpt lat="47.00204" lon="-1.85317">
        <ele>54</ele>
        <time>2021-06-02T16:14:05.000Z</time>
      </trkpt>
      <trkpt lat="47.00197" lon="-1.85331">
        <ele>53</ele>
        <time>2021-06-02T16:14:07.000Z</time>
      </trkpt>
      <trkpt lat="47.0019" lon="-1.85346">
        <ele>52</ele>
        <time>2021-06-02T16:14:09.000Z</time>
      </trkpt>
      <trkpt lat="47.00184" lon="-1.8536">
        <ele>52</ele>
        <time>2021-06-02T16:14:11.000Z</time>
      </trkpt>
      <trkpt lat="47.00178" lon="-1.85373">
        <ele>53</ele>
        <time>2021-06-02T16:14:13.000Z</time>
      </trkpt>
      <trkpt lat="47.0017" lon="-1.85393">
        <ele>53</ele>
        <time>2021-06-02T16:14:16.000Z</time>
      </trkpt>
      <trkpt lat="47.00162" lon="-1.85405">
        <ele>54</ele>
        <time>2021-06-02T16:14:18.000Z</time>
      </trkpt>
      <trkpt lat="47.0015" lon="-1.85425">
        <ele>54</ele>
        <time>2021-06-02T16:14:21.000Z</time>
      </trkpt>
      <trkpt lat="47.00142" lon="-1.85438">
        <ele>54</ele>
        <time>2021-06-02T16:14:23.000Z</time>
      </trkpt>
      <trkpt lat="47.00132" lon="-1.85445">
        <ele>54</ele>
        <time>2021-06-02T16:14:25.000Z</time>
      </trkpt>
      <trkpt lat="47.00123" lon="-1.85452">
        <ele>54</ele>
        <time>2021-06-02T16:14:27.000Z</time>
      </trkpt>
      <trkpt lat="47.00107" lon="-1.85458">
        <ele>56</ele>
        <time>2021-06-02T16:14:30.000Z</time>
      </trkpt>
      <trkpt lat="47.00095" lon="-1.8545">
        <ele>56</ele>
        <time>2021-06-02T16:14:32.000Z</time>
      </trkpt>
      <trkpt lat="47.00085" lon="-1.85437">
        <ele>56</ele>
        <time>2021-06-02T16:14:34.000Z</time>
      </trkpt>
      <trkpt lat="47.00074" lon="-1.85423">
        <ele>54</ele>
        <time>2021-06-02T16:14:36.000Z</time>
      </trkpt>
      <trkpt lat="47.00067" lon="-1.85411">
        <ele>54</ele>
        <time>2021-06-02T16:14:38.000Z</time>
      </trkpt>
      <trkpt lat="47.00059" lon="-1.85401">
        <ele>53</ele>
        <time>2021-06-02T16:14:40.000Z</time>
      </trkpt>
      <trkpt lat="47.00051" lon="-1.8539">
        <ele>53</ele>
        <time>2021-06-02T16:14:42.000Z</time>
      </trkpt>
      <trkpt lat="47.00042" lon="-1.8538">
        <ele>52</ele>
        <time>2021-06-02T16:14:44.000Z</time>
      </trkpt>
      <trkpt lat="47.00031" lon="-1.85374">
        <ele>51</ele>
        <time>2021-06-02T16:14:46.000Z</time>
      </trkpt>
      <trkpt lat="47.00021" lon="-1.85369">
        <ele>52</ele>
        <time>2021-06-02T16:14:48.000Z</time>
      </trkpt>
      <trkpt lat="47.00009" lon="-1.85368">
        <ele>52</ele>
        <time>2021-06-02T16:14:50.000Z</time>
      </trkpt>
      <trkpt lat="46.99998" lon="-1.85369">
        <ele>52</ele>
        <time>2021-06-02T16:14:52.000Z</time>
      </trkpt>
      <trkpt lat="46.99987" lon="-1.85369">
        <ele>52</ele>
        <time>2021-06-02T16:14:54.000Z</time>
      </trkpt>
      <trkpt lat="46.99977" lon="-1.85354">
        <ele>53</ele>
        <time>2021-06-02T16:14:56.000Z</time>
      </trkpt>
      <trkpt lat="46.99971" lon="-1.85337">
        <ele>53</ele>
        <time>2021-06-02T16:14:58.000Z</time>
      </trkpt>
      <trkpt lat="46.99964" lon="-1.85322">
        <ele>53</ele>
        <time>2021-06-02T16:15:00.000Z</time>
      </trkpt>
      <trkpt lat="46.99957" lon="-1.85307">
        <ele>52</ele>
        <time>2021-06-02T16:15:02.000Z</time>
      </trkpt>
      <trkpt lat="46.99949" lon="-1.85292">
        <ele>53</ele>
        <time>2021-06-02T16:15:04.000Z</time>
      </trkpt>
      <trkpt lat="46.99938" lon="-1.85271">
        <ele>52</ele>
        <time>2021-06-02T16:15:07.000Z</time>
      </trkpt>
      <trkpt lat="46.99929" lon="-1.85261">
        <ele>48</ele>
        <time>2021-06-02T16:15:09.000Z</time>
      </trkpt>
      <trkpt lat="46.99922" lon="-1.85243">
        <ele>48</ele>
        <time>2021-06-02T16:15:11.000Z</time>
      </trkpt>
      <trkpt lat="46.9992" lon="-1.85224">
        <ele>50</ele>
        <time>2021-06-02T16:15:13.000Z</time>
      </trkpt>
      <trkpt lat="46.99916" lon="-1.85208">
        <ele>50</ele>
        <time>2021-06-02T16:15:15.000Z</time>
      </trkpt>
      <trkpt lat="46.99913" lon="-1.85193">
        <ele>47</ele>
        <time>2021-06-02T16:15:17.000Z</time>
      </trkpt>
      <trkpt lat="46.9991" lon="-1.85174">
        <ele>47</ele>
        <time>2021-06-02T16:15:19.000Z</time>
      </trkpt>
      <trkpt lat="46.99909" lon="-1.85155">
        <ele>48</ele>
        <time>2021-06-02T16:15:21.000Z</time>
      </trkpt>
      <trkpt lat="46.99907" lon="-1.85137">
        <ele>48</ele>
        <time>2021-06-02T16:15:23.000Z</time>
      </trkpt>
      <trkpt lat="46.99903" lon="-1.8512">
        <ele>48</ele>
        <time>2021-06-02T16:15:25.000Z</time>
      </trkpt>
      <trkpt lat="46.99902" lon="-1.85101">
        <ele>48</ele>
        <time>2021-06-02T16:15:27.000Z</time>
      </trkpt>
      <trkpt lat="46.99901" lon="-1.85082">
        <ele>48</ele>
        <time>2021-06-02T16:15:29.000Z</time>
      </trkpt>
      <trkpt lat="46.999" lon="-1.85063">
        <ele>48</ele>
        <time>2021-06-02T16:15:31.000Z</time>
      </trkpt>
      <trkpt lat="46.99897" lon="-1.85047">
        <ele>48</ele>
        <time>2021-06-02T16:15:33.000Z</time>
      </trkpt>
      <trkpt lat="46.99898" lon="-1.85026">
        <ele>48</ele>
        <time>2021-06-02T16:15:35.000Z</time>
      </trkpt>
      <trkpt lat="46.99897" lon="-1.85">
        <ele>48</ele>
        <time>2021-06-02T16:15:38.000Z</time>
      </trkpt>
      <trkpt lat="46.99895" lon="-1.84982">
        <ele>48</ele>
        <time>2021-06-02T16:15:40.000Z</time>
      </trkpt>
      <trkpt lat="46.99894" lon="-1.84963">
        <ele>48</ele>
        <time>2021-06-02T16:15:42.000Z</time>
      </trkpt>
      <trkpt lat="46.99893" lon="-1.84945">
        <ele>49</ele>
        <time>2021-06-02T16:15:44.000Z</time>
      </trkpt>
      <trkpt lat="46.99893" lon="-1.84928">
        <ele>49</ele>
        <time>2021-06-02T16:15:46.000Z</time>
      </trkpt>
      <trkpt lat="46.9989" lon="-1.8491">
        <ele>48</ele>
        <time>2021-06-02T16:15:48.000Z</time>
      </trkpt>
      <trkpt lat="46.99889" lon="-1.84893">
        <ele>49</ele>
        <time>2021-06-02T16:15:50.000Z</time>
      </trkpt>
      <trkpt lat="46.99888" lon="-1.84875">
        <ele>49</ele>
        <time>2021-06-02T16:15:52.000Z</time>
      </trkpt>
      <trkpt lat="46.99884" lon="-1.84858">
        <ele>51</ele>
        <time>2021-06-02T16:15:54.000Z</time>
      </trkpt>
      <trkpt lat="46.99879" lon="-1.84834">
        <ele>53</ele>
        <time>2021-06-02T16:15:57.000Z</time>
      </trkpt>
      <trkpt lat="46.99876" lon="-1.84816">
        <ele>54</ele>
        <time>2021-06-02T16:15:59.000Z</time>
      </trkpt>
      <trkpt lat="46.99872" lon="-1.84798">
        <ele>55</ele>
        <time>2021-06-02T16:16:01.000Z</time>
      </trkpt>
      <trkpt lat="46.99866" lon="-1.84773">
        <ele>55</ele>
        <time>2021-06-02T16:16:04.000Z</time>
      </trkpt>
      <trkpt lat="46.99862" lon="-1.84758">
        <ele>55</ele>
        <time>2021-06-02T16:16:06.000Z</time>
      </trkpt>
      <trkpt lat="46.99856" lon="-1.84741">
        <ele>55</ele>
        <time>2021-06-02T16:16:08.000Z</time>
      </trkpt>
      <trkpt lat="46.99848" lon="-1.84724">
        <ele>55</ele>
        <time>2021-06-02T16:16:10.000Z</time>
      </trkpt>
      <trkpt lat="46.99843" lon="-1.84708">
        <ele>56</ele>
        <time>2021-06-02T16:16:12.000Z</time>
      </trkpt>
      <trkpt lat="46.99833" lon="-1.84685">
        <ele>55</ele>
        <time>2021-06-02T16:16:15.000Z</time>
      </trkpt>
      <trkpt lat="46.99827" lon="-1.84671">
        <ele>55</ele>
        <time>2021-06-02T16:16:17.000Z</time>
      </trkpt>
      <trkpt lat="46.99821" lon="-1.84654">
        <ele>55</ele>
        <time>2021-06-02T16:16:19.000Z</time>
      </trkpt>
      <trkpt lat="46.99816" lon="-1.84637">
        <ele>55</ele>
        <time>2021-06-02T16:16:21.000Z</time>
      </trkpt>
      <trkpt lat="46.99811" lon="-1.84621">
        <ele>55</ele>
        <time>2021-06-02T16:16:23.000Z</time>
      </trkpt>
      <trkpt lat="46.99807" lon="-1.84604">
        <ele>55</ele>
        <time>2021-06-02T16:16:25.000Z</time>
      </trkpt>
      <trkpt lat="46.99802" lon="-1.84587">
        <ele>54</ele>
        <time>2021-06-02T16:16:27.000Z</time>
      </trkpt>
      <trkpt lat="46.99796" lon="-1.84571">
        <ele>53</ele>
        <time>2021-06-02T16:16:29.000Z</time>
      </trkpt>
      <trkpt lat="46.99793" lon="-1.84553">
        <ele>54</ele>
        <time>2021-06-02T16:16:31.000Z</time>
      </trkpt>
      <trkpt lat="46.99791" lon="-1.84534">
        <ele>54</ele>
        <time>2021-06-02T16:16:33.000Z</time>
      </trkpt>
      <trkpt lat="46.99785" lon="-1.84504">
        <ele>54</ele>
        <time>2021-06-02T16:16:36.000Z</time>
      </trkpt>
      <trkpt lat="46.9978" lon="-1.84487">
        <ele>53</ele>
        <time>2021-06-02T16:16:38.000Z</time>
      </trkpt>
      <trkpt lat="46.99779" lon="-1.84469">
        <ele>53</ele>
        <time>2021-06-02T16:16:40.000Z</time>
      </trkpt>
      <trkpt lat="46.99773" lon="-1.84444">
        <ele>52</ele>
        <time>2021-06-02T16:16:43.000Z</time>
      </trkpt>
      <trkpt lat="46.99768" lon="-1.84425">
        <ele>51</ele>
        <time>2021-06-02T16:16:45.000Z</time>
      </trkpt>
      <trkpt lat="46.99767" lon="-1.84405">
        <ele>50</ele>
        <time>2021-06-02T16:16:47.000Z</time>
      </trkpt>
      <trkpt lat="46.99765" lon="-1.84388">
        <ele>51</ele>
        <time>2021-06-02T16:16:49.000Z</time>
      </trkpt>
      <trkpt lat="46.99762" lon="-1.8437">
        <ele>51</ele>
        <time>2021-06-02T16:16:51.000Z</time>
      </trkpt>
      <trkpt lat="46.99759" lon="-1.84351">
        <ele>51</ele>
        <time>2021-06-02T16:16:53.000Z</time>
      </trkpt>
      <trkpt lat="46.99756" lon="-1.84324">
        <ele>51</ele>
        <time>2021-06-02T16:16:56.000Z</time>
      </trkpt>
      <trkpt lat="46.99754" lon="-1.84305">
        <ele>51</ele>
        <time>2021-06-02T16:16:58.000Z</time>
      </trkpt>
      <trkpt lat="46.99752" lon="-1.84286">
        <ele>51</ele>
        <time>2021-06-02T16:17:00.000Z</time>
      </trkpt>
      <trkpt lat="46.9975" lon="-1.84269">
        <ele>51</ele>
        <time>2021-06-02T16:17:02.000Z</time>
      </trkpt>
      <trkpt lat="46.99748" lon="-1.84251">
        <ele>52</ele>
        <time>2021-06-02T16:17:04.000Z</time>
      </trkpt>
      <trkpt lat="46.99746" lon="-1.84232">
        <ele>52</ele>
        <time>2021-06-02T16:17:06.000Z</time>
      </trkpt>
      <trkpt lat="46.99744" lon="-1.84214">
        <ele>51</ele>
        <time>2021-06-02T16:17:08.000Z</time>
      </trkpt>
      <trkpt lat="46.99735" lon="-1.84196">
        <ele>50</ele>
        <time>2021-06-02T16:17:10.000Z</time>
      </trkpt>
      <trkpt lat="46.99726" lon="-1.84184">
        <ele>51</ele>
        <time>2021-06-02T16:17:12.000Z</time>
      </trkpt>
      <trkpt lat="46.99716" lon="-1.84178">
        <ele>51</ele>
        <time>2021-06-02T16:17:14.000Z</time>
      </trkpt>
      <trkpt lat="46.99705" lon="-1.84171">
        <ele>51</ele>
        <time>2021-06-02T16:17:16.000Z</time>
      </trkpt>
      <trkpt lat="46.99694" lon="-1.84166">
        <ele>53</ele>
        <time>2021-06-02T16:17:18.000Z</time>
      </trkpt>
      <trkpt lat="46.99683" lon="-1.84158">
        <ele>53</ele>
        <time>2021-06-02T16:17:20.000Z</time>
      </trkpt>
      <trkpt lat="46.99673" lon="-1.84149">
        <ele>53</ele>
        <time>2021-06-02T16:17:22.000Z</time>
      </trkpt>
      <trkpt lat="46.99663" lon="-1.84139">
        <ele>53</ele>
        <time>2021-06-02T16:17:24.000Z</time>
      </trkpt>
      <trkpt lat="46.99655" lon="-1.84127">
        <ele>53</ele>
        <time>2021-06-02T16:17:26.000Z</time>
      </trkpt>
      <trkpt lat="46.99647" lon="-1.84117">
        <ele>52</ele>
        <time>2021-06-02T16:17:28.000Z</time>
      </trkpt>
      <trkpt lat="46.99641" lon="-1.84106">
        <ele>51</ele>
        <time>2021-06-02T16:17:30.000Z</time>
      </trkpt>
      <trkpt lat="46.99636" lon="-1.84095">
        <ele>52</ele>
        <time>2021-06-02T16:17:32.000Z</time>
      </trkpt>
      <trkpt lat="46.99631" lon="-1.84083">
        <ele>52</ele>
        <time>2021-06-02T16:17:34.000Z</time>
      </trkpt>
      <trkpt lat="46.99626" lon="-1.84071">
        <ele>52</ele>
        <time>2021-06-02T16:17:36.000Z</time>
      </trkpt>
      <trkpt lat="46.9962" lon="-1.84052">
        <ele>53</ele>
        <time>2021-06-02T16:17:39.000Z</time>
      </trkpt>
      <trkpt lat="46.99617" lon="-1.84037">
        <ele>53</ele>
        <time>2021-06-02T16:17:41.000Z</time>
      </trkpt>
      <trkpt lat="46.99614" lon="-1.84022">
        <ele>53</ele>
        <time>2021-06-02T16:17:43.000Z</time>
      </trkpt>
      <trkpt lat="46.99612" lon="-1.84006">
        <ele>54</ele>
        <time>2021-06-02T16:17:45.000Z</time>
      </trkpt>
      <trkpt lat="46.99609" lon="-1.8399">
        <ele>54</ele>
        <time>2021-06-02T16:17:47.000Z</time>
      </trkpt>
      <trkpt lat="46.99606" lon="-1.83974">
        <ele>54</ele>
        <time>2021-06-02T16:17:49.000Z</time>
      </trkpt>
      <trkpt lat="46.99602" lon="-1.83957">
        <ele>54</ele>
        <time>2021-06-02T16:17:51.000Z</time>
      </trkpt>
      <trkpt lat="46.99596" lon="-1.83942">
        <ele>53</ele>
        <time>2021-06-02T16:17:53.000Z</time>
      </trkpt>
      <trkpt lat="46.99589" lon="-1.83931">
        <ele>54</ele>
        <time>2021-06-02T16:17:55.000Z</time>
      </trkpt>
      <trkpt lat="46.9958" lon="-1.83922">
        <ele>54</ele>
        <time>2021-06-02T16:17:57.000Z</time>
      </trkpt>
      <trkpt lat="46.9957" lon="-1.83916">
        <ele>54</ele>
        <time>2021-06-02T16:17:59.000Z</time>
      </trkpt>
      <trkpt lat="46.9956" lon="-1.83911">
        <ele>54</ele>
        <time>2021-06-02T16:18:01.000Z</time>
      </trkpt>
      <trkpt lat="46.99551" lon="-1.83905">
        <ele>54</ele>
        <time>2021-06-02T16:18:03.000Z</time>
      </trkpt>
      <trkpt lat="46.99542" lon="-1.83899">
        <ele>54</ele>
        <time>2021-06-02T16:18:05.000Z</time>
      </trkpt>
      <trkpt lat="46.99532" lon="-1.83894">
        <ele>53</ele>
        <time>2021-06-02T16:18:07.000Z</time>
      </trkpt>
      <trkpt lat="46.99522" lon="-1.83889">
        <ele>53</ele>
        <time>2021-06-02T16:18:09.000Z</time>
      </trkpt>
      <trkpt lat="46.99513" lon="-1.83884">
        <ele>53</ele>
        <time>2021-06-02T16:18:11.000Z</time>
      </trkpt>
      <trkpt lat="46.99503" lon="-1.83878">
        <ele>54</ele>
        <time>2021-06-02T16:18:13.000Z</time>
      </trkpt>
      <trkpt lat="46.99494" lon="-1.83871">
        <ele>54</ele>
        <time>2021-06-02T16:18:15.000Z</time>
      </trkpt>
      <trkpt lat="46.99485" lon="-1.83863">
        <ele>55</ele>
        <time>2021-06-02T16:18:17.000Z</time>
      </trkpt>
      <trkpt lat="46.99478" lon="-1.83852">
        <ele>55</ele>
        <time>2021-06-02T16:18:19.000Z</time>
      </trkpt>
      <trkpt lat="46.99472" lon="-1.83839">
        <ele>55</ele>
        <time>2021-06-02T16:18:21.000Z</time>
      </trkpt>
      <trkpt lat="46.99466" lon="-1.83826">
        <ele>55</ele>
        <time>2021-06-02T16:18:23.000Z</time>
      </trkpt>
      <trkpt lat="46.99457" lon="-1.83805">
        <ele>54</ele>
        <time>2021-06-02T16:18:26.000Z</time>
      </trkpt>
      <trkpt lat="46.9945" lon="-1.83792">
        <ele>53</ele>
        <time>2021-06-02T16:18:28.000Z</time>
      </trkpt>
      <trkpt lat="46.99442" lon="-1.83781">
        <ele>53</ele>
        <time>2021-06-02T16:18:30.000Z</time>
      </trkpt>
      <trkpt lat="46.99434" lon="-1.83773">
        <ele>52</ele>
        <time>2021-06-02T16:18:32.000Z</time>
      </trkpt>
      <trkpt lat="46.99424" lon="-1.83767">
        <ele>52</ele>
        <time>2021-06-02T16:18:34.000Z</time>
      </trkpt>
      <trkpt lat="46.99415" lon="-1.83762">
        <ele>51</ele>
        <time>2021-06-02T16:18:36.000Z</time>
      </trkpt>
      <trkpt lat="46.99405" lon="-1.83756">
        <ele>51</ele>
        <time>2021-06-02T16:18:38.000Z</time>
      </trkpt>
      <trkpt lat="46.99395" lon="-1.83752">
        <ele>51</ele>
        <time>2021-06-02T16:18:40.000Z</time>
      </trkpt>
      <trkpt lat="46.99384" lon="-1.83747">
        <ele>51</ele>
        <time>2021-06-02T16:18:42.000Z</time>
      </trkpt>
      <trkpt lat="46.99373" lon="-1.8374">
        <ele>50</ele>
        <time>2021-06-02T16:18:44.000Z</time>
      </trkpt>
      <trkpt lat="46.99362" lon="-1.83732">
        <ele>50</ele>
        <time>2021-06-02T16:18:46.000Z</time>
      </trkpt>
      <trkpt lat="46.9935" lon="-1.83725">
        <ele>51</ele>
        <time>2021-06-02T16:18:48.000Z</time>
      </trkpt>
      <trkpt lat="46.9934" lon="-1.8372">
        <ele>51</ele>
        <time>2021-06-02T16:18:50.000Z</time>
      </trkpt>
      <trkpt lat="46.99331" lon="-1.83713">
        <ele>50</ele>
        <time>2021-06-02T16:18:52.000Z</time>
      </trkpt>
      <trkpt lat="46.9932" lon="-1.83706">
        <ele>49</ele>
        <time>2021-06-02T16:18:54.000Z</time>
      </trkpt>
      <trkpt lat="46.99309" lon="-1.83697">
        <ele>51</ele>
        <time>2021-06-02T16:18:56.000Z</time>
      </trkpt>
      <trkpt lat="46.99299" lon="-1.83688">
        <ele>53</ele>
        <time>2021-06-02T16:18:58.000Z</time>
      </trkpt>
      <trkpt lat="46.99289" lon="-1.83679">
        <ele>54</ele>
        <time>2021-06-02T16:19:00.000Z</time>
      </trkpt>
      <trkpt lat="46.99274" lon="-1.83664">
        <ele>54</ele>
        <time>2021-06-02T16:19:03.000Z</time>
      </trkpt>
      <trkpt lat="46.99265" lon="-1.83655">
        <ele>55</ele>
        <time>2021-06-02T16:19:05.000Z</time>
      </trkpt>
      <trkpt lat="46.99257" lon="-1.83643">
        <ele>55</ele>
        <time>2021-06-02T16:19:07.000Z</time>
      </trkpt>
      <trkpt lat="46.99248" lon="-1.83631">
        <ele>56</ele>
        <time>2021-06-02T16:19:09.000Z</time>
      </trkpt>
      <trkpt lat="46.9924" lon="-1.8362">
        <ele>57</ele>
        <time>2021-06-02T16:19:11.000Z</time>
      </trkpt>
      <trkpt lat="46.99231" lon="-1.83609">
        <ele>57</ele>
        <time>2021-06-02T16:19:13.000Z</time>
      </trkpt>
      <trkpt lat="46.99223" lon="-1.83598">
        <ele>57</ele>
        <time>2021-06-02T16:19:15.000Z</time>
      </trkpt>
      <trkpt lat="46.99214" lon="-1.83586">
        <ele>57</ele>
        <time>2021-06-02T16:19:17.000Z</time>
      </trkpt>
      <trkpt lat="46.99205" lon="-1.83575">
        <ele>57</ele>
        <time>2021-06-02T16:19:19.000Z</time>
      </trkpt>
      <trkpt lat="46.99196" lon="-1.83564">
        <ele>56</ele>
        <time>2021-06-02T16:19:21.000Z</time>
      </trkpt>
      <trkpt lat="46.99187" lon="-1.83553">
        <ele>56</ele>
        <time>2021-06-02T16:19:23.000Z</time>
      </trkpt>
      <trkpt lat="46.99174" lon="-1.83539">
        <ele>53</ele>
        <time>2021-06-02T16:19:26.000Z</time>
      </trkpt>
      <trkpt lat="46.99165" lon="-1.83527">
        <ele>54</ele>
        <time>2021-06-02T16:19:28.000Z</time>
      </trkpt>
      <trkpt lat="46.99155" lon="-1.83519">
        <ele>53</ele>
        <time>2021-06-02T16:19:30.000Z</time>
      </trkpt>
      <trkpt lat="46.99144" lon="-1.83515">
        <ele>53</ele>
        <time>2021-06-02T16:19:32.000Z</time>
      </trkpt>
      <trkpt lat="46.99145" lon="-1.83491">
        <ele>54</ele>
        <time>2021-06-02T16:19:35.000Z</time>
      </trkpt>
      <trkpt lat="46.99153" lon="-1.83471">
        <ele>55</ele>
        <time>2021-06-02T16:19:37.000Z</time>
      </trkpt>
      <trkpt lat="46.99161" lon="-1.83441">
        <ele>54</ele>
        <time>2021-06-02T16:19:40.000Z</time>
      </trkpt>
      <trkpt lat="46.99166" lon="-1.83424">
        <ele>52</ele>
        <time>2021-06-02T16:19:42.000Z</time>
      </trkpt>
      <trkpt lat="46.9917" lon="-1.83405">
        <ele>52</ele>
        <time>2021-06-02T16:19:44.000Z</time>
      </trkpt>
      <trkpt lat="46.99174" lon="-1.83384">
        <ele>52</ele>
        <time>2021-06-02T16:19:46.000Z</time>
      </trkpt>
      <trkpt lat="46.99178" lon="-1.83364">
        <ele>51</ele>
        <time>2021-06-02T16:19:48.000Z</time>
      </trkpt>
      <trkpt lat="46.99183" lon="-1.83347">
        <ele>51</ele>
        <time>2021-06-02T16:19:50.000Z</time>
      </trkpt>
      <trkpt lat="46.99186" lon="-1.83326">
        <ele>50</ele>
        <time>2021-06-02T16:19:52.000Z</time>
      </trkpt>
      <trkpt lat="46.99192" lon="-1.83307">
        <ele>50</ele>
        <time>2021-06-02T16:19:54.000Z</time>
      </trkpt>
      <trkpt lat="46.99198" lon="-1.83278">
        <ele>50</ele>
        <time>2021-06-02T16:19:57.000Z</time>
      </trkpt>
      <trkpt lat="46.99203" lon="-1.83259">
        <ele>50</ele>
        <time>2021-06-02T16:19:59.000Z</time>
      </trkpt>
      <trkpt lat="46.99207" lon="-1.8324">
        <ele>51</ele>
        <time>2021-06-02T16:20:01.000Z</time>
      </trkpt>
      <trkpt lat="46.9921" lon="-1.83219">
        <ele>51</ele>
        <time>2021-06-02T16:20:03.000Z</time>
      </trkpt>
      <trkpt lat="46.99214" lon="-1.83197">
        <ele>49</ele>
        <time>2021-06-02T16:20:05.000Z</time>
      </trkpt>
      <trkpt lat="46.99222" lon="-1.83172">
        <ele>49</ele>
        <time>2021-06-02T16:20:08.000Z</time>
      </trkpt>
      <trkpt lat="46.99226" lon="-1.83153">
        <ele>49</ele>
        <time>2021-06-02T16:20:10.000Z</time>
      </trkpt>
      <trkpt lat="46.9923" lon="-1.83134">
        <ele>49</ele>
        <time>2021-06-02T16:20:12.000Z</time>
      </trkpt>
      <trkpt lat="46.99233" lon="-1.83116">
        <ele>48</ele>
        <time>2021-06-02T16:20:14.000Z</time>
      </trkpt>
      <trkpt lat="46.99238" lon="-1.83096">
        <ele>48</ele>
        <time>2021-06-02T16:20:16.000Z</time>
      </trkpt>
      <trkpt lat="46.99242" lon="-1.83077">
        <ele>48</ele>
        <time>2021-06-02T16:20:18.000Z</time>
      </trkpt>
      <trkpt lat="46.99246" lon="-1.83059">
        <ele>49</ele>
        <time>2021-06-02T16:20:20.000Z</time>
      </trkpt>
      <trkpt lat="46.9925" lon="-1.8304">
        <ele>50</ele>
        <time>2021-06-02T16:20:22.000Z</time>
      </trkpt>
      <trkpt lat="46.99254" lon="-1.83022">
        <ele>50</ele>
        <time>2021-06-02T16:20:24.000Z</time>
      </trkpt>
      <trkpt lat="46.99259" lon="-1.83003">
        <ele>50</ele>
        <time>2021-06-02T16:20:26.000Z</time>
      </trkpt>
      <trkpt lat="46.99261" lon="-1.82974">
        <ele>46</ele>
        <time>2021-06-02T16:20:29.000Z</time>
      </trkpt>
      <trkpt lat="46.99266" lon="-1.82956">
        <ele>47</ele>
        <time>2021-06-02T16:20:31.000Z</time>
      </trkpt>
      <trkpt lat="46.99274" lon="-1.82928">
        <ele>47</ele>
        <time>2021-06-02T16:20:34.000Z</time>
      </trkpt>
      <trkpt lat="46.99277" lon="-1.82908">
        <ele>47</ele>
        <time>2021-06-02T16:20:36.000Z</time>
      </trkpt>
      <trkpt lat="46.9928" lon="-1.8289">
        <ele>48</ele>
        <time>2021-06-02T16:20:38.000Z</time>
      </trkpt>
      <trkpt lat="46.99287" lon="-1.8287">
        <ele>49</ele>
        <time>2021-06-02T16:20:40.000Z</time>
      </trkpt>
      <trkpt lat="46.99292" lon="-1.82851">
        <ele>49</ele>
        <time>2021-06-02T16:20:42.000Z</time>
      </trkpt>
      <trkpt lat="46.99296" lon="-1.82831">
        <ele>48</ele>
        <time>2021-06-02T16:20:44.000Z</time>
      </trkpt>
      <trkpt lat="46.99303" lon="-1.82804">
        <ele>47</ele>
        <time>2021-06-02T16:20:47.000Z</time>
      </trkpt>
      <trkpt lat="46.99308" lon="-1.82785">
        <ele>48</ele>
        <time>2021-06-02T16:20:49.000Z</time>
      </trkpt>
      <trkpt lat="46.99312" lon="-1.82765">
        <ele>48</ele>
        <time>2021-06-02T16:20:51.000Z</time>
      </trkpt>
      <trkpt lat="46.99315" lon="-1.82746">
        <ele>48</ele>
        <time>2021-06-02T16:20:53.000Z</time>
      </trkpt>
      <trkpt lat="46.99319" lon="-1.82717">
        <ele>47</ele>
        <time>2021-06-02T16:20:56.000Z</time>
      </trkpt>
      <trkpt lat="46.99323" lon="-1.82701">
        <ele>47</ele>
        <time>2021-06-02T16:20:58.000Z</time>
      </trkpt>
      <trkpt lat="46.99329" lon="-1.82683">
        <ele>47</ele>
        <time>2021-06-02T16:21:00.000Z</time>
      </trkpt>
      <trkpt lat="46.99333" lon="-1.82665">
        <ele>47</ele>
        <time>2021-06-02T16:21:02.000Z</time>
      </trkpt>
      <trkpt lat="46.99339" lon="-1.82643">
        <ele>49</ele>
        <time>2021-06-02T16:21:04.000Z</time>
      </trkpt>
      <trkpt lat="46.99344" lon="-1.82625">
        <ele>49</ele>
        <time>2021-06-02T16:21:06.000Z</time>
      </trkpt>
      <trkpt lat="46.99351" lon="-1.82609">
        <ele>48</ele>
        <time>2021-06-02T16:21:08.000Z</time>
      </trkpt>
      <trkpt lat="46.99359" lon="-1.82594">
        <ele>49</ele>
        <time>2021-06-02T16:21:10.000Z</time>
      </trkpt>
      <trkpt lat="46.99364" lon="-1.82576">
        <ele>50</ele>
        <time>2021-06-02T16:21:12.000Z</time>
      </trkpt>
      <trkpt lat="46.99364" lon="-1.82555">
        <ele>50</ele>
        <time>2021-06-02T16:21:14.000Z</time>
      </trkpt>
      <trkpt lat="46.99359" lon="-1.82537">
        <ele>50</ele>
        <time>2021-06-02T16:21:16.000Z</time>
      </trkpt>
      <trkpt lat="46.99355" lon="-1.82518">
        <ele>51</ele>
        <time>2021-06-02T16:21:18.000Z</time>
      </trkpt>
      <trkpt lat="46.99352" lon="-1.82501">
        <ele>52</ele>
        <time>2021-06-02T16:21:20.000Z</time>
      </trkpt>
      <trkpt lat="46.99345" lon="-1.82478">
        <ele>51</ele>
        <time>2021-06-02T16:21:23.000Z</time>
      </trkpt>
      <trkpt lat="46.99342" lon="-1.8246">
        <ele>51</ele>
        <time>2021-06-02T16:21:25.000Z</time>
      </trkpt>
      <trkpt lat="46.99338" lon="-1.82441">
        <ele>52</ele>
        <time>2021-06-02T16:21:27.000Z</time>
      </trkpt>
      <trkpt lat="46.99334" lon="-1.82423">
        <ele>52</ele>
        <time>2021-06-02T16:21:29.000Z</time>
      </trkpt>
      <trkpt lat="46.99329" lon="-1.82406">
        <ele>53</ele>
        <time>2021-06-02T16:21:31.000Z</time>
      </trkpt>
      <trkpt lat="46.99325" lon="-1.82388">
        <ele>50</ele>
        <time>2021-06-02T16:21:33.000Z</time>
      </trkpt>
      <trkpt lat="46.99321" lon="-1.82373">
        <ele>50</ele>
        <time>2021-06-02T16:21:35.000Z</time>
      </trkpt>
      <trkpt lat="46.99319" lon="-1.82343">
        <ele>51</ele>
        <time>2021-06-02T16:21:38.000Z</time>
      </trkpt>
      <trkpt lat="46.99315" lon="-1.82325">
        <ele>51</ele>
        <time>2021-06-02T16:21:40.000Z</time>
      </trkpt>
      <trkpt lat="46.99312" lon="-1.82305">
        <ele>52</ele>
        <time>2021-06-02T16:21:42.000Z</time>
      </trkpt>
      <trkpt lat="46.99309" lon="-1.82286">
        <ele>53</ele>
        <time>2021-06-02T16:21:44.000Z</time>
      </trkpt>
      <trkpt lat="46.99305" lon="-1.82268">
        <ele>53</ele>
        <time>2021-06-02T16:21:46.000Z</time>
      </trkpt>
      <trkpt lat="46.99302" lon="-1.82252">
        <ele>53</ele>
        <time>2021-06-02T16:21:48.000Z</time>
      </trkpt>
      <trkpt lat="46.99298" lon="-1.82236">
        <ele>54</ele>
        <time>2021-06-02T16:21:50.000Z</time>
      </trkpt>
      <trkpt lat="46.99293" lon="-1.8222">
        <ele>55</ele>
        <time>2021-06-02T16:21:52.000Z</time>
      </trkpt>
      <trkpt lat="46.99284" lon="-1.82213">
        <ele>52</ele>
        <time>2021-06-02T16:21:54.000Z</time>
      </trkpt>
      <trkpt lat="46.99271" lon="-1.82215">
        <ele>48</ele>
        <time>2021-06-02T16:21:56.000Z</time>
      </trkpt>
      <trkpt lat="46.99255" lon="-1.82216">
        <ele>47</ele>
        <time>2021-06-02T16:21:58.000Z</time>
      </trkpt>
      <trkpt lat="46.99241" lon="-1.82218">
        <ele>49</ele>
        <time>2021-06-02T16:22:00.000Z</time>
      </trkpt>
      <trkpt lat="46.99231" lon="-1.82222">
        <ele>49</ele>
        <time>2021-06-02T16:22:02.000Z</time>
      </trkpt>
      <trkpt lat="46.99217" lon="-1.82217">
        <ele>49</ele>
        <time>2021-06-02T16:22:04.000Z</time>
      </trkpt>
      <trkpt lat="46.99201" lon="-1.82211">
        <ele>49</ele>
        <time>2021-06-02T16:22:06.000Z</time>
      </trkpt>
      <trkpt lat="46.99188" lon="-1.82204">
        <ele>52</ele>
        <time>2021-06-02T16:22:08.000Z</time>
      </trkpt>
      <trkpt lat="46.99169" lon="-1.82194">
        <ele>55</ele>
        <time>2021-06-02T16:22:11.000Z</time>
      </trkpt>
      <trkpt lat="46.99158" lon="-1.82185">
        <ele>54</ele>
        <time>2021-06-02T16:22:13.000Z</time>
      </trkpt>
      <trkpt lat="46.99145" lon="-1.82183">
        <ele>55</ele>
        <time>2021-06-02T16:22:15.000Z</time>
      </trkpt>
      <trkpt lat="46.99133" lon="-1.8218">
        <ele>56</ele>
        <time>2021-06-02T16:22:17.000Z</time>
      </trkpt>
      <trkpt lat="46.9912" lon="-1.82181">
        <ele>58</ele>
        <time>2021-06-02T16:22:19.000Z</time>
      </trkpt>
      <trkpt lat="46.9911" lon="-1.82184">
        <ele>58</ele>
        <time>2021-06-02T16:22:21.000Z</time>
      </trkpt>
      <trkpt lat="46.99097" lon="-1.82184">
        <ele>59</ele>
        <time>2021-06-02T16:22:25.000Z</time>
      </trkpt>
      <trkpt lat="46.9909" lon="-1.82166">
        <ele>57</ele>
        <time>2021-06-02T16:22:28.000Z</time>
      </trkpt>
      <trkpt lat="46.99089" lon="-1.82147">
        <ele>57</ele>
        <time>2021-06-02T16:22:30.000Z</time>
      </trkpt>
      <trkpt lat="46.99086" lon="-1.82127">
        <ele>57</ele>
        <time>2021-06-02T16:22:32.000Z</time>
      </trkpt>
      <trkpt lat="46.99084" lon="-1.82108">
        <ele>57</ele>
        <time>2021-06-02T16:22:34.000Z</time>
      </trkpt>
      <trkpt lat="46.9908" lon="-1.8209">
        <ele>56</ele>
        <time>2021-06-02T16:22:36.000Z</time>
      </trkpt>
      <trkpt lat="46.99082" lon="-1.82059">
        <ele>56</ele>
        <time>2021-06-02T16:22:39.000Z</time>
      </trkpt>
      <trkpt lat="46.99083" lon="-1.82038">
        <ele>54</ele>
        <time>2021-06-02T16:22:41.000Z</time>
      </trkpt>
      <trkpt lat="46.99084" lon="-1.82018">
        <ele>54</ele>
        <time>2021-06-02T16:22:43.000Z</time>
      </trkpt>
      <trkpt lat="46.99085" lon="-1.82">
        <ele>53</ele>
        <time>2021-06-02T16:22:45.000Z</time>
      </trkpt>
      <trkpt lat="46.99085" lon="-1.81973">
        <ele>49</ele>
        <time>2021-06-02T16:22:48.000Z</time>
      </trkpt>
      <trkpt lat="46.99088" lon="-1.81952">
        <ele>51</ele>
        <time>2021-06-02T16:22:50.000Z</time>
      </trkpt>
      <trkpt lat="46.9909" lon="-1.81932">
        <ele>51</ele>
        <time>2021-06-02T16:22:52.000Z</time>
      </trkpt>
      <trkpt lat="46.99091" lon="-1.81912">
        <ele>51</ele>
        <time>2021-06-02T16:22:54.000Z</time>
      </trkpt>
      <trkpt lat="46.99094" lon="-1.81893">
        <ele>51</ele>
        <time>2021-06-02T16:22:56.000Z</time>
      </trkpt>
      <trkpt lat="46.99097" lon="-1.81873">
        <ele>51</ele>
        <time>2021-06-02T16:22:58.000Z</time>
      </trkpt>
      <trkpt lat="46.99101" lon="-1.81854">
        <ele>50</ele>
        <time>2021-06-02T16:23:00.000Z</time>
      </trkpt>
      <trkpt lat="46.99107" lon="-1.81826">
        <ele>51</ele>
        <time>2021-06-02T16:23:03.000Z</time>
      </trkpt>
      <trkpt lat="46.99114" lon="-1.81811">
        <ele>51</ele>
        <time>2021-06-02T16:23:05.000Z</time>
      </trkpt>
      <trkpt lat="46.99125" lon="-1.81798">
        <ele>50</ele>
        <time>2021-06-02T16:23:07.000Z</time>
      </trkpt>
      <trkpt lat="46.9914" lon="-1.81777">
        <ele>50</ele>
        <time>2021-06-02T16:23:10.000Z</time>
      </trkpt>
      <trkpt lat="46.9915" lon="-1.81766">
        <ele>50</ele>
        <time>2021-06-02T16:23:12.000Z</time>
      </trkpt>
      <trkpt lat="46.99159" lon="-1.81755">
        <ele>51</ele>
        <time>2021-06-02T16:23:14.000Z</time>
      </trkpt>
      <trkpt lat="46.99168" lon="-1.81745">
        <ele>51</ele>
        <time>2021-06-02T16:23:16.000Z</time>
      </trkpt>
      <trkpt lat="46.99177" lon="-1.81735">
        <ele>49</ele>
        <time>2021-06-02T16:23:18.000Z</time>
      </trkpt>
      <trkpt lat="46.99188" lon="-1.81722">
        <ele>52</ele>
        <time>2021-06-02T16:23:21.000Z</time>
      </trkpt>
      <trkpt lat="46.99191" lon="-1.8171">
        <ele>50</ele>
        <time>2021-06-02T16:23:23.000Z</time>
      </trkpt>
      <trkpt lat="46.9918" lon="-1.81696">
        <ele>52</ele>
        <time>2021-06-02T16:23:26.000Z</time>
      </trkpt>
      <trkpt lat="46.99168" lon="-1.81687">
        <ele>54</ele>
        <time>2021-06-02T16:23:28.000Z</time>
      </trkpt>
      <trkpt lat="46.99159" lon="-1.81676">
        <ele>56</ele>
        <time>2021-06-02T16:23:30.000Z</time>
      </trkpt>
      <trkpt lat="46.9915" lon="-1.81665">
        <ele>56</ele>
        <time>2021-06-02T16:23:32.000Z</time>
      </trkpt>
      <trkpt lat="46.9914" lon="-1.81655">
        <ele>56</ele>
        <time>2021-06-02T16:23:34.000Z</time>
      </trkpt>
      <trkpt lat="46.99131" lon="-1.81645">
        <ele>55</ele>
        <time>2021-06-02T16:23:36.000Z</time>
      </trkpt>
      <trkpt lat="46.99123" lon="-1.81637">
        <ele>55</ele>
        <time>2021-06-02T16:23:38.000Z</time>
      </trkpt>
      <trkpt lat="46.99116" lon="-1.81628">
        <ele>56</ele>
        <time>2021-06-02T16:23:40.000Z</time>
      </trkpt>
      <trkpt lat="46.99107" lon="-1.81616">
        <ele>56</ele>
        <time>2021-06-02T16:23:43.000Z</time>
      </trkpt>
      <trkpt lat="46.99101" lon="-1.81596">
        <ele>56</ele>
        <time>2021-06-02T16:23:46.000Z</time>
      </trkpt>
      <trkpt lat="46.99107" lon="-1.81585">
        <ele>56</ele>
        <time>2021-06-02T16:23:48.000Z</time>
      </trkpt>
      <trkpt lat="46.99119" lon="-1.81583">
        <ele>57</ele>
        <time>2021-06-02T16:23:50.000Z</time>
      </trkpt>
      <trkpt lat="46.99131" lon="-1.81583">
        <ele>56</ele>
        <time>2021-06-02T16:23:52.000Z</time>
      </trkpt>
      <trkpt lat="46.99146" lon="-1.81586">
        <ele>56</ele>
        <time>2021-06-02T16:23:54.000Z</time>
      </trkpt>
      <trkpt lat="46.99155" lon="-1.81588">
        <ele>54</ele>
        <time>2021-06-02T16:23:55.000Z</time>
      </trkpt>
      <trkpt lat="46.9917" lon="-1.81589">
        <ele>52</ele>
        <time>2021-06-02T16:23:57.000Z</time>
      </trkpt>
      <trkpt lat="46.99184" lon="-1.81592">
        <ele>54</ele>
        <time>2021-06-02T16:23:59.000Z</time>
      </trkpt>
      <trkpt lat="46.99198" lon="-1.81593">
        <ele>54</ele>
        <time>2021-06-02T16:24:01.000Z</time>
      </trkpt>
      <trkpt lat="46.99218" lon="-1.81595">
        <ele>53</ele>
        <time>2021-06-02T16:24:04.000Z</time>
      </trkpt>
      <trkpt lat="46.99231" lon="-1.816">
        <ele>57</ele>
        <time>2021-06-02T16:24:06.000Z</time>
      </trkpt>
      <trkpt lat="46.99241" lon="-1.81601">
        <ele>57</ele>
        <time>2021-06-02T16:24:08.000Z</time>
      </trkpt>
      <trkpt lat="46.99252" lon="-1.81593">
        <ele>57</ele>
        <time>2021-06-02T16:24:11.000Z</time>
      </trkpt>
      <trkpt lat="46.99256" lon="-1.81581">
        <ele>59</ele>
        <time>2021-06-02T16:24:14.000Z</time>
      </trkpt>
      <trkpt lat="46.99253" lon="-1.81568">
        <ele>61</ele>
        <time>2021-06-02T16:24:16.000Z</time>
      </trkpt>
      <trkpt lat="46.99252" lon="-1.81549">
        <ele>62</ele>
        <time>2021-06-02T16:24:18.000Z</time>
      </trkpt>
      <trkpt lat="46.99249" lon="-1.81531">
        <ele>61</ele>
        <time>2021-06-02T16:24:20.000Z</time>
      </trkpt>
      <trkpt lat="46.99245" lon="-1.81514">
        <ele>62</ele>
        <time>2021-06-02T16:24:22.000Z</time>
      </trkpt>
      <trkpt lat="46.9924" lon="-1.8149">
        <ele>61</ele>
        <time>2021-06-02T16:24:25.000Z</time>
      </trkpt>
      <trkpt lat="46.99238" lon="-1.81474">
        <ele>61</ele>
        <time>2021-06-02T16:24:27.000Z</time>
      </trkpt>
      <trkpt lat="46.99233" lon="-1.81456">
        <ele>62</ele>
        <time>2021-06-02T16:24:29.000Z</time>
      </trkpt>
      <trkpt lat="46.99229" lon="-1.81435">
        <ele>63</ele>
        <time>2021-06-02T16:24:31.000Z</time>
      </trkpt>
      <trkpt lat="46.99227" lon="-1.81416">
        <ele>63</ele>
        <time>2021-06-02T16:24:33.000Z</time>
      </trkpt>
      <trkpt lat="46.99224" lon="-1.81396">
        <ele>62</ele>
        <time>2021-06-02T16:24:35.000Z</time>
      </trkpt>
      <trkpt lat="46.99222" lon="-1.81371">
        <ele>62</ele>
        <time>2021-06-02T16:24:37.000Z</time>
      </trkpt>
      <trkpt lat="46.99218" lon="-1.81351">
        <ele>60</ele>
        <time>2021-06-02T16:24:39.000Z</time>
      </trkpt>
      <trkpt lat="46.99214" lon="-1.81333">
        <ele>62</ele>
        <time>2021-06-02T16:24:41.000Z</time>
      </trkpt>
      <trkpt lat="46.99212" lon="-1.81312">
        <ele>62</ele>
        <time>2021-06-02T16:24:43.000Z</time>
      </trkpt>
      <trkpt lat="46.99211" lon="-1.81293">
        <ele>62</ele>
        <time>2021-06-02T16:24:45.000Z</time>
      </trkpt>
      <trkpt lat="46.9921" lon="-1.81272">
        <ele>60</ele>
        <time>2021-06-02T16:24:47.000Z</time>
      </trkpt>
      <trkpt lat="46.99207" lon="-1.81255">
        <ele>60</ele>
        <time>2021-06-02T16:24:49.000Z</time>
      </trkpt>
      <trkpt lat="46.99205" lon="-1.81235">
        <ele>60</ele>
        <time>2021-06-02T16:24:51.000Z</time>
      </trkpt>
      <trkpt lat="46.99203" lon="-1.81213">
        <ele>58</ele>
        <time>2021-06-02T16:24:53.000Z</time>
      </trkpt>
      <trkpt lat="46.99198" lon="-1.81193">
        <ele>57</ele>
        <time>2021-06-02T16:24:55.000Z</time>
      </trkpt>
      <trkpt lat="46.99198" lon="-1.81172">
        <ele>56</ele>
        <time>2021-06-02T16:24:57.000Z</time>
      </trkpt>
      <trkpt lat="46.99195" lon="-1.81146">
        <ele>57</ele>
        <time>2021-06-02T16:24:59.000Z</time>
      </trkpt>
      <trkpt lat="46.99193" lon="-1.81122">
        <ele>58</ele>
        <time>2021-06-02T16:25:01.000Z</time>
      </trkpt>
      <trkpt lat="46.9919" lon="-1.81101">
        <ele>58</ele>
        <time>2021-06-02T16:25:03.000Z</time>
      </trkpt>
      <trkpt lat="46.99187" lon="-1.81083">
        <ele>58</ele>
        <time>2021-06-02T16:25:05.000Z</time>
      </trkpt>
      <trkpt lat="46.99181" lon="-1.81055">
        <ele>55</ele>
        <time>2021-06-02T16:25:08.000Z</time>
      </trkpt>
      <trkpt lat="46.99176" lon="-1.81038">
        <ele>54</ele>
        <time>2021-06-02T16:25:10.000Z</time>
      </trkpt>
      <trkpt lat="46.99175" lon="-1.81019">
        <ele>54</ele>
        <time>2021-06-02T16:25:12.000Z</time>
      </trkpt>
      <trkpt lat="46.99174" lon="-1.80999">
        <ele>54</ele>
        <time>2021-06-02T16:25:14.000Z</time>
      </trkpt>
      <trkpt lat="46.99171" lon="-1.80982">
        <ele>54</ele>
        <time>2021-06-02T16:25:16.000Z</time>
      </trkpt>
      <trkpt lat="46.9917" lon="-1.80965">
        <ele>55</ele>
        <time>2021-06-02T16:25:18.000Z</time>
      </trkpt>
      <trkpt lat="46.99168" lon="-1.8095">
        <ele>55</ele>
        <time>2021-06-02T16:25:20.000Z</time>
      </trkpt>
      <trkpt lat="46.99167" lon="-1.80932">
        <ele>53</ele>
        <time>2021-06-02T16:25:22.000Z</time>
      </trkpt>
      <trkpt lat="46.99166" lon="-1.80914">
        <ele>55</ele>
        <time>2021-06-02T16:25:24.000Z</time>
      </trkpt>
      <trkpt lat="46.99167" lon="-1.80898">
        <ele>56</ele>
        <time>2021-06-02T16:25:26.000Z</time>
      </trkpt>
      <trkpt lat="46.99179" lon="-1.80887">
        <ele>56</ele>
        <time>2021-06-02T16:25:28.000Z</time>
      </trkpt>
      <trkpt lat="46.99191" lon="-1.8088">
        <ele>56</ele>
        <time>2021-06-02T16:25:30.000Z</time>
      </trkpt>
      <trkpt lat="46.99206" lon="-1.80874">
        <ele>55</ele>
        <time>2021-06-02T16:25:32.000Z</time>
      </trkpt>
      <trkpt lat="46.99217" lon="-1.80863">
        <ele>55</ele>
        <time>2021-06-02T16:25:34.000Z</time>
      </trkpt>
      <trkpt lat="46.99228" lon="-1.80853">
        <ele>54</ele>
        <time>2021-06-02T16:25:36.000Z</time>
      </trkpt>
      <trkpt lat="46.9924" lon="-1.80845">
        <ele>52</ele>
        <time>2021-06-02T16:25:38.000Z</time>
      </trkpt>
      <trkpt lat="46.99253" lon="-1.80834">
        <ele>53</ele>
        <time>2021-06-02T16:25:40.000Z</time>
      </trkpt>
      <trkpt lat="46.99267" lon="-1.80827">
        <ele>54</ele>
        <time>2021-06-02T16:25:42.000Z</time>
      </trkpt>
      <trkpt lat="46.9928" lon="-1.80819">
        <ele>54</ele>
        <time>2021-06-02T16:25:44.000Z</time>
      </trkpt>
      <trkpt lat="46.99292" lon="-1.80812">
        <ele>54</ele>
        <time>2021-06-02T16:25:46.000Z</time>
      </trkpt>
      <trkpt lat="46.99305" lon="-1.80806">
        <ele>55</ele>
        <time>2021-06-02T16:25:48.000Z</time>
      </trkpt>
      <trkpt lat="46.99317" lon="-1.80796">
        <ele>55</ele>
        <time>2021-06-02T16:25:50.000Z</time>
      </trkpt>
      <trkpt lat="46.99338" lon="-1.80782">
        <ele>54</ele>
        <time>2021-06-02T16:25:53.000Z</time>
      </trkpt>
      <trkpt lat="46.9935" lon="-1.80773">
        <ele>53</ele>
        <time>2021-06-02T16:25:55.000Z</time>
      </trkpt>
      <trkpt lat="46.99361" lon="-1.80764">
        <ele>54</ele>
        <time>2021-06-02T16:25:57.000Z</time>
      </trkpt>
      <trkpt lat="46.99374" lon="-1.80757">
        <ele>54</ele>
        <time>2021-06-02T16:25:59.000Z</time>
      </trkpt>
      <trkpt lat="46.99387" lon="-1.8075">
        <ele>54</ele>
        <time>2021-06-02T16:26:01.000Z</time>
      </trkpt>
      <trkpt lat="46.994" lon="-1.80742">
        <ele>54</ele>
        <time>2021-06-02T16:26:03.000Z</time>
      </trkpt>
      <trkpt lat="46.99414" lon="-1.80735">
        <ele>55</ele>
        <time>2021-06-02T16:26:05.000Z</time>
      </trkpt>
      <trkpt lat="46.99427" lon="-1.80727">
        <ele>55</ele>
        <time>2021-06-02T16:26:07.000Z</time>
      </trkpt>
      <trkpt lat="46.99444" lon="-1.80715">
        <ele>56</ele>
        <time>2021-06-02T16:26:10.000Z</time>
      </trkpt>
      <trkpt lat="46.99456" lon="-1.80708">
        <ele>55</ele>
        <time>2021-06-02T16:26:12.000Z</time>
      </trkpt>
      <trkpt lat="46.99473" lon="-1.80695">
        <ele>56</ele>
        <time>2021-06-02T16:26:15.000Z</time>
      </trkpt>
      <trkpt lat="46.9948" lon="-1.80679">
        <ele>56</ele>
        <time>2021-06-02T16:26:17.000Z</time>
      </trkpt>
      <trkpt lat="46.99495" lon="-1.80658">
        <ele>56</ele>
        <time>2021-06-02T16:26:20.000Z</time>
      </trkpt>
      <trkpt lat="46.9951" lon="-1.80649">
        <ele>56</ele>
        <time>2021-06-02T16:26:22.000Z</time>
      </trkpt>
      <trkpt lat="46.99525" lon="-1.80637">
        <ele>55</ele>
        <time>2021-06-02T16:26:24.000Z</time>
      </trkpt>
      <trkpt lat="46.99538" lon="-1.80623">
        <ele>55</ele>
        <time>2021-06-02T16:26:26.000Z</time>
      </trkpt>
      <trkpt lat="46.99551" lon="-1.80608">
        <ele>55</ele>
        <time>2021-06-02T16:26:28.000Z</time>
      </trkpt>
      <trkpt lat="46.99568" lon="-1.80586">
        <ele>55</ele>
        <time>2021-06-02T16:26:31.000Z</time>
      </trkpt>
      <trkpt lat="46.99579" lon="-1.80572">
        <ele>55</ele>
        <time>2021-06-02T16:26:33.000Z</time>
      </trkpt>
      <trkpt lat="46.99592" lon="-1.80557">
        <ele>55</ele>
        <time>2021-06-02T16:26:35.000Z</time>
      </trkpt>
      <trkpt lat="46.99603" lon="-1.80542">
        <ele>55</ele>
        <time>2021-06-02T16:26:37.000Z</time>
      </trkpt>
      <trkpt lat="46.99614" lon="-1.80527">
        <ele>55</ele>
        <time>2021-06-02T16:26:39.000Z</time>
      </trkpt>
      <trkpt lat="46.99625" lon="-1.80512">
        <ele>54</ele>
        <time>2021-06-02T16:26:41.000Z</time>
      </trkpt>
      <trkpt lat="46.99642" lon="-1.8049">
        <ele>54</ele>
        <time>2021-06-02T16:26:44.000Z</time>
      </trkpt>
      <trkpt lat="46.99652" lon="-1.80475">
        <ele>54</ele>
        <time>2021-06-02T16:26:46.000Z</time>
      </trkpt>
      <trkpt lat="46.99665" lon="-1.80462">
        <ele>56</ele>
        <time>2021-06-02T16:26:48.000Z</time>
      </trkpt>
      <trkpt lat="46.99677" lon="-1.80447">
        <ele>55</ele>
        <time>2021-06-02T16:26:50.000Z</time>
      </trkpt>
      <trkpt lat="46.99689" lon="-1.80432">
        <ele>55</ele>
        <time>2021-06-02T16:26:52.000Z</time>
      </trkpt>
      <trkpt lat="46.99699" lon="-1.80417">
        <ele>56</ele>
        <time>2021-06-02T16:26:54.000Z</time>
      </trkpt>
      <trkpt lat="46.99712" lon="-1.80402">
        <ele>56</ele>
        <time>2021-06-02T16:26:56.000Z</time>
      </trkpt>
      <trkpt lat="46.99723" lon="-1.80389">
        <ele>55</ele>
        <time>2021-06-02T16:26:58.000Z</time>
      </trkpt>
      <trkpt lat="46.99734" lon="-1.80374">
        <ele>55</ele>
        <time>2021-06-02T16:27:00.000Z</time>
      </trkpt>
      <trkpt lat="46.99745" lon="-1.80359">
        <ele>54</ele>
        <time>2021-06-02T16:27:02.000Z</time>
      </trkpt>
      <trkpt lat="46.99756" lon="-1.80345">
        <ele>55</ele>
        <time>2021-06-02T16:27:04.000Z</time>
      </trkpt>
      <trkpt lat="46.99773" lon="-1.80324">
        <ele>54</ele>
        <time>2021-06-02T16:27:07.000Z</time>
      </trkpt>
      <trkpt lat="46.99783" lon="-1.80311">
        <ele>54</ele>
        <time>2021-06-02T16:27:09.000Z</time>
      </trkpt>
      <trkpt lat="46.99795" lon="-1.80296">
        <ele>54</ele>
        <time>2021-06-02T16:27:11.000Z</time>
      </trkpt>
      <trkpt lat="46.99806" lon="-1.80281">
        <ele>54</ele>
        <time>2021-06-02T16:27:13.000Z</time>
      </trkpt>
      <trkpt lat="46.99817" lon="-1.80266">
        <ele>55</ele>
        <time>2021-06-02T16:27:15.000Z</time>
      </trkpt>
      <trkpt lat="46.99827" lon="-1.80254">
        <ele>55</ele>
        <time>2021-06-02T16:27:17.000Z</time>
      </trkpt>
      <trkpt lat="46.99837" lon="-1.80238">
        <ele>55</ele>
        <time>2021-06-02T16:27:19.000Z</time>
      </trkpt>
      <trkpt lat="46.99848" lon="-1.80221">
        <ele>54</ele>
        <time>2021-06-02T16:27:21.000Z</time>
      </trkpt>
      <trkpt lat="46.99857" lon="-1.80204">
        <ele>54</ele>
        <time>2021-06-02T16:27:23.000Z</time>
      </trkpt>
      <trkpt lat="46.99868" lon="-1.80186">
        <ele>54</ele>
        <time>2021-06-02T16:27:25.000Z</time>
      </trkpt>
      <trkpt lat="46.99879" lon="-1.80159">
        <ele>55</ele>
        <time>2021-06-02T16:27:28.000Z</time>
      </trkpt>
      <trkpt lat="46.99887" lon="-1.80141">
        <ele>55</ele>
        <time>2021-06-02T16:27:30.000Z</time>
      </trkpt>
      <trkpt lat="46.999" lon="-1.80117">
        <ele>54</ele>
        <time>2021-06-02T16:27:33.000Z</time>
      </trkpt>
      <trkpt lat="46.99908" lon="-1.80099">
        <ele>54</ele>
        <time>2021-06-02T16:27:35.000Z</time>
      </trkpt>
      <trkpt lat="46.99916" lon="-1.80082">
        <ele>54</ele>
        <time>2021-06-02T16:27:37.000Z</time>
      </trkpt>
      <trkpt lat="46.99924" lon="-1.80065">
        <ele>55</ele>
        <time>2021-06-02T16:27:39.000Z</time>
      </trkpt>
      <trkpt lat="46.99932" lon="-1.80048">
        <ele>55</ele>
        <time>2021-06-02T16:27:41.000Z</time>
      </trkpt>
      <trkpt lat="46.99941" lon="-1.80031">
        <ele>55</ele>
        <time>2021-06-02T16:27:43.000Z</time>
      </trkpt>
      <trkpt lat="46.99955" lon="-1.80009">
        <ele>55</ele>
        <time>2021-06-02T16:27:46.000Z</time>
      </trkpt>
      <trkpt lat="46.99966" lon="-1.79995">
        <ele>56</ele>
        <time>2021-06-02T16:27:48.000Z</time>
      </trkpt>
      <trkpt lat="46.99978" lon="-1.79984">
        <ele>56</ele>
        <time>2021-06-02T16:27:50.000Z</time>
      </trkpt>
      <trkpt lat="46.99997" lon="-1.7997">
        <ele>56</ele>
        <time>2021-06-02T16:27:53.000Z</time>
      </trkpt>
      <trkpt lat="47.00009" lon="-1.79959">
        <ele>56</ele>
        <time>2021-06-02T16:27:55.000Z</time>
      </trkpt>
      <trkpt lat="47.00022" lon="-1.79951">
        <ele>56</ele>
        <time>2021-06-02T16:27:57.000Z</time>
      </trkpt>
      <trkpt lat="47.00034" lon="-1.79941">
        <ele>56</ele>
        <time>2021-06-02T16:27:59.000Z</time>
      </trkpt>
      <trkpt lat="47.00053" lon="-1.79927">
        <ele>56</ele>
        <time>2021-06-02T16:28:02.000Z</time>
      </trkpt>
      <trkpt lat="47.00064" lon="-1.79918">
        <ele>56</ele>
        <time>2021-06-02T16:28:04.000Z</time>
      </trkpt>
      <trkpt lat="47.00078" lon="-1.79908">
        <ele>57</ele>
        <time>2021-06-02T16:28:06.000Z</time>
      </trkpt>
      <trkpt lat="47.00091" lon="-1.79897">
        <ele>55</ele>
        <time>2021-06-02T16:28:08.000Z</time>
      </trkpt>
      <trkpt lat="47.00103" lon="-1.79886">
        <ele>55</ele>
        <time>2021-06-02T16:28:10.000Z</time>
      </trkpt>
      <trkpt lat="47.00114" lon="-1.7987">
        <ele>55</ele>
        <time>2021-06-02T16:28:12.000Z</time>
      </trkpt>
      <trkpt lat="47.00124" lon="-1.79854">
        <ele>55</ele>
        <time>2021-06-02T16:28:14.000Z</time>
      </trkpt>
      <trkpt lat="47.00133" lon="-1.79838">
        <ele>55</ele>
        <time>2021-06-02T16:28:16.000Z</time>
      </trkpt>
      <trkpt lat="47.00139" lon="-1.7982">
        <ele>55</ele>
        <time>2021-06-02T16:28:18.000Z</time>
      </trkpt>
      <trkpt lat="47.0015" lon="-1.79792">
        <ele>56</ele>
        <time>2021-06-02T16:28:21.000Z</time>
      </trkpt>
      <trkpt lat="47.00156" lon="-1.79772">
        <ele>55</ele>
        <time>2021-06-02T16:28:23.000Z</time>
      </trkpt>
      <trkpt lat="47.00163" lon="-1.79755">
        <ele>55</ele>
        <time>2021-06-02T16:28:25.000Z</time>
      </trkpt>
      <trkpt lat="47.00169" lon="-1.79736">
        <ele>55</ele>
        <time>2021-06-02T16:28:27.000Z</time>
      </trkpt>
      <trkpt lat="47.00175" lon="-1.79716">
        <ele>55</ele>
        <time>2021-06-02T16:28:29.000Z</time>
      </trkpt>
      <trkpt lat="47.0018" lon="-1.79697">
        <ele>55</ele>
        <time>2021-06-02T16:28:31.000Z</time>
      </trkpt>
      <trkpt lat="47.00186" lon="-1.79678">
        <ele>55</ele>
        <time>2021-06-02T16:28:33.000Z</time>
      </trkpt>
      <trkpt lat="47.00192" lon="-1.79659">
        <ele>55</ele>
        <time>2021-06-02T16:28:35.000Z</time>
      </trkpt>
      <trkpt lat="47.00197" lon="-1.79639">
        <ele>55</ele>
        <time>2021-06-02T16:28:37.000Z</time>
      </trkpt>
      <trkpt lat="47.00203" lon="-1.79618">
        <ele>55</ele>
        <time>2021-06-02T16:28:39.000Z</time>
      </trkpt>
      <trkpt lat="47.00206" lon="-1.796">
        <ele>55</ele>
        <time>2021-06-02T16:28:41.000Z</time>
      </trkpt>
      <trkpt lat="47.00212" lon="-1.79581">
        <ele>55</ele>
        <time>2021-06-02T16:28:43.000Z</time>
      </trkpt>
      <trkpt lat="47.00219" lon="-1.79561">
        <ele>55</ele>
        <time>2021-06-02T16:28:45.000Z</time>
      </trkpt>
      <trkpt lat="47.00225" lon="-1.79542">
        <ele>54</ele>
        <time>2021-06-02T16:28:47.000Z</time>
      </trkpt>
      <trkpt lat="47.00231" lon="-1.79523">
        <ele>55</ele>
        <time>2021-06-02T16:28:49.000Z</time>
      </trkpt>
      <trkpt lat="47.00237" lon="-1.79504">
        <ele>55</ele>
        <time>2021-06-02T16:28:51.000Z</time>
      </trkpt>
      <trkpt lat="47.00242" lon="-1.79485">
        <ele>55</ele>
        <time>2021-06-02T16:28:53.000Z</time>
      </trkpt>
      <trkpt lat="47.00248" lon="-1.79467">
        <ele>55</ele>
        <time>2021-06-02T16:28:55.000Z</time>
      </trkpt>
      <trkpt lat="47.00254" lon="-1.79448">
        <ele>56</ele>
        <time>2021-06-02T16:28:57.000Z</time>
      </trkpt>
      <trkpt lat="47.00259" lon="-1.79428">
        <ele>54</ele>
        <time>2021-06-02T16:28:59.000Z</time>
      </trkpt>
      <trkpt lat="47.00263" lon="-1.7941">
        <ele>54</ele>
        <time>2021-06-02T16:29:01.000Z</time>
      </trkpt>
      <trkpt lat="47.00269" lon="-1.79393">
        <ele>55</ele>
        <time>2021-06-02T16:29:03.000Z</time>
      </trkpt>
      <trkpt lat="47.00275" lon="-1.79375">
        <ele>55</ele>
        <time>2021-06-02T16:29:05.000Z</time>
      </trkpt>
      <trkpt lat="47.0028" lon="-1.79356">
        <ele>56</ele>
        <time>2021-06-02T16:29:07.000Z</time>
      </trkpt>
      <trkpt lat="47.00284" lon="-1.79336">
        <ele>55</ele>
        <time>2021-06-02T16:29:09.000Z</time>
      </trkpt>
      <trkpt lat="47.00287" lon="-1.79316">
        <ele>56</ele>
        <time>2021-06-02T16:29:11.000Z</time>
      </trkpt>
      <trkpt lat="47.0029" lon="-1.79296">
        <ele>56</ele>
        <time>2021-06-02T16:29:13.000Z</time>
      </trkpt>
      <trkpt lat="47.00296" lon="-1.79266">
        <ele>55</ele>
        <time>2021-06-02T16:29:16.000Z</time>
      </trkpt>
      <trkpt lat="47.003" lon="-1.79247">
        <ele>55</ele>
        <time>2021-06-02T16:29:18.000Z</time>
      </trkpt>
      <trkpt lat="47.00301" lon="-1.79227">
        <ele>54</ele>
        <time>2021-06-02T16:29:20.000Z</time>
      </trkpt>
      <trkpt lat="47.00301" lon="-1.79212">
        <ele>53</ele>
        <time>2021-06-02T16:29:22.000Z</time>
      </trkpt>
      <trkpt lat="47.00303" lon="-1.79195">
        <ele>53</ele>
        <time>2021-06-02T16:29:24.000Z</time>
      </trkpt>
      <trkpt lat="47.00308" lon="-1.79174">
        <ele>53</ele>
        <time>2021-06-02T16:29:26.000Z</time>
      </trkpt>
      <trkpt lat="47.00315" lon="-1.79142">
        <ele>52</ele>
        <time>2021-06-02T16:29:29.000Z</time>
      </trkpt>
      <trkpt lat="47.0032" lon="-1.79123">
        <ele>53</ele>
        <time>2021-06-02T16:29:31.000Z</time>
      </trkpt>
      <trkpt lat="47.00326" lon="-1.79105">
        <ele>54</ele>
        <time>2021-06-02T16:29:33.000Z</time>
      </trkpt>
      <trkpt lat="47.00333" lon="-1.79084">
        <ele>55</ele>
        <time>2021-06-02T16:29:35.000Z</time>
      </trkpt>
      <trkpt lat="47.00337" lon="-1.79065">
        <ele>55</ele>
        <time>2021-06-02T16:29:37.000Z</time>
      </trkpt>
      <trkpt lat="47.00343" lon="-1.79044">
        <ele>53</ele>
        <time>2021-06-02T16:29:39.000Z</time>
      </trkpt>
      <trkpt lat="47.00348" lon="-1.79025">
        <ele>52</ele>
        <time>2021-06-02T16:29:41.000Z</time>
      </trkpt>
      <trkpt lat="47.00354" lon="-1.79005">
        <ele>54</ele>
        <time>2021-06-02T16:29:43.000Z</time>
      </trkpt>
      <trkpt lat="47.00361" lon="-1.78974">
        <ele>55</ele>
        <time>2021-06-02T16:29:46.000Z</time>
      </trkpt>
      <trkpt lat="47.00366" lon="-1.78954">
        <ele>55</ele>
        <time>2021-06-02T16:29:48.000Z</time>
      </trkpt>
      <trkpt lat="47.00371" lon="-1.78934">
        <ele>56</ele>
        <time>2021-06-02T16:29:50.000Z</time>
      </trkpt>
      <trkpt lat="47.00375" lon="-1.78914">
        <ele>55</ele>
        <time>2021-06-02T16:29:52.000Z</time>
      </trkpt>
      <trkpt lat="47.00379" lon="-1.78893">
        <ele>55</ele>
        <time>2021-06-02T16:29:54.000Z</time>
      </trkpt>
      <trkpt lat="47.00383" lon="-1.78871">
        <ele>55</ele>
        <time>2021-06-02T16:29:56.000Z</time>
      </trkpt>
      <trkpt lat="47.00387" lon="-1.78851">
        <ele>55</ele>
        <time>2021-06-02T16:29:58.000Z</time>
      </trkpt>
      <trkpt lat="47.00393" lon="-1.7883">
        <ele>55</ele>
        <time>2021-06-02T16:30:00.000Z</time>
      </trkpt>
      <trkpt lat="47.00397" lon="-1.7881">
        <ele>55</ele>
        <time>2021-06-02T16:30:02.000Z</time>
      </trkpt>
      <trkpt lat="47.004" lon="-1.78789">
        <ele>55</ele>
        <time>2021-06-02T16:30:04.000Z</time>
      </trkpt>
      <trkpt lat="47.00404" lon="-1.78767">
        <ele>56</ele>
        <time>2021-06-02T16:30:06.000Z</time>
      </trkpt>
      <trkpt lat="47.00407" lon="-1.78745">
        <ele>55</ele>
        <time>2021-06-02T16:30:08.000Z</time>
      </trkpt>
      <trkpt lat="47.0041" lon="-1.78724">
        <ele>56</ele>
        <time>2021-06-02T16:30:10.000Z</time>
      </trkpt>
      <trkpt lat="47.00414" lon="-1.78707">
        <ele>55</ele>
        <time>2021-06-02T16:30:12.000Z</time>
      </trkpt>
      <trkpt lat="47.00415" lon="-1.78685">
        <ele>55</ele>
        <time>2021-06-02T16:30:14.000Z</time>
      </trkpt>
      <trkpt lat="47.00419" lon="-1.78662">
        <ele>56</ele>
        <time>2021-06-02T16:30:16.000Z</time>
      </trkpt>
      <trkpt lat="47.00421" lon="-1.78641">
        <ele>56</ele>
        <time>2021-06-02T16:30:18.000Z</time>
      </trkpt>
      <trkpt lat="47.00425" lon="-1.78619">
        <ele>56</ele>
        <time>2021-06-02T16:30:20.000Z</time>
      </trkpt>
      <trkpt lat="47.00428" lon="-1.78597">
        <ele>56</ele>
        <time>2021-06-02T16:30:22.000Z</time>
      </trkpt>
      <trkpt lat="47.0043" lon="-1.78575">
        <ele>55</ele>
        <time>2021-06-02T16:30:24.000Z</time>
      </trkpt>
      <trkpt lat="47.00433" lon="-1.78554">
        <ele>55</ele>
        <time>2021-06-02T16:30:26.000Z</time>
      </trkpt>
      <trkpt lat="47.00436" lon="-1.78533">
        <ele>55</ele>
        <time>2021-06-02T16:30:28.000Z</time>
      </trkpt>
      <trkpt lat="47.00438" lon="-1.78512">
        <ele>55</ele>
        <time>2021-06-02T16:30:30.000Z</time>
      </trkpt>
      <trkpt lat="47.00442" lon="-1.7849">
        <ele>55</ele>
        <time>2021-06-02T16:30:32.000Z</time>
      </trkpt>
      <trkpt lat="47.00444" lon="-1.7847">
        <ele>54</ele>
        <time>2021-06-02T16:30:34.000Z</time>
      </trkpt>
      <trkpt lat="47.00449" lon="-1.78448">
        <ele>55</ele>
        <time>2021-06-02T16:30:36.000Z</time>
      </trkpt>
      <trkpt lat="47.00453" lon="-1.78427">
        <ele>55</ele>
        <time>2021-06-02T16:30:38.000Z</time>
      </trkpt>
      <trkpt lat="47.00458" lon="-1.78407">
        <ele>55</ele>
        <time>2021-06-02T16:30:40.000Z</time>
      </trkpt>
      <trkpt lat="47.00463" lon="-1.78386">
        <ele>55</ele>
        <time>2021-06-02T16:30:42.000Z</time>
      </trkpt>
      <trkpt lat="47.00469" lon="-1.78365">
        <ele>54</ele>
        <time>2021-06-02T16:30:44.000Z</time>
      </trkpt>
      <trkpt lat="47.00476" lon="-1.78335">
        <ele>56</ele>
        <time>2021-06-02T16:30:47.000Z</time>
      </trkpt>
      <trkpt lat="47.00481" lon="-1.78314">
        <ele>56</ele>
        <time>2021-06-02T16:30:49.000Z</time>
      </trkpt>
      <trkpt lat="47.00488" lon="-1.78282">
        <ele>54</ele>
        <time>2021-06-02T16:30:52.000Z</time>
      </trkpt>
      <trkpt lat="47.00492" lon="-1.78263">
        <ele>50</ele>
        <time>2021-06-02T16:30:54.000Z</time>
      </trkpt>
      <trkpt lat="47.00498" lon="-1.78244">
        <ele>49</ele>
        <time>2021-06-02T16:30:56.000Z</time>
      </trkpt>
      <trkpt lat="47.00506" lon="-1.78216">
        <ele>50</ele>
        <time>2021-06-02T16:30:59.000Z</time>
      </trkpt>
      <trkpt lat="47.00511" lon="-1.78195">
        <ele>49</ele>
        <time>2021-06-02T16:31:01.000Z</time>
      </trkpt>
      <trkpt lat="47.00515" lon="-1.78176">
        <ele>51</ele>
        <time>2021-06-02T16:31:03.000Z</time>
      </trkpt>
      <trkpt lat="47.00521" lon="-1.78155">
        <ele>53</ele>
        <time>2021-06-02T16:31:05.000Z</time>
      </trkpt>
      <trkpt lat="47.00526" lon="-1.78136">
        <ele>54</ele>
        <time>2021-06-02T16:31:07.000Z</time>
      </trkpt>
      <trkpt lat="47.00531" lon="-1.78117">
        <ele>54</ele>
        <time>2021-06-02T16:31:09.000Z</time>
      </trkpt>
      <trkpt lat="47.00536" lon="-1.78089">
        <ele>54</ele>
        <time>2021-06-02T16:31:12.000Z</time>
      </trkpt>
      <trkpt lat="47.00541" lon="-1.7807">
        <ele>55</ele>
        <time>2021-06-02T16:31:14.000Z</time>
      </trkpt>
      <trkpt lat="47.00547" lon="-1.78049">
        <ele>55</ele>
        <time>2021-06-02T16:31:16.000Z</time>
      </trkpt>
      <trkpt lat="47.00551" lon="-1.78029">
        <ele>54</ele>
        <time>2021-06-02T16:31:18.000Z</time>
      </trkpt>
      <trkpt lat="47.00556" lon="-1.7801">
        <ele>54</ele>
        <time>2021-06-02T16:31:20.000Z</time>
      </trkpt>
      <trkpt lat="47.0056" lon="-1.77989">
        <ele>52</ele>
        <time>2021-06-02T16:31:22.000Z</time>
      </trkpt>
      <trkpt lat="47.00565" lon="-1.77971">
        <ele>52</ele>
        <time>2021-06-02T16:31:24.000Z</time>
      </trkpt>
      <trkpt lat="47.0057" lon="-1.77954">
        <ele>55</ele>
        <time>2021-06-02T16:31:26.000Z</time>
      </trkpt>
      <trkpt lat="47.00575" lon="-1.77934">
        <ele>57</ele>
        <time>2021-06-02T16:31:28.000Z</time>
      </trkpt>
      <trkpt lat="47.0058" lon="-1.77914">
        <ele>57</ele>
        <time>2021-06-02T16:31:30.000Z</time>
      </trkpt>
      <trkpt lat="47.00584" lon="-1.77895">
        <ele>58</ele>
        <time>2021-06-02T16:31:32.000Z</time>
      </trkpt>
      <trkpt lat="47.0059" lon="-1.77876">
        <ele>58</ele>
        <time>2021-06-02T16:31:34.000Z</time>
      </trkpt>
      <trkpt lat="47.00595" lon="-1.77857">
        <ele>58</ele>
        <time>2021-06-02T16:31:36.000Z</time>
      </trkpt>
      <trkpt lat="47.00602" lon="-1.77828">
        <ele>57</ele>
        <time>2021-06-02T16:31:39.000Z</time>
      </trkpt>
      <trkpt lat="47.00605" lon="-1.77807">
        <ele>53</ele>
        <time>2021-06-02T16:31:41.000Z</time>
      </trkpt>
      <trkpt lat="47.00609" lon="-1.77788">
        <ele>53</ele>
        <time>2021-06-02T16:31:43.000Z</time>
      </trkpt>
      <trkpt lat="47.00614" lon="-1.77769">
        <ele>53</ele>
        <time>2021-06-02T16:31:45.000Z</time>
      </trkpt>
      <trkpt lat="47.0062" lon="-1.7775">
        <ele>53</ele>
        <time>2021-06-02T16:31:47.000Z</time>
      </trkpt>
      <trkpt lat="47.00624" lon="-1.77733">
        <ele>54</ele>
        <time>2021-06-02T16:31:49.000Z</time>
      </trkpt>
      <trkpt lat="47.00629" lon="-1.77714">
        <ele>54</ele>
        <time>2021-06-02T16:31:51.000Z</time>
      </trkpt>
      <trkpt lat="47.00633" lon="-1.77696">
        <ele>54</ele>
        <time>2021-06-02T16:31:53.000Z</time>
      </trkpt>
      <trkpt lat="47.00638" lon="-1.77677">
        <ele>54</ele>
        <time>2021-06-02T16:31:55.000Z</time>
      </trkpt>
      <trkpt lat="47.00644" lon="-1.77659">
        <ele>54</ele>
        <time>2021-06-02T16:31:57.000Z</time>
      </trkpt>
      <trkpt lat="47.00649" lon="-1.77639">
        <ele>55</ele>
        <time>2021-06-02T16:31:59.000Z</time>
      </trkpt>
      <trkpt lat="47.00654" lon="-1.77621">
        <ele>54</ele>
        <time>2021-06-02T16:32:01.000Z</time>
      </trkpt>
      <trkpt lat="47.00658" lon="-1.77603">
        <ele>55</ele>
        <time>2021-06-02T16:32:03.000Z</time>
      </trkpt>
      <trkpt lat="47.00661" lon="-1.77577">
        <ele>55</ele>
        <time>2021-06-02T16:32:06.000Z</time>
      </trkpt>
      <trkpt lat="47.00665" lon="-1.77561">
        <ele>54</ele>
        <time>2021-06-02T16:32:08.000Z</time>
      </trkpt>
      <trkpt lat="47.00669" lon="-1.77544">
        <ele>55</ele>
        <time>2021-06-02T16:32:10.000Z</time>
      </trkpt>
      <trkpt lat="47.00675" lon="-1.77526">
        <ele>56</ele>
        <time>2021-06-02T16:32:12.000Z</time>
      </trkpt>
      <trkpt lat="47.00679" lon="-1.77509">
        <ele>55</ele>
        <time>2021-06-02T16:32:14.000Z</time>
      </trkpt>
      <trkpt lat="47.00685" lon="-1.77496">
        <ele>54</ele>
        <time>2021-06-02T16:32:16.000Z</time>
      </trkpt>
      <trkpt lat="47.00692" lon="-1.77478">
        <ele>56</ele>
        <time>2021-06-02T16:32:18.000Z</time>
      </trkpt>
      <trkpt lat="47.00698" lon="-1.7746">
        <ele>56</ele>
        <time>2021-06-02T16:32:20.000Z</time>
      </trkpt>
      <trkpt lat="47.00704" lon="-1.77444">
        <ele>57</ele>
        <time>2021-06-02T16:32:22.000Z</time>
      </trkpt>
      <trkpt lat="47.00709" lon="-1.77429">
        <ele>58</ele>
        <time>2021-06-02T16:32:24.000Z</time>
      </trkpt>
      <trkpt lat="47.00715" lon="-1.77413">
        <ele>58</ele>
        <time>2021-06-02T16:32:26.000Z</time>
      </trkpt>
      <trkpt lat="47.00725" lon="-1.77389">
        <ele>58</ele>
        <time>2021-06-02T16:32:29.000Z</time>
      </trkpt>
      <trkpt lat="47.0073" lon="-1.77375">
        <ele>59</ele>
        <time>2021-06-02T16:32:31.000Z</time>
      </trkpt>
      <trkpt lat="47.00736" lon="-1.77362">
        <ele>60</ele>
        <time>2021-06-02T16:32:33.000Z</time>
      </trkpt>
      <trkpt lat="47.00744" lon="-1.77349">
        <ele>60</ele>
        <time>2021-06-02T16:32:35.000Z</time>
      </trkpt>
      <trkpt lat="47.0075" lon="-1.77338">
        <ele>60</ele>
        <time>2021-06-02T16:32:37.000Z</time>
      </trkpt>
      <trkpt lat="47.0076" lon="-1.77327">
        <ele>60</ele>
        <time>2021-06-02T16:32:39.000Z</time>
      </trkpt>
      <trkpt lat="47.0077" lon="-1.77317">
        <ele>60</ele>
        <time>2021-06-02T16:32:41.000Z</time>
      </trkpt>
      <trkpt lat="47.00781" lon="-1.77312">
        <ele>59</ele>
        <time>2021-06-02T16:32:43.000Z</time>
      </trkpt>
      <trkpt lat="47.00791" lon="-1.77303">
        <ele>61</ele>
        <time>2021-06-02T16:32:45.000Z</time>
      </trkpt>
      <trkpt lat="47.00803" lon="-1.77294">
        <ele>63</ele>
        <time>2021-06-02T16:32:47.000Z</time>
      </trkpt>
      <trkpt lat="47.00817" lon="-1.77287">
        <ele>63</ele>
        <time>2021-06-02T16:32:49.000Z</time>
      </trkpt>
      <trkpt lat="47.0083" lon="-1.7728">
        <ele>59</ele>
        <time>2021-06-02T16:32:51.000Z</time>
      </trkpt>
      <trkpt lat="47.00841" lon="-1.77273">
        <ele>62</ele>
        <time>2021-06-02T16:32:53.000Z</time>
      </trkpt>
      <trkpt lat="47.00852" lon="-1.77266">
        <ele>63</ele>
        <time>2021-06-02T16:32:55.000Z</time>
      </trkpt>
      <trkpt lat="47.00864" lon="-1.77258">
        <ele>63</ele>
        <time>2021-06-02T16:32:57.000Z</time>
      </trkpt>
      <trkpt lat="47.00876" lon="-1.77248">
        <ele>63</ele>
        <time>2021-06-02T16:32:59.000Z</time>
      </trkpt>
      <trkpt lat="47.00884" lon="-1.77239">
        <ele>63</ele>
        <time>2021-06-02T16:33:01.000Z</time>
      </trkpt>
      <trkpt lat="47.00893" lon="-1.77228">
        <ele>63</ele>
        <time>2021-06-02T16:33:03.000Z</time>
      </trkpt>
      <trkpt lat="47.00903" lon="-1.77219">
        <ele>63</ele>
        <time>2021-06-02T16:33:05.000Z</time>
      </trkpt>
      <trkpt lat="47.00914" lon="-1.77209">
        <ele>63</ele>
        <time>2021-06-02T16:33:07.000Z</time>
      </trkpt>
      <trkpt lat="47.00923" lon="-1.77199">
        <ele>63</ele>
        <time>2021-06-02T16:33:09.000Z</time>
      </trkpt>
      <trkpt lat="47.00932" lon="-1.7719">
        <ele>63</ele>
        <time>2021-06-02T16:33:11.000Z</time>
      </trkpt>
      <trkpt lat="47.00945" lon="-1.77176">
        <ele>63</ele>
        <time>2021-06-02T16:33:14.000Z</time>
      </trkpt>
      <trkpt lat="47.00953" lon="-1.77168">
        <ele>63</ele>
        <time>2021-06-02T16:33:16.000Z</time>
      </trkpt>
      <trkpt lat="47.00963" lon="-1.77158">
        <ele>63</ele>
        <time>2021-06-02T16:33:19.000Z</time>
      </trkpt>
      <trkpt lat="47.0097" lon="-1.7715">
        <ele>63</ele>
        <time>2021-06-02T16:33:21.000Z</time>
      </trkpt>
      <trkpt lat="47.0098" lon="-1.77141">
        <ele>64</ele>
        <time>2021-06-02T16:33:23.000Z</time>
      </trkpt>
      <trkpt lat="47.00988" lon="-1.7713">
        <ele>64</ele>
        <time>2021-06-02T16:33:25.000Z</time>
      </trkpt>
      <trkpt lat="47.00999" lon="-1.7712">
        <ele>65</ele>
        <time>2021-06-02T16:33:27.000Z</time>
      </trkpt>
      <trkpt lat="47.01011" lon="-1.77108">
        <ele>64</ele>
        <time>2021-06-02T16:33:29.000Z</time>
      </trkpt>
      <trkpt lat="47.01022" lon="-1.77097">
        <ele>65</ele>
        <time>2021-06-02T16:33:31.000Z</time>
      </trkpt>
      <trkpt lat="47.01031" lon="-1.77085">
        <ele>65</ele>
        <time>2021-06-02T16:33:33.000Z</time>
      </trkpt>
      <trkpt lat="47.01042" lon="-1.77074">
        <ele>65</ele>
        <time>2021-06-02T16:33:35.000Z</time>
      </trkpt>
      <trkpt lat="47.01054" lon="-1.77062">
        <ele>65</ele>
        <time>2021-06-02T16:33:37.000Z</time>
      </trkpt>
      <trkpt lat="47.01064" lon="-1.7705">
        <ele>65</ele>
        <time>2021-06-02T16:33:39.000Z</time>
      </trkpt>
      <trkpt lat="47.01074" lon="-1.77038">
        <ele>65</ele>
        <time>2021-06-02T16:33:41.000Z</time>
      </trkpt>
      <trkpt lat="47.01084" lon="-1.77027">
        <ele>65</ele>
        <time>2021-06-02T16:33:43.000Z</time>
      </trkpt>
      <trkpt lat="47.01098" lon="-1.7701">
        <ele>66</ele>
        <time>2021-06-02T16:33:46.000Z</time>
      </trkpt>
      <trkpt lat="47.01113" lon="-1.76992">
        <ele>66</ele>
        <time>2021-06-02T16:33:49.000Z</time>
      </trkpt>
      <trkpt lat="47.01122" lon="-1.76981">
        <ele>66</ele>
        <time>2021-06-02T16:33:51.000Z</time>
      </trkpt>
      <trkpt lat="47.01131" lon="-1.7697">
        <ele>67</ele>
        <time>2021-06-02T16:33:53.000Z</time>
      </trkpt>
      <trkpt lat="47.0114" lon="-1.7696">
        <ele>67</ele>
        <time>2021-06-02T16:33:55.000Z</time>
      </trkpt>
      <trkpt lat="47.0115" lon="-1.76949">
        <ele>68</ele>
        <time>2021-06-02T16:33:57.000Z</time>
      </trkpt>
      <trkpt lat="47.01159" lon="-1.76937">
        <ele>67</ele>
        <time>2021-06-02T16:33:59.000Z</time>
      </trkpt>
      <trkpt lat="47.01168" lon="-1.76926">
        <ele>67</ele>
        <time>2021-06-02T16:34:01.000Z</time>
      </trkpt>
      <trkpt lat="47.01177" lon="-1.76914">
        <ele>67</ele>
        <time>2021-06-02T16:34:03.000Z</time>
      </trkpt>
      <trkpt lat="47.01192" lon="-1.76899">
        <ele>68</ele>
        <time>2021-06-02T16:34:06.000Z</time>
      </trkpt>
      <trkpt lat="47.01203" lon="-1.76888">
        <ele>66</ele>
        <time>2021-06-02T16:34:08.000Z</time>
      </trkpt>
      <trkpt lat="47.01212" lon="-1.76879">
        <ele>66</ele>
        <time>2021-06-02T16:34:10.000Z</time>
      </trkpt>
      <trkpt lat="47.01223" lon="-1.76869">
        <ele>67</ele>
        <time>2021-06-02T16:34:12.000Z</time>
      </trkpt>
      <trkpt lat="47.01239" lon="-1.76859">
        <ele>68</ele>
        <time>2021-06-02T16:34:15.000Z</time>
      </trkpt>
      <trkpt lat="47.01251" lon="-1.7685">
        <ele>68</ele>
        <time>2021-06-02T16:34:17.000Z</time>
      </trkpt>
      <trkpt lat="47.01262" lon="-1.76842">
        <ele>67</ele>
        <time>2021-06-02T16:34:19.000Z</time>
      </trkpt>
      <trkpt lat="47.01273" lon="-1.76834">
        <ele>66</ele>
        <time>2021-06-02T16:34:21.000Z</time>
      </trkpt>
      <trkpt lat="47.01284" lon="-1.76823">
        <ele>66</ele>
        <time>2021-06-02T16:34:23.000Z</time>
      </trkpt>
      <trkpt lat="47.01293" lon="-1.7681">
        <ele>66</ele>
        <time>2021-06-02T16:34:25.000Z</time>
      </trkpt>
      <trkpt lat="47.01302" lon="-1.76796">
        <ele>67</ele>
        <time>2021-06-02T16:34:27.000Z</time>
      </trkpt>
      <trkpt lat="47.0131" lon="-1.76782">
        <ele>67</ele>
        <time>2021-06-02T16:34:29.000Z</time>
      </trkpt>
      <trkpt lat="47.01318" lon="-1.76768">
        <ele>67</ele>
        <time>2021-06-02T16:34:31.000Z</time>
      </trkpt>
      <trkpt lat="47.01327" lon="-1.76753">
        <ele>68</ele>
        <time>2021-06-02T16:34:33.000Z</time>
      </trkpt>
      <trkpt lat="47.01335" lon="-1.7674">
        <ele>68</ele>
        <time>2021-06-02T16:34:35.000Z</time>
      </trkpt>
      <trkpt lat="47.01342" lon="-1.76727">
        <ele>68</ele>
        <time>2021-06-02T16:34:37.000Z</time>
      </trkpt>
      <trkpt lat="47.01348" lon="-1.76713">
        <ele>67</ele>
        <time>2021-06-02T16:34:39.000Z</time>
      </trkpt>
      <trkpt lat="47.01353" lon="-1.76701">
        <ele>67</ele>
        <time>2021-06-02T16:34:41.000Z</time>
      </trkpt>
      <trkpt lat="47.0136" lon="-1.76681">
        <ele>67</ele>
        <time>2021-06-02T16:34:43.000Z</time>
      </trkpt>
      <trkpt lat="47.01365" lon="-1.76664">
        <ele>67</ele>
        <time>2021-06-02T16:34:45.000Z</time>
      </trkpt>
      <trkpt lat="47.01369" lon="-1.76645">
        <ele>67</ele>
        <time>2021-06-02T16:34:47.000Z</time>
      </trkpt>
      <trkpt lat="47.01371" lon="-1.76628">
        <ele>67</ele>
        <time>2021-06-02T16:34:49.000Z</time>
      </trkpt>
      <trkpt lat="47.01377" lon="-1.76602">
        <ele>66</ele>
        <time>2021-06-02T16:34:52.000Z</time>
      </trkpt>
      <trkpt lat="47.01378" lon="-1.76583">
        <ele>66</ele>
        <time>2021-06-02T16:34:54.000Z</time>
      </trkpt>
      <trkpt lat="47.01385" lon="-1.76554">
        <ele>66</ele>
        <time>2021-06-02T16:34:57.000Z</time>
      </trkpt>
      <trkpt lat="47.01389" lon="-1.76534">
        <ele>67</ele>
        <time>2021-06-02T16:34:59.000Z</time>
      </trkpt>
      <trkpt lat="47.01396" lon="-1.76517">
        <ele>66</ele>
        <time>2021-06-02T16:35:01.000Z</time>
      </trkpt>
      <trkpt lat="47.01402" lon="-1.765">
        <ele>67</ele>
        <time>2021-06-02T16:35:03.000Z</time>
      </trkpt>
      <trkpt lat="47.01407" lon="-1.76482">
        <ele>66</ele>
        <time>2021-06-02T16:35:05.000Z</time>
      </trkpt>
      <trkpt lat="47.01418" lon="-1.76452">
        <ele>66</ele>
        <time>2021-06-02T16:35:08.000Z</time>
      </trkpt>
      <trkpt lat="47.01424" lon="-1.76435">
        <ele>64</ele>
        <time>2021-06-02T16:35:10.000Z</time>
      </trkpt>
      <trkpt lat="47.01433" lon="-1.76419">
        <ele>64</ele>
        <time>2021-06-02T16:35:12.000Z</time>
      </trkpt>
      <trkpt lat="47.0144" lon="-1.76402">
        <ele>66</ele>
        <time>2021-06-02T16:35:14.000Z</time>
      </trkpt>
      <trkpt lat="47.01448" lon="-1.76385">
        <ele>65</ele>
        <time>2021-06-02T16:35:16.000Z</time>
      </trkpt>
      <trkpt lat="47.01456" lon="-1.76367">
        <ele>66</ele>
        <time>2021-06-02T16:35:18.000Z</time>
      </trkpt>
      <trkpt lat="47.01465" lon="-1.76352">
        <ele>67</ele>
        <time>2021-06-02T16:35:20.000Z</time>
      </trkpt>
      <trkpt lat="47.01472" lon="-1.76334">
        <ele>66</ele>
        <time>2021-06-02T16:35:22.000Z</time>
      </trkpt>
      <trkpt lat="47.01477" lon="-1.76314">
        <ele>65</ele>
        <time>2021-06-02T16:35:24.000Z</time>
      </trkpt>
      <trkpt lat="47.01475" lon="-1.76292">
        <ele>64</ele>
        <time>2021-06-02T16:35:26.000Z</time>
      </trkpt>
      <trkpt lat="47.01467" lon="-1.76273">
        <ele>63</ele>
        <time>2021-06-02T16:35:28.000Z</time>
      </trkpt>
      <trkpt lat="47.0146" lon="-1.76254">
        <ele>63</ele>
        <time>2021-06-02T16:35:30.000Z</time>
      </trkpt>
      <trkpt lat="47.01452" lon="-1.76235">
        <ele>63</ele>
        <time>2021-06-02T16:35:32.000Z</time>
      </trkpt>
      <trkpt lat="47.01446" lon="-1.76216">
        <ele>62</ele>
        <time>2021-06-02T16:35:34.000Z</time>
      </trkpt>
      <trkpt lat="47.0144" lon="-1.76198">
        <ele>61</ele>
        <time>2021-06-02T16:35:36.000Z</time>
      </trkpt>
      <trkpt lat="47.01431" lon="-1.76178">
        <ele>62</ele>
        <time>2021-06-02T16:35:38.000Z</time>
      </trkpt>
      <trkpt lat="47.01419" lon="-1.76149">
        <ele>62</ele>
        <time>2021-06-02T16:35:41.000Z</time>
      </trkpt>
      <trkpt lat="47.01412" lon="-1.7613">
        <ele>63</ele>
        <time>2021-06-02T16:35:43.000Z</time>
      </trkpt>
      <trkpt lat="47.01401" lon="-1.76115">
        <ele>60</ele>
        <time>2021-06-02T16:35:45.000Z</time>
      </trkpt>
      <trkpt lat="47.01393" lon="-1.76097">
        <ele>61</ele>
        <time>2021-06-02T16:35:47.000Z</time>
      </trkpt>
      <trkpt lat="47.01386" lon="-1.76077">
        <ele>62</ele>
        <time>2021-06-02T16:35:49.000Z</time>
      </trkpt>
      <trkpt lat="47.0138" lon="-1.76057">
        <ele>62</ele>
        <time>2021-06-02T16:35:51.000Z</time>
      </trkpt>
      <trkpt lat="47.01373" lon="-1.76037">
        <ele>62</ele>
        <time>2021-06-02T16:35:53.000Z</time>
      </trkpt>
      <trkpt lat="47.01367" lon="-1.76019">
        <ele>62</ele>
        <time>2021-06-02T16:35:55.000Z</time>
      </trkpt>
      <trkpt lat="47.01361" lon="-1.76002">
        <ele>63</ele>
        <time>2021-06-02T16:35:57.000Z</time>
      </trkpt>
      <trkpt lat="47.01353" lon="-1.75983">
        <ele>63</ele>
        <time>2021-06-02T16:35:59.000Z</time>
      </trkpt>
      <trkpt lat="47.01346" lon="-1.75964">
        <ele>63</ele>
        <time>2021-06-02T16:36:01.000Z</time>
      </trkpt>
      <trkpt lat="47.01339" lon="-1.75947">
        <ele>63</ele>
        <time>2021-06-02T16:36:03.000Z</time>
      </trkpt>
      <trkpt lat="47.0133" lon="-1.75929">
        <ele>64</ele>
        <time>2021-06-02T16:36:05.000Z</time>
      </trkpt>
      <trkpt lat="47.01324" lon="-1.75909">
        <ele>63</ele>
        <time>2021-06-02T16:36:07.000Z</time>
      </trkpt>
      <trkpt lat="47.01316" lon="-1.7589">
        <ele>62</ele>
        <time>2021-06-02T16:36:09.000Z</time>
      </trkpt>
      <trkpt lat="47.01308" lon="-1.7587">
        <ele>62</ele>
        <time>2021-06-02T16:36:11.000Z</time>
      </trkpt>
      <trkpt lat="47.01296" lon="-1.75839">
        <ele>59</ele>
        <time>2021-06-02T16:36:14.000Z</time>
      </trkpt>
      <trkpt lat="47.01283" lon="-1.7581">
        <ele>60</ele>
        <time>2021-06-02T16:36:17.000Z</time>
      </trkpt>
      <trkpt lat="47.01275" lon="-1.75791">
        <ele>58</ele>
        <time>2021-06-02T16:36:19.000Z</time>
      </trkpt>
      <trkpt lat="47.01268" lon="-1.75773">
        <ele>56</ele>
        <time>2021-06-02T16:36:21.000Z</time>
      </trkpt>
      <trkpt lat="47.0126" lon="-1.75756">
        <ele>60</ele>
        <time>2021-06-02T16:36:23.000Z</time>
      </trkpt>
      <trkpt lat="47.01249" lon="-1.75727">
        <ele>59</ele>
        <time>2021-06-02T16:36:26.000Z</time>
      </trkpt>
      <trkpt lat="47.01244" lon="-1.75712">
        <ele>60</ele>
        <time>2021-06-02T16:36:28.000Z</time>
      </trkpt>
      <trkpt lat="47.01239" lon="-1.75695">
        <ele>60</ele>
        <time>2021-06-02T16:36:30.000Z</time>
      </trkpt>
      <trkpt lat="47.01231" lon="-1.75677">
        <ele>60</ele>
        <time>2021-06-02T16:36:32.000Z</time>
      </trkpt>
      <trkpt lat="47.01223" lon="-1.75659">
        <ele>62</ele>
        <time>2021-06-02T16:36:34.000Z</time>
      </trkpt>
      <trkpt lat="47.01216" lon="-1.75641">
        <ele>63</ele>
        <time>2021-06-02T16:36:36.000Z</time>
      </trkpt>
      <trkpt lat="47.01209" lon="-1.75624">
        <ele>64</ele>
        <time>2021-06-02T16:36:38.000Z</time>
      </trkpt>
      <trkpt lat="47.01202" lon="-1.75605">
        <ele>64</ele>
        <time>2021-06-02T16:36:40.000Z</time>
      </trkpt>
      <trkpt lat="47.01195" lon="-1.75588">
        <ele>63</ele>
        <time>2021-06-02T16:36:42.000Z</time>
      </trkpt>
      <trkpt lat="47.01188" lon="-1.75572">
        <ele>64</ele>
        <time>2021-06-02T16:36:44.000Z</time>
      </trkpt>
      <trkpt lat="47.01181" lon="-1.75555">
        <ele>63</ele>
        <time>2021-06-02T16:36:46.000Z</time>
      </trkpt>
      <trkpt lat="47.01175" lon="-1.75537">
        <ele>63</ele>
        <time>2021-06-02T16:36:48.000Z</time>
      </trkpt>
      <trkpt lat="47.01168" lon="-1.75519">
        <ele>63</ele>
        <time>2021-06-02T16:36:50.000Z</time>
      </trkpt>
      <trkpt lat="47.01161" lon="-1.755">
        <ele>63</ele>
        <time>2021-06-02T16:36:52.000Z</time>
      </trkpt>
      <trkpt lat="47.01155" lon="-1.75482">
        <ele>64</ele>
        <time>2021-06-02T16:36:54.000Z</time>
      </trkpt>
      <trkpt lat="47.01148" lon="-1.75465">
        <ele>64</ele>
        <time>2021-06-02T16:36:56.000Z</time>
      </trkpt>
      <trkpt lat="47.01142" lon="-1.75448">
        <ele>64</ele>
        <time>2021-06-02T16:36:58.000Z</time>
      </trkpt>
      <trkpt lat="47.01135" lon="-1.75432">
        <ele>64</ele>
        <time>2021-06-02T16:37:00.000Z</time>
      </trkpt>
      <trkpt lat="47.01129" lon="-1.75416">
        <ele>62</ele>
        <time>2021-06-02T16:37:02.000Z</time>
      </trkpt>
      <trkpt lat="47.01123" lon="-1.754">
        <ele>64</ele>
        <time>2021-06-02T16:37:04.000Z</time>
      </trkpt>
      <trkpt lat="47.01117" lon="-1.75384">
        <ele>64</ele>
        <time>2021-06-02T16:37:06.000Z</time>
      </trkpt>
      <trkpt lat="47.01111" lon="-1.75369">
        <ele>63</ele>
        <time>2021-06-02T16:37:08.000Z</time>
      </trkpt>
      <trkpt lat="47.01102" lon="-1.75352">
        <ele>65</ele>
        <time>2021-06-02T16:37:10.000Z</time>
      </trkpt>
      <trkpt lat="47.01094" lon="-1.75338">
        <ele>67</ele>
        <time>2021-06-02T16:37:12.000Z</time>
      </trkpt>
      <trkpt lat="47.01087" lon="-1.75321">
        <ele>68</ele>
        <time>2021-06-02T16:37:14.000Z</time>
      </trkpt>
      <trkpt lat="47.0108" lon="-1.75303">
        <ele>66</ele>
        <time>2021-06-02T16:37:16.000Z</time>
      </trkpt>
      <trkpt lat="47.01072" lon="-1.75288">
        <ele>65</ele>
        <time>2021-06-02T16:37:18.000Z</time>
      </trkpt>
      <trkpt lat="47.01066" lon="-1.75268">
        <ele>66</ele>
        <time>2021-06-02T16:37:20.000Z</time>
      </trkpt>
      <trkpt lat="47.01061" lon="-1.75249">
        <ele>66</ele>
        <time>2021-06-02T16:37:22.000Z</time>
      </trkpt>
      <trkpt lat="47.01055" lon="-1.75232">
        <ele>67</ele>
        <time>2021-06-02T16:37:24.000Z</time>
      </trkpt>
      <trkpt lat="47.01051" lon="-1.75214">
        <ele>67</ele>
        <time>2021-06-02T16:37:26.000Z</time>
      </trkpt>
      <trkpt lat="47.01049" lon="-1.75198">
        <ele>64</ele>
        <time>2021-06-02T16:37:28.000Z</time>
      </trkpt>
      <trkpt lat="47.01047" lon="-1.75176">
        <ele>65</ele>
        <time>2021-06-02T16:37:30.000Z</time>
      </trkpt>
      <trkpt lat="47.01046" lon="-1.75156">
        <ele>65</ele>
        <time>2021-06-02T16:37:32.000Z</time>
      </trkpt>
      <trkpt lat="47.01045" lon="-1.75137">
        <ele>65</ele>
        <time>2021-06-02T16:37:34.000Z</time>
      </trkpt>
      <trkpt lat="47.01042" lon="-1.75108">
        <ele>65</ele>
        <time>2021-06-02T16:37:37.000Z</time>
      </trkpt>
      <trkpt lat="47.01042" lon="-1.75091">
        <ele>64</ele>
        <time>2021-06-02T16:37:39.000Z</time>
      </trkpt>
      <trkpt lat="47.01042" lon="-1.75071">
        <ele>64</ele>
        <time>2021-06-02T16:37:41.000Z</time>
      </trkpt>
      <trkpt lat="47.01042" lon="-1.75052">
        <ele>64</ele>
        <time>2021-06-02T16:37:43.000Z</time>
      </trkpt>
      <trkpt lat="47.01042" lon="-1.75034">
        <ele>65</ele>
        <time>2021-06-02T16:37:45.000Z</time>
      </trkpt>
      <trkpt lat="47.01041" lon="-1.74994">
        <ele>63</ele>
        <time>2021-06-02T16:37:49.000Z</time>
      </trkpt>
      <trkpt lat="47.0104" lon="-1.74974">
        <ele>63</ele>
        <time>2021-06-02T16:37:51.000Z</time>
      </trkpt>
      <trkpt lat="47.01041" lon="-1.74954">
        <ele>63</ele>
        <time>2021-06-02T16:37:53.000Z</time>
      </trkpt>
      <trkpt lat="47.0104" lon="-1.74935">
        <ele>63</ele>
        <time>2021-06-02T16:37:55.000Z</time>
      </trkpt>
      <trkpt lat="47.0104" lon="-1.74917">
        <ele>60</ele>
        <time>2021-06-02T16:37:57.000Z</time>
      </trkpt>
      <trkpt lat="47.0104" lon="-1.74897">
        <ele>61</ele>
        <time>2021-06-02T16:37:59.000Z</time>
      </trkpt>
      <trkpt lat="47.0104" lon="-1.74877">
        <ele>61</ele>
        <time>2021-06-02T16:38:01.000Z</time>
      </trkpt>
      <trkpt lat="47.01039" lon="-1.74858">
        <ele>61</ele>
        <time>2021-06-02T16:38:03.000Z</time>
      </trkpt>
      <trkpt lat="47.01036" lon="-1.74829">
        <ele>61</ele>
        <time>2021-06-02T16:38:06.000Z</time>
      </trkpt>
      <trkpt lat="47.01035" lon="-1.74815">
        <ele>64</ele>
        <time>2021-06-02T16:38:08.000Z</time>
      </trkpt>
      <trkpt lat="47.01035" lon="-1.74795">
        <ele>68</ele>
        <time>2021-06-02T16:38:10.000Z</time>
      </trkpt>
      <trkpt lat="47.01036" lon="-1.74774">
        <ele>70</ele>
        <time>2021-06-02T16:38:12.000Z</time>
      </trkpt>
      <trkpt lat="47.01034" lon="-1.74755">
        <ele>70</ele>
        <time>2021-06-02T16:38:14.000Z</time>
      </trkpt>
      <trkpt lat="47.0103" lon="-1.74737">
        <ele>70</ele>
        <time>2021-06-02T16:38:16.000Z</time>
      </trkpt>
      <trkpt lat="47.01033" lon="-1.74704">
        <ele>70</ele>
        <time>2021-06-02T16:38:19.000Z</time>
      </trkpt>
      <trkpt lat="47.01034" lon="-1.74673">
        <ele>70</ele>
        <time>2021-06-02T16:38:22.000Z</time>
      </trkpt>
      <trkpt lat="47.01035" lon="-1.74652">
        <ele>69</ele>
        <time>2021-06-02T16:38:24.000Z</time>
      </trkpt>
      <trkpt lat="47.01035" lon="-1.74631">
        <ele>68</ele>
        <time>2021-06-02T16:38:26.000Z</time>
      </trkpt>
      <trkpt lat="47.01035" lon="-1.74611">
        <ele>68</ele>
        <time>2021-06-02T16:38:28.000Z</time>
      </trkpt>
      <trkpt lat="47.01035" lon="-1.7459">
        <ele>68</ele>
        <time>2021-06-02T16:38:30.000Z</time>
      </trkpt>
      <trkpt lat="47.01036" lon="-1.74569">
        <ele>68</ele>
        <time>2021-06-02T16:38:32.000Z</time>
      </trkpt>
      <trkpt lat="47.01038" lon="-1.74549">
        <ele>68</ele>
        <time>2021-06-02T16:38:34.000Z</time>
      </trkpt>
      <trkpt lat="47.01043" lon="-1.7453">
        <ele>69</ele>
        <time>2021-06-02T16:38:36.000Z</time>
      </trkpt>
      <trkpt lat="47.0105" lon="-1.74512">
        <ele>63</ele>
        <time>2021-06-02T16:38:38.000Z</time>
      </trkpt>
      <trkpt lat="47.01056" lon="-1.74493">
        <ele>63</ele>
        <time>2021-06-02T16:38:40.000Z</time>
      </trkpt>
      <trkpt lat="47.01069" lon="-1.74457">
        <ele>64</ele>
        <time>2021-06-02T16:38:44.000Z</time>
      </trkpt>
      <trkpt lat="47.01075" lon="-1.74439">
        <ele>62</ele>
        <time>2021-06-02T16:38:46.000Z</time>
      </trkpt>
      <trkpt lat="47.01078" lon="-1.74421">
        <ele>62</ele>
        <time>2021-06-02T16:38:48.000Z</time>
      </trkpt>
      <trkpt lat="47.01084" lon="-1.74401">
        <ele>63</ele>
        <time>2021-06-02T16:38:50.000Z</time>
      </trkpt>
      <trkpt lat="47.01089" lon="-1.74382">
        <ele>63</ele>
        <time>2021-06-02T16:38:52.000Z</time>
      </trkpt>
      <trkpt lat="47.01093" lon="-1.74363">
        <ele>63</ele>
        <time>2021-06-02T16:38:54.000Z</time>
      </trkpt>
      <trkpt lat="47.01098" lon="-1.74344">
        <ele>64</ele>
        <time>2021-06-02T16:38:56.000Z</time>
      </trkpt>
      <trkpt lat="47.01102" lon="-1.74325">
        <ele>64</ele>
        <time>2021-06-02T16:38:58.000Z</time>
      </trkpt>
      <trkpt lat="47.01107" lon="-1.74307">
        <ele>65</ele>
        <time>2021-06-02T16:39:00.000Z</time>
      </trkpt>
      <trkpt lat="47.01112" lon="-1.74288">
        <ele>65</ele>
        <time>2021-06-02T16:39:02.000Z</time>
      </trkpt>
      <trkpt lat="47.01117" lon="-1.74269">
        <ele>65</ele>
        <time>2021-06-02T16:39:04.000Z</time>
      </trkpt>
      <trkpt lat="47.01122" lon="-1.74251">
        <ele>65</ele>
        <time>2021-06-02T16:39:06.000Z</time>
      </trkpt>
      <trkpt lat="47.01127" lon="-1.74232">
        <ele>65</ele>
        <time>2021-06-02T16:39:08.000Z</time>
      </trkpt>
      <trkpt lat="47.01134" lon="-1.74205">
        <ele>66</ele>
        <time>2021-06-02T16:39:11.000Z</time>
      </trkpt>
      <trkpt lat="47.01138" lon="-1.74187">
        <ele>67</ele>
        <time>2021-06-02T16:39:13.000Z</time>
      </trkpt>
      <trkpt lat="47.01143" lon="-1.74169">
        <ele>68</ele>
        <time>2021-06-02T16:39:15.000Z</time>
      </trkpt>
      <trkpt lat="47.01148" lon="-1.74149">
        <ele>68</ele>
        <time>2021-06-02T16:39:17.000Z</time>
      </trkpt>
      <trkpt lat="47.01152" lon="-1.7413">
        <ele>68</ele>
        <time>2021-06-02T16:39:19.000Z</time>
      </trkpt>
      <trkpt lat="47.01156" lon="-1.74112">
        <ele>68</ele>
        <time>2021-06-02T16:39:21.000Z</time>
      </trkpt>
      <trkpt lat="47.01162" lon="-1.74089">
        <ele>68</ele>
        <time>2021-06-02T16:39:24.000Z</time>
      </trkpt>
      <trkpt lat="47.01166" lon="-1.74071">
        <ele>69</ele>
        <time>2021-06-02T16:39:26.000Z</time>
      </trkpt>
      <trkpt lat="47.01171" lon="-1.74053">
        <ele>70</ele>
        <time>2021-06-02T16:39:28.000Z</time>
      </trkpt>
      <trkpt lat="47.01175" lon="-1.74035">
        <ele>70</ele>
        <time>2021-06-02T16:39:30.000Z</time>
      </trkpt>
      <trkpt lat="47.0118" lon="-1.74013">
        <ele>69</ele>
        <time>2021-06-02T16:39:33.000Z</time>
      </trkpt>
      <trkpt lat="47.01182" lon="-1.74">
        <ele>70</ele>
        <time>2021-06-02T16:39:35.000Z</time>
      </trkpt>
      <trkpt lat="47.01186" lon="-1.73978">
        <ele>72</ele>
        <time>2021-06-02T16:39:37.000Z</time>
      </trkpt>
      <trkpt lat="47.01189" lon="-1.73965">
        <ele>72</ele>
        <time>2021-06-02T16:39:38.000Z</time>
      </trkpt>
      <trkpt lat="47.01195" lon="-1.73942">
        <ele>71</ele>
        <time>2021-06-02T16:39:40.000Z</time>
      </trkpt>
      <trkpt lat="47.012" lon="-1.73921">
        <ele>71</ele>
        <time>2021-06-02T16:39:42.000Z</time>
      </trkpt>
      <trkpt lat="47.01203" lon="-1.73902">
        <ele>71</ele>
        <time>2021-06-02T16:39:44.000Z</time>
      </trkpt>
      <trkpt lat="47.01205" lon="-1.73882">
        <ele>70</ele>
        <time>2021-06-02T16:39:46.000Z</time>
      </trkpt>
      <trkpt lat="47.01204" lon="-1.73865">
        <ele>69</ele>
        <time>2021-06-02T16:39:48.000Z</time>
      </trkpt>
      <trkpt lat="47.01206" lon="-1.73844">
        <ele>69</ele>
        <time>2021-06-02T16:39:50.000Z</time>
      </trkpt>
      <trkpt lat="47.01207" lon="-1.73822">
        <ele>68</ele>
        <time>2021-06-02T16:39:52.000Z</time>
      </trkpt>
      <trkpt lat="47.01209" lon="-1.73801">
        <ele>67</ele>
        <time>2021-06-02T16:39:54.000Z</time>
      </trkpt>
      <trkpt lat="47.01209" lon="-1.73783">
        <ele>65</ele>
        <time>2021-06-02T16:39:56.000Z</time>
      </trkpt>
      <trkpt lat="47.01209" lon="-1.73763">
        <ele>66</ele>
        <time>2021-06-02T16:39:58.000Z</time>
      </trkpt>
      <trkpt lat="47.01211" lon="-1.73741">
        <ele>67</ele>
        <time>2021-06-02T16:40:00.000Z</time>
      </trkpt>
      <trkpt lat="47.01213" lon="-1.73712">
        <ele>67</ele>
        <time>2021-06-02T16:40:03.000Z</time>
      </trkpt>
      <trkpt lat="47.01214" lon="-1.73691">
        <ele>66</ele>
        <time>2021-06-02T16:40:05.000Z</time>
      </trkpt>
      <trkpt lat="47.01215" lon="-1.73674">
        <ele>66</ele>
        <time>2021-06-02T16:40:07.000Z</time>
      </trkpt>
      <trkpt lat="47.01216" lon="-1.73647">
        <ele>67</ele>
        <time>2021-06-02T16:40:10.000Z</time>
      </trkpt>
      <trkpt lat="47.01215" lon="-1.73627">
        <ele>64</ele>
        <time>2021-06-02T16:40:12.000Z</time>
      </trkpt>
      <trkpt lat="47.01216" lon="-1.7361">
        <ele>64</ele>
        <time>2021-06-02T16:40:14.000Z</time>
      </trkpt>
      <trkpt lat="47.01217" lon="-1.73592">
        <ele>65</ele>
        <time>2021-06-02T16:40:16.000Z</time>
      </trkpt>
      <trkpt lat="47.01219" lon="-1.73562">
        <ele>67</ele>
        <time>2021-06-02T16:40:19.000Z</time>
      </trkpt>
      <trkpt lat="47.01217" lon="-1.73544">
        <ele>67</ele>
        <time>2021-06-02T16:40:21.000Z</time>
      </trkpt>
      <trkpt lat="47.01218" lon="-1.73528">
        <ele>69</ele>
        <time>2021-06-02T16:40:23.000Z</time>
      </trkpt>
      <trkpt lat="47.0122" lon="-1.73511">
        <ele>70</ele>
        <time>2021-06-02T16:40:25.000Z</time>
      </trkpt>
      <trkpt lat="47.01221" lon="-1.73497">
        <ele>70</ele>
        <time>2021-06-02T16:40:27.000Z</time>
      </trkpt>
      <trkpt lat="47.01213" lon="-1.73484">
        <ele>70</ele>
        <time>2021-06-02T16:40:30.000Z</time>
      </trkpt>
      <trkpt lat="47.01195" lon="-1.7348">
        <ele>69</ele>
        <time>2021-06-02T16:40:33.000Z</time>
      </trkpt>
      <trkpt lat="47.01183" lon="-1.73476">
        <ele>70</ele>
        <time>2021-06-02T16:40:35.000Z</time>
      </trkpt>
      <trkpt lat="47.0117" lon="-1.73473">
        <ele>70</ele>
        <time>2021-06-02T16:40:37.000Z</time>
      </trkpt>
      <trkpt lat="47.01158" lon="-1.73469">
        <ele>70</ele>
        <time>2021-06-02T16:40:39.000Z</time>
      </trkpt>
      <trkpt lat="47.01145" lon="-1.73466">
        <ele>70</ele>
        <time>2021-06-02T16:40:41.000Z</time>
      </trkpt>
      <trkpt lat="47.01132" lon="-1.73462">
        <ele>68</ele>
        <time>2021-06-02T16:40:43.000Z</time>
      </trkpt>
      <trkpt lat="47.01119" lon="-1.73458">
        <ele>67</ele>
        <time>2021-06-02T16:40:45.000Z</time>
      </trkpt>
      <trkpt lat="47.01108" lon="-1.73454">
        <ele>67</ele>
        <time>2021-06-02T16:40:47.000Z</time>
      </trkpt>
      <trkpt lat="47.01099" lon="-1.73444">
        <ele>68</ele>
        <time>2021-06-02T16:40:49.000Z</time>
      </trkpt>
      <trkpt lat="47.01102" lon="-1.73426">
        <ele>70</ele>
        <time>2021-06-02T16:40:51.000Z</time>
      </trkpt>
      <trkpt lat="47.0111" lon="-1.7341">
        <ele>69</ele>
        <time>2021-06-02T16:40:53.000Z</time>
      </trkpt>
      <trkpt lat="47.01117" lon="-1.73394">
        <ele>68</ele>
        <time>2021-06-02T16:40:55.000Z</time>
      </trkpt>
      <trkpt lat="47.01122" lon="-1.73378">
        <ele>67</ele>
        <time>2021-06-02T16:40:57.000Z</time>
      </trkpt>
      <trkpt lat="47.01133" lon="-1.73353">
        <ele>65</ele>
        <time>2021-06-02T16:41:00.000Z</time>
      </trkpt>
      <trkpt lat="47.01141" lon="-1.73337">
        <ele>65</ele>
        <time>2021-06-02T16:41:02.000Z</time>
      </trkpt>
      <trkpt lat="47.01149" lon="-1.73319">
        <ele>66</ele>
        <time>2021-06-02T16:41:04.000Z</time>
      </trkpt>
      <trkpt lat="47.01155" lon="-1.73302">
        <ele>68</ele>
        <time>2021-06-02T16:41:06.000Z</time>
      </trkpt>
      <trkpt lat="47.01162" lon="-1.73286">
        <ele>69</ele>
        <time>2021-06-02T16:41:08.000Z</time>
      </trkpt>
      <trkpt lat="47.01169" lon="-1.73271">
        <ele>69</ele>
        <time>2021-06-02T16:41:10.000Z</time>
      </trkpt>
      <trkpt lat="47.01176" lon="-1.73257">
        <ele>69</ele>
        <time>2021-06-02T16:41:12.000Z</time>
      </trkpt>
      <trkpt lat="47.01183" lon="-1.73242">
        <ele>70</ele>
        <time>2021-06-02T16:41:14.000Z</time>
      </trkpt>
      <trkpt lat="47.01192" lon="-1.73225">
        <ele>70</ele>
        <time>2021-06-02T16:41:16.000Z</time>
      </trkpt>
      <trkpt lat="47.01199" lon="-1.73208">
        <ele>70</ele>
        <time>2021-06-02T16:41:18.000Z</time>
      </trkpt>
      <trkpt lat="47.01205" lon="-1.73192">
        <ele>70</ele>
        <time>2021-06-02T16:41:20.000Z</time>
      </trkpt>
      <trkpt lat="47.01213" lon="-1.73174">
        <ele>70</ele>
        <time>2021-06-02T16:41:22.000Z</time>
      </trkpt>
      <trkpt lat="47.0122" lon="-1.73157">
        <ele>69</ele>
        <time>2021-06-02T16:41:24.000Z</time>
      </trkpt>
      <trkpt lat="47.01231" lon="-1.73132">
        <ele>69</ele>
        <time>2021-06-02T16:41:27.000Z</time>
      </trkpt>
      <trkpt lat="47.01238" lon="-1.73116">
        <ele>70</ele>
        <time>2021-06-02T16:41:29.000Z</time>
      </trkpt>
      <trkpt lat="47.01245" lon="-1.73099">
        <ele>70</ele>
        <time>2021-06-02T16:41:31.000Z</time>
      </trkpt>
      <trkpt lat="47.01252" lon="-1.73082">
        <ele>70</ele>
        <time>2021-06-02T16:41:33.000Z</time>
      </trkpt>
      <trkpt lat="47.01259" lon="-1.73064">
        <ele>70</ele>
        <time>2021-06-02T16:41:35.000Z</time>
      </trkpt>
      <trkpt lat="47.01267" lon="-1.73047">
        <ele>70</ele>
        <time>2021-06-02T16:41:37.000Z</time>
      </trkpt>
      <trkpt lat="47.01275" lon="-1.7303">
        <ele>70</ele>
        <time>2021-06-02T16:41:39.000Z</time>
      </trkpt>
      <trkpt lat="47.01282" lon="-1.73012">
        <ele>69</ele>
        <time>2021-06-02T16:41:41.000Z</time>
      </trkpt>
      <trkpt lat="47.01289" lon="-1.72997">
        <ele>68</ele>
        <time>2021-06-02T16:41:43.000Z</time>
      </trkpt>
      <trkpt lat="47.01297" lon="-1.7298">
        <ele>68</ele>
        <time>2021-06-02T16:41:45.000Z</time>
      </trkpt>
      <trkpt lat="47.01305" lon="-1.72961">
        <ele>67</ele>
        <time>2021-06-02T16:41:47.000Z</time>
      </trkpt>
      <trkpt lat="47.01311" lon="-1.72944">
        <ele>65</ele>
        <time>2021-06-02T16:41:49.000Z</time>
      </trkpt>
      <trkpt lat="47.01319" lon="-1.72926">
        <ele>66</ele>
        <time>2021-06-02T16:41:51.000Z</time>
      </trkpt>
      <trkpt lat="47.01328" lon="-1.72907">
        <ele>67</ele>
        <time>2021-06-02T16:41:53.000Z</time>
      </trkpt>
      <trkpt lat="47.01335" lon="-1.7289">
        <ele>68</ele>
        <time>2021-06-02T16:41:55.000Z</time>
      </trkpt>
      <trkpt lat="47.01342" lon="-1.72874">
        <ele>68</ele>
        <time>2021-06-02T16:41:57.000Z</time>
      </trkpt>
      <trkpt lat="47.01351" lon="-1.72858">
        <ele>69</ele>
        <time>2021-06-02T16:41:59.000Z</time>
      </trkpt>
      <trkpt lat="47.01358" lon="-1.72842">
        <ele>69</ele>
        <time>2021-06-02T16:42:01.000Z</time>
      </trkpt>
      <trkpt lat="47.01366" lon="-1.72824">
        <ele>69</ele>
        <time>2021-06-02T16:42:03.000Z</time>
      </trkpt>
      <trkpt lat="47.01373" lon="-1.72807">
        <ele>69</ele>
        <time>2021-06-02T16:42:05.000Z</time>
      </trkpt>
      <trkpt lat="47.01381" lon="-1.7279">
        <ele>71</ele>
        <time>2021-06-02T16:42:07.000Z</time>
      </trkpt>
      <trkpt lat="47.01392" lon="-1.72765">
        <ele>71</ele>
        <time>2021-06-02T16:42:10.000Z</time>
      </trkpt>
      <trkpt lat="47.014" lon="-1.72749">
        <ele>70</ele>
        <time>2021-06-02T16:42:12.000Z</time>
      </trkpt>
      <trkpt lat="47.01407" lon="-1.72732">
        <ele>68</ele>
        <time>2021-06-02T16:42:14.000Z</time>
      </trkpt>
      <trkpt lat="47.01414" lon="-1.72711">
        <ele>70</ele>
        <time>2021-06-02T16:42:16.000Z</time>
      </trkpt>
      <trkpt lat="47.01425" lon="-1.72688">
        <ele>71</ele>
        <time>2021-06-02T16:42:19.000Z</time>
      </trkpt>
      <trkpt lat="47.0143" lon="-1.72675">
        <ele>70</ele>
        <time>2021-06-02T16:42:21.000Z</time>
      </trkpt>
      <trkpt lat="47.01435" lon="-1.72661">
        <ele>71</ele>
        <time>2021-06-02T16:42:23.000Z</time>
      </trkpt>
      <trkpt lat="47.01444" lon="-1.72642">
        <ele>71</ele>
        <time>2021-06-02T16:42:25.000Z</time>
      </trkpt>
      <trkpt lat="47.01452" lon="-1.72625">
        <ele>72</ele>
        <time>2021-06-02T16:42:27.000Z</time>
      </trkpt>
      <trkpt lat="47.0146" lon="-1.72609">
        <ele>72</ele>
        <time>2021-06-02T16:42:29.000Z</time>
      </trkpt>
      <trkpt lat="47.01468" lon="-1.72592">
        <ele>74</ele>
        <time>2021-06-02T16:42:31.000Z</time>
      </trkpt>
      <trkpt lat="47.01475" lon="-1.72576">
        <ele>74</ele>
        <time>2021-06-02T16:42:33.000Z</time>
      </trkpt>
      <trkpt lat="47.01482" lon="-1.72562">
        <ele>73</ele>
        <time>2021-06-02T16:42:35.000Z</time>
      </trkpt>
      <trkpt lat="47.01488" lon="-1.72549">
        <ele>73</ele>
        <time>2021-06-02T16:42:37.000Z</time>
      </trkpt>
      <trkpt lat="47.01495" lon="-1.72533">
        <ele>74</ele>
        <time>2021-06-02T16:42:39.000Z</time>
      </trkpt>
      <trkpt lat="47.01504" lon="-1.72513">
        <ele>75</ele>
        <time>2021-06-02T16:42:41.000Z</time>
      </trkpt>
      <trkpt lat="47.01512" lon="-1.72494">
        <ele>75</ele>
        <time>2021-06-02T16:42:43.000Z</time>
      </trkpt>
      <trkpt lat="47.01518" lon="-1.72478">
        <ele>72</ele>
        <time>2021-06-02T16:42:45.000Z</time>
      </trkpt>
      <trkpt lat="47.01526" lon="-1.72461">
        <ele>73</ele>
        <time>2021-06-02T16:42:47.000Z</time>
      </trkpt>
      <trkpt lat="47.01537" lon="-1.72434">
        <ele>74</ele>
        <time>2021-06-02T16:42:50.000Z</time>
      </trkpt>
      <trkpt lat="47.01544" lon="-1.72415">
        <ele>70</ele>
        <time>2021-06-02T16:42:52.000Z</time>
      </trkpt>
      <trkpt lat="47.01551" lon="-1.72402">
        <ele>71</ele>
        <time>2021-06-02T16:42:54.000Z</time>
      </trkpt>
      <trkpt lat="47.01559" lon="-1.72386">
        <ele>73</ele>
        <time>2021-06-02T16:42:56.000Z</time>
      </trkpt>
      <trkpt lat="47.01569" lon="-1.7236">
        <ele>74</ele>
        <time>2021-06-02T16:42:59.000Z</time>
      </trkpt>
      <trkpt lat="47.01573" lon="-1.72343">
        <ele>70</ele>
        <time>2021-06-02T16:43:01.000Z</time>
      </trkpt>
      <trkpt lat="47.01582" lon="-1.72325">
        <ele>71</ele>
        <time>2021-06-02T16:43:03.000Z</time>
      </trkpt>
      <trkpt lat="47.0159" lon="-1.72308">
        <ele>72</ele>
        <time>2021-06-02T16:43:05.000Z</time>
      </trkpt>
      <trkpt lat="47.01599" lon="-1.72286">
        <ele>70</ele>
        <time>2021-06-02T16:43:08.000Z</time>
      </trkpt>
      <trkpt lat="47.01603" lon="-1.72271">
        <ele>72</ele>
        <time>2021-06-02T16:43:10.000Z</time>
      </trkpt>
      <trkpt lat="47.01612" lon="-1.72251">
        <ele>74</ele>
        <time>2021-06-02T16:43:12.000Z</time>
      </trkpt>
      <trkpt lat="47.01619" lon="-1.72233">
        <ele>75</ele>
        <time>2021-06-02T16:43:14.000Z</time>
      </trkpt>
      <trkpt lat="47.01625" lon="-1.72215">
        <ele>76</ele>
        <time>2021-06-02T16:43:16.000Z</time>
      </trkpt>
      <trkpt lat="47.01631" lon="-1.72197">
        <ele>76</ele>
        <time>2021-06-02T16:43:18.000Z</time>
      </trkpt>
      <trkpt lat="47.0164" lon="-1.72181">
        <ele>75</ele>
        <time>2021-06-02T16:43:20.000Z</time>
      </trkpt>
      <trkpt lat="47.01647" lon="-1.72167">
        <ele>75</ele>
        <time>2021-06-02T16:43:22.000Z</time>
      </trkpt>
      <trkpt lat="47.01655" lon="-1.72137">
        <ele>76</ele>
        <time>2021-06-02T16:43:25.000Z</time>
      </trkpt>
      <trkpt lat="47.01661" lon="-1.72118">
        <ele>75</ele>
        <time>2021-06-02T16:43:27.000Z</time>
      </trkpt>
      <trkpt lat="47.01667" lon="-1.72099">
        <ele>76</ele>
        <time>2021-06-02T16:43:29.000Z</time>
      </trkpt>
      <trkpt lat="47.01673" lon="-1.72081">
        <ele>77</ele>
        <time>2021-06-02T16:43:31.000Z</time>
      </trkpt>
      <trkpt lat="47.0168" lon="-1.72054">
        <ele>76</ele>
        <time>2021-06-02T16:43:34.000Z</time>
      </trkpt>
      <trkpt lat="47.01686" lon="-1.72035">
        <ele>77</ele>
        <time>2021-06-02T16:43:36.000Z</time>
      </trkpt>
      <trkpt lat="47.01691" lon="-1.72019">
        <ele>77</ele>
        <time>2021-06-02T16:43:38.000Z</time>
      </trkpt>
      <trkpt lat="47.01696" lon="-1.72005">
        <ele>74</ele>
        <time>2021-06-02T16:43:40.000Z</time>
      </trkpt>
      <trkpt lat="47.01701" lon="-1.71988">
        <ele>76</ele>
        <time>2021-06-02T16:43:42.000Z</time>
      </trkpt>
      <trkpt lat="47.01708" lon="-1.7197">
        <ele>79</ele>
        <time>2021-06-02T16:43:44.000Z</time>
      </trkpt>
      <trkpt lat="47.01714" lon="-1.71951">
        <ele>79</ele>
        <time>2021-06-02T16:43:46.000Z</time>
      </trkpt>
      <trkpt lat="47.0172" lon="-1.71934">
        <ele>79</ele>
        <time>2021-06-02T16:43:48.000Z</time>
      </trkpt>
      <trkpt lat="47.01727" lon="-1.71919">
        <ele>78</ele>
        <time>2021-06-02T16:43:50.000Z</time>
      </trkpt>
      <trkpt lat="47.01734" lon="-1.719">
        <ele>80</ele>
        <time>2021-06-02T16:43:52.000Z</time>
      </trkpt>
      <trkpt lat="47.01741" lon="-1.71879">
        <ele>80</ele>
        <time>2021-06-02T16:43:54.000Z</time>
      </trkpt>
      <trkpt lat="47.01747" lon="-1.71861">
        <ele>80</ele>
        <time>2021-06-02T16:43:56.000Z</time>
      </trkpt>
      <trkpt lat="47.01754" lon="-1.71843">
        <ele>79</ele>
        <time>2021-06-02T16:43:58.000Z</time>
      </trkpt>
      <trkpt lat="47.01759" lon="-1.71826">
        <ele>80</ele>
        <time>2021-06-02T16:44:00.000Z</time>
      </trkpt>
      <trkpt lat="47.01764" lon="-1.71808">
        <ele>80</ele>
        <time>2021-06-02T16:44:02.000Z</time>
      </trkpt>
      <trkpt lat="47.01773" lon="-1.71781">
        <ele>80</ele>
        <time>2021-06-02T16:44:05.000Z</time>
      </trkpt>
      <trkpt lat="47.0178" lon="-1.71762">
        <ele>78</ele>
        <time>2021-06-02T16:44:07.000Z</time>
      </trkpt>
      <trkpt lat="47.01783" lon="-1.71748">
        <ele>78</ele>
        <time>2021-06-02T16:44:09.000Z</time>
      </trkpt>
      <trkpt lat="47.01788" lon="-1.71733">
        <ele>79</ele>
        <time>2021-06-02T16:44:11.000Z</time>
      </trkpt>
      <trkpt lat="47.01794" lon="-1.71716">
        <ele>80</ele>
        <time>2021-06-02T16:44:13.000Z</time>
      </trkpt>
      <trkpt lat="47.01799" lon="-1.71699">
        <ele>76</ele>
        <time>2021-06-02T16:44:15.000Z</time>
      </trkpt>
      <trkpt lat="47.01806" lon="-1.71675">
        <ele>77</ele>
        <time>2021-06-02T16:44:18.000Z</time>
      </trkpt>
      <trkpt lat="47.01814" lon="-1.71657">
        <ele>78</ele>
        <time>2021-06-02T16:44:20.000Z</time>
      </trkpt>
      <trkpt lat="47.01821" lon="-1.71638">
        <ele>78</ele>
        <time>2021-06-02T16:44:22.000Z</time>
      </trkpt>
      <trkpt lat="47.01828" lon="-1.71618">
        <ele>75</ele>
        <time>2021-06-02T16:44:24.000Z</time>
      </trkpt>
      <trkpt lat="47.01836" lon="-1.71601">
        <ele>76</ele>
        <time>2021-06-02T16:44:26.000Z</time>
      </trkpt>
      <trkpt lat="47.01845" lon="-1.71584">
        <ele>76</ele>
        <time>2021-06-02T16:44:28.000Z</time>
      </trkpt>
      <trkpt lat="47.01854" lon="-1.71569">
        <ele>76</ele>
        <time>2021-06-02T16:44:30.000Z</time>
      </trkpt>
      <trkpt lat="47.01863" lon="-1.71557">
        <ele>76</ele>
        <time>2021-06-02T16:44:32.000Z</time>
      </trkpt>
      <trkpt lat="47.01872" lon="-1.71546">
        <ele>76</ele>
        <time>2021-06-02T16:44:34.000Z</time>
      </trkpt>
      <trkpt lat="47.01881" lon="-1.71531">
        <ele>76</ele>
        <time>2021-06-02T16:44:36.000Z</time>
      </trkpt>
      <trkpt lat="47.0189" lon="-1.71516">
        <ele>77</ele>
        <time>2021-06-02T16:44:38.000Z</time>
      </trkpt>
      <trkpt lat="47.019" lon="-1.71501">
        <ele>78</ele>
        <time>2021-06-02T16:44:40.000Z</time>
      </trkpt>
      <trkpt lat="47.01909" lon="-1.71487">
        <ele>77</ele>
        <time>2021-06-02T16:44:42.000Z</time>
      </trkpt>
      <trkpt lat="47.01923" lon="-1.71467">
        <ele>77</ele>
        <time>2021-06-02T16:44:45.000Z</time>
      </trkpt>
      <trkpt lat="47.01932" lon="-1.71451">
        <ele>77</ele>
        <time>2021-06-02T16:44:47.000Z</time>
      </trkpt>
      <trkpt lat="47.01941" lon="-1.71438">
        <ele>77</ele>
        <time>2021-06-02T16:44:49.000Z</time>
      </trkpt>
      <trkpt lat="47.0195" lon="-1.71424">
        <ele>77</ele>
        <time>2021-06-02T16:44:51.000Z</time>
      </trkpt>
      <trkpt lat="47.0196" lon="-1.71411">
        <ele>77</ele>
        <time>2021-06-02T16:44:53.000Z</time>
      </trkpt>
      <trkpt lat="47.01974" lon="-1.71389">
        <ele>76</ele>
        <time>2021-06-02T16:44:56.000Z</time>
      </trkpt>
      <trkpt lat="47.01984" lon="-1.71374">
        <ele>76</ele>
        <time>2021-06-02T16:44:58.000Z</time>
      </trkpt>
      <trkpt lat="47.01995" lon="-1.71364">
        <ele>76</ele>
        <time>2021-06-02T16:45:00.000Z</time>
      </trkpt>
      <trkpt lat="47.02005" lon="-1.71351">
        <ele>76</ele>
        <time>2021-06-02T16:45:02.000Z</time>
      </trkpt>
      <trkpt lat="47.02018" lon="-1.71337">
        <ele>75</ele>
        <time>2021-06-02T16:45:04.000Z</time>
      </trkpt>
      <trkpt lat="47.02029" lon="-1.71325">
        <ele>77</ele>
        <time>2021-06-02T16:45:06.000Z</time>
      </trkpt>
      <trkpt lat="47.02039" lon="-1.71311">
        <ele>78</ele>
        <time>2021-06-02T16:45:08.000Z</time>
      </trkpt>
      <trkpt lat="47.02048" lon="-1.71296">
        <ele>78</ele>
        <time>2021-06-02T16:45:10.000Z</time>
      </trkpt>
      <trkpt lat="47.02056" lon="-1.71278">
        <ele>78</ele>
        <time>2021-06-02T16:45:12.000Z</time>
      </trkpt>
      <trkpt lat="47.02064" lon="-1.71261">
        <ele>78</ele>
        <time>2021-06-02T16:45:14.000Z</time>
      </trkpt>
      <trkpt lat="47.02072" lon="-1.71244">
        <ele>78</ele>
        <time>2021-06-02T16:45:16.000Z</time>
      </trkpt>
      <trkpt lat="47.02081" lon="-1.71227">
        <ele>78</ele>
        <time>2021-06-02T16:45:18.000Z</time>
      </trkpt>
      <trkpt lat="47.02088" lon="-1.71211">
        <ele>79</ele>
        <time>2021-06-02T16:45:20.000Z</time>
      </trkpt>
      <trkpt lat="47.02101" lon="-1.71185">
        <ele>76</ele>
        <time>2021-06-02T16:45:23.000Z</time>
      </trkpt>
      <trkpt lat="47.02108" lon="-1.71167">
        <ele>77</ele>
        <time>2021-06-02T16:45:25.000Z</time>
      </trkpt>
      <trkpt lat="47.02113" lon="-1.71148">
        <ele>77</ele>
        <time>2021-06-02T16:45:27.000Z</time>
      </trkpt>
      <trkpt lat="47.02119" lon="-1.7113">
        <ele>78</ele>
        <time>2021-06-02T16:45:29.000Z</time>
      </trkpt>
      <trkpt lat="47.02125" lon="-1.71113">
        <ele>78</ele>
        <time>2021-06-02T16:45:31.000Z</time>
      </trkpt>
      <trkpt lat="47.02132" lon="-1.71095">
        <ele>79</ele>
        <time>2021-06-02T16:45:33.000Z</time>
      </trkpt>
      <trkpt lat="47.02139" lon="-1.71078">
        <ele>79</ele>
        <time>2021-06-02T16:45:35.000Z</time>
      </trkpt>
      <trkpt lat="47.02146" lon="-1.71061">
        <ele>79</ele>
        <time>2021-06-02T16:45:37.000Z</time>
      </trkpt>
      <trkpt lat="47.02155" lon="-1.71045">
        <ele>76</ele>
        <time>2021-06-02T16:45:39.000Z</time>
      </trkpt>
      <trkpt lat="47.02162" lon="-1.71031">
        <ele>76</ele>
        <time>2021-06-02T16:45:41.000Z</time>
      </trkpt>
      <trkpt lat="47.0217" lon="-1.71017">
        <ele>77</ele>
        <time>2021-06-02T16:45:43.000Z</time>
      </trkpt>
      <trkpt lat="47.02178" lon="-1.71">
        <ele>77</ele>
        <time>2021-06-02T16:45:45.000Z</time>
      </trkpt>
      <trkpt lat="47.02186" lon="-1.70984">
        <ele>78</ele>
        <time>2021-06-02T16:45:47.000Z</time>
      </trkpt>
      <trkpt lat="47.02195" lon="-1.70968">
        <ele>79</ele>
        <time>2021-06-02T16:45:49.000Z</time>
      </trkpt>
      <trkpt lat="47.02208" lon="-1.70945">
        <ele>78</ele>
        <time>2021-06-02T16:45:52.000Z</time>
      </trkpt>
      <trkpt lat="47.0222" lon="-1.70924">
        <ele>75</ele>
        <time>2021-06-02T16:45:55.000Z</time>
      </trkpt>
      <trkpt lat="47.0223" lon="-1.70909">
        <ele>77</ele>
        <time>2021-06-02T16:45:57.000Z</time>
      </trkpt>
      <trkpt lat="47.02238" lon="-1.70892">
        <ele>76</ele>
        <time>2021-06-02T16:45:59.000Z</time>
      </trkpt>
      <trkpt lat="47.02246" lon="-1.70879">
        <ele>77</ele>
        <time>2021-06-02T16:46:01.000Z</time>
      </trkpt>
      <trkpt lat="47.02257" lon="-1.70864">
        <ele>77</ele>
        <time>2021-06-02T16:46:03.000Z</time>
      </trkpt>
      <trkpt lat="47.02266" lon="-1.70848">
        <ele>77</ele>
        <time>2021-06-02T16:46:05.000Z</time>
      </trkpt>
      <trkpt lat="47.02276" lon="-1.70833">
        <ele>78</ele>
        <time>2021-06-02T16:46:07.000Z</time>
      </trkpt>
      <trkpt lat="47.02286" lon="-1.70819">
        <ele>77</ele>
        <time>2021-06-02T16:46:09.000Z</time>
      </trkpt>
      <trkpt lat="47.02297" lon="-1.70804">
        <ele>76</ele>
        <time>2021-06-02T16:46:11.000Z</time>
      </trkpt>
      <trkpt lat="47.02307" lon="-1.7079">
        <ele>76</ele>
        <time>2021-06-02T16:46:13.000Z</time>
      </trkpt>
      <trkpt lat="47.02317" lon="-1.70775">
        <ele>76</ele>
        <time>2021-06-02T16:46:15.000Z</time>
      </trkpt>
      <trkpt lat="47.02326" lon="-1.7076">
        <ele>76</ele>
        <time>2021-06-02T16:46:17.000Z</time>
      </trkpt>
      <trkpt lat="47.02336" lon="-1.70746">
        <ele>76</ele>
        <time>2021-06-02T16:46:19.000Z</time>
      </trkpt>
      <trkpt lat="47.02345" lon="-1.70731">
        <ele>75</ele>
        <time>2021-06-02T16:46:21.000Z</time>
      </trkpt>
      <trkpt lat="47.02355" lon="-1.70716">
        <ele>75</ele>
        <time>2021-06-02T16:46:23.000Z</time>
      </trkpt>
      <trkpt lat="47.02365" lon="-1.70702">
        <ele>75</ele>
        <time>2021-06-02T16:46:25.000Z</time>
      </trkpt>
      <trkpt lat="47.02374" lon="-1.70687">
        <ele>75</ele>
        <time>2021-06-02T16:46:27.000Z</time>
      </trkpt>
      <trkpt lat="47.02384" lon="-1.70674">
        <ele>72</ele>
        <time>2021-06-02T16:46:29.000Z</time>
      </trkpt>
      <trkpt lat="47.02394" lon="-1.70662">
        <ele>74</ele>
        <time>2021-06-02T16:46:31.000Z</time>
      </trkpt>
      <trkpt lat="47.02403" lon="-1.70647">
        <ele>76</ele>
        <time>2021-06-02T16:46:33.000Z</time>
      </trkpt>
      <trkpt lat="47.02412" lon="-1.70632">
        <ele>77</ele>
        <time>2021-06-02T16:46:35.000Z</time>
      </trkpt>
      <trkpt lat="47.02425" lon="-1.7061">
        <ele>77</ele>
        <time>2021-06-02T16:46:38.000Z</time>
      </trkpt>
      <trkpt lat="47.02434" lon="-1.70596">
        <ele>78</ele>
        <time>2021-06-02T16:46:40.000Z</time>
      </trkpt>
      <trkpt lat="47.02448" lon="-1.70576">
        <ele>77</ele>
        <time>2021-06-02T16:46:43.000Z</time>
      </trkpt>
      <trkpt lat="47.02459" lon="-1.70561">
        <ele>79</ele>
        <time>2021-06-02T16:46:45.000Z</time>
      </trkpt>
      <trkpt lat="47.02476" lon="-1.70541">
        <ele>80</ele>
        <time>2021-06-02T16:46:48.000Z</time>
      </trkpt>
      <trkpt lat="47.02488" lon="-1.7053">
        <ele>81</ele>
        <time>2021-06-02T16:46:50.000Z</time>
      </trkpt>
      <trkpt lat="47.02505" lon="-1.70515">
        <ele>80</ele>
        <time>2021-06-02T16:46:53.000Z</time>
      </trkpt>
      <trkpt lat="47.02515" lon="-1.7051">
        <ele>80</ele>
        <time>2021-06-02T16:46:55.000Z</time>
      </trkpt>
      <trkpt lat="47.02527" lon="-1.70496">
        <ele>79</ele>
        <time>2021-06-02T16:46:57.000Z</time>
      </trkpt>
      <trkpt lat="47.0254" lon="-1.70485">
        <ele>78</ele>
        <time>2021-06-02T16:46:59.000Z</time>
      </trkpt>
      <trkpt lat="47.02551" lon="-1.70475">
        <ele>76</ele>
        <time>2021-06-02T16:47:01.000Z</time>
      </trkpt>
      <trkpt lat="47.02564" lon="-1.70463">
        <ele>75</ele>
        <time>2021-06-02T16:47:03.000Z</time>
      </trkpt>
      <trkpt lat="47.02576" lon="-1.70451">
        <ele>76</ele>
        <time>2021-06-02T16:47:05.000Z</time>
      </trkpt>
      <trkpt lat="47.02588" lon="-1.7044">
        <ele>76</ele>
        <time>2021-06-02T16:47:07.000Z</time>
      </trkpt>
      <trkpt lat="47.026" lon="-1.70429">
        <ele>76</ele>
        <time>2021-06-02T16:47:09.000Z</time>
      </trkpt>
      <trkpt lat="47.02611" lon="-1.70421">
        <ele>76</ele>
        <time>2021-06-02T16:47:11.000Z</time>
      </trkpt>
      <trkpt lat="47.02621" lon="-1.7041">
        <ele>76</ele>
        <time>2021-06-02T16:47:13.000Z</time>
      </trkpt>
      <trkpt lat="47.02631" lon="-1.70398">
        <ele>77</ele>
        <time>2021-06-02T16:47:15.000Z</time>
      </trkpt>
      <trkpt lat="47.0264" lon="-1.70387">
        <ele>76</ele>
        <time>2021-06-02T16:47:17.000Z</time>
      </trkpt>
      <trkpt lat="47.0265" lon="-1.70373">
        <ele>75</ele>
        <time>2021-06-02T16:47:19.000Z</time>
      </trkpt>
      <trkpt lat="47.02658" lon="-1.7036">
        <ele>76</ele>
        <time>2021-06-02T16:47:21.000Z</time>
      </trkpt>
      <trkpt lat="47.02665" lon="-1.70348">
        <ele>76</ele>
        <time>2021-06-02T16:47:23.000Z</time>
      </trkpt>
      <trkpt lat="47.02658" lon="-1.70328">
        <ele>74</ele>
        <time>2021-06-02T16:47:26.000Z</time>
      </trkpt>
      <trkpt lat="47.02644" lon="-1.70319">
        <ele>73</ele>
        <time>2021-06-02T16:47:28.000Z</time>
      </trkpt>
      <trkpt lat="47.02632" lon="-1.70312">
        <ele>74</ele>
        <time>2021-06-02T16:47:30.000Z</time>
      </trkpt>
      <trkpt lat="47.02619" lon="-1.70309">
        <ele>70</ele>
        <time>2021-06-02T16:47:32.000Z</time>
      </trkpt>
      <trkpt lat="47.02607" lon="-1.70299">
        <ele>71</ele>
        <time>2021-06-02T16:47:34.000Z</time>
      </trkpt>
      <trkpt lat="47.02595" lon="-1.70292">
        <ele>72</ele>
        <time>2021-06-02T16:47:36.000Z</time>
      </trkpt>
      <trkpt lat="47.02582" lon="-1.70286">
        <ele>73</ele>
        <time>2021-06-02T16:47:38.000Z</time>
      </trkpt>
      <trkpt lat="47.02567" lon="-1.70281">
        <ele>71</ele>
        <time>2021-06-02T16:47:40.000Z</time>
      </trkpt>
      <trkpt lat="47.02552" lon="-1.7028">
        <ele>71</ele>
        <time>2021-06-02T16:47:42.000Z</time>
      </trkpt>
      <trkpt lat="47.02539" lon="-1.70277">
        <ele>73</ele>
        <time>2021-06-02T16:47:44.000Z</time>
      </trkpt>
      <trkpt lat="47.02519" lon="-1.70269">
        <ele>73</ele>
        <time>2021-06-02T16:47:47.000Z</time>
      </trkpt>
      <trkpt lat="47.02505" lon="-1.70259">
        <ele>73</ele>
        <time>2021-06-02T16:47:49.000Z</time>
      </trkpt>
      <trkpt lat="47.02495" lon="-1.70243">
        <ele>74</ele>
        <time>2021-06-02T16:47:51.000Z</time>
      </trkpt>
      <trkpt lat="47.02487" lon="-1.70227">
        <ele>74</ele>
        <time>2021-06-02T16:47:53.000Z</time>
      </trkpt>
      <trkpt lat="47.02479" lon="-1.70211">
        <ele>74</ele>
        <time>2021-06-02T16:47:55.000Z</time>
      </trkpt>
      <trkpt lat="47.02468" lon="-1.70192">
        <ele>73</ele>
        <time>2021-06-02T16:47:57.000Z</time>
      </trkpt>
      <trkpt lat="47.02462" lon="-1.70175">
        <ele>73</ele>
        <time>2021-06-02T16:47:59.000Z</time>
      </trkpt>
      <trkpt lat="47.02456" lon="-1.70158">
        <ele>74</ele>
        <time>2021-06-02T16:48:01.000Z</time>
      </trkpt>
      <trkpt lat="47.02448" lon="-1.70141">
        <ele>73</ele>
        <time>2021-06-02T16:48:03.000Z</time>
      </trkpt>
      <trkpt lat="47.02437" lon="-1.70118">
        <ele>72</ele>
        <time>2021-06-02T16:48:06.000Z</time>
      </trkpt>
      <trkpt lat="47.02435" lon="-1.70096">
        <ele>73</ele>
        <time>2021-06-02T16:48:08.000Z</time>
      </trkpt>
      <trkpt lat="47.02433" lon="-1.70077">
        <ele>74</ele>
        <time>2021-06-02T16:48:10.000Z</time>
      </trkpt>
      <trkpt lat="47.0243" lon="-1.70056">
        <ele>74</ele>
        <time>2021-06-02T16:48:12.000Z</time>
      </trkpt>
      <trkpt lat="47.02429" lon="-1.70036">
        <ele>75</ele>
        <time>2021-06-02T16:48:14.000Z</time>
      </trkpt>
      <trkpt lat="47.02427" lon="-1.70016">
        <ele>75</ele>
        <time>2021-06-02T16:48:16.000Z</time>
      </trkpt>
      <trkpt lat="47.02425" lon="-1.69998">
        <ele>76</ele>
        <time>2021-06-02T16:48:18.000Z</time>
      </trkpt>
      <trkpt lat="47.02424" lon="-1.69979">
        <ele>73</ele>
        <time>2021-06-02T16:48:20.000Z</time>
      </trkpt>
      <trkpt lat="47.02421" lon="-1.69959">
        <ele>75</ele>
        <time>2021-06-02T16:48:22.000Z</time>
      </trkpt>
      <trkpt lat="47.02419" lon="-1.69941">
        <ele>75</ele>
        <time>2021-06-02T16:48:24.000Z</time>
      </trkpt>
      <trkpt lat="47.02415" lon="-1.69924">
        <ele>75</ele>
        <time>2021-06-02T16:48:26.000Z</time>
      </trkpt>
      <trkpt lat="47.02412" lon="-1.69904">
        <ele>76</ele>
        <time>2021-06-02T16:48:28.000Z</time>
      </trkpt>
      <trkpt lat="47.0241" lon="-1.69883">
        <ele>77</ele>
        <time>2021-06-02T16:48:30.000Z</time>
      </trkpt>
      <trkpt lat="47.02406" lon="-1.69864">
        <ele>76</ele>
        <time>2021-06-02T16:48:32.000Z</time>
      </trkpt>
      <trkpt lat="47.02401" lon="-1.69846">
        <ele>76</ele>
        <time>2021-06-02T16:48:34.000Z</time>
      </trkpt>
      <trkpt lat="47.02392" lon="-1.69832">
        <ele>75</ele>
        <time>2021-06-02T16:48:36.000Z</time>
      </trkpt>
      <trkpt lat="47.02385" lon="-1.69816">
        <ele>75</ele>
        <time>2021-06-02T16:48:38.000Z</time>
      </trkpt>
      <trkpt lat="47.02375" lon="-1.69802">
        <ele>74</ele>
        <time>2021-06-02T16:48:40.000Z</time>
      </trkpt>
      <trkpt lat="47.02367" lon="-1.69785">
        <ele>74</ele>
        <time>2021-06-02T16:48:42.000Z</time>
      </trkpt>
      <trkpt lat="47.02359" lon="-1.6977">
        <ele>74</ele>
        <time>2021-06-02T16:48:44.000Z</time>
      </trkpt>
      <trkpt lat="47.02351" lon="-1.69753">
        <ele>74</ele>
        <time>2021-06-02T16:48:46.000Z</time>
      </trkpt>
      <trkpt lat="47.02342" lon="-1.69737">
        <ele>74</ele>
        <time>2021-06-02T16:48:48.000Z</time>
      </trkpt>
      <trkpt lat="47.02334" lon="-1.69723">
        <ele>75</ele>
        <time>2021-06-02T16:48:50.000Z</time>
      </trkpt>
      <trkpt lat="47.02326" lon="-1.69709">
        <ele>75</ele>
        <time>2021-06-02T16:48:52.000Z</time>
      </trkpt>
      <trkpt lat="47.02317" lon="-1.69694">
        <ele>74</ele>
        <time>2021-06-02T16:48:54.000Z</time>
      </trkpt>
      <trkpt lat="47.02308" lon="-1.69678">
        <ele>74</ele>
        <time>2021-06-02T16:48:56.000Z</time>
      </trkpt>
      <trkpt lat="47.023" lon="-1.69662">
        <ele>75</ele>
        <time>2021-06-02T16:48:58.000Z</time>
      </trkpt>
      <trkpt lat="47.02291" lon="-1.69644">
        <ele>76</ele>
        <time>2021-06-02T16:49:00.000Z</time>
      </trkpt>
      <trkpt lat="47.02281" lon="-1.69628">
        <ele>76</ele>
        <time>2021-06-02T16:49:02.000Z</time>
      </trkpt>
      <trkpt lat="47.02274" lon="-1.69614">
        <ele>76</ele>
        <time>2021-06-02T16:49:04.000Z</time>
      </trkpt>
      <trkpt lat="47.02266" lon="-1.69598">
        <ele>76</ele>
        <time>2021-06-02T16:49:06.000Z</time>
      </trkpt>
      <trkpt lat="47.02258" lon="-1.6958">
        <ele>74</ele>
        <time>2021-06-02T16:49:08.000Z</time>
      </trkpt>
      <trkpt lat="47.02251" lon="-1.69564">
        <ele>76</ele>
        <time>2021-06-02T16:49:10.000Z</time>
      </trkpt>
      <trkpt lat="47.02246" lon="-1.69546">
        <ele>77</ele>
        <time>2021-06-02T16:49:12.000Z</time>
      </trkpt>
      <trkpt lat="47.02237" lon="-1.69519">
        <ele>77</ele>
        <time>2021-06-02T16:49:15.000Z</time>
      </trkpt>
      <trkpt lat="47.0223" lon="-1.69502">
        <ele>77</ele>
        <time>2021-06-02T16:49:17.000Z</time>
      </trkpt>
      <trkpt lat="47.02225" lon="-1.69482">
        <ele>78</ele>
        <time>2021-06-02T16:49:19.000Z</time>
      </trkpt>
      <trkpt lat="47.02222" lon="-1.69464">
        <ele>79</ele>
        <time>2021-06-02T16:49:21.000Z</time>
      </trkpt>
      <trkpt lat="47.02219" lon="-1.69445">
        <ele>78</ele>
        <time>2021-06-02T16:49:23.000Z</time>
      </trkpt>
      <trkpt lat="47.02217" lon="-1.69428">
        <ele>73</ele>
        <time>2021-06-02T16:49:25.000Z</time>
      </trkpt>
      <trkpt lat="47.02214" lon="-1.69398">
        <ele>75</ele>
        <time>2021-06-02T16:49:28.000Z</time>
      </trkpt>
      <trkpt lat="47.02211" lon="-1.69378">
        <ele>75</ele>
        <time>2021-06-02T16:49:30.000Z</time>
      </trkpt>
      <trkpt lat="47.02209" lon="-1.69361">
        <ele>75</ele>
        <time>2021-06-02T16:49:32.000Z</time>
      </trkpt>
      <trkpt lat="47.02208" lon="-1.69339">
        <ele>74</ele>
        <time>2021-06-02T16:49:34.000Z</time>
      </trkpt>
      <trkpt lat="47.02211" lon="-1.69318">
        <ele>74</ele>
        <time>2021-06-02T16:49:36.000Z</time>
      </trkpt>
      <trkpt lat="47.02218" lon="-1.69299">
        <ele>75</ele>
        <time>2021-06-02T16:49:38.000Z</time>
      </trkpt>
      <trkpt lat="47.02222" lon="-1.6927">
        <ele>74</ele>
        <time>2021-06-02T16:49:41.000Z</time>
      </trkpt>
      <trkpt lat="47.02226" lon="-1.6925">
        <ele>75</ele>
        <time>2021-06-02T16:49:43.000Z</time>
      </trkpt>
      <trkpt lat="47.02225" lon="-1.6923">
        <ele>77</ele>
        <time>2021-06-02T16:49:45.000Z</time>
      </trkpt>
      <trkpt lat="47.02222" lon="-1.6921">
        <ele>77</ele>
        <time>2021-06-02T16:49:47.000Z</time>
      </trkpt>
      <trkpt lat="47.02219" lon="-1.69191">
        <ele>78</ele>
        <time>2021-06-02T16:49:49.000Z</time>
      </trkpt>
      <trkpt lat="47.02214" lon="-1.69171">
        <ele>79</ele>
        <time>2021-06-02T16:49:51.000Z</time>
      </trkpt>
      <trkpt lat="47.02209" lon="-1.6915">
        <ele>79</ele>
        <time>2021-06-02T16:49:53.000Z</time>
      </trkpt>
      <trkpt lat="47.02205" lon="-1.69131">
        <ele>80</ele>
        <time>2021-06-02T16:49:55.000Z</time>
      </trkpt>
      <trkpt lat="47.022" lon="-1.69112">
        <ele>79</ele>
        <time>2021-06-02T16:49:57.000Z</time>
      </trkpt>
      <trkpt lat="47.02195" lon="-1.69094">
        <ele>79</ele>
        <time>2021-06-02T16:49:59.000Z</time>
      </trkpt>
      <trkpt lat="47.02189" lon="-1.69074">
        <ele>79</ele>
        <time>2021-06-02T16:50:01.000Z</time>
      </trkpt>
      <trkpt lat="47.02183" lon="-1.69043">
        <ele>80</ele>
        <time>2021-06-02T16:50:04.000Z</time>
      </trkpt>
      <trkpt lat="47.02184" lon="-1.69024">
        <ele>79</ele>
        <time>2021-06-02T16:50:06.000Z</time>
      </trkpt>
      <trkpt lat="47.02184" lon="-1.69003">
        <ele>79</ele>
        <time>2021-06-02T16:50:08.000Z</time>
      </trkpt>
      <trkpt lat="47.02184" lon="-1.68983">
        <ele>79</ele>
        <time>2021-06-02T16:50:10.000Z</time>
      </trkpt>
      <trkpt lat="47.02182" lon="-1.6896">
        <ele>78</ele>
        <time>2021-06-02T16:50:12.000Z</time>
      </trkpt>
      <trkpt lat="47.02185" lon="-1.68941">
        <ele>78</ele>
        <time>2021-06-02T16:50:14.000Z</time>
      </trkpt>
      <trkpt lat="47.02187" lon="-1.68923">
        <ele>79</ele>
        <time>2021-06-02T16:50:16.000Z</time>
      </trkpt>
      <trkpt lat="47.02188" lon="-1.68905">
        <ele>80</ele>
        <time>2021-06-02T16:50:18.000Z</time>
      </trkpt>
      <trkpt lat="47.02189" lon="-1.68886">
        <ele>79</ele>
        <time>2021-06-02T16:50:20.000Z</time>
      </trkpt>
      <trkpt lat="47.0219" lon="-1.6887">
        <ele>79</ele>
        <time>2021-06-02T16:50:22.000Z</time>
      </trkpt>
      <trkpt lat="47.02192" lon="-1.68851">
        <ele>81</ele>
        <time>2021-06-02T16:50:24.000Z</time>
      </trkpt>
      <trkpt lat="47.02194" lon="-1.68833">
        <ele>81</ele>
        <time>2021-06-02T16:50:26.000Z</time>
      </trkpt>
      <trkpt lat="47.02195" lon="-1.68816">
        <ele>82</ele>
        <time>2021-06-02T16:50:28.000Z</time>
      </trkpt>
      <trkpt lat="47.02194" lon="-1.68798">
        <ele>83</ele>
        <time>2021-06-02T16:50:31.000Z</time>
      </trkpt>
      <trkpt lat="47.02196" lon="-1.68779">
        <ele>83</ele>
        <time>2021-06-02T16:50:34.000Z</time>
      </trkpt>
      <trkpt lat="47.02204" lon="-1.68765">
        <ele>84</ele>
        <time>2021-06-02T16:50:36.000Z</time>
      </trkpt>
      <trkpt lat="47.02213" lon="-1.6875">
        <ele>85</ele>
        <time>2021-06-02T16:50:38.000Z</time>
      </trkpt>
      <trkpt lat="47.02222" lon="-1.68734">
        <ele>85</ele>
        <time>2021-06-02T16:50:40.000Z</time>
      </trkpt>
      <trkpt lat="47.0223" lon="-1.68718">
        <ele>86</ele>
        <time>2021-06-02T16:50:42.000Z</time>
      </trkpt>
      <trkpt lat="47.02239" lon="-1.68702">
        <ele>86</ele>
        <time>2021-06-02T16:50:44.000Z</time>
      </trkpt>
      <trkpt lat="47.02248" lon="-1.68687">
        <ele>87</ele>
        <time>2021-06-02T16:50:46.000Z</time>
      </trkpt>
      <trkpt lat="47.02256" lon="-1.68671">
        <ele>87</ele>
        <time>2021-06-02T16:50:48.000Z</time>
      </trkpt>
      <trkpt lat="47.0227" lon="-1.68648">
        <ele>88</ele>
        <time>2021-06-02T16:50:51.000Z</time>
      </trkpt>
      <trkpt lat="47.02274" lon="-1.68635">
        <ele>85</ele>
        <time>2021-06-02T16:50:53.000Z</time>
      </trkpt>
      <trkpt lat="47.02283" lon="-1.6862">
        <ele>86</ele>
        <time>2021-06-02T16:50:55.000Z</time>
      </trkpt>
      <trkpt lat="47.02293" lon="-1.68605">
        <ele>88</ele>
        <time>2021-06-02T16:50:57.000Z</time>
      </trkpt>
      <trkpt lat="47.02302" lon="-1.6859">
        <ele>89</ele>
        <time>2021-06-02T16:50:59.000Z</time>
      </trkpt>
      <trkpt lat="47.02311" lon="-1.68574">
        <ele>90</ele>
        <time>2021-06-02T16:51:01.000Z</time>
      </trkpt>
      <trkpt lat="47.02319" lon="-1.68559">
        <ele>90</ele>
        <time>2021-06-02T16:51:03.000Z</time>
      </trkpt>
      <trkpt lat="47.02328" lon="-1.68544">
        <ele>91</ele>
        <time>2021-06-02T16:51:05.000Z</time>
      </trkpt>
      <trkpt lat="47.02337" lon="-1.68528">
        <ele>92</ele>
        <time>2021-06-02T16:51:07.000Z</time>
      </trkpt>
      <trkpt lat="47.02345" lon="-1.68512">
        <ele>92</ele>
        <time>2021-06-02T16:51:09.000Z</time>
      </trkpt>
      <trkpt lat="47.02353" lon="-1.68495">
        <ele>93</ele>
        <time>2021-06-02T16:51:11.000Z</time>
      </trkpt>
      <trkpt lat="47.02361" lon="-1.6848">
        <ele>93</ele>
        <time>2021-06-02T16:51:13.000Z</time>
      </trkpt>
      <trkpt lat="47.02368" lon="-1.68465">
        <ele>94</ele>
        <time>2021-06-02T16:51:15.000Z</time>
      </trkpt>
      <trkpt lat="47.02375" lon="-1.6845">
        <ele>94</ele>
        <time>2021-06-02T16:51:17.000Z</time>
      </trkpt>
      <trkpt lat="47.02381" lon="-1.68434">
        <ele>94</ele>
        <time>2021-06-02T16:51:19.000Z</time>
      </trkpt>
      <trkpt lat="47.02387" lon="-1.68418">
        <ele>94</ele>
        <time>2021-06-02T16:51:21.000Z</time>
      </trkpt>
      <trkpt lat="47.02393" lon="-1.68402">
        <ele>93</ele>
        <time>2021-06-02T16:51:23.000Z</time>
      </trkpt>
      <trkpt lat="47.02402" lon="-1.68376">
        <ele>94</ele>
        <time>2021-06-02T16:51:26.000Z</time>
      </trkpt>
      <trkpt lat="47.02408" lon="-1.68357">
        <ele>94</ele>
        <time>2021-06-02T16:51:28.000Z</time>
      </trkpt>
      <trkpt lat="47.02414" lon="-1.68341">
        <ele>94</ele>
        <time>2021-06-02T16:51:30.000Z</time>
      </trkpt>
      <trkpt lat="47.02419" lon="-1.68321">
        <ele>94</ele>
        <time>2021-06-02T16:51:32.000Z</time>
      </trkpt>
      <trkpt lat="47.02427" lon="-1.68304">
        <ele>93</ele>
        <time>2021-06-02T16:51:34.000Z</time>
      </trkpt>
      <trkpt lat="47.02434" lon="-1.68286">
        <ele>93</ele>
        <time>2021-06-02T16:51:36.000Z</time>
      </trkpt>
      <trkpt lat="47.02442" lon="-1.68268">
        <ele>93</ele>
        <time>2021-06-02T16:51:38.000Z</time>
      </trkpt>
      <trkpt lat="47.02448" lon="-1.68249">
        <ele>93</ele>
        <time>2021-06-02T16:51:40.000Z</time>
      </trkpt>
      <trkpt lat="47.02456" lon="-1.68229">
        <ele>93</ele>
        <time>2021-06-02T16:51:42.000Z</time>
      </trkpt>
      <trkpt lat="47.02467" lon="-1.68201">
        <ele>93</ele>
        <time>2021-06-02T16:51:45.000Z</time>
      </trkpt>
      <trkpt lat="47.02474" lon="-1.68181">
        <ele>93</ele>
        <time>2021-06-02T16:51:47.000Z</time>
      </trkpt>
      <trkpt lat="47.02481" lon="-1.68161">
        <ele>93</ele>
        <time>2021-06-02T16:51:49.000Z</time>
      </trkpt>
      <trkpt lat="47.02488" lon="-1.68142">
        <ele>93</ele>
        <time>2021-06-02T16:51:51.000Z</time>
      </trkpt>
      <trkpt lat="47.02496" lon="-1.68122">
        <ele>92</ele>
        <time>2021-06-02T16:51:53.000Z</time>
      </trkpt>
      <trkpt lat="47.02506" lon="-1.68091">
        <ele>92</ele>
        <time>2021-06-02T16:51:56.000Z</time>
      </trkpt>
      <trkpt lat="47.02513" lon="-1.68071">
        <ele>93</ele>
        <time>2021-06-02T16:51:58.000Z</time>
      </trkpt>
      <trkpt lat="47.02521" lon="-1.68052">
        <ele>92</ele>
        <time>2021-06-02T16:52:00.000Z</time>
      </trkpt>
      <trkpt lat="47.02528" lon="-1.68033">
        <ele>92</ele>
        <time>2021-06-02T16:52:02.000Z</time>
      </trkpt>
      <trkpt lat="47.02534" lon="-1.68014">
        <ele>92</ele>
        <time>2021-06-02T16:52:04.000Z</time>
      </trkpt>
      <trkpt lat="47.02542" lon="-1.67995">
        <ele>92</ele>
        <time>2021-06-02T16:52:06.000Z</time>
      </trkpt>
      <trkpt lat="47.0255" lon="-1.67976">
        <ele>92</ele>
        <time>2021-06-02T16:52:08.000Z</time>
      </trkpt>
      <trkpt lat="47.0256" lon="-1.67947">
        <ele>91</ele>
        <time>2021-06-02T16:52:11.000Z</time>
      </trkpt>
      <trkpt lat="47.02565" lon="-1.67929">
        <ele>91</ele>
        <time>2021-06-02T16:52:13.000Z</time>
      </trkpt>
      <trkpt lat="47.02571" lon="-1.67912">
        <ele>92</ele>
        <time>2021-06-02T16:52:15.000Z</time>
      </trkpt>
      <trkpt lat="47.02583" lon="-1.67883">
        <ele>93</ele>
        <time>2021-06-02T16:52:18.000Z</time>
      </trkpt>
      <trkpt lat="47.0259" lon="-1.67864">
        <ele>92</ele>
        <time>2021-06-02T16:52:20.000Z</time>
      </trkpt>
      <trkpt lat="47.02598" lon="-1.67847">
        <ele>92</ele>
        <time>2021-06-02T16:52:22.000Z</time>
      </trkpt>
      <trkpt lat="47.02609" lon="-1.67818">
        <ele>93</ele>
        <time>2021-06-02T16:52:25.000Z</time>
      </trkpt>
      <trkpt lat="47.02615" lon="-1.67799">
        <ele>93</ele>
        <time>2021-06-02T16:52:27.000Z</time>
      </trkpt>
      <trkpt lat="47.02618" lon="-1.67779">
        <ele>92</ele>
        <time>2021-06-02T16:52:29.000Z</time>
      </trkpt>
      <trkpt lat="47.02626" lon="-1.67751">
        <ele>92</ele>
        <time>2021-06-02T16:52:32.000Z</time>
      </trkpt>
      <trkpt lat="47.02636" lon="-1.67734">
        <ele>92</ele>
        <time>2021-06-02T16:52:34.000Z</time>
      </trkpt>
      <trkpt lat="47.02644" lon="-1.67715">
        <ele>92</ele>
        <time>2021-06-02T16:52:36.000Z</time>
      </trkpt>
      <trkpt lat="47.02652" lon="-1.67697">
        <ele>92</ele>
        <time>2021-06-02T16:52:38.000Z</time>
      </trkpt>
      <trkpt lat="47.02658" lon="-1.67678">
        <ele>91</ele>
        <time>2021-06-02T16:52:40.000Z</time>
      </trkpt>
      <trkpt lat="47.02665" lon="-1.6766">
        <ele>89</ele>
        <time>2021-06-02T16:52:42.000Z</time>
      </trkpt>
      <trkpt lat="47.02672" lon="-1.67642">
        <ele>90</ele>
        <time>2021-06-02T16:52:44.000Z</time>
      </trkpt>
      <trkpt lat="47.02679" lon="-1.67624">
        <ele>90</ele>
        <time>2021-06-02T16:52:46.000Z</time>
      </trkpt>
      <trkpt lat="47.02685" lon="-1.67607">
        <ele>91</ele>
        <time>2021-06-02T16:52:48.000Z</time>
      </trkpt>
      <trkpt lat="47.02691" lon="-1.67591">
        <ele>92</ele>
        <time>2021-06-02T16:52:50.000Z</time>
      </trkpt>
      <trkpt lat="47.02696" lon="-1.67572">
        <ele>92</ele>
        <time>2021-06-02T16:52:52.000Z</time>
      </trkpt>
      <trkpt lat="47.02701" lon="-1.67559">
        <ele>91</ele>
        <time>2021-06-02T16:52:54.000Z</time>
      </trkpt>
      <trkpt lat="47.02708" lon="-1.6754">
        <ele>90</ele>
        <time>2021-06-02T16:52:56.000Z</time>
      </trkpt>
      <trkpt lat="47.02718" lon="-1.67519">
        <ele>91</ele>
        <time>2021-06-02T16:52:58.000Z</time>
      </trkpt>
      <trkpt lat="47.02725" lon="-1.67499">
        <ele>91</ele>
        <time>2021-06-02T16:53:00.000Z</time>
      </trkpt>
      <trkpt lat="47.02732" lon="-1.6748">
        <ele>91</ele>
        <time>2021-06-02T16:53:02.000Z</time>
      </trkpt>
      <trkpt lat="47.02739" lon="-1.67461">
        <ele>91</ele>
        <time>2021-06-02T16:53:04.000Z</time>
      </trkpt>
      <trkpt lat="47.02748" lon="-1.67438">
        <ele>91</ele>
        <time>2021-06-02T16:53:06.000Z</time>
      </trkpt>
      <trkpt lat="47.02755" lon="-1.67416">
        <ele>91</ele>
        <time>2021-06-02T16:53:08.000Z</time>
      </trkpt>
      <trkpt lat="47.02762" lon="-1.67396">
        <ele>88</ele>
        <time>2021-06-02T16:53:10.000Z</time>
      </trkpt>
      <trkpt lat="47.02768" lon="-1.67375">
        <ele>88</ele>
        <time>2021-06-02T16:53:12.000Z</time>
      </trkpt>
      <trkpt lat="47.02773" lon="-1.67364">
        <ele>88</ele>
        <time>2021-06-02T16:53:13.000Z</time>
      </trkpt>
      <trkpt lat="47.02782" lon="-1.67342">
        <ele>88</ele>
        <time>2021-06-02T16:53:15.000Z</time>
      </trkpt>
      <trkpt lat="47.0279" lon="-1.6732">
        <ele>87</ele>
        <time>2021-06-02T16:53:17.000Z</time>
      </trkpt>
      <trkpt lat="47.02798" lon="-1.67299">
        <ele>88</ele>
        <time>2021-06-02T16:53:19.000Z</time>
      </trkpt>
      <trkpt lat="47.02807" lon="-1.67278">
        <ele>90</ele>
        <time>2021-06-02T16:53:21.000Z</time>
      </trkpt>
      <trkpt lat="47.02816" lon="-1.67257">
        <ele>89</ele>
        <time>2021-06-02T16:53:23.000Z</time>
      </trkpt>
      <trkpt lat="47.02823" lon="-1.67234">
        <ele>88</ele>
        <time>2021-06-02T16:53:25.000Z</time>
      </trkpt>
      <trkpt lat="47.0283" lon="-1.67211">
        <ele>88</ele>
        <time>2021-06-02T16:53:27.000Z</time>
      </trkpt>
      <trkpt lat="47.0284" lon="-1.6719">
        <ele>88</ele>
        <time>2021-06-02T16:53:29.000Z</time>
      </trkpt>
      <trkpt lat="47.02844" lon="-1.67178">
        <ele>88</ele>
        <time>2021-06-02T16:53:30.000Z</time>
      </trkpt>
      <trkpt lat="47.02856" lon="-1.67144">
        <ele>88</ele>
        <time>2021-06-02T16:53:33.000Z</time>
      </trkpt>
      <trkpt lat="47.02864" lon="-1.67125">
        <ele>87</ele>
        <time>2021-06-02T16:53:35.000Z</time>
      </trkpt>
      <trkpt lat="47.02871" lon="-1.67104">
        <ele>87</ele>
        <time>2021-06-02T16:53:37.000Z</time>
      </trkpt>
      <trkpt lat="47.02879" lon="-1.67085">
        <ele>88</ele>
        <time>2021-06-02T16:53:39.000Z</time>
      </trkpt>
      <trkpt lat="47.02883" lon="-1.67063">
        <ele>86</ele>
        <time>2021-06-02T16:53:41.000Z</time>
      </trkpt>
      <trkpt lat="47.02891" lon="-1.67041">
        <ele>85</ele>
        <time>2021-06-02T16:53:43.000Z</time>
      </trkpt>
      <trkpt lat="47.02906" lon="-1.67011">
        <ele>88</ele>
        <time>2021-06-02T16:53:46.000Z</time>
      </trkpt>
      <trkpt lat="47.02913" lon="-1.66991">
        <ele>86</ele>
        <time>2021-06-02T16:53:48.000Z</time>
      </trkpt>
      <trkpt lat="47.0292" lon="-1.6697">
        <ele>86</ele>
        <time>2021-06-02T16:53:50.000Z</time>
      </trkpt>
      <trkpt lat="47.02927" lon="-1.66951">
        <ele>87</ele>
        <time>2021-06-02T16:53:52.000Z</time>
      </trkpt>
      <trkpt lat="47.02936" lon="-1.6693">
        <ele>86</ele>
        <time>2021-06-02T16:53:54.000Z</time>
      </trkpt>
      <trkpt lat="47.02942" lon="-1.66911">
        <ele>86</ele>
        <time>2021-06-02T16:53:56.000Z</time>
      </trkpt>
      <trkpt lat="47.02947" lon="-1.66894">
        <ele>86</ele>
        <time>2021-06-02T16:53:58.000Z</time>
      </trkpt>
      <trkpt lat="47.02952" lon="-1.66873">
        <ele>88</ele>
        <time>2021-06-02T16:54:00.000Z</time>
      </trkpt>
      <trkpt lat="47.02957" lon="-1.66862">
        <ele>88</ele>
        <time>2021-06-02T16:54:01.000Z</time>
      </trkpt>
      <trkpt lat="47.02963" lon="-1.66851">
        <ele>88</ele>
        <time>2021-06-02T16:54:02.000Z</time>
      </trkpt>
      <trkpt lat="47.02971" lon="-1.66829">
        <ele>88</ele>
        <time>2021-06-02T16:54:04.000Z</time>
      </trkpt>
      <trkpt lat="47.02979" lon="-1.66808">
        <ele>88</ele>
        <time>2021-06-02T16:54:06.000Z</time>
      </trkpt>
      <trkpt lat="47.02986" lon="-1.66788">
        <ele>87</ele>
        <time>2021-06-02T16:54:08.000Z</time>
      </trkpt>
      <trkpt lat="47.02995" lon="-1.66767">
        <ele>86</ele>
        <time>2021-06-02T16:54:10.000Z</time>
      </trkpt>
      <trkpt lat="47.03003" lon="-1.66748">
        <ele>86</ele>
        <time>2021-06-02T16:54:12.000Z</time>
      </trkpt>
      <trkpt lat="47.03013" lon="-1.66717">
        <ele>86</ele>
        <time>2021-06-02T16:54:15.000Z</time>
      </trkpt>
      <trkpt lat="47.0302" lon="-1.66698">
        <ele>86</ele>
        <time>2021-06-02T16:54:17.000Z</time>
      </trkpt>
      <trkpt lat="47.03029" lon="-1.66677">
        <ele>85</ele>
        <time>2021-06-02T16:54:19.000Z</time>
      </trkpt>
      <trkpt lat="47.03036" lon="-1.66656">
        <ele>84</ele>
        <time>2021-06-02T16:54:21.000Z</time>
      </trkpt>
      <trkpt lat="47.03043" lon="-1.66637">
        <ele>82</ele>
        <time>2021-06-02T16:54:23.000Z</time>
      </trkpt>
      <trkpt lat="47.03047" lon="-1.66625">
        <ele>82</ele>
        <time>2021-06-02T16:54:24.000Z</time>
      </trkpt>
      <trkpt lat="47.03051" lon="-1.66611">
        <ele>82</ele>
        <time>2021-06-02T16:54:25.000Z</time>
      </trkpt>
      <trkpt lat="47.03057" lon="-1.666">
        <ele>82</ele>
        <time>2021-06-02T16:54:26.000Z</time>
      </trkpt>
      <trkpt lat="47.03061" lon="-1.66588">
        <ele>81</ele>
        <time>2021-06-02T16:54:27.000Z</time>
      </trkpt>
      <trkpt lat="47.0307" lon="-1.66564">
        <ele>81</ele>
        <time>2021-06-02T16:54:29.000Z</time>
      </trkpt>
      <trkpt lat="47.03079" lon="-1.66538">
        <ele>80</ele>
        <time>2021-06-02T16:54:31.000Z</time>
      </trkpt>
      <trkpt lat="47.03085" lon="-1.66523">
        <ele>79</ele>
        <time>2021-06-02T16:54:32.000Z</time>
      </trkpt>
      <trkpt lat="47.0309" lon="-1.66509">
        <ele>78</ele>
        <time>2021-06-02T16:54:33.000Z</time>
      </trkpt>
      <trkpt lat="47.03095" lon="-1.66496">
        <ele>78</ele>
        <time>2021-06-02T16:54:34.000Z</time>
      </trkpt>
      <trkpt lat="47.03106" lon="-1.66471">
        <ele>77</ele>
        <time>2021-06-02T16:54:36.000Z</time>
      </trkpt>
      <trkpt lat="47.03112" lon="-1.6646">
        <ele>77</ele>
        <time>2021-06-02T16:54:37.000Z</time>
      </trkpt>
      <trkpt lat="47.0312" lon="-1.66451">
        <ele>77</ele>
        <time>2021-06-02T16:54:38.000Z</time>
      </trkpt>
      <trkpt lat="47.03128" lon="-1.6644">
        <ele>77</ele>
        <time>2021-06-02T16:54:39.000Z</time>
      </trkpt>
      <trkpt lat="47.03135" lon="-1.6643">
        <ele>77</ele>
        <time>2021-06-02T16:54:40.000Z</time>
      </trkpt>
      <trkpt lat="47.03143" lon="-1.66419">
        <ele>76</ele>
        <time>2021-06-02T16:54:41.000Z</time>
      </trkpt>
      <trkpt lat="47.0315" lon="-1.66408">
        <ele>76</ele>
        <time>2021-06-02T16:54:42.000Z</time>
      </trkpt>
      <trkpt lat="47.03158" lon="-1.66397">
        <ele>75</ele>
        <time>2021-06-02T16:54:43.000Z</time>
      </trkpt>
      <trkpt lat="47.03165" lon="-1.66386">
        <ele>75</ele>
        <time>2021-06-02T16:54:44.000Z</time>
      </trkpt>
      <trkpt lat="47.03172" lon="-1.66376">
        <ele>73</ele>
        <time>2021-06-02T16:54:45.000Z</time>
      </trkpt>
      <trkpt lat="47.03178" lon="-1.66364">
        <ele>73</ele>
        <time>2021-06-02T16:54:46.000Z</time>
      </trkpt>
      <trkpt lat="47.03184" lon="-1.66351">
        <ele>73</ele>
        <time>2021-06-02T16:54:47.000Z</time>
      </trkpt>
      <trkpt lat="47.0319" lon="-1.66338">
        <ele>73</ele>
        <time>2021-06-02T16:54:48.000Z</time>
      </trkpt>
      <trkpt lat="47.03197" lon="-1.66324">
        <ele>72</ele>
        <time>2021-06-02T16:54:49.000Z</time>
      </trkpt>
      <trkpt lat="47.03203" lon="-1.6631">
        <ele>72</ele>
        <time>2021-06-02T16:54:50.000Z</time>
      </trkpt>
      <trkpt lat="47.03216" lon="-1.66281">
        <ele>71</ele>
        <time>2021-06-02T16:54:52.000Z</time>
      </trkpt>
      <trkpt lat="47.03223" lon="-1.66267">
        <ele>71</ele>
        <time>2021-06-02T16:54:53.000Z</time>
      </trkpt>
      <trkpt lat="47.0323" lon="-1.66252">
        <ele>71</ele>
        <time>2021-06-02T16:54:54.000Z</time>
      </trkpt>
      <trkpt lat="47.03236" lon="-1.66239">
        <ele>71</ele>
        <time>2021-06-02T16:54:55.000Z</time>
      </trkpt>
      <trkpt lat="47.03241" lon="-1.66226">
        <ele>70</ele>
        <time>2021-06-02T16:54:56.000Z</time>
      </trkpt>
      <trkpt lat="47.03245" lon="-1.66213">
        <ele>70</ele>
        <time>2021-06-02T16:54:57.000Z</time>
      </trkpt>
      <trkpt lat="47.03249" lon="-1.66202">
        <ele>70</ele>
        <time>2021-06-02T16:54:58.000Z</time>
      </trkpt>
      <trkpt lat="47.03253" lon="-1.6619">
        <ele>69</ele>
        <time>2021-06-02T16:54:59.000Z</time>
      </trkpt>
      <trkpt lat="47.03258" lon="-1.66178">
        <ele>69</ele>
        <time>2021-06-02T16:55:00.000Z</time>
      </trkpt>
      <trkpt lat="47.03271" lon="-1.66144">
        <ele>68</ele>
        <time>2021-06-02T16:55:03.000Z</time>
      </trkpt>
      <trkpt lat="47.03277" lon="-1.66132">
        <ele>69</ele>
        <time>2021-06-02T16:55:04.000Z</time>
      </trkpt>
      <trkpt lat="47.03291" lon="-1.66115">
        <ele>68</ele>
        <time>2021-06-02T16:55:06.000Z</time>
      </trkpt>
      <trkpt lat="47.03307" lon="-1.66103">
        <ele>65</ele>
        <time>2021-06-02T16:55:08.000Z</time>
      </trkpt>
      <trkpt lat="47.03325" lon="-1.66097">
        <ele>65</ele>
        <time>2021-06-02T16:55:10.000Z</time>
      </trkpt>
      <trkpt lat="47.03345" lon="-1.66099">
        <ele>64</ele>
        <time>2021-06-02T16:55:12.000Z</time>
      </trkpt>
      <trkpt lat="47.03359" lon="-1.66112">
        <ele>66</ele>
        <time>2021-06-02T16:55:14.000Z</time>
      </trkpt>
      <trkpt lat="47.03367" lon="-1.66118">
        <ele>67</ele>
        <time>2021-06-02T16:55:15.000Z</time>
      </trkpt>
      <trkpt lat="47.03379" lon="-1.66122">
        <ele>66</ele>
        <time>2021-06-02T16:55:17.000Z</time>
      </trkpt>
      <trkpt lat="47.03384" lon="-1.66108">
        <ele>65</ele>
        <time>2021-06-02T16:55:19.000Z</time>
      </trkpt>
      <trkpt lat="47.03385" lon="-1.66093">
        <ele>65</ele>
        <time>2021-06-02T16:55:21.000Z</time>
      </trkpt>
      <trkpt lat="47.03381" lon="-1.66077">
        <ele>67</ele>
        <time>2021-06-02T16:55:24.000Z</time>
      </trkpt>
      <trkpt lat="47.0338" lon="-1.66062">
        <ele>68</ele>
        <time>2021-06-02T16:55:26.000Z</time>
      </trkpt>
      <trkpt lat="47.03385" lon="-1.66043">
        <ele>69</ele>
        <time>2021-06-02T16:55:28.000Z</time>
      </trkpt>
      <trkpt lat="47.03393" lon="-1.66025">
        <ele>69</ele>
        <time>2021-06-02T16:55:30.000Z</time>
      </trkpt>
      <trkpt lat="47.03397" lon="-1.66005">
        <ele>69</ele>
        <time>2021-06-02T16:55:32.000Z</time>
      </trkpt>
      <trkpt lat="47.03397" lon="-1.65984">
        <ele>69</ele>
        <time>2021-06-02T16:55:34.000Z</time>
      </trkpt>
      <trkpt lat="47.03396" lon="-1.65965">
        <ele>69</ele>
        <time>2021-06-02T16:55:36.000Z</time>
      </trkpt>
      <trkpt lat="47.03395" lon="-1.65936">
        <ele>70</ele>
        <time>2021-06-02T16:55:39.000Z</time>
      </trkpt>
      <trkpt lat="47.03393" lon="-1.65916">
        <ele>70</ele>
        <time>2021-06-02T16:55:41.000Z</time>
      </trkpt>
      <trkpt lat="47.03388" lon="-1.65898">
        <ele>70</ele>
        <time>2021-06-02T16:55:43.000Z</time>
      </trkpt>
      <trkpt lat="47.03383" lon="-1.65881">
        <ele>70</ele>
        <time>2021-06-02T16:55:45.000Z</time>
      </trkpt>
      <trkpt lat="47.03377" lon="-1.65864">
        <ele>70</ele>
        <time>2021-06-02T16:55:47.000Z</time>
      </trkpt>
      <trkpt lat="47.03372" lon="-1.65847">
        <ele>70</ele>
        <time>2021-06-02T16:55:49.000Z</time>
      </trkpt>
      <trkpt lat="47.03366" lon="-1.6583">
        <ele>71</ele>
        <time>2021-06-02T16:55:51.000Z</time>
      </trkpt>
      <trkpt lat="47.03357" lon="-1.65817">
        <ele>71</ele>
        <time>2021-06-02T16:55:53.000Z</time>
      </trkpt>
      <trkpt lat="47.0335" lon="-1.65805">
        <ele>71</ele>
        <time>2021-06-02T16:55:55.000Z</time>
      </trkpt>
      <trkpt lat="47.03339" lon="-1.65782">
        <ele>72</ele>
        <time>2021-06-02T16:55:58.000Z</time>
      </trkpt>
      <trkpt lat="47.0333" lon="-1.65769">
        <ele>72</ele>
        <time>2021-06-02T16:56:00.000Z</time>
      </trkpt>
      <trkpt lat="47.03324" lon="-1.65751">
        <ele>72</ele>
        <time>2021-06-02T16:56:02.000Z</time>
      </trkpt>
      <trkpt lat="47.03318" lon="-1.65733">
        <ele>71</ele>
        <time>2021-06-02T16:56:04.000Z</time>
      </trkpt>
      <trkpt lat="47.03311" lon="-1.65704">
        <ele>70</ele>
        <time>2021-06-02T16:56:07.000Z</time>
      </trkpt>
      <trkpt lat="47.03308" lon="-1.65684">
        <ele>70</ele>
        <time>2021-06-02T16:56:09.000Z</time>
      </trkpt>
      <trkpt lat="47.03307" lon="-1.65662">
        <ele>69</ele>
        <time>2021-06-02T16:56:11.000Z</time>
      </trkpt>
      <trkpt lat="47.0331" lon="-1.6564">
        <ele>69</ele>
        <time>2021-06-02T16:56:13.000Z</time>
      </trkpt>
      <trkpt lat="47.03311" lon="-1.65618">
        <ele>69</ele>
        <time>2021-06-02T16:56:15.000Z</time>
      </trkpt>
      <trkpt lat="47.03307" lon="-1.65598">
        <ele>69</ele>
        <time>2021-06-02T16:56:17.000Z</time>
      </trkpt>
      <trkpt lat="47.03303" lon="-1.65576">
        <ele>70</ele>
        <time>2021-06-02T16:56:19.000Z</time>
      </trkpt>
      <trkpt lat="47.03305" lon="-1.65553">
        <ele>69</ele>
        <time>2021-06-02T16:56:21.000Z</time>
      </trkpt>
      <trkpt lat="47.03304" lon="-1.6552">
        <ele>68</ele>
        <time>2021-06-02T16:56:24.000Z</time>
      </trkpt>
      <trkpt lat="47.03299" lon="-1.65498">
        <ele>68</ele>
        <time>2021-06-02T16:56:26.000Z</time>
      </trkpt>
      <trkpt lat="47.03295" lon="-1.65478">
        <ele>67</ele>
        <time>2021-06-02T16:56:28.000Z</time>
      </trkpt>
      <trkpt lat="47.0329" lon="-1.65456">
        <ele>67</ele>
        <time>2021-06-02T16:56:30.000Z</time>
      </trkpt>
      <trkpt lat="47.03282" lon="-1.65424">
        <ele>66</ele>
        <time>2021-06-02T16:56:33.000Z</time>
      </trkpt>
      <trkpt lat="47.03276" lon="-1.65402">
        <ele>65</ele>
        <time>2021-06-02T16:56:35.000Z</time>
      </trkpt>
      <trkpt lat="47.0327" lon="-1.65382">
        <ele>64</ele>
        <time>2021-06-02T16:56:37.000Z</time>
      </trkpt>
      <trkpt lat="47.03264" lon="-1.65361">
        <ele>64</ele>
        <time>2021-06-02T16:56:39.000Z</time>
      </trkpt>
      <trkpt lat="47.0326" lon="-1.65338">
        <ele>64</ele>
        <time>2021-06-02T16:56:41.000Z</time>
      </trkpt>
      <trkpt lat="47.03256" lon="-1.65316">
        <ele>65</ele>
        <time>2021-06-02T16:56:43.000Z</time>
      </trkpt>
      <trkpt lat="47.03251" lon="-1.65295">
        <ele>64</ele>
        <time>2021-06-02T16:56:45.000Z</time>
      </trkpt>
      <trkpt lat="47.03246" lon="-1.65272">
        <ele>64</ele>
        <time>2021-06-02T16:56:47.000Z</time>
      </trkpt>
      <trkpt lat="47.0324" lon="-1.6525">
        <ele>63</ele>
        <time>2021-06-02T16:56:49.000Z</time>
      </trkpt>
      <trkpt lat="47.03233" lon="-1.65229">
        <ele>63</ele>
        <time>2021-06-02T16:56:51.000Z</time>
      </trkpt>
      <trkpt lat="47.03222" lon="-1.65199">
        <ele>62</ele>
        <time>2021-06-02T16:56:54.000Z</time>
      </trkpt>
      <trkpt lat="47.03215" lon="-1.65179">
        <ele>61</ele>
        <time>2021-06-02T16:56:56.000Z</time>
      </trkpt>
      <trkpt lat="47.03209" lon="-1.65162">
        <ele>61</ele>
        <time>2021-06-02T16:56:58.000Z</time>
      </trkpt>
      <trkpt lat="47.03203" lon="-1.65143">
        <ele>62</ele>
        <time>2021-06-02T16:57:00.000Z</time>
      </trkpt>
      <trkpt lat="47.03195" lon="-1.65126">
        <ele>62</ele>
        <time>2021-06-02T16:57:02.000Z</time>
      </trkpt>
      <trkpt lat="47.03188" lon="-1.6511">
        <ele>63</ele>
        <time>2021-06-02T16:57:04.000Z</time>
      </trkpt>
      <trkpt lat="47.0318" lon="-1.65093">
        <ele>63</ele>
        <time>2021-06-02T16:57:06.000Z</time>
      </trkpt>
      <trkpt lat="47.03172" lon="-1.65077">
        <ele>62</ele>
        <time>2021-06-02T16:57:08.000Z</time>
      </trkpt>
      <trkpt lat="47.03163" lon="-1.65063">
        <ele>63</ele>
        <time>2021-06-02T16:57:10.000Z</time>
      </trkpt>
      <trkpt lat="47.03152" lon="-1.6504">
        <ele>64</ele>
        <time>2021-06-02T16:57:13.000Z</time>
      </trkpt>
      <trkpt lat="47.03144" lon="-1.65024">
        <ele>65</ele>
        <time>2021-06-02T16:57:15.000Z</time>
      </trkpt>
      <trkpt lat="47.03136" lon="-1.6501">
        <ele>64</ele>
        <time>2021-06-02T16:57:17.000Z</time>
      </trkpt>
      <trkpt lat="47.03128" lon="-1.64996">
        <ele>63</ele>
        <time>2021-06-02T16:57:19.000Z</time>
      </trkpt>
      <trkpt lat="47.03119" lon="-1.6498">
        <ele>63</ele>
        <time>2021-06-02T16:57:21.000Z</time>
      </trkpt>
      <trkpt lat="47.03109" lon="-1.64963">
        <ele>64</ele>
        <time>2021-06-02T16:57:23.000Z</time>
      </trkpt>
      <trkpt lat="47.03099" lon="-1.64949">
        <ele>65</ele>
        <time>2021-06-02T16:57:25.000Z</time>
      </trkpt>
      <trkpt lat="47.03091" lon="-1.64935">
        <ele>64</ele>
        <time>2021-06-02T16:57:27.000Z</time>
      </trkpt>
      <trkpt lat="47.03083" lon="-1.64921">
        <ele>64</ele>
        <time>2021-06-02T16:57:29.000Z</time>
      </trkpt>
      <trkpt lat="47.03074" lon="-1.64906">
        <ele>64</ele>
        <time>2021-06-02T16:57:31.000Z</time>
      </trkpt>
      <trkpt lat="47.03066" lon="-1.64891">
        <ele>62</ele>
        <time>2021-06-02T16:57:33.000Z</time>
      </trkpt>
      <trkpt lat="47.03057" lon="-1.64877">
        <ele>63</ele>
        <time>2021-06-02T16:57:35.000Z</time>
      </trkpt>
      <trkpt lat="47.03049" lon="-1.64863">
        <ele>63</ele>
        <time>2021-06-02T16:57:37.000Z</time>
      </trkpt>
      <trkpt lat="47.0304" lon="-1.6485">
        <ele>63</ele>
        <time>2021-06-02T16:57:39.000Z</time>
      </trkpt>
      <trkpt lat="47.03032" lon="-1.64839">
        <ele>63</ele>
        <time>2021-06-02T16:57:41.000Z</time>
      </trkpt>
      <trkpt lat="47.03023" lon="-1.64825">
        <ele>63</ele>
        <time>2021-06-02T16:57:43.000Z</time>
      </trkpt>
      <trkpt lat="47.03013" lon="-1.64811">
        <ele>64</ele>
        <time>2021-06-02T16:57:45.000Z</time>
      </trkpt>
      <trkpt lat="47.02996" lon="-1.64799">
        <ele>64</ele>
        <time>2021-06-02T16:57:48.000Z</time>
      </trkpt>
      <trkpt lat="47.02986" lon="-1.6479">
        <ele>64</ele>
        <time>2021-06-02T16:57:50.000Z</time>
      </trkpt>
      <trkpt lat="47.0298" lon="-1.64773">
        <ele>64</ele>
        <time>2021-06-02T16:57:52.000Z</time>
      </trkpt>
      <trkpt lat="47.02975" lon="-1.64751">
        <ele>64</ele>
        <time>2021-06-02T16:57:54.000Z</time>
      </trkpt>
      <trkpt lat="47.0297" lon="-1.64731">
        <ele>62</ele>
        <time>2021-06-02T16:57:56.000Z</time>
      </trkpt>
      <trkpt lat="47.02962" lon="-1.64714">
        <ele>62</ele>
        <time>2021-06-02T16:57:58.000Z</time>
      </trkpt>
      <trkpt lat="47.0295" lon="-1.64703">
        <ele>63</ele>
        <time>2021-06-02T16:58:00.000Z</time>
      </trkpt>
      <trkpt lat="47.0294" lon="-1.64689">
        <ele>64</ele>
        <time>2021-06-02T16:58:02.000Z</time>
      </trkpt>
      <trkpt lat="47.02926" lon="-1.64672">
        <ele>64</ele>
        <time>2021-06-02T16:58:05.000Z</time>
      </trkpt>
      <trkpt lat="47.02917" lon="-1.6466">
        <ele>65</ele>
        <time>2021-06-02T16:58:07.000Z</time>
      </trkpt>
      <trkpt lat="47.02907" lon="-1.64646">
        <ele>64</ele>
        <time>2021-06-02T16:58:09.000Z</time>
      </trkpt>
      <trkpt lat="47.02899" lon="-1.64631">
        <ele>65</ele>
        <time>2021-06-02T16:58:11.000Z</time>
      </trkpt>
      <trkpt lat="47.0289" lon="-1.64616">
        <ele>66</ele>
        <time>2021-06-02T16:58:13.000Z</time>
      </trkpt>
      <trkpt lat="47.02881" lon="-1.64602">
        <ele>67</ele>
        <time>2021-06-02T16:58:15.000Z</time>
      </trkpt>
      <trkpt lat="47.02873" lon="-1.64589">
        <ele>67</ele>
        <time>2021-06-02T16:58:17.000Z</time>
      </trkpt>
      <trkpt lat="47.02864" lon="-1.64576">
        <ele>67</ele>
        <time>2021-06-02T16:58:19.000Z</time>
      </trkpt>
      <trkpt lat="47.02855" lon="-1.64562">
        <ele>67</ele>
        <time>2021-06-02T16:58:21.000Z</time>
      </trkpt>
      <trkpt lat="47.02846" lon="-1.64549">
        <ele>68</ele>
        <time>2021-06-02T16:58:23.000Z</time>
      </trkpt>
      <trkpt lat="47.02838" lon="-1.64534">
        <ele>68</ele>
        <time>2021-06-02T16:58:25.000Z</time>
      </trkpt>
      <trkpt lat="47.0283" lon="-1.6452">
        <ele>68</ele>
        <time>2021-06-02T16:58:27.000Z</time>
      </trkpt>
      <trkpt lat="47.02822" lon="-1.64506">
        <ele>68</ele>
        <time>2021-06-02T16:58:29.000Z</time>
      </trkpt>
      <trkpt lat="47.02814" lon="-1.64491">
        <ele>69</ele>
        <time>2021-06-02T16:58:31.000Z</time>
      </trkpt>
      <trkpt lat="47.02806" lon="-1.64476">
        <ele>68</ele>
        <time>2021-06-02T16:58:33.000Z</time>
      </trkpt>
      <trkpt lat="47.02799" lon="-1.64461">
        <ele>68</ele>
        <time>2021-06-02T16:58:35.000Z</time>
      </trkpt>
      <trkpt lat="47.02791" lon="-1.64445">
        <ele>68</ele>
        <time>2021-06-02T16:58:37.000Z</time>
      </trkpt>
      <trkpt lat="47.02784" lon="-1.64429">
        <ele>69</ele>
        <time>2021-06-02T16:58:39.000Z</time>
      </trkpt>
      <trkpt lat="47.0277" lon="-1.64409">
        <ele>69</ele>
        <time>2021-06-02T16:58:42.000Z</time>
      </trkpt>
      <trkpt lat="47.02758" lon="-1.64398">
        <ele>68</ele>
        <time>2021-06-02T16:58:44.000Z</time>
      </trkpt>
      <trkpt lat="47.0275" lon="-1.64387">
        <ele>64</ele>
        <time>2021-06-02T16:58:46.000Z</time>
      </trkpt>
      <trkpt lat="47.02761" lon="-1.64357">
        <ele>65</ele>
        <time>2021-06-02T16:58:49.000Z</time>
      </trkpt>
      <trkpt lat="47.02784" lon="-1.64348">
        <ele>71</ele>
        <time>2021-06-02T16:58:52.000Z</time>
      </trkpt>
      <trkpt lat="47.02796" lon="-1.6435">
        <ele>72</ele>
        <time>2021-06-02T16:58:54.000Z</time>
      </trkpt>
      <trkpt lat="47.0281" lon="-1.64343">
        <ele>70</ele>
        <time>2021-06-02T16:58:56.000Z</time>
      </trkpt>
      <trkpt lat="47.02822" lon="-1.64337">
        <ele>69</ele>
        <time>2021-06-02T16:58:58.000Z</time>
      </trkpt>
      <trkpt lat="47.02835" lon="-1.64334">
        <ele>70</ele>
        <time>2021-06-02T16:59:00.000Z</time>
      </trkpt>
      <trkpt lat="47.02848" lon="-1.64332">
        <ele>70</ele>
        <time>2021-06-02T16:59:02.000Z</time>
      </trkpt>
      <trkpt lat="47.02861" lon="-1.64332">
        <ele>70</ele>
        <time>2021-06-02T16:59:04.000Z</time>
      </trkpt>
      <trkpt lat="47.02875" lon="-1.64331">
        <ele>70</ele>
        <time>2021-06-02T16:59:06.000Z</time>
      </trkpt>
      <trkpt lat="47.02888" lon="-1.64328">
        <ele>71</ele>
        <time>2021-06-02T16:59:08.000Z</time>
      </trkpt>
      <trkpt lat="47.02899" lon="-1.6432">
        <ele>71</ele>
        <time>2021-06-02T16:59:10.000Z</time>
      </trkpt>
      <trkpt lat="47.02912" lon="-1.64312">
        <ele>70</ele>
        <time>2021-06-02T16:59:12.000Z</time>
      </trkpt>
      <trkpt lat="47.02924" lon="-1.64304">
        <ele>70</ele>
        <time>2021-06-02T16:59:14.000Z</time>
      </trkpt>
      <trkpt lat="47.02943" lon="-1.64291">
        <ele>69</ele>
        <time>2021-06-02T16:59:17.000Z</time>
      </trkpt>
      <trkpt lat="47.02956" lon="-1.64284">
        <ele>69</ele>
        <time>2021-06-02T16:59:19.000Z</time>
      </trkpt>
      <trkpt lat="47.02971" lon="-1.64272">
        <ele>68</ele>
        <time>2021-06-02T16:59:21.000Z</time>
      </trkpt>
      <trkpt lat="47.02985" lon="-1.64262">
        <ele>67</ele>
        <time>2021-06-02T16:59:23.000Z</time>
      </trkpt>
      <trkpt lat="47.03" lon="-1.64255">
        <ele>67</ele>
        <time>2021-06-02T16:59:25.000Z</time>
      </trkpt>
      <trkpt lat="47.0302" lon="-1.6424">
        <ele>66</ele>
        <time>2021-06-02T16:59:28.000Z</time>
      </trkpt>
      <trkpt lat="47.03035" lon="-1.64229">
        <ele>66</ele>
        <time>2021-06-02T16:59:30.000Z</time>
      </trkpt>
      <trkpt lat="47.0305" lon="-1.64217">
        <ele>65</ele>
        <time>2021-06-02T16:59:32.000Z</time>
      </trkpt>
      <trkpt lat="47.03058" lon="-1.6421">
        <ele>64</ele>
        <time>2021-06-02T16:59:33.000Z</time>
      </trkpt>
      <trkpt lat="47.03075" lon="-1.64207">
        <ele>64</ele>
        <time>2021-06-02T16:59:35.000Z</time>
      </trkpt>
      <trkpt lat="47.03092" lon="-1.64211">
        <ele>65</ele>
        <time>2021-06-02T16:59:37.000Z</time>
      </trkpt>
      <trkpt lat="47.03109" lon="-1.64216">
        <ele>64</ele>
        <time>2021-06-02T16:59:39.000Z</time>
      </trkpt>
      <trkpt lat="47.03133" lon="-1.64223">
        <ele>64</ele>
        <time>2021-06-02T16:59:42.000Z</time>
      </trkpt>
      <trkpt lat="47.03148" lon="-1.64228">
        <ele>64</ele>
        <time>2021-06-02T16:59:44.000Z</time>
      </trkpt>
      <trkpt lat="47.03165" lon="-1.64232">
        <ele>63</ele>
        <time>2021-06-02T16:59:46.000Z</time>
      </trkpt>
      <trkpt lat="47.03181" lon="-1.64236">
        <ele>63</ele>
        <time>2021-06-02T16:59:48.000Z</time>
      </trkpt>
      <trkpt lat="47.03197" lon="-1.64237">
        <ele>62</ele>
        <time>2021-06-02T16:59:50.000Z</time>
      </trkpt>
      <trkpt lat="47.03214" lon="-1.64237">
        <ele>62</ele>
        <time>2021-06-02T16:59:52.000Z</time>
      </trkpt>
      <trkpt lat="47.0323" lon="-1.64235">
        <ele>61</ele>
        <time>2021-06-02T16:59:54.000Z</time>
      </trkpt>
      <trkpt lat="47.03245" lon="-1.64234">
        <ele>61</ele>
        <time>2021-06-02T16:59:56.000Z</time>
      </trkpt>
      <trkpt lat="47.03262" lon="-1.64235">
        <ele>60</ele>
        <time>2021-06-02T16:59:58.000Z</time>
      </trkpt>
      <trkpt lat="47.03278" lon="-1.64237">
        <ele>59</ele>
        <time>2021-06-02T17:00:00.000Z</time>
      </trkpt>
      <trkpt lat="47.03294" lon="-1.64235">
        <ele>59</ele>
        <time>2021-06-02T17:00:02.000Z</time>
      </trkpt>
      <trkpt lat="47.03311" lon="-1.64229">
        <ele>59</ele>
        <time>2021-06-02T17:00:04.000Z</time>
      </trkpt>
      <trkpt lat="47.03329" lon="-1.64228">
        <ele>58</ele>
        <time>2021-06-02T17:00:06.000Z</time>
      </trkpt>
      <trkpt lat="47.03342" lon="-1.64234">
        <ele>58</ele>
        <time>2021-06-02T17:00:08.000Z</time>
      </trkpt>
      <trkpt lat="47.03357" lon="-1.64237">
        <ele>59</ele>
        <time>2021-06-02T17:00:10.000Z</time>
      </trkpt>
      <trkpt lat="47.03371" lon="-1.6424">
        <ele>59</ele>
        <time>2021-06-02T17:00:12.000Z</time>
      </trkpt>
      <trkpt lat="47.03387" lon="-1.64244">
        <ele>59</ele>
        <time>2021-06-02T17:00:14.000Z</time>
      </trkpt>
      <trkpt lat="47.03401" lon="-1.6425">
        <ele>59</ele>
        <time>2021-06-02T17:00:16.000Z</time>
      </trkpt>
      <trkpt lat="47.03416" lon="-1.64256">
        <ele>59</ele>
        <time>2021-06-02T17:00:18.000Z</time>
      </trkpt>
      <trkpt lat="47.0343" lon="-1.64262">
        <ele>60</ele>
        <time>2021-06-02T17:00:20.000Z</time>
      </trkpt>
      <trkpt lat="47.03444" lon="-1.64267">
        <ele>60</ele>
        <time>2021-06-02T17:00:22.000Z</time>
      </trkpt>
      <trkpt lat="47.03459" lon="-1.64272">
        <ele>60</ele>
        <time>2021-06-02T17:00:24.000Z</time>
      </trkpt>
      <trkpt lat="47.03473" lon="-1.64278">
        <ele>60</ele>
        <time>2021-06-02T17:00:26.000Z</time>
      </trkpt>
      <trkpt lat="47.03488" lon="-1.64284">
        <ele>60</ele>
        <time>2021-06-02T17:00:28.000Z</time>
      </trkpt>
      <trkpt lat="47.03502" lon="-1.6429">
        <ele>61</ele>
        <time>2021-06-02T17:00:30.000Z</time>
      </trkpt>
      <trkpt lat="47.03517" lon="-1.64295">
        <ele>60</ele>
        <time>2021-06-02T17:00:32.000Z</time>
      </trkpt>
      <trkpt lat="47.03531" lon="-1.64294">
        <ele>59</ele>
        <time>2021-06-02T17:00:34.000Z</time>
      </trkpt>
      <trkpt lat="47.03545" lon="-1.64299">
        <ele>59</ele>
        <time>2021-06-02T17:00:36.000Z</time>
      </trkpt>
      <trkpt lat="47.03558" lon="-1.64301">
        <ele>59</ele>
        <time>2021-06-02T17:00:38.000Z</time>
      </trkpt>
      <trkpt lat="47.03569" lon="-1.64294">
        <ele>59</ele>
        <time>2021-06-02T17:00:40.000Z</time>
      </trkpt>
      <trkpt lat="47.03568" lon="-1.64276">
        <ele>59</ele>
        <time>2021-06-02T17:00:42.000Z</time>
      </trkpt>
      <trkpt lat="47.03563" lon="-1.6426">
        <ele>58</ele>
        <time>2021-06-02T17:00:44.000Z</time>
      </trkpt>
      <trkpt lat="47.03554" lon="-1.64238">
        <ele>55</ele>
        <time>2021-06-02T17:00:47.000Z</time>
      </trkpt>
      <trkpt lat="47.0355" lon="-1.64221">
        <ele>56</ele>
        <time>2021-06-02T17:00:49.000Z</time>
      </trkpt>
      <trkpt lat="47.0355" lon="-1.64203">
        <ele>56</ele>
        <time>2021-06-02T17:00:51.000Z</time>
      </trkpt>
      <trkpt lat="47.03558" lon="-1.64188">
        <ele>56</ele>
        <time>2021-06-02T17:00:53.000Z</time>
      </trkpt>
      <trkpt lat="47.03568" lon="-1.64177">
        <ele>55</ele>
        <time>2021-06-02T17:00:55.000Z</time>
      </trkpt>
      <trkpt lat="47.0358" lon="-1.64168">
        <ele>55</ele>
        <time>2021-06-02T17:00:57.000Z</time>
      </trkpt>
      <trkpt lat="47.03593" lon="-1.64163">
        <ele>55</ele>
        <time>2021-06-02T17:00:59.000Z</time>
      </trkpt>
      <trkpt lat="47.03608" lon="-1.64154">
        <ele>54</ele>
        <time>2021-06-02T17:01:02.000Z</time>
      </trkpt>
      <trkpt lat="47.03614" lon="-1.64144">
        <ele>56</ele>
        <time>2021-06-02T17:01:08.000Z</time>
      </trkpt>
      <trkpt lat="47.03626" lon="-1.64136">
        <ele>55</ele>
        <time>2021-06-02T17:01:12.000Z</time>
      </trkpt>
      <trkpt lat="47.03638" lon="-1.6413">
        <ele>53</ele>
        <time>2021-06-02T17:01:14.000Z</time>
      </trkpt>
      <trkpt lat="47.03649" lon="-1.6413">
        <ele>53</ele>
        <time>2021-06-02T17:01:19.000Z</time>
      </trkpt>
      <trkpt lat="47.03659" lon="-1.64128">
        <ele>55</ele>
        <time>2021-06-02T17:01:21.000Z</time>
      </trkpt>
      <trkpt lat="47.03677" lon="-1.64123">
        <ele>56</ele>
        <time>2021-06-02T17:01:24.000Z</time>
      </trkpt>
      <trkpt lat="47.0369" lon="-1.64119">
        <ele>56</ele>
        <time>2021-06-02T17:01:26.000Z</time>
      </trkpt>
      <trkpt lat="47.03705" lon="-1.64115">
        <ele>57</ele>
        <time>2021-06-02T17:01:28.000Z</time>
      </trkpt>
      <trkpt lat="47.03718" lon="-1.64111">
        <ele>58</ele>
        <time>2021-06-02T17:01:30.000Z</time>
      </trkpt>
      <trkpt lat="47.03739" lon="-1.64108">
        <ele>55</ele>
        <time>2021-06-02T17:01:33.000Z</time>
      </trkpt>
      <trkpt lat="47.03754" lon="-1.64105">
        <ele>55</ele>
        <time>2021-06-02T17:01:35.000Z</time>
      </trkpt>
      <trkpt lat="47.03768" lon="-1.64103">
        <ele>55</ele>
        <time>2021-06-02T17:01:37.000Z</time>
      </trkpt>
      <trkpt lat="47.03782" lon="-1.64098">
        <ele>55</ele>
        <time>2021-06-02T17:01:39.000Z</time>
      </trkpt>
      <trkpt lat="47.03796" lon="-1.64094">
        <ele>55</ele>
        <time>2021-06-02T17:01:41.000Z</time>
      </trkpt>
      <trkpt lat="47.03817" lon="-1.64089">
        <ele>56</ele>
        <time>2021-06-02T17:01:44.000Z</time>
      </trkpt>
      <trkpt lat="47.03829" lon="-1.64084">
        <ele>57</ele>
        <time>2021-06-02T17:01:46.000Z</time>
      </trkpt>
      <trkpt lat="47.03842" lon="-1.6408">
        <ele>58</ele>
        <time>2021-06-02T17:01:48.000Z</time>
      </trkpt>
      <trkpt lat="47.03856" lon="-1.64083">
        <ele>58</ele>
        <time>2021-06-02T17:01:50.000Z</time>
      </trkpt>
      <trkpt lat="47.03869" lon="-1.64091">
        <ele>58</ele>
        <time>2021-06-02T17:01:52.000Z</time>
      </trkpt>
      <trkpt lat="47.03883" lon="-1.64096">
        <ele>58</ele>
        <time>2021-06-02T17:01:54.000Z</time>
      </trkpt>
      <trkpt lat="47.03902" lon="-1.64108">
        <ele>55</ele>
        <time>2021-06-02T17:01:57.000Z</time>
      </trkpt>
      <trkpt lat="47.03914" lon="-1.64119">
        <ele>56</ele>
        <time>2021-06-02T17:01:59.000Z</time>
      </trkpt>
      <trkpt lat="47.03928" lon="-1.64128">
        <ele>57</ele>
        <time>2021-06-02T17:02:01.000Z</time>
      </trkpt>
      <trkpt lat="47.03941" lon="-1.64135">
        <ele>57</ele>
        <time>2021-06-02T17:02:03.000Z</time>
      </trkpt>
      <trkpt lat="47.03953" lon="-1.6414">
        <ele>56</ele>
        <time>2021-06-02T17:02:05.000Z</time>
      </trkpt>
      <trkpt lat="47.03967" lon="-1.64142">
        <ele>54</ele>
        <time>2021-06-02T17:02:07.000Z</time>
      </trkpt>
      <trkpt lat="47.03982" lon="-1.64137">
        <ele>54</ele>
        <time>2021-06-02T17:02:09.000Z</time>
      </trkpt>
      <trkpt lat="47.03995" lon="-1.64128">
        <ele>53</ele>
        <time>2021-06-02T17:02:11.000Z</time>
      </trkpt>
      <trkpt lat="47.04007" lon="-1.64118">
        <ele>53</ele>
        <time>2021-06-02T17:02:13.000Z</time>
      </trkpt>
      <trkpt lat="47.04026" lon="-1.64109">
        <ele>52</ele>
        <time>2021-06-02T17:02:16.000Z</time>
      </trkpt>
      <trkpt lat="47.0404" lon="-1.64107">
        <ele>54</ele>
        <time>2021-06-02T17:02:18.000Z</time>
      </trkpt>
      <trkpt lat="47.04054" lon="-1.64102">
        <ele>54</ele>
        <time>2021-06-02T17:02:20.000Z</time>
      </trkpt>
      <trkpt lat="47.04068" lon="-1.64096">
        <ele>54</ele>
        <time>2021-06-02T17:02:22.000Z</time>
      </trkpt>
      <trkpt lat="47.0408" lon="-1.64088">
        <ele>55</ele>
        <time>2021-06-02T17:02:24.000Z</time>
      </trkpt>
      <trkpt lat="47.04094" lon="-1.64081">
        <ele>55</ele>
        <time>2021-06-02T17:02:26.000Z</time>
      </trkpt>
      <trkpt lat="47.04108" lon="-1.64076">
        <ele>56</ele>
        <time>2021-06-02T17:02:28.000Z</time>
      </trkpt>
      <trkpt lat="47.04136" lon="-1.64064">
        <ele>56</ele>
        <time>2021-06-02T17:02:32.000Z</time>
      </trkpt>
      <trkpt lat="47.04151" lon="-1.64058">
        <ele>55</ele>
        <time>2021-06-02T17:02:34.000Z</time>
      </trkpt>
      <trkpt lat="47.04165" lon="-1.64052">
        <ele>55</ele>
        <time>2021-06-02T17:02:36.000Z</time>
      </trkpt>
      <trkpt lat="47.04179" lon="-1.64046">
        <ele>55</ele>
        <time>2021-06-02T17:02:38.000Z</time>
      </trkpt>
      <trkpt lat="47.04193" lon="-1.64041">
        <ele>55</ele>
        <time>2021-06-02T17:02:40.000Z</time>
      </trkpt>
      <trkpt lat="47.04206" lon="-1.64035">
        <ele>54</ele>
        <time>2021-06-02T17:02:42.000Z</time>
      </trkpt>
      <trkpt lat="47.0422" lon="-1.6403">
        <ele>54</ele>
        <time>2021-06-02T17:02:44.000Z</time>
      </trkpt>
      <trkpt lat="47.04233" lon="-1.64023">
        <ele>53</ele>
        <time>2021-06-02T17:02:46.000Z</time>
      </trkpt>
      <trkpt lat="47.04245" lon="-1.64019">
        <ele>55</ele>
        <time>2021-06-02T17:02:48.000Z</time>
      </trkpt>
      <trkpt lat="47.04257" lon="-1.64013">
        <ele>55</ele>
        <time>2021-06-02T17:02:50.000Z</time>
      </trkpt>
      <trkpt lat="47.04271" lon="-1.64006">
        <ele>54</ele>
        <time>2021-06-02T17:02:52.000Z</time>
      </trkpt>
      <trkpt lat="47.0429" lon="-1.64001">
        <ele>52</ele>
        <time>2021-06-02T17:02:55.000Z</time>
      </trkpt>
      <trkpt lat="47.04303" lon="-1.63994">
        <ele>53</ele>
        <time>2021-06-02T17:02:57.000Z</time>
      </trkpt>
      <trkpt lat="47.04317" lon="-1.63988">
        <ele>53</ele>
        <time>2021-06-02T17:02:59.000Z</time>
      </trkpt>
      <trkpt lat="47.04333" lon="-1.63984">
        <ele>53</ele>
        <time>2021-06-02T17:03:01.000Z</time>
      </trkpt>
      <trkpt lat="47.04346" lon="-1.63977">
        <ele>52</ele>
        <time>2021-06-02T17:03:03.000Z</time>
      </trkpt>
      <trkpt lat="47.04358" lon="-1.6397">
        <ele>52</ele>
        <time>2021-06-02T17:03:05.000Z</time>
      </trkpt>
      <trkpt lat="47.0437" lon="-1.63965">
        <ele>53</ele>
        <time>2021-06-02T17:03:07.000Z</time>
      </trkpt>
      <trkpt lat="47.04383" lon="-1.6396">
        <ele>53</ele>
        <time>2021-06-02T17:03:09.000Z</time>
      </trkpt>
      <trkpt lat="47.04395" lon="-1.63956">
        <ele>49</ele>
        <time>2021-06-02T17:03:11.000Z</time>
      </trkpt>
      <trkpt lat="47.04409" lon="-1.63946">
        <ele>49</ele>
        <time>2021-06-02T17:03:13.000Z</time>
      </trkpt>
      <trkpt lat="47.04423" lon="-1.63939">
        <ele>50</ele>
        <time>2021-06-02T17:03:15.000Z</time>
      </trkpt>
      <trkpt lat="47.04437" lon="-1.63932">
        <ele>47</ele>
        <time>2021-06-02T17:03:17.000Z</time>
      </trkpt>
      <trkpt lat="47.04449" lon="-1.63926">
        <ele>45</ele>
        <time>2021-06-02T17:03:19.000Z</time>
      </trkpt>
      <trkpt lat="47.04461" lon="-1.63922">
        <ele>46</ele>
        <time>2021-06-02T17:03:21.000Z</time>
      </trkpt>
      <trkpt lat="47.04475" lon="-1.63912">
        <ele>50</ele>
        <time>2021-06-02T17:03:23.000Z</time>
      </trkpt>
      <trkpt lat="47.04488" lon="-1.63906">
        <ele>51</ele>
        <time>2021-06-02T17:03:25.000Z</time>
      </trkpt>
      <trkpt lat="47.04501" lon="-1.63899">
        <ele>51</ele>
        <time>2021-06-02T17:03:27.000Z</time>
      </trkpt>
      <trkpt lat="47.04514" lon="-1.6389">
        <ele>52</ele>
        <time>2021-06-02T17:03:29.000Z</time>
      </trkpt>
      <trkpt lat="47.04527" lon="-1.63881">
        <ele>50</ele>
        <time>2021-06-02T17:03:31.000Z</time>
      </trkpt>
      <trkpt lat="47.04539" lon="-1.63873">
        <ele>49</ele>
        <time>2021-06-02T17:03:33.000Z</time>
      </trkpt>
      <trkpt lat="47.04557" lon="-1.63862">
        <ele>51</ele>
        <time>2021-06-02T17:03:36.000Z</time>
      </trkpt>
      <trkpt lat="47.04571" lon="-1.63854">
        <ele>53</ele>
        <time>2021-06-02T17:03:38.000Z</time>
      </trkpt>
      <trkpt lat="47.04583" lon="-1.63848">
        <ele>52</ele>
        <time>2021-06-02T17:03:40.000Z</time>
      </trkpt>
      <trkpt lat="47.04596" lon="-1.63843">
        <ele>53</ele>
        <time>2021-06-02T17:03:42.000Z</time>
      </trkpt>
      <trkpt lat="47.04609" lon="-1.63841">
        <ele>52</ele>
        <time>2021-06-02T17:03:44.000Z</time>
      </trkpt>
      <trkpt lat="47.04623" lon="-1.6384">
        <ele>52</ele>
        <time>2021-06-02T17:03:46.000Z</time>
      </trkpt>
      <trkpt lat="47.04635" lon="-1.63838">
        <ele>52</ele>
        <time>2021-06-02T17:03:48.000Z</time>
      </trkpt>
      <trkpt lat="47.04647" lon="-1.63832">
        <ele>53</ele>
        <time>2021-06-02T17:03:50.000Z</time>
      </trkpt>
      <trkpt lat="47.04658" lon="-1.63826">
        <ele>54</ele>
        <time>2021-06-02T17:03:52.000Z</time>
      </trkpt>
      <trkpt lat="47.04669" lon="-1.63819">
        <ele>54</ele>
        <time>2021-06-02T17:03:54.000Z</time>
      </trkpt>
      <trkpt lat="47.0468" lon="-1.63812">
        <ele>53</ele>
        <time>2021-06-02T17:03:56.000Z</time>
      </trkpt>
      <trkpt lat="47.0469" lon="-1.6381">
        <ele>53</ele>
        <time>2021-06-02T17:03:58.000Z</time>
      </trkpt>
      <trkpt lat="47.04702" lon="-1.63806">
        <ele>53</ele>
        <time>2021-06-02T17:04:00.000Z</time>
      </trkpt>
      <trkpt lat="47.04718" lon="-1.63796">
        <ele>56</ele>
        <time>2021-06-02T17:04:03.000Z</time>
      </trkpt>
      <trkpt lat="47.0473" lon="-1.63796">
        <ele>55</ele>
        <time>2021-06-02T17:04:05.000Z</time>
      </trkpt>
      <trkpt lat="47.04741" lon="-1.63795">
        <ele>56</ele>
        <time>2021-06-02T17:04:07.000Z</time>
      </trkpt>
      <trkpt lat="47.04754" lon="-1.63792">
        <ele>58</ele>
        <time>2021-06-02T17:04:09.000Z</time>
      </trkpt>
      <trkpt lat="47.04767" lon="-1.63788">
        <ele>59</ele>
        <time>2021-06-02T17:04:11.000Z</time>
      </trkpt>
      <trkpt lat="47.04779" lon="-1.63784">
        <ele>57</ele>
        <time>2021-06-02T17:04:13.000Z</time>
      </trkpt>
      <trkpt lat="47.0479" lon="-1.63782">
        <ele>58</ele>
        <time>2021-06-02T17:04:15.000Z</time>
      </trkpt>
      <trkpt lat="47.04802" lon="-1.6378">
        <ele>59</ele>
        <time>2021-06-02T17:04:17.000Z</time>
      </trkpt>
      <trkpt lat="47.04814" lon="-1.63778">
        <ele>60</ele>
        <time>2021-06-02T17:04:19.000Z</time>
      </trkpt>
      <trkpt lat="47.04826" lon="-1.63772">
        <ele>58</ele>
        <time>2021-06-02T17:04:21.000Z</time>
      </trkpt>
      <trkpt lat="47.04838" lon="-1.6377">
        <ele>58</ele>
        <time>2021-06-02T17:04:23.000Z</time>
      </trkpt>
      <trkpt lat="47.04851" lon="-1.63768">
        <ele>58</ele>
        <time>2021-06-02T17:04:25.000Z</time>
      </trkpt>
      <trkpt lat="47.04863" lon="-1.63765">
        <ele>59</ele>
        <time>2021-06-02T17:04:27.000Z</time>
      </trkpt>
      <trkpt lat="47.04876" lon="-1.63764">
        <ele>59</ele>
        <time>2021-06-02T17:04:29.000Z</time>
      </trkpt>
      <trkpt lat="47.04896" lon="-1.63761">
        <ele>58</ele>
        <time>2021-06-02T17:04:32.000Z</time>
      </trkpt>
      <trkpt lat="47.0491" lon="-1.63757">
        <ele>59</ele>
        <time>2021-06-02T17:04:34.000Z</time>
      </trkpt>
      <trkpt lat="47.04923" lon="-1.63754">
        <ele>60</ele>
        <time>2021-06-02T17:04:36.000Z</time>
      </trkpt>
      <trkpt lat="47.04934" lon="-1.63745">
        <ele>59</ele>
        <time>2021-06-02T17:04:38.000Z</time>
      </trkpt>
      <trkpt lat="47.04942" lon="-1.63725">
        <ele>58</ele>
        <time>2021-06-02T17:04:40.000Z</time>
      </trkpt>
      <trkpt lat="47.04944" lon="-1.63694">
        <ele>59</ele>
        <time>2021-06-02T17:04:43.000Z</time>
      </trkpt>
      <trkpt lat="47.04944" lon="-1.63675">
        <ele>58</ele>
        <time>2021-06-02T17:04:45.000Z</time>
      </trkpt>
      <trkpt lat="47.04943" lon="-1.63652">
        <ele>58</ele>
        <time>2021-06-02T17:04:47.000Z</time>
      </trkpt>
      <trkpt lat="47.04945" lon="-1.63628">
        <ele>57</ele>
        <time>2021-06-02T17:04:49.000Z</time>
      </trkpt>
      <trkpt lat="47.04951" lon="-1.63607">
        <ele>54</ele>
        <time>2021-06-02T17:04:51.000Z</time>
      </trkpt>
      <trkpt lat="47.04959" lon="-1.63587">
        <ele>52</ele>
        <time>2021-06-02T17:04:53.000Z</time>
      </trkpt>
      <trkpt lat="47.04972" lon="-1.63571">
        <ele>52</ele>
        <time>2021-06-02T17:04:55.000Z</time>
      </trkpt>
      <trkpt lat="47.04981" lon="-1.63564">
        <ele>52</ele>
        <time>2021-06-02T17:04:56.000Z</time>
      </trkpt>
      <trkpt lat="47.04996" lon="-1.63554">
        <ele>51</ele>
        <time>2021-06-02T17:04:58.000Z</time>
      </trkpt>
      <trkpt lat="47.05011" lon="-1.63547">
        <ele>51</ele>
        <time>2021-06-02T17:05:00.000Z</time>
      </trkpt>
      <trkpt lat="47.05027" lon="-1.6354">
        <ele>52</ele>
        <time>2021-06-02T17:05:02.000Z</time>
      </trkpt>
      <trkpt lat="47.05041" lon="-1.63533">
        <ele>53</ele>
        <time>2021-06-02T17:05:04.000Z</time>
      </trkpt>
      <trkpt lat="47.05058" lon="-1.63527">
        <ele>52</ele>
        <time>2021-06-02T17:05:06.000Z</time>
      </trkpt>
      <trkpt lat="47.05073" lon="-1.63521">
        <ele>52</ele>
        <time>2021-06-02T17:05:08.000Z</time>
      </trkpt>
      <trkpt lat="47.05088" lon="-1.63516">
        <ele>53</ele>
        <time>2021-06-02T17:05:10.000Z</time>
      </trkpt>
      <trkpt lat="47.05103" lon="-1.6351">
        <ele>53</ele>
        <time>2021-06-02T17:05:12.000Z</time>
      </trkpt>
      <trkpt lat="47.05118" lon="-1.63504">
        <ele>53</ele>
        <time>2021-06-02T17:05:14.000Z</time>
      </trkpt>
      <trkpt lat="47.0514" lon="-1.63497">
        <ele>54</ele>
        <time>2021-06-02T17:05:17.000Z</time>
      </trkpt>
      <trkpt lat="47.05155" lon="-1.6349">
        <ele>53</ele>
        <time>2021-06-02T17:05:19.000Z</time>
      </trkpt>
      <trkpt lat="47.0517" lon="-1.63484">
        <ele>54</ele>
        <time>2021-06-02T17:05:21.000Z</time>
      </trkpt>
      <trkpt lat="47.05185" lon="-1.63478">
        <ele>54</ele>
        <time>2021-06-02T17:05:23.000Z</time>
      </trkpt>
      <trkpt lat="47.052" lon="-1.63472">
        <ele>52</ele>
        <time>2021-06-02T17:05:25.000Z</time>
      </trkpt>
      <trkpt lat="47.05213" lon="-1.63466">
        <ele>53</ele>
        <time>2021-06-02T17:05:27.000Z</time>
      </trkpt>
      <trkpt lat="47.05228" lon="-1.63461">
        <ele>53</ele>
        <time>2021-06-02T17:05:29.000Z</time>
      </trkpt>
      <trkpt lat="47.05244" lon="-1.63458">
        <ele>54</ele>
        <time>2021-06-02T17:05:31.000Z</time>
      </trkpt>
      <trkpt lat="47.05257" lon="-1.63454">
        <ele>54</ele>
        <time>2021-06-02T17:05:33.000Z</time>
      </trkpt>
      <trkpt lat="47.05272" lon="-1.63451">
        <ele>54</ele>
        <time>2021-06-02T17:05:35.000Z</time>
      </trkpt>
      <trkpt lat="47.05288" lon="-1.63448">
        <ele>53</ele>
        <time>2021-06-02T17:05:37.000Z</time>
      </trkpt>
      <trkpt lat="47.05309" lon="-1.63446">
        <ele>54</ele>
        <time>2021-06-02T17:05:40.000Z</time>
      </trkpt>
      <trkpt lat="47.05325" lon="-1.63446">
        <ele>53</ele>
        <time>2021-06-02T17:05:42.000Z</time>
      </trkpt>
      <trkpt lat="47.05341" lon="-1.63444">
        <ele>54</ele>
        <time>2021-06-02T17:05:44.000Z</time>
      </trkpt>
      <trkpt lat="47.05356" lon="-1.63439">
        <ele>53</ele>
        <time>2021-06-02T17:05:46.000Z</time>
      </trkpt>
      <trkpt lat="47.05371" lon="-1.63429">
        <ele>53</ele>
        <time>2021-06-02T17:05:48.000Z</time>
      </trkpt>
      <trkpt lat="47.05386" lon="-1.63427">
        <ele>55</ele>
        <time>2021-06-02T17:05:50.000Z</time>
      </trkpt>
      <trkpt lat="47.054" lon="-1.63432">
        <ele>54</ele>
        <time>2021-06-02T17:05:52.000Z</time>
      </trkpt>
      <trkpt lat="47.05415" lon="-1.6343">
        <ele>53</ele>
        <time>2021-06-02T17:05:54.000Z</time>
      </trkpt>
      <trkpt lat="47.05431" lon="-1.63425">
        <ele>53</ele>
        <time>2021-06-02T17:05:56.000Z</time>
      </trkpt>
      <trkpt lat="47.05446" lon="-1.63419">
        <ele>53</ele>
        <time>2021-06-02T17:05:58.000Z</time>
      </trkpt>
      <trkpt lat="47.05461" lon="-1.6342">
        <ele>53</ele>
        <time>2021-06-02T17:06:00.000Z</time>
      </trkpt>
      <trkpt lat="47.05475" lon="-1.63419">
        <ele>53</ele>
        <time>2021-06-02T17:06:02.000Z</time>
      </trkpt>
      <trkpt lat="47.05497" lon="-1.63411">
        <ele>54</ele>
        <time>2021-06-02T17:06:05.000Z</time>
      </trkpt>
      <trkpt lat="47.05512" lon="-1.63408">
        <ele>53</ele>
        <time>2021-06-02T17:06:07.000Z</time>
      </trkpt>
      <trkpt lat="47.05527" lon="-1.63408">
        <ele>53</ele>
        <time>2021-06-02T17:06:09.000Z</time>
      </trkpt>
      <trkpt lat="47.05542" lon="-1.63403">
        <ele>53</ele>
        <time>2021-06-02T17:06:11.000Z</time>
      </trkpt>
      <trkpt lat="47.05557" lon="-1.63398">
        <ele>53</ele>
        <time>2021-06-02T17:06:13.000Z</time>
      </trkpt>
      <trkpt lat="47.05571" lon="-1.63392">
        <ele>53</ele>
        <time>2021-06-02T17:06:15.000Z</time>
      </trkpt>
      <trkpt lat="47.05586" lon="-1.63385">
        <ele>53</ele>
        <time>2021-06-02T17:06:17.000Z</time>
      </trkpt>
      <trkpt lat="47.056" lon="-1.6338">
        <ele>53</ele>
        <time>2021-06-02T17:06:19.000Z</time>
      </trkpt>
      <trkpt lat="47.05614" lon="-1.63373">
        <ele>53</ele>
        <time>2021-06-02T17:06:21.000Z</time>
      </trkpt>
      <trkpt lat="47.05628" lon="-1.63367">
        <ele>53</ele>
        <time>2021-06-02T17:06:23.000Z</time>
      </trkpt>
      <trkpt lat="47.05649" lon="-1.63357">
        <ele>54</ele>
        <time>2021-06-02T17:06:26.000Z</time>
      </trkpt>
      <trkpt lat="47.05664" lon="-1.6335">
        <ele>53</ele>
        <time>2021-06-02T17:06:28.000Z</time>
      </trkpt>
      <trkpt lat="47.05678" lon="-1.63343">
        <ele>53</ele>
        <time>2021-06-02T17:06:30.000Z</time>
      </trkpt>
      <trkpt lat="47.05693" lon="-1.63336">
        <ele>53</ele>
        <time>2021-06-02T17:06:32.000Z</time>
      </trkpt>
      <trkpt lat="47.05713" lon="-1.63325">
        <ele>53</ele>
        <time>2021-06-02T17:06:35.000Z</time>
      </trkpt>
      <trkpt lat="47.05726" lon="-1.63319">
        <ele>52</ele>
        <time>2021-06-02T17:06:37.000Z</time>
      </trkpt>
      <trkpt lat="47.05738" lon="-1.63314">
        <ele>51</ele>
        <time>2021-06-02T17:06:39.000Z</time>
      </trkpt>
      <trkpt lat="47.05754" lon="-1.63308">
        <ele>52</ele>
        <time>2021-06-02T17:06:41.000Z</time>
      </trkpt>
      <trkpt lat="47.05777" lon="-1.63297">
        <ele>52</ele>
        <time>2021-06-02T17:06:44.000Z</time>
      </trkpt>
      <trkpt lat="47.05791" lon="-1.63293">
        <ele>52</ele>
        <time>2021-06-02T17:06:46.000Z</time>
      </trkpt>
      <trkpt lat="47.05804" lon="-1.63285">
        <ele>52</ele>
        <time>2021-06-02T17:06:48.000Z</time>
      </trkpt>
      <trkpt lat="47.05819" lon="-1.63277">
        <ele>53</ele>
        <time>2021-06-02T17:06:50.000Z</time>
      </trkpt>
      <trkpt lat="47.05833" lon="-1.6327">
        <ele>52</ele>
        <time>2021-06-02T17:06:52.000Z</time>
      </trkpt>
      <trkpt lat="47.05853" lon="-1.63259">
        <ele>51</ele>
        <time>2021-06-02T17:06:55.000Z</time>
      </trkpt>
      <trkpt lat="47.05867" lon="-1.63253">
        <ele>51</ele>
        <time>2021-06-02T17:06:57.000Z</time>
      </trkpt>
      <trkpt lat="47.05882" lon="-1.63247">
        <ele>51</ele>
        <time>2021-06-02T17:06:59.000Z</time>
      </trkpt>
      <trkpt lat="47.05896" lon="-1.6324">
        <ele>51</ele>
        <time>2021-06-02T17:07:01.000Z</time>
      </trkpt>
      <trkpt lat="47.0591" lon="-1.63233">
        <ele>51</ele>
        <time>2021-06-02T17:07:03.000Z</time>
      </trkpt>
      <trkpt lat="47.05924" lon="-1.63228">
        <ele>49</ele>
        <time>2021-06-02T17:07:05.000Z</time>
      </trkpt>
      <trkpt lat="47.05936" lon="-1.63224">
        <ele>50</ele>
        <time>2021-06-02T17:07:07.000Z</time>
      </trkpt>
      <trkpt lat="47.0595" lon="-1.63219">
        <ele>50</ele>
        <time>2021-06-02T17:07:09.000Z</time>
      </trkpt>
      <trkpt lat="47.05964" lon="-1.6321">
        <ele>51</ele>
        <time>2021-06-02T17:07:11.000Z</time>
      </trkpt>
      <trkpt lat="47.05978" lon="-1.63203">
        <ele>52</ele>
        <time>2021-06-02T17:07:13.000Z</time>
      </trkpt>
      <trkpt lat="47.05999" lon="-1.63193">
        <ele>52</ele>
        <time>2021-06-02T17:07:16.000Z</time>
      </trkpt>
      <trkpt lat="47.06013" lon="-1.63188">
        <ele>53</ele>
        <time>2021-06-02T17:07:18.000Z</time>
      </trkpt>
      <trkpt lat="47.06027" lon="-1.6318">
        <ele>54</ele>
        <time>2021-06-02T17:07:20.000Z</time>
      </trkpt>
      <trkpt lat="47.06041" lon="-1.63173">
        <ele>54</ele>
        <time>2021-06-02T17:07:22.000Z</time>
      </trkpt>
      <trkpt lat="47.06054" lon="-1.63166">
        <ele>54</ele>
        <time>2021-06-02T17:07:24.000Z</time>
      </trkpt>
      <trkpt lat="47.06067" lon="-1.63161">
        <ele>54</ele>
        <time>2021-06-02T17:07:26.000Z</time>
      </trkpt>
      <trkpt lat="47.06081" lon="-1.63154">
        <ele>54</ele>
        <time>2021-06-02T17:07:28.000Z</time>
      </trkpt>
      <trkpt lat="47.06094" lon="-1.63148">
        <ele>55</ele>
        <time>2021-06-02T17:07:30.000Z</time>
      </trkpt>
      <trkpt lat="47.06108" lon="-1.63141">
        <ele>54</ele>
        <time>2021-06-02T17:07:32.000Z</time>
      </trkpt>
      <trkpt lat="47.06122" lon="-1.63134">
        <ele>54</ele>
        <time>2021-06-02T17:07:34.000Z</time>
      </trkpt>
      <trkpt lat="47.06135" lon="-1.63128">
        <ele>54</ele>
        <time>2021-06-02T17:07:36.000Z</time>
      </trkpt>
      <trkpt lat="47.06149" lon="-1.63121">
        <ele>55</ele>
        <time>2021-06-02T17:07:38.000Z</time>
      </trkpt>
      <trkpt lat="47.06163" lon="-1.63115">
        <ele>53</ele>
        <time>2021-06-02T17:07:40.000Z</time>
      </trkpt>
      <trkpt lat="47.06176" lon="-1.6311">
        <ele>52</ele>
        <time>2021-06-02T17:07:42.000Z</time>
      </trkpt>
      <trkpt lat="47.0619" lon="-1.63104">
        <ele>53</ele>
        <time>2021-06-02T17:07:44.000Z</time>
      </trkpt>
      <trkpt lat="47.06204" lon="-1.63098">
        <ele>53</ele>
        <time>2021-06-02T17:07:46.000Z</time>
      </trkpt>
      <trkpt lat="47.06221" lon="-1.63094">
        <ele>52</ele>
        <time>2021-06-02T17:07:48.000Z</time>
      </trkpt>
      <trkpt lat="47.06235" lon="-1.63085">
        <ele>52</ele>
        <time>2021-06-02T17:07:50.000Z</time>
      </trkpt>
      <trkpt lat="47.06251" lon="-1.63076">
        <ele>52</ele>
        <time>2021-06-02T17:07:52.000Z</time>
      </trkpt>
      <trkpt lat="47.06269" lon="-1.63065">
        <ele>54</ele>
        <time>2021-06-02T17:07:55.000Z</time>
      </trkpt>
      <trkpt lat="47.06282" lon="-1.63057">
        <ele>50</ele>
        <time>2021-06-02T17:07:57.000Z</time>
      </trkpt>
      <trkpt lat="47.06296" lon="-1.6305">
        <ele>51</ele>
        <time>2021-06-02T17:07:59.000Z</time>
      </trkpt>
      <trkpt lat="47.0631" lon="-1.63044">
        <ele>52</ele>
        <time>2021-06-02T17:08:01.000Z</time>
      </trkpt>
      <trkpt lat="47.06325" lon="-1.63037">
        <ele>54</ele>
        <time>2021-06-02T17:08:03.000Z</time>
      </trkpt>
      <trkpt lat="47.06338" lon="-1.63032">
        <ele>54</ele>
        <time>2021-06-02T17:08:05.000Z</time>
      </trkpt>
      <trkpt lat="47.06352" lon="-1.63026">
        <ele>55</ele>
        <time>2021-06-02T17:08:07.000Z</time>
      </trkpt>
      <trkpt lat="47.06364" lon="-1.63021">
        <ele>55</ele>
        <time>2021-06-02T17:08:09.000Z</time>
      </trkpt>
      <trkpt lat="47.06379" lon="-1.63015">
        <ele>55</ele>
        <time>2021-06-02T17:08:11.000Z</time>
      </trkpt>
      <trkpt lat="47.06392" lon="-1.63009">
        <ele>55</ele>
        <time>2021-06-02T17:08:13.000Z</time>
      </trkpt>
      <trkpt lat="47.06406" lon="-1.63002">
        <ele>55</ele>
        <time>2021-06-02T17:08:15.000Z</time>
      </trkpt>
      <trkpt lat="47.06419" lon="-1.62995">
        <ele>55</ele>
        <time>2021-06-02T17:08:17.000Z</time>
      </trkpt>
      <trkpt lat="47.06433" lon="-1.62988">
        <ele>55</ele>
        <time>2021-06-02T17:08:19.000Z</time>
      </trkpt>
      <trkpt lat="47.06446" lon="-1.62982">
        <ele>55</ele>
        <time>2021-06-02T17:08:21.000Z</time>
      </trkpt>
      <trkpt lat="47.06466" lon="-1.62972">
        <ele>55</ele>
        <time>2021-06-02T17:08:24.000Z</time>
      </trkpt>
      <trkpt lat="47.0648" lon="-1.62964">
        <ele>56</ele>
        <time>2021-06-02T17:08:26.000Z</time>
      </trkpt>
      <trkpt lat="47.06494" lon="-1.62956">
        <ele>56</ele>
        <time>2021-06-02T17:08:28.000Z</time>
      </trkpt>
      <trkpt lat="47.06507" lon="-1.62945">
        <ele>57</ele>
        <time>2021-06-02T17:08:30.000Z</time>
      </trkpt>
      <trkpt lat="47.06519" lon="-1.62931">
        <ele>56</ele>
        <time>2021-06-02T17:08:32.000Z</time>
      </trkpt>
      <trkpt lat="47.0653" lon="-1.62916">
        <ele>56</ele>
        <time>2021-06-02T17:08:34.000Z</time>
      </trkpt>
      <trkpt lat="47.06546" lon="-1.62891">
        <ele>56</ele>
        <time>2021-06-02T17:08:37.000Z</time>
      </trkpt>
      <trkpt lat="47.06562" lon="-1.62867">
        <ele>56</ele>
        <time>2021-06-02T17:08:40.000Z</time>
      </trkpt>
      <trkpt lat="47.06572" lon="-1.62851">
        <ele>56</ele>
        <time>2021-06-02T17:08:42.000Z</time>
      </trkpt>
      <trkpt lat="47.06583" lon="-1.62836">
        <ele>57</ele>
        <time>2021-06-02T17:08:44.000Z</time>
      </trkpt>
      <trkpt lat="47.06593" lon="-1.6282">
        <ele>57</ele>
        <time>2021-06-02T17:08:46.000Z</time>
      </trkpt>
      <trkpt lat="47.06604" lon="-1.62803">
        <ele>57</ele>
        <time>2021-06-02T17:08:48.000Z</time>
      </trkpt>
      <trkpt lat="47.06614" lon="-1.62787">
        <ele>58</ele>
        <time>2021-06-02T17:08:50.000Z</time>
      </trkpt>
      <trkpt lat="47.06625" lon="-1.62772">
        <ele>57</ele>
        <time>2021-06-02T17:08:52.000Z</time>
      </trkpt>
      <trkpt lat="47.06636" lon="-1.62756">
        <ele>57</ele>
        <time>2021-06-02T17:08:54.000Z</time>
      </trkpt>
      <trkpt lat="47.06647" lon="-1.62742">
        <ele>56</ele>
        <time>2021-06-02T17:08:56.000Z</time>
      </trkpt>
      <trkpt lat="47.06663" lon="-1.62715">
        <ele>55</ele>
        <time>2021-06-02T17:08:59.000Z</time>
      </trkpt>
      <trkpt lat="47.06671" lon="-1.62698">
        <ele>53</ele>
        <time>2021-06-02T17:09:01.000Z</time>
      </trkpt>
      <trkpt lat="47.06683" lon="-1.6268">
        <ele>54</ele>
        <time>2021-06-02T17:09:03.000Z</time>
      </trkpt>
      <trkpt lat="47.06695" lon="-1.62664">
        <ele>55</ele>
        <time>2021-06-02T17:09:05.000Z</time>
      </trkpt>
      <trkpt lat="47.06707" lon="-1.62649">
        <ele>55</ele>
        <time>2021-06-02T17:09:07.000Z</time>
      </trkpt>
      <trkpt lat="47.06719" lon="-1.62635">
        <ele>55</ele>
        <time>2021-06-02T17:09:09.000Z</time>
      </trkpt>
      <trkpt lat="47.06732" lon="-1.62621">
        <ele>55</ele>
        <time>2021-06-02T17:09:11.000Z</time>
      </trkpt>
      <trkpt lat="47.06745" lon="-1.62608">
        <ele>54</ele>
        <time>2021-06-02T17:09:13.000Z</time>
      </trkpt>
      <trkpt lat="47.06757" lon="-1.62596">
        <ele>55</ele>
        <time>2021-06-02T17:09:15.000Z</time>
      </trkpt>
      <trkpt lat="47.06765" lon="-1.62587">
        <ele>54</ele>
        <time>2021-06-02T17:09:16.000Z</time>
      </trkpt>
      <trkpt lat="47.06773" lon="-1.62578">
        <ele>55</ele>
        <time>2021-06-02T17:09:17.000Z</time>
      </trkpt>
      <trkpt lat="47.06784" lon="-1.62568">
        <ele>55</ele>
        <time>2021-06-02T17:09:19.000Z</time>
      </trkpt>
      <trkpt lat="47.06797" lon="-1.62557">
        <ele>54</ele>
        <time>2021-06-02T17:09:21.000Z</time>
      </trkpt>
      <trkpt lat="47.0681" lon="-1.62547">
        <ele>54</ele>
        <time>2021-06-02T17:09:23.000Z</time>
      </trkpt>
      <trkpt lat="47.06822" lon="-1.62538">
        <ele>55</ele>
        <time>2021-06-02T17:09:25.000Z</time>
      </trkpt>
      <trkpt lat="47.06835" lon="-1.62526">
        <ele>55</ele>
        <time>2021-06-02T17:09:27.000Z</time>
      </trkpt>
      <trkpt lat="47.06848" lon="-1.62515">
        <ele>55</ele>
        <time>2021-06-02T17:09:29.000Z</time>
      </trkpt>
      <trkpt lat="47.06869" lon="-1.62501">
        <ele>53</ele>
        <time>2021-06-02T17:09:32.000Z</time>
      </trkpt>
      <trkpt lat="47.06881" lon="-1.62494">
        <ele>54</ele>
        <time>2021-06-02T17:09:34.000Z</time>
      </trkpt>
      <trkpt lat="47.06895" lon="-1.62485">
        <ele>55</ele>
        <time>2021-06-02T17:09:36.000Z</time>
      </trkpt>
      <trkpt lat="47.0691" lon="-1.62479">
        <ele>56</ele>
        <time>2021-06-02T17:09:38.000Z</time>
      </trkpt>
      <trkpt lat="47.06924" lon="-1.62474">
        <ele>55</ele>
        <time>2021-06-02T17:09:40.000Z</time>
      </trkpt>
      <trkpt lat="47.0694" lon="-1.62468">
        <ele>55</ele>
        <time>2021-06-02T17:09:42.000Z</time>
      </trkpt>
      <trkpt lat="47.06954" lon="-1.62461">
        <ele>56</ele>
        <time>2021-06-02T17:09:44.000Z</time>
      </trkpt>
      <trkpt lat="47.06973" lon="-1.62452">
        <ele>56</ele>
        <time>2021-06-02T17:09:47.000Z</time>
      </trkpt>
      <trkpt lat="47.06985" lon="-1.62448">
        <ele>51</ele>
        <time>2021-06-02T17:09:49.000Z</time>
      </trkpt>
      <trkpt lat="47.07" lon="-1.62446">
        <ele>51</ele>
        <time>2021-06-02T17:09:51.000Z</time>
      </trkpt>
      <trkpt lat="47.07014" lon="-1.62438">
        <ele>55</ele>
        <time>2021-06-02T17:09:53.000Z</time>
      </trkpt>
      <trkpt lat="47.07028" lon="-1.62429">
        <ele>55</ele>
        <time>2021-06-02T17:09:55.000Z</time>
      </trkpt>
      <trkpt lat="47.07042" lon="-1.62421">
        <ele>56</ele>
        <time>2021-06-02T17:09:57.000Z</time>
      </trkpt>
      <trkpt lat="47.07057" lon="-1.62412">
        <ele>55</ele>
        <time>2021-06-02T17:09:59.000Z</time>
      </trkpt>
      <trkpt lat="47.07078" lon="-1.62395">
        <ele>55</ele>
        <time>2021-06-02T17:10:02.000Z</time>
      </trkpt>
      <trkpt lat="47.07091" lon="-1.62388">
        <ele>52</ele>
        <time>2021-06-02T17:10:04.000Z</time>
      </trkpt>
      <trkpt lat="47.07104" lon="-1.62381">
        <ele>53</ele>
        <time>2021-06-02T17:10:06.000Z</time>
      </trkpt>
      <trkpt lat="47.07119" lon="-1.62371">
        <ele>55</ele>
        <time>2021-06-02T17:10:08.000Z</time>
      </trkpt>
      <trkpt lat="47.07132" lon="-1.62362">
        <ele>55</ele>
        <time>2021-06-02T17:10:10.000Z</time>
      </trkpt>
      <trkpt lat="47.07145" lon="-1.62352">
        <ele>55</ele>
        <time>2021-06-02T17:10:12.000Z</time>
      </trkpt>
      <trkpt lat="47.07158" lon="-1.62343">
        <ele>55</ele>
        <time>2021-06-02T17:10:14.000Z</time>
      </trkpt>
      <trkpt lat="47.07171" lon="-1.62334">
        <ele>55</ele>
        <time>2021-06-02T17:10:16.000Z</time>
      </trkpt>
      <trkpt lat="47.07185" lon="-1.62325">
        <ele>55</ele>
        <time>2021-06-02T17:10:18.000Z</time>
      </trkpt>
      <trkpt lat="47.07199" lon="-1.62316">
        <ele>54</ele>
        <time>2021-06-02T17:10:20.000Z</time>
      </trkpt>
      <trkpt lat="47.07212" lon="-1.62307">
        <ele>55</ele>
        <time>2021-06-02T17:10:22.000Z</time>
      </trkpt>
      <trkpt lat="47.07226" lon="-1.62298">
        <ele>55</ele>
        <time>2021-06-02T17:10:24.000Z</time>
      </trkpt>
      <trkpt lat="47.07245" lon="-1.62284">
        <ele>55</ele>
        <time>2021-06-02T17:10:27.000Z</time>
      </trkpt>
      <trkpt lat="47.07258" lon="-1.62275">
        <ele>55</ele>
        <time>2021-06-02T17:10:29.000Z</time>
      </trkpt>
      <trkpt lat="47.0727" lon="-1.62264">
        <ele>55</ele>
        <time>2021-06-02T17:10:31.000Z</time>
      </trkpt>
      <trkpt lat="47.07282" lon="-1.6225">
        <ele>55</ele>
        <time>2021-06-02T17:10:33.000Z</time>
      </trkpt>
      <trkpt lat="47.07293" lon="-1.62239">
        <ele>54</ele>
        <time>2021-06-02T17:10:35.000Z</time>
      </trkpt>
      <trkpt lat="47.07303" lon="-1.62226">
        <ele>55</ele>
        <time>2021-06-02T17:10:37.000Z</time>
      </trkpt>
      <trkpt lat="47.07313" lon="-1.62212">
        <ele>55</ele>
        <time>2021-06-02T17:10:39.000Z</time>
      </trkpt>
      <trkpt lat="47.07322" lon="-1.62196">
        <ele>54</ele>
        <time>2021-06-02T17:10:41.000Z</time>
      </trkpt>
      <trkpt lat="47.07333" lon="-1.62182">
        <ele>55</ele>
        <time>2021-06-02T17:10:43.000Z</time>
      </trkpt>
      <trkpt lat="47.07343" lon="-1.62167">
        <ele>55</ele>
        <time>2021-06-02T17:10:45.000Z</time>
      </trkpt>
      <trkpt lat="47.07352" lon="-1.62152">
        <ele>55</ele>
        <time>2021-06-02T17:10:47.000Z</time>
      </trkpt>
      <trkpt lat="47.07362" lon="-1.62136">
        <ele>55</ele>
        <time>2021-06-02T17:10:49.000Z</time>
      </trkpt>
      <trkpt lat="47.07372" lon="-1.62119">
        <ele>55</ele>
        <time>2021-06-02T17:10:51.000Z</time>
      </trkpt>
      <trkpt lat="47.07381" lon="-1.62103">
        <ele>55</ele>
        <time>2021-06-02T17:10:53.000Z</time>
      </trkpt>
      <trkpt lat="47.07389" lon="-1.62087">
        <ele>55</ele>
        <time>2021-06-02T17:10:55.000Z</time>
      </trkpt>
      <trkpt lat="47.07405" lon="-1.62064">
        <ele>54</ele>
        <time>2021-06-02T17:10:58.000Z</time>
      </trkpt>
      <trkpt lat="47.07415" lon="-1.62049">
        <ele>55</ele>
        <time>2021-06-02T17:11:00.000Z</time>
      </trkpt>
      <trkpt lat="47.07425" lon="-1.62036">
        <ele>55</ele>
        <time>2021-06-02T17:11:02.000Z</time>
      </trkpt>
      <trkpt lat="47.07435" lon="-1.6202">
        <ele>55</ele>
        <time>2021-06-02T17:11:04.000Z</time>
      </trkpt>
      <trkpt lat="47.07451" lon="-1.61997">
        <ele>55</ele>
        <time>2021-06-02T17:11:07.000Z</time>
      </trkpt>
      <trkpt lat="47.07461" lon="-1.61981">
        <ele>55</ele>
        <time>2021-06-02T17:11:09.000Z</time>
      </trkpt>
      <trkpt lat="47.07472" lon="-1.61967">
        <ele>56</ele>
        <time>2021-06-02T17:11:11.000Z</time>
      </trkpt>
      <trkpt lat="47.07485" lon="-1.61954">
        <ele>56</ele>
        <time>2021-06-02T17:11:13.000Z</time>
      </trkpt>
      <trkpt lat="47.07497" lon="-1.6194">
        <ele>55</ele>
        <time>2021-06-02T17:11:15.000Z</time>
      </trkpt>
      <trkpt lat="47.07509" lon="-1.61928">
        <ele>55</ele>
        <time>2021-06-02T17:11:17.000Z</time>
      </trkpt>
      <trkpt lat="47.0752" lon="-1.61913">
        <ele>53</ele>
        <time>2021-06-02T17:11:19.000Z</time>
      </trkpt>
      <trkpt lat="47.07533" lon="-1.619">
        <ele>54</ele>
        <time>2021-06-02T17:11:21.000Z</time>
      </trkpt>
      <trkpt lat="47.07544" lon="-1.61887">
        <ele>55</ele>
        <time>2021-06-02T17:11:23.000Z</time>
      </trkpt>
      <trkpt lat="47.07556" lon="-1.61873">
        <ele>53</ele>
        <time>2021-06-02T17:11:25.000Z</time>
      </trkpt>
      <trkpt lat="47.07567" lon="-1.61861">
        <ele>50</ele>
        <time>2021-06-02T17:11:27.000Z</time>
      </trkpt>
      <trkpt lat="47.07578" lon="-1.61847">
        <ele>52</ele>
        <time>2021-06-02T17:11:29.000Z</time>
      </trkpt>
      <trkpt lat="47.07589" lon="-1.61835">
        <ele>53</ele>
        <time>2021-06-02T17:11:31.000Z</time>
      </trkpt>
      <trkpt lat="47.07601" lon="-1.61823">
        <ele>54</ele>
        <time>2021-06-02T17:11:33.000Z</time>
      </trkpt>
      <trkpt lat="47.07612" lon="-1.6181">
        <ele>55</ele>
        <time>2021-06-02T17:11:35.000Z</time>
      </trkpt>
      <trkpt lat="47.07623" lon="-1.61796">
        <ele>53</ele>
        <time>2021-06-02T17:11:37.000Z</time>
      </trkpt>
      <trkpt lat="47.07634" lon="-1.61782">
        <ele>53</ele>
        <time>2021-06-02T17:11:39.000Z</time>
      </trkpt>
      <trkpt lat="47.07646" lon="-1.61768">
        <ele>55</ele>
        <time>2021-06-02T17:11:41.000Z</time>
      </trkpt>
      <trkpt lat="47.07658" lon="-1.61753">
        <ele>55</ele>
        <time>2021-06-02T17:11:43.000Z</time>
      </trkpt>
      <trkpt lat="47.0767" lon="-1.61736">
        <ele>54</ele>
        <time>2021-06-02T17:11:45.000Z</time>
      </trkpt>
      <trkpt lat="47.07684" lon="-1.61723">
        <ele>55</ele>
        <time>2021-06-02T17:11:47.000Z</time>
      </trkpt>
      <trkpt lat="47.07696" lon="-1.61709">
        <ele>55</ele>
        <time>2021-06-02T17:11:49.000Z</time>
      </trkpt>
      <trkpt lat="47.07708" lon="-1.61696">
        <ele>55</ele>
        <time>2021-06-02T17:11:51.000Z</time>
      </trkpt>
      <trkpt lat="47.0772" lon="-1.61682">
        <ele>54</ele>
        <time>2021-06-02T17:11:53.000Z</time>
      </trkpt>
      <trkpt lat="47.0773" lon="-1.61671">
        <ele>54</ele>
        <time>2021-06-02T17:11:55.000Z</time>
      </trkpt>
      <trkpt lat="47.0774" lon="-1.61659">
        <ele>55</ele>
        <time>2021-06-02T17:11:57.000Z</time>
      </trkpt>
      <trkpt lat="47.07751" lon="-1.61647">
        <ele>56</ele>
        <time>2021-06-02T17:11:59.000Z</time>
      </trkpt>
      <trkpt lat="47.07769" lon="-1.61627">
        <ele>56</ele>
        <time>2021-06-02T17:12:02.000Z</time>
      </trkpt>
      <trkpt lat="47.07782" lon="-1.61613">
        <ele>56</ele>
        <time>2021-06-02T17:12:04.000Z</time>
      </trkpt>
      <trkpt lat="47.07794" lon="-1.61601">
        <ele>56</ele>
        <time>2021-06-02T17:12:06.000Z</time>
      </trkpt>
      <trkpt lat="47.07808" lon="-1.61589">
        <ele>56</ele>
        <time>2021-06-02T17:12:08.000Z</time>
      </trkpt>
      <trkpt lat="47.07823" lon="-1.6158">
        <ele>55</ele>
        <time>2021-06-02T17:12:10.000Z</time>
      </trkpt>
      <trkpt lat="47.07837" lon="-1.61572">
        <ele>55</ele>
        <time>2021-06-02T17:12:12.000Z</time>
      </trkpt>
      <trkpt lat="47.07851" lon="-1.61565">
        <ele>54</ele>
        <time>2021-06-02T17:12:14.000Z</time>
      </trkpt>
      <trkpt lat="47.07865" lon="-1.61556">
        <ele>51</ele>
        <time>2021-06-02T17:12:16.000Z</time>
      </trkpt>
      <trkpt lat="47.07879" lon="-1.61547">
        <ele>51</ele>
        <time>2021-06-02T17:12:18.000Z</time>
      </trkpt>
      <trkpt lat="47.07894" lon="-1.61542">
        <ele>51</ele>
        <time>2021-06-02T17:12:20.000Z</time>
      </trkpt>
      <trkpt lat="47.07908" lon="-1.61536">
        <ele>52</ele>
        <time>2021-06-02T17:12:22.000Z</time>
      </trkpt>
      <trkpt lat="47.07922" lon="-1.61532">
        <ele>52</ele>
        <time>2021-06-02T17:12:24.000Z</time>
      </trkpt>
      <trkpt lat="47.07934" lon="-1.61531">
        <ele>51</ele>
        <time>2021-06-02T17:12:26.000Z</time>
      </trkpt>
      <trkpt lat="47.07946" lon="-1.61523">
        <ele>51</ele>
        <time>2021-06-02T17:12:28.000Z</time>
      </trkpt>
      <trkpt lat="47.07963" lon="-1.61514">
        <ele>52</ele>
        <time>2021-06-02T17:12:30.000Z</time>
      </trkpt>
      <trkpt lat="47.07983" lon="-1.61505">
        <ele>52</ele>
        <time>2021-06-02T17:12:33.000Z</time>
      </trkpt>
      <trkpt lat="47.07999" lon="-1.615">
        <ele>52</ele>
        <time>2021-06-02T17:12:35.000Z</time>
      </trkpt>
      <trkpt lat="47.08014" lon="-1.61493">
        <ele>53</ele>
        <time>2021-06-02T17:12:37.000Z</time>
      </trkpt>
      <trkpt lat="47.08028" lon="-1.61487">
        <ele>53</ele>
        <time>2021-06-02T17:12:39.000Z</time>
      </trkpt>
      <trkpt lat="47.08041" lon="-1.61485">
        <ele>53</ele>
        <time>2021-06-02T17:12:41.000Z</time>
      </trkpt>
      <trkpt lat="47.08053" lon="-1.61483">
        <ele>53</ele>
        <time>2021-06-02T17:12:43.000Z</time>
      </trkpt>
      <trkpt lat="47.08068" lon="-1.61473">
        <ele>54</ele>
        <time>2021-06-02T17:12:45.000Z</time>
      </trkpt>
      <trkpt lat="47.08083" lon="-1.61464">
        <ele>54</ele>
        <time>2021-06-02T17:12:47.000Z</time>
      </trkpt>
      <trkpt lat="47.08097" lon="-1.61458">
        <ele>53</ele>
        <time>2021-06-02T17:12:49.000Z</time>
      </trkpt>
      <trkpt lat="47.08111" lon="-1.61451">
        <ele>53</ele>
        <time>2021-06-02T17:12:51.000Z</time>
      </trkpt>
      <trkpt lat="47.08125" lon="-1.61445">
        <ele>53</ele>
        <time>2021-06-02T17:12:53.000Z</time>
      </trkpt>
      <trkpt lat="47.0814" lon="-1.61438">
        <ele>53</ele>
        <time>2021-06-02T17:12:55.000Z</time>
      </trkpt>
      <trkpt lat="47.08155" lon="-1.61432">
        <ele>51</ele>
        <time>2021-06-02T17:12:57.000Z</time>
      </trkpt>
      <trkpt lat="47.08168" lon="-1.61424">
        <ele>51</ele>
        <time>2021-06-02T17:12:59.000Z</time>
      </trkpt>
      <trkpt lat="47.08182" lon="-1.61419">
        <ele>52</ele>
        <time>2021-06-02T17:13:01.000Z</time>
      </trkpt>
      <trkpt lat="47.08197" lon="-1.61414">
        <ele>52</ele>
        <time>2021-06-02T17:13:03.000Z</time>
      </trkpt>
      <trkpt lat="47.08209" lon="-1.61415">
        <ele>50</ele>
        <time>2021-06-02T17:13:05.000Z</time>
      </trkpt>
      <trkpt lat="47.08221" lon="-1.61409">
        <ele>52</ele>
        <time>2021-06-02T17:13:07.000Z</time>
      </trkpt>
      <trkpt lat="47.08229" lon="-1.61403">
        <ele>52</ele>
        <time>2021-06-02T17:13:08.000Z</time>
      </trkpt>
      <trkpt lat="47.08251" lon="-1.61392">
        <ele>53</ele>
        <time>2021-06-02T17:13:11.000Z</time>
      </trkpt>
      <trkpt lat="47.0826" lon="-1.6139">
        <ele>52</ele>
        <time>2021-06-02T17:13:12.000Z</time>
      </trkpt>
      <trkpt lat="47.08269" lon="-1.61387">
        <ele>52</ele>
        <time>2021-06-02T17:13:13.000Z</time>
      </trkpt>
      <trkpt lat="47.08283" lon="-1.61381">
        <ele>52</ele>
        <time>2021-06-02T17:13:15.000Z</time>
      </trkpt>
      <trkpt lat="47.08295" lon="-1.61374">
        <ele>52</ele>
        <time>2021-06-02T17:13:17.000Z</time>
      </trkpt>
      <trkpt lat="47.08308" lon="-1.61366">
        <ele>51</ele>
        <time>2021-06-02T17:13:19.000Z</time>
      </trkpt>
      <trkpt lat="47.08324" lon="-1.6136">
        <ele>50</ele>
        <time>2021-06-02T17:13:21.000Z</time>
      </trkpt>
      <trkpt lat="47.08338" lon="-1.61353">
        <ele>51</ele>
        <time>2021-06-02T17:13:23.000Z</time>
      </trkpt>
      <trkpt lat="47.08352" lon="-1.61347">
        <ele>52</ele>
        <time>2021-06-02T17:13:25.000Z</time>
      </trkpt>
      <trkpt lat="47.08365" lon="-1.61341">
        <ele>52</ele>
        <time>2021-06-02T17:13:27.000Z</time>
      </trkpt>
      <trkpt lat="47.08379" lon="-1.61335">
        <ele>48</ele>
        <time>2021-06-02T17:13:29.000Z</time>
      </trkpt>
      <trkpt lat="47.08392" lon="-1.61329">
        <ele>50</ele>
        <time>2021-06-02T17:13:31.000Z</time>
      </trkpt>
      <trkpt lat="47.08414" lon="-1.6132">
        <ele>51</ele>
        <time>2021-06-02T17:13:34.000Z</time>
      </trkpt>
      <trkpt lat="47.08427" lon="-1.61316">
        <ele>51</ele>
        <time>2021-06-02T17:13:36.000Z</time>
      </trkpt>
      <trkpt lat="47.08439" lon="-1.61311">
        <ele>49</ele>
        <time>2021-06-02T17:13:38.000Z</time>
      </trkpt>
      <trkpt lat="47.08454" lon="-1.61302">
        <ele>50</ele>
        <time>2021-06-02T17:13:40.000Z</time>
      </trkpt>
      <trkpt lat="47.08469" lon="-1.61297">
        <ele>50</ele>
        <time>2021-06-02T17:13:42.000Z</time>
      </trkpt>
      <trkpt lat="47.08483" lon="-1.61291">
        <ele>51</ele>
        <time>2021-06-02T17:13:44.000Z</time>
      </trkpt>
      <trkpt lat="47.08496" lon="-1.61285">
        <ele>50</ele>
        <time>2021-06-02T17:13:46.000Z</time>
      </trkpt>
      <trkpt lat="47.08519" lon="-1.61274">
        <ele>51</ele>
        <time>2021-06-02T17:13:49.000Z</time>
      </trkpt>
      <trkpt lat="47.08533" lon="-1.61268">
        <ele>52</ele>
        <time>2021-06-02T17:13:51.000Z</time>
      </trkpt>
      <trkpt lat="47.08548" lon="-1.61261">
        <ele>51</ele>
        <time>2021-06-02T17:13:53.000Z</time>
      </trkpt>
      <trkpt lat="47.08561" lon="-1.61256">
        <ele>52</ele>
        <time>2021-06-02T17:13:55.000Z</time>
      </trkpt>
      <trkpt lat="47.08575" lon="-1.61251">
        <ele>53</ele>
        <time>2021-06-02T17:13:57.000Z</time>
      </trkpt>
      <trkpt lat="47.08589" lon="-1.61245">
        <ele>54</ele>
        <time>2021-06-02T17:13:59.000Z</time>
      </trkpt>
      <trkpt lat="47.08601" lon="-1.61241">
        <ele>55</ele>
        <time>2021-06-02T17:14:01.000Z</time>
      </trkpt>
      <trkpt lat="47.08616" lon="-1.61236">
        <ele>55</ele>
        <time>2021-06-02T17:14:03.000Z</time>
      </trkpt>
      <trkpt lat="47.0863" lon="-1.61228">
        <ele>56</ele>
        <time>2021-06-02T17:14:05.000Z</time>
      </trkpt>
      <trkpt lat="47.08644" lon="-1.61221">
        <ele>55</ele>
        <time>2021-06-02T17:14:07.000Z</time>
      </trkpt>
      <trkpt lat="47.08657" lon="-1.61215">
        <ele>56</ele>
        <time>2021-06-02T17:14:09.000Z</time>
      </trkpt>
      <trkpt lat="47.08671" lon="-1.61209">
        <ele>57</ele>
        <time>2021-06-02T17:14:11.000Z</time>
      </trkpt>
      <trkpt lat="47.08692" lon="-1.61201">
        <ele>56</ele>
        <time>2021-06-02T17:14:14.000Z</time>
      </trkpt>
      <trkpt lat="47.08705" lon="-1.61195">
        <ele>55</ele>
        <time>2021-06-02T17:14:16.000Z</time>
      </trkpt>
      <trkpt lat="47.08718" lon="-1.61193">
        <ele>57</ele>
        <time>2021-06-02T17:14:18.000Z</time>
      </trkpt>
      <trkpt lat="47.08732" lon="-1.61188">
        <ele>57</ele>
        <time>2021-06-02T17:14:20.000Z</time>
      </trkpt>
      <trkpt lat="47.08747" lon="-1.61179">
        <ele>57</ele>
        <time>2021-06-02T17:14:22.000Z</time>
      </trkpt>
      <trkpt lat="47.08759" lon="-1.61173">
        <ele>57</ele>
        <time>2021-06-02T17:14:24.000Z</time>
      </trkpt>
      <trkpt lat="47.08773" lon="-1.61163">
        <ele>56</ele>
        <time>2021-06-02T17:14:26.000Z</time>
      </trkpt>
      <trkpt lat="47.08788" lon="-1.61158">
        <ele>56</ele>
        <time>2021-06-02T17:14:28.000Z</time>
      </trkpt>
      <trkpt lat="47.08802" lon="-1.61153">
        <ele>56</ele>
        <time>2021-06-02T17:14:30.000Z</time>
      </trkpt>
      <trkpt lat="47.08815" lon="-1.61148">
        <ele>56</ele>
        <time>2021-06-02T17:14:32.000Z</time>
      </trkpt>
      <trkpt lat="47.08828" lon="-1.61143">
        <ele>55</ele>
        <time>2021-06-02T17:14:34.000Z</time>
      </trkpt>
      <trkpt lat="47.08849" lon="-1.61135">
        <ele>55</ele>
        <time>2021-06-02T17:14:37.000Z</time>
      </trkpt>
      <trkpt lat="47.08863" lon="-1.61128">
        <ele>56</ele>
        <time>2021-06-02T17:14:39.000Z</time>
      </trkpt>
      <trkpt lat="47.08877" lon="-1.61123">
        <ele>57</ele>
        <time>2021-06-02T17:14:41.000Z</time>
      </trkpt>
      <trkpt lat="47.08891" lon="-1.61116">
        <ele>57</ele>
        <time>2021-06-02T17:14:43.000Z</time>
      </trkpt>
      <trkpt lat="47.08904" lon="-1.6111">
        <ele>58</ele>
        <time>2021-06-02T17:14:45.000Z</time>
      </trkpt>
      <trkpt lat="47.08918" lon="-1.61105">
        <ele>58</ele>
        <time>2021-06-02T17:14:47.000Z</time>
      </trkpt>
      <trkpt lat="47.08931" lon="-1.61099">
        <ele>59</ele>
        <time>2021-06-02T17:14:49.000Z</time>
      </trkpt>
      <trkpt lat="47.08945" lon="-1.61092">
        <ele>59</ele>
        <time>2021-06-02T17:14:51.000Z</time>
      </trkpt>
      <trkpt lat="47.08958" lon="-1.61086">
        <ele>59</ele>
        <time>2021-06-02T17:14:53.000Z</time>
      </trkpt>
      <trkpt lat="47.08972" lon="-1.61083">
        <ele>59</ele>
        <time>2021-06-02T17:14:55.000Z</time>
      </trkpt>
      <trkpt lat="47.08985" lon="-1.61083">
        <ele>59</ele>
        <time>2021-06-02T17:14:57.000Z</time>
      </trkpt>
      <trkpt lat="47.09006" lon="-1.61086">
        <ele>59</ele>
        <time>2021-06-02T17:15:00.000Z</time>
      </trkpt>
      <trkpt lat="47.09021" lon="-1.61089">
        <ele>60</ele>
        <time>2021-06-02T17:15:02.000Z</time>
      </trkpt>
      <trkpt lat="47.09035" lon="-1.61094">
        <ele>59</ele>
        <time>2021-06-02T17:15:04.000Z</time>
      </trkpt>
      <trkpt lat="47.09048" lon="-1.61096">
        <ele>60</ele>
        <time>2021-06-02T17:15:06.000Z</time>
      </trkpt>
      <trkpt lat="47.09069" lon="-1.61103">
        <ele>61</ele>
        <time>2021-06-02T17:15:09.000Z</time>
      </trkpt>
      <trkpt lat="47.09083" lon="-1.61106">
        <ele>59</ele>
        <time>2021-06-02T17:15:11.000Z</time>
      </trkpt>
      <trkpt lat="47.09095" lon="-1.61108">
        <ele>58</ele>
        <time>2021-06-02T17:15:13.000Z</time>
      </trkpt>
      <trkpt lat="47.09109" lon="-1.61115">
        <ele>59</ele>
        <time>2021-06-02T17:15:15.000Z</time>
      </trkpt>
      <trkpt lat="47.09125" lon="-1.61121">
        <ele>61</ele>
        <time>2021-06-02T17:15:17.000Z</time>
      </trkpt>
      <trkpt lat="47.0914" lon="-1.61126">
        <ele>60</ele>
        <time>2021-06-02T17:15:19.000Z</time>
      </trkpt>
      <trkpt lat="47.09155" lon="-1.61132">
        <ele>60</ele>
        <time>2021-06-02T17:15:21.000Z</time>
      </trkpt>
      <trkpt lat="47.09177" lon="-1.61138">
        <ele>59</ele>
        <time>2021-06-02T17:15:24.000Z</time>
      </trkpt>
      <trkpt lat="47.09187" lon="-1.61142">
        <ele>60</ele>
        <time>2021-06-02T17:15:26.000Z</time>
      </trkpt>
      <trkpt lat="47.09197" lon="-1.61143">
        <ele>62</ele>
        <time>2021-06-02T17:15:58.000Z</time>
      </trkpt>
      <trkpt lat="47.09207" lon="-1.61146">
        <ele>58</ele>
        <time>2021-06-02T17:16:01.000Z</time>
      </trkpt>
      <trkpt lat="47.0922" lon="-1.61155">
        <ele>61</ele>
        <time>2021-06-02T17:16:03.000Z</time>
      </trkpt>
      <trkpt lat="47.09232" lon="-1.61168">
        <ele>61</ele>
        <time>2021-06-02T17:16:05.000Z</time>
      </trkpt>
      <trkpt lat="47.09246" lon="-1.61174">
        <ele>61</ele>
        <time>2021-06-02T17:16:07.000Z</time>
      </trkpt>
      <trkpt lat="47.09258" lon="-1.61177">
        <ele>61</ele>
        <time>2021-06-02T17:16:09.000Z</time>
      </trkpt>
      <trkpt lat="47.09272" lon="-1.61184">
        <ele>61</ele>
        <time>2021-06-02T17:16:11.000Z</time>
      </trkpt>
      <trkpt lat="47.09286" lon="-1.61189">
        <ele>62</ele>
        <time>2021-06-02T17:16:13.000Z</time>
      </trkpt>
      <trkpt lat="47.09299" lon="-1.61193">
        <ele>63</ele>
        <time>2021-06-02T17:16:15.000Z</time>
      </trkpt>
      <trkpt lat="47.09313" lon="-1.61198">
        <ele>64</ele>
        <time>2021-06-02T17:16:17.000Z</time>
      </trkpt>
      <trkpt lat="47.09326" lon="-1.61201">
        <ele>64</ele>
        <time>2021-06-02T17:16:19.000Z</time>
      </trkpt>
      <trkpt lat="47.0934" lon="-1.61204">
        <ele>64</ele>
        <time>2021-06-02T17:16:21.000Z</time>
      </trkpt>
      <trkpt lat="47.09355" lon="-1.61208">
        <ele>64</ele>
        <time>2021-06-02T17:16:23.000Z</time>
      </trkpt>
      <trkpt lat="47.0937" lon="-1.61211">
        <ele>61</ele>
        <time>2021-06-02T17:16:25.000Z</time>
      </trkpt>
      <trkpt lat="47.09385" lon="-1.61217">
        <ele>60</ele>
        <time>2021-06-02T17:16:27.000Z</time>
      </trkpt>
      <trkpt lat="47.09399" lon="-1.61224">
        <ele>60</ele>
        <time>2021-06-02T17:16:29.000Z</time>
      </trkpt>
      <trkpt lat="47.09421" lon="-1.61232">
        <ele>55</ele>
        <time>2021-06-02T17:16:32.000Z</time>
      </trkpt>
      <trkpt lat="47.09436" lon="-1.61223">
        <ele>57</ele>
        <time>2021-06-02T17:16:34.000Z</time>
      </trkpt>
      <trkpt lat="47.09447" lon="-1.61205">
        <ele>58</ele>
        <time>2021-06-02T17:16:36.000Z</time>
      </trkpt>
      <trkpt lat="47.09457" lon="-1.61188">
        <ele>58</ele>
        <time>2021-06-02T17:16:38.000Z</time>
      </trkpt>
      <trkpt lat="47.09469" lon="-1.61175">
        <ele>57</ele>
        <time>2021-06-02T17:16:40.000Z</time>
      </trkpt>
      <trkpt lat="47.09481" lon="-1.61162">
        <ele>56</ele>
        <time>2021-06-02T17:16:42.000Z</time>
      </trkpt>
      <trkpt lat="47.09499" lon="-1.61146">
        <ele>56</ele>
        <time>2021-06-02T17:16:45.000Z</time>
      </trkpt>
      <trkpt lat="47.09514" lon="-1.61139">
        <ele>53</ele>
        <time>2021-06-02T17:16:47.000Z</time>
      </trkpt>
      <trkpt lat="47.09527" lon="-1.61133">
        <ele>52</ele>
        <time>2021-06-02T17:16:49.000Z</time>
      </trkpt>
      <trkpt lat="47.09543" lon="-1.61133">
        <ele>54</ele>
        <time>2021-06-02T17:16:51.000Z</time>
      </trkpt>
      <trkpt lat="47.09558" lon="-1.61132">
        <ele>55</ele>
        <time>2021-06-02T17:16:53.000Z</time>
      </trkpt>
      <trkpt lat="47.0958" lon="-1.6113">
        <ele>54</ele>
        <time>2021-06-02T17:16:56.000Z</time>
      </trkpt>
      <trkpt lat="47.09595" lon="-1.61126">
        <ele>54</ele>
        <time>2021-06-02T17:16:58.000Z</time>
      </trkpt>
      <trkpt lat="47.0961" lon="-1.61125">
        <ele>53</ele>
        <time>2021-06-02T17:17:00.000Z</time>
      </trkpt>
      <trkpt lat="47.09625" lon="-1.61125">
        <ele>53</ele>
        <time>2021-06-02T17:17:02.000Z</time>
      </trkpt>
      <trkpt lat="47.09639" lon="-1.61125">
        <ele>51</ele>
        <time>2021-06-02T17:17:04.000Z</time>
      </trkpt>
      <trkpt lat="47.09663" lon="-1.61119">
        <ele>44</ele>
        <time>2021-06-02T17:17:07.000Z</time>
      </trkpt>
      <trkpt lat="47.09678" lon="-1.61117">
        <ele>51</ele>
        <time>2021-06-02T17:17:10.000Z</time>
      </trkpt>
      <trkpt lat="47.097" lon="-1.61115">
        <ele>52</ele>
        <time>2021-06-02T17:17:13.000Z</time>
      </trkpt>
      <trkpt lat="47.09716" lon="-1.6112">
        <ele>54</ele>
        <time>2021-06-02T17:17:15.000Z</time>
      </trkpt>
      <trkpt lat="47.09732" lon="-1.61117">
        <ele>52</ele>
        <time>2021-06-02T17:17:17.000Z</time>
      </trkpt>
      <trkpt lat="47.09757" lon="-1.61112">
        <ele>50</ele>
        <time>2021-06-02T17:17:21.000Z</time>
      </trkpt>
      <trkpt lat="47.09769" lon="-1.61109">
        <ele>51</ele>
        <time>2021-06-02T17:17:23.000Z</time>
      </trkpt>
      <trkpt lat="47.09783" lon="-1.61104">
        <ele>53</ele>
        <time>2021-06-02T17:17:25.000Z</time>
      </trkpt>
      <trkpt lat="47.09798" lon="-1.61097">
        <ele>52</ele>
        <time>2021-06-02T17:17:27.000Z</time>
      </trkpt>
      <trkpt lat="47.09812" lon="-1.61088">
        <ele>52</ele>
        <time>2021-06-02T17:17:29.000Z</time>
      </trkpt>
      <trkpt lat="47.09824" lon="-1.61079">
        <ele>52</ele>
        <time>2021-06-02T17:17:31.000Z</time>
      </trkpt>
      <trkpt lat="47.09836" lon="-1.61068">
        <ele>54</ele>
        <time>2021-06-02T17:17:33.000Z</time>
      </trkpt>
      <trkpt lat="47.09847" lon="-1.61056">
        <ele>56</ele>
        <time>2021-06-02T17:17:35.000Z</time>
      </trkpt>
      <trkpt lat="47.09857" lon="-1.61041">
        <ele>57</ele>
        <time>2021-06-02T17:17:37.000Z</time>
      </trkpt>
      <trkpt lat="47.09866" lon="-1.61025">
        <ele>56</ele>
        <time>2021-06-02T17:17:39.000Z</time>
      </trkpt>
      <trkpt lat="47.09877" lon="-1.60999">
        <ele>57</ele>
        <time>2021-06-02T17:17:42.000Z</time>
      </trkpt>
      <trkpt lat="47.09888" lon="-1.60971">
        <ele>57</ele>
        <time>2021-06-02T17:17:45.000Z</time>
      </trkpt>
      <trkpt lat="47.09895" lon="-1.60953">
        <ele>57</ele>
        <time>2021-06-02T17:17:47.000Z</time>
      </trkpt>
      <trkpt lat="47.09902" lon="-1.60935">
        <ele>57</ele>
        <time>2021-06-02T17:17:49.000Z</time>
      </trkpt>
      <trkpt lat="47.09909" lon="-1.60917">
        <ele>57</ele>
        <time>2021-06-02T17:17:51.000Z</time>
      </trkpt>
      <trkpt lat="47.0992" lon="-1.6089">
        <ele>56</ele>
        <time>2021-06-02T17:17:54.000Z</time>
      </trkpt>
      <trkpt lat="47.09928" lon="-1.60867">
        <ele>56</ele>
        <time>2021-06-02T17:17:57.000Z</time>
      </trkpt>
      <trkpt lat="47.09934" lon="-1.6085">
        <ele>56</ele>
        <time>2021-06-02T17:17:59.000Z</time>
      </trkpt>
      <trkpt lat="47.0994" lon="-1.60832">
        <ele>58</ele>
        <time>2021-06-02T17:18:01.000Z</time>
      </trkpt>
      <trkpt lat="47.09946" lon="-1.60815">
        <ele>61</ele>
        <time>2021-06-02T17:18:03.000Z</time>
      </trkpt>
      <trkpt lat="47.09952" lon="-1.60796">
        <ele>63</ele>
        <time>2021-06-02T17:18:05.000Z</time>
      </trkpt>
      <trkpt lat="47.09958" lon="-1.60777">
        <ele>62</ele>
        <time>2021-06-02T17:18:07.000Z</time>
      </trkpt>
      <trkpt lat="47.09965" lon="-1.60759">
        <ele>60</ele>
        <time>2021-06-02T17:18:09.000Z</time>
      </trkpt>
      <trkpt lat="47.09974" lon="-1.6073">
        <ele>59</ele>
        <time>2021-06-02T17:18:12.000Z</time>
      </trkpt>
      <trkpt lat="47.0998" lon="-1.60712">
        <ele>58</ele>
        <time>2021-06-02T17:18:14.000Z</time>
      </trkpt>
      <trkpt lat="47.09984" lon="-1.60694">
        <ele>58</ele>
        <time>2021-06-02T17:18:16.000Z</time>
      </trkpt>
      <trkpt lat="47.0999" lon="-1.60676">
        <ele>58</ele>
        <time>2021-06-02T17:18:18.000Z</time>
      </trkpt>
      <trkpt lat="47.09998" lon="-1.60649">
        <ele>58</ele>
        <time>2021-06-02T17:18:21.000Z</time>
      </trkpt>
      <trkpt lat="47.10004" lon="-1.60632">
        <ele>57</ele>
        <time>2021-06-02T17:18:23.000Z</time>
      </trkpt>
      <trkpt lat="47.10009" lon="-1.60615">
        <ele>56</ele>
        <time>2021-06-02T17:18:25.000Z</time>
      </trkpt>
      <trkpt lat="47.10016" lon="-1.60584">
        <ele>56</ele>
        <time>2021-06-02T17:18:28.000Z</time>
      </trkpt>
      <trkpt lat="47.10021" lon="-1.60563">
        <ele>56</ele>
        <time>2021-06-02T17:18:30.000Z</time>
      </trkpt>
      <trkpt lat="47.10027" lon="-1.60543">
        <ele>55</ele>
        <time>2021-06-02T17:18:32.000Z</time>
      </trkpt>
      <trkpt lat="47.10033" lon="-1.60525">
        <ele>57</ele>
        <time>2021-06-02T17:18:34.000Z</time>
      </trkpt>
      <trkpt lat="47.10038" lon="-1.60507">
        <ele>57</ele>
        <time>2021-06-02T17:18:36.000Z</time>
      </trkpt>
      <trkpt lat="47.10044" lon="-1.60489">
        <ele>57</ele>
        <time>2021-06-02T17:18:38.000Z</time>
      </trkpt>
      <trkpt lat="47.10047" lon="-1.6047">
        <ele>56</ele>
        <time>2021-06-02T17:18:40.000Z</time>
      </trkpt>
      <trkpt lat="47.10051" lon="-1.60451">
        <ele>57</ele>
        <time>2021-06-02T17:18:42.000Z</time>
      </trkpt>
      <trkpt lat="47.10055" lon="-1.6043">
        <ele>57</ele>
        <time>2021-06-02T17:18:44.000Z</time>
      </trkpt>
      <trkpt lat="47.10058" lon="-1.60409">
        <ele>54</ele>
        <time>2021-06-02T17:18:46.000Z</time>
      </trkpt>
      <trkpt lat="47.10061" lon="-1.60379">
        <ele>55</ele>
        <time>2021-06-02T17:18:49.000Z</time>
      </trkpt>
      <trkpt lat="47.10063" lon="-1.60359">
        <ele>56</ele>
        <time>2021-06-02T17:18:51.000Z</time>
      </trkpt>
      <trkpt lat="47.10065" lon="-1.60339">
        <ele>56</ele>
        <time>2021-06-02T17:18:53.000Z</time>
      </trkpt>
      <trkpt lat="47.10067" lon="-1.60319">
        <ele>57</ele>
        <time>2021-06-02T17:18:55.000Z</time>
      </trkpt>
      <trkpt lat="47.10068" lon="-1.603">
        <ele>57</ele>
        <time>2021-06-02T17:18:57.000Z</time>
      </trkpt>
      <trkpt lat="47.1007" lon="-1.60281">
        <ele>57</ele>
        <time>2021-06-02T17:18:59.000Z</time>
      </trkpt>
      <trkpt lat="47.10073" lon="-1.60249">
        <ele>55</ele>
        <time>2021-06-02T17:19:02.000Z</time>
      </trkpt>
      <trkpt lat="47.10075" lon="-1.6023">
        <ele>54</ele>
        <time>2021-06-02T17:19:04.000Z</time>
      </trkpt>
      <trkpt lat="47.10077" lon="-1.60211">
        <ele>58</ele>
        <time>2021-06-02T17:19:06.000Z</time>
      </trkpt>
      <trkpt lat="47.10077" lon="-1.60189">
        <ele>59</ele>
        <time>2021-06-02T17:19:08.000Z</time>
      </trkpt>
      <trkpt lat="47.10076" lon="-1.60167">
        <ele>57</ele>
        <time>2021-06-02T17:19:10.000Z</time>
      </trkpt>
      <trkpt lat="47.1007" lon="-1.60145">
        <ele>53</ele>
        <time>2021-06-02T17:19:12.000Z</time>
      </trkpt>
      <trkpt lat="47.10065" lon="-1.60119">
        <ele>54</ele>
        <time>2021-06-02T17:19:15.000Z</time>
      </trkpt>
      <trkpt lat="47.10075" lon="-1.60103">
        <ele>55</ele>
        <time>2021-06-02T17:19:17.000Z</time>
      </trkpt>
      <trkpt lat="47.10091" lon="-1.60098">
        <ele>57</ele>
        <time>2021-06-02T17:19:19.000Z</time>
      </trkpt>
      <trkpt lat="47.10103" lon="-1.60088">
        <ele>58</ele>
        <time>2021-06-02T17:19:21.000Z</time>
      </trkpt>
      <trkpt lat="47.10113" lon="-1.60074">
        <ele>58</ele>
        <time>2021-06-02T17:19:23.000Z</time>
      </trkpt>
      <trkpt lat="47.10124" lon="-1.60059">
        <ele>58</ele>
        <time>2021-06-02T17:19:25.000Z</time>
      </trkpt>
      <trkpt lat="47.10133" lon="-1.60045">
        <ele>58</ele>
        <time>2021-06-02T17:19:27.000Z</time>
      </trkpt>
      <trkpt lat="47.10143" lon="-1.6003">
        <ele>58</ele>
        <time>2021-06-02T17:19:29.000Z</time>
      </trkpt>
      <trkpt lat="47.10153" lon="-1.60014">
        <ele>58</ele>
        <time>2021-06-02T17:19:31.000Z</time>
      </trkpt>
      <trkpt lat="47.10167" lon="-1.59991">
        <ele>58</ele>
        <time>2021-06-02T17:19:34.000Z</time>
      </trkpt>
      <trkpt lat="47.10177" lon="-1.59975">
        <ele>58</ele>
        <time>2021-06-02T17:19:36.000Z</time>
      </trkpt>
      <trkpt lat="47.10186" lon="-1.5996">
        <ele>58</ele>
        <time>2021-06-02T17:19:38.000Z</time>
      </trkpt>
      <trkpt lat="47.10201" lon="-1.59936">
        <ele>58</ele>
        <time>2021-06-02T17:19:41.000Z</time>
      </trkpt>
      <trkpt lat="47.10219" lon="-1.59903">
        <ele>59</ele>
        <time>2021-06-02T17:19:45.000Z</time>
      </trkpt>
      <trkpt lat="47.10228" lon="-1.59886">
        <ele>59</ele>
        <time>2021-06-02T17:19:47.000Z</time>
      </trkpt>
      <trkpt lat="47.10238" lon="-1.59871">
        <ele>59</ele>
        <time>2021-06-02T17:19:49.000Z</time>
      </trkpt>
      <trkpt lat="47.10248" lon="-1.59855">
        <ele>58</ele>
        <time>2021-06-02T17:19:51.000Z</time>
      </trkpt>
      <trkpt lat="47.1026" lon="-1.59835">
        <ele>59</ele>
        <time>2021-06-02T17:19:54.000Z</time>
      </trkpt>
      <trkpt lat="47.1028" lon="-1.59802">
        <ele>59</ele>
        <time>2021-06-02T17:19:58.000Z</time>
      </trkpt>
      <trkpt lat="47.10289" lon="-1.59786">
        <ele>59</ele>
        <time>2021-06-02T17:20:00.000Z</time>
      </trkpt>
      <trkpt lat="47.10297" lon="-1.59771">
        <ele>56</ele>
        <time>2021-06-02T17:20:02.000Z</time>
      </trkpt>
      <trkpt lat="47.10307" lon="-1.59755">
        <ele>57</ele>
        <time>2021-06-02T17:20:04.000Z</time>
      </trkpt>
      <trkpt lat="47.10316" lon="-1.59739">
        <ele>58</ele>
        <time>2021-06-02T17:20:06.000Z</time>
      </trkpt>
      <trkpt lat="47.10325" lon="-1.59723">
        <ele>59</ele>
        <time>2021-06-02T17:20:08.000Z</time>
      </trkpt>
      <trkpt lat="47.10333" lon="-1.59709">
        <ele>60</ele>
        <time>2021-06-02T17:20:10.000Z</time>
      </trkpt>
      <trkpt lat="47.10342" lon="-1.59694">
        <ele>61</ele>
        <time>2021-06-02T17:20:12.000Z</time>
      </trkpt>
      <trkpt lat="47.1035" lon="-1.59678">
        <ele>61</ele>
        <time>2021-06-02T17:20:14.000Z</time>
      </trkpt>
      <trkpt lat="47.1036" lon="-1.59663">
        <ele>61</ele>
        <time>2021-06-02T17:20:16.000Z</time>
      </trkpt>
      <trkpt lat="47.1037" lon="-1.59648">
        <ele>60</ele>
        <time>2021-06-02T17:20:18.000Z</time>
      </trkpt>
      <trkpt lat="47.10384" lon="-1.59626">
        <ele>60</ele>
        <time>2021-06-02T17:20:21.000Z</time>
      </trkpt>
      <trkpt lat="47.10393" lon="-1.59611">
        <ele>60</ele>
        <time>2021-06-02T17:20:23.000Z</time>
      </trkpt>
      <trkpt lat="47.10403" lon="-1.59596">
        <ele>59</ele>
        <time>2021-06-02T17:20:25.000Z</time>
      </trkpt>
      <trkpt lat="47.10412" lon="-1.59581">
        <ele>59</ele>
        <time>2021-06-02T17:20:27.000Z</time>
      </trkpt>
      <trkpt lat="47.10422" lon="-1.59564">
        <ele>58</ele>
        <time>2021-06-02T17:20:29.000Z</time>
      </trkpt>
      <trkpt lat="47.10431" lon="-1.59549">
        <ele>57</ele>
        <time>2021-06-02T17:20:31.000Z</time>
      </trkpt>
      <trkpt lat="47.10439" lon="-1.59531">
        <ele>58</ele>
        <time>2021-06-02T17:20:33.000Z</time>
      </trkpt>
      <trkpt lat="47.10447" lon="-1.59517">
        <ele>59</ele>
        <time>2021-06-02T17:20:35.000Z</time>
      </trkpt>
      <trkpt lat="47.10456" lon="-1.59503">
        <ele>59</ele>
        <time>2021-06-02T17:20:37.000Z</time>
      </trkpt>
      <trkpt lat="47.10471" lon="-1.59481">
        <ele>59</ele>
        <time>2021-06-02T17:20:40.000Z</time>
      </trkpt>
      <trkpt lat="47.1048" lon="-1.59466">
        <ele>59</ele>
        <time>2021-06-02T17:20:42.000Z</time>
      </trkpt>
      <trkpt lat="47.1049" lon="-1.59451">
        <ele>60</ele>
        <time>2021-06-02T17:20:44.000Z</time>
      </trkpt>
      <trkpt lat="47.10499" lon="-1.59435">
        <ele>60</ele>
        <time>2021-06-02T17:20:46.000Z</time>
      </trkpt>
      <trkpt lat="47.10508" lon="-1.5942">
        <ele>60</ele>
        <time>2021-06-02T17:20:48.000Z</time>
      </trkpt>
      <trkpt lat="47.10522" lon="-1.59395">
        <ele>59</ele>
        <time>2021-06-02T17:20:51.000Z</time>
      </trkpt>
      <trkpt lat="47.10532" lon="-1.5938">
        <ele>60</ele>
        <time>2021-06-02T17:20:53.000Z</time>
      </trkpt>
      <trkpt lat="47.10541" lon="-1.59363">
        <ele>59</ele>
        <time>2021-06-02T17:20:55.000Z</time>
      </trkpt>
      <trkpt lat="47.1055" lon="-1.59347">
        <ele>60</ele>
        <time>2021-06-02T17:20:57.000Z</time>
      </trkpt>
      <trkpt lat="47.10559" lon="-1.59331">
        <ele>60</ele>
        <time>2021-06-02T17:20:59.000Z</time>
      </trkpt>
      <trkpt lat="47.10568" lon="-1.59316">
        <ele>61</ele>
        <time>2021-06-02T17:21:01.000Z</time>
      </trkpt>
      <trkpt lat="47.10577" lon="-1.59301">
        <ele>61</ele>
        <time>2021-06-02T17:21:03.000Z</time>
      </trkpt>
      <trkpt lat="47.10586" lon="-1.59285">
        <ele>62</ele>
        <time>2021-06-02T17:21:05.000Z</time>
      </trkpt>
      <trkpt lat="47.10594" lon="-1.5927">
        <ele>62</ele>
        <time>2021-06-02T17:21:07.000Z</time>
      </trkpt>
      <trkpt lat="47.10602" lon="-1.59254">
        <ele>62</ele>
        <time>2021-06-02T17:21:09.000Z</time>
      </trkpt>
      <trkpt lat="47.10609" lon="-1.59238">
        <ele>62</ele>
        <time>2021-06-02T17:21:11.000Z</time>
      </trkpt>
      <trkpt lat="47.10618" lon="-1.59224">
        <ele>63</ele>
        <time>2021-06-02T17:21:13.000Z</time>
      </trkpt>
      <trkpt lat="47.10627" lon="-1.5921">
        <ele>63</ele>
        <time>2021-06-02T17:21:15.000Z</time>
      </trkpt>
      <trkpt lat="47.10635" lon="-1.59195">
        <ele>63</ele>
        <time>2021-06-02T17:21:17.000Z</time>
      </trkpt>
      <trkpt lat="47.10642" lon="-1.59179">
        <ele>63</ele>
        <time>2021-06-02T17:21:19.000Z</time>
      </trkpt>
      <trkpt lat="47.10648" lon="-1.59166">
        <ele>64</ele>
        <time>2021-06-02T17:21:21.000Z</time>
      </trkpt>
      <trkpt lat="47.10658" lon="-1.5914">
        <ele>65</ele>
        <time>2021-06-02T17:21:24.000Z</time>
      </trkpt>
      <trkpt lat="47.10664" lon="-1.59124">
        <ele>65</ele>
        <time>2021-06-02T17:21:26.000Z</time>
      </trkpt>
      <trkpt lat="47.1067" lon="-1.59109">
        <ele>65</ele>
        <time>2021-06-02T17:21:28.000Z</time>
      </trkpt>
      <trkpt lat="47.10676" lon="-1.59089">
        <ele>65</ele>
        <time>2021-06-02T17:21:30.000Z</time>
      </trkpt>
      <trkpt lat="47.10687" lon="-1.59062">
        <ele>66</ele>
        <time>2021-06-02T17:21:33.000Z</time>
      </trkpt>
      <trkpt lat="47.10693" lon="-1.59044">
        <ele>66</ele>
        <time>2021-06-02T17:21:35.000Z</time>
      </trkpt>
      <trkpt lat="47.10699" lon="-1.59027">
        <ele>65</ele>
        <time>2021-06-02T17:21:37.000Z</time>
      </trkpt>
      <trkpt lat="47.10706" lon="-1.59011">
        <ele>65</ele>
        <time>2021-06-02T17:21:39.000Z</time>
      </trkpt>
      <trkpt lat="47.10712" lon="-1.58994">
        <ele>65</ele>
        <time>2021-06-02T17:21:41.000Z</time>
      </trkpt>
      <trkpt lat="47.1072" lon="-1.58977">
        <ele>65</ele>
        <time>2021-06-02T17:21:43.000Z</time>
      </trkpt>
      <trkpt lat="47.10727" lon="-1.5896">
        <ele>65</ele>
        <time>2021-06-02T17:21:45.000Z</time>
      </trkpt>
      <trkpt lat="47.10732" lon="-1.58945">
        <ele>65</ele>
        <time>2021-06-02T17:21:47.000Z</time>
      </trkpt>
      <trkpt lat="47.10739" lon="-1.58927">
        <ele>65</ele>
        <time>2021-06-02T17:21:49.000Z</time>
      </trkpt>
      <trkpt lat="47.10747" lon="-1.58911">
        <ele>65</ele>
        <time>2021-06-02T17:21:51.000Z</time>
      </trkpt>
      <trkpt lat="47.10756" lon="-1.58896">
        <ele>65</ele>
        <time>2021-06-02T17:21:53.000Z</time>
      </trkpt>
      <trkpt lat="47.10766" lon="-1.58882">
        <ele>65</ele>
        <time>2021-06-02T17:21:55.000Z</time>
      </trkpt>
      <trkpt lat="47.10775" lon="-1.58869">
        <ele>66</ele>
        <time>2021-06-02T17:21:57.000Z</time>
      </trkpt>
      <trkpt lat="47.10784" lon="-1.58853">
        <ele>66</ele>
        <time>2021-06-02T17:21:59.000Z</time>
      </trkpt>
      <trkpt lat="47.10794" lon="-1.58839">
        <ele>65</ele>
        <time>2021-06-02T17:22:01.000Z</time>
      </trkpt>
      <trkpt lat="47.10804" lon="-1.58823">
        <ele>64</ele>
        <time>2021-06-02T17:22:03.000Z</time>
      </trkpt>
      <trkpt lat="47.10814" lon="-1.58807">
        <ele>63</ele>
        <time>2021-06-02T17:22:05.000Z</time>
      </trkpt>
      <trkpt lat="47.10824" lon="-1.5879">
        <ele>63</ele>
        <time>2021-06-02T17:22:07.000Z</time>
      </trkpt>
      <trkpt lat="47.10835" lon="-1.58773">
        <ele>63</ele>
        <time>2021-06-02T17:22:09.000Z</time>
      </trkpt>
      <trkpt lat="47.10845" lon="-1.58757">
        <ele>62</ele>
        <time>2021-06-02T17:22:11.000Z</time>
      </trkpt>
      <trkpt lat="47.10855" lon="-1.58742">
        <ele>62</ele>
        <time>2021-06-02T17:22:13.000Z</time>
      </trkpt>
      <trkpt lat="47.10866" lon="-1.58727">
        <ele>62</ele>
        <time>2021-06-02T17:22:15.000Z</time>
      </trkpt>
      <trkpt lat="47.10877" lon="-1.58711">
        <ele>62</ele>
        <time>2021-06-02T17:22:17.000Z</time>
      </trkpt>
      <trkpt lat="47.10887" lon="-1.58695">
        <ele>62</ele>
        <time>2021-06-02T17:22:19.000Z</time>
      </trkpt>
      <trkpt lat="47.10897" lon="-1.58679">
        <ele>62</ele>
        <time>2021-06-02T17:22:21.000Z</time>
      </trkpt>
      <trkpt lat="47.10908" lon="-1.58663">
        <ele>62</ele>
        <time>2021-06-02T17:22:23.000Z</time>
      </trkpt>
      <trkpt lat="47.10918" lon="-1.58647">
        <ele>61</ele>
        <time>2021-06-02T17:22:25.000Z</time>
      </trkpt>
      <trkpt lat="47.10929" lon="-1.58631">
        <ele>60</ele>
        <time>2021-06-02T17:22:27.000Z</time>
      </trkpt>
      <trkpt lat="47.10941" lon="-1.58615">
        <ele>60</ele>
        <time>2021-06-02T17:22:29.000Z</time>
      </trkpt>
      <trkpt lat="47.10952" lon="-1.58598">
        <ele>61</ele>
        <time>2021-06-02T17:22:31.000Z</time>
      </trkpt>
      <trkpt lat="47.10963" lon="-1.58582">
        <ele>61</ele>
        <time>2021-06-02T17:22:33.000Z</time>
      </trkpt>
      <trkpt lat="47.10975" lon="-1.58565">
        <ele>60</ele>
        <time>2021-06-02T17:22:35.000Z</time>
      </trkpt>
      <trkpt lat="47.10986" lon="-1.58546">
        <ele>60</ele>
        <time>2021-06-02T17:22:37.000Z</time>
      </trkpt>
      <trkpt lat="47.10999" lon="-1.58528">
        <ele>59</ele>
        <time>2021-06-02T17:22:39.000Z</time>
      </trkpt>
      <trkpt lat="47.11011" lon="-1.58512">
        <ele>58</ele>
        <time>2021-06-02T17:22:41.000Z</time>
      </trkpt>
      <trkpt lat="47.11022" lon="-1.58494">
        <ele>58</ele>
        <time>2021-06-02T17:22:43.000Z</time>
      </trkpt>
      <trkpt lat="47.11033" lon="-1.58477">
        <ele>58</ele>
        <time>2021-06-02T17:22:45.000Z</time>
      </trkpt>
      <trkpt lat="47.11044" lon="-1.5846">
        <ele>58</ele>
        <time>2021-06-02T17:22:47.000Z</time>
      </trkpt>
      <trkpt lat="47.11055" lon="-1.58442">
        <ele>58</ele>
        <time>2021-06-02T17:22:49.000Z</time>
      </trkpt>
      <trkpt lat="47.11066" lon="-1.58424">
        <ele>58</ele>
        <time>2021-06-02T17:22:51.000Z</time>
      </trkpt>
      <trkpt lat="47.11078" lon="-1.58408">
        <ele>57</ele>
        <time>2021-06-02T17:22:53.000Z</time>
      </trkpt>
      <trkpt lat="47.11089" lon="-1.58392">
        <ele>57</ele>
        <time>2021-06-02T17:22:55.000Z</time>
      </trkpt>
      <trkpt lat="47.111" lon="-1.58375">
        <ele>57</ele>
        <time>2021-06-02T17:22:57.000Z</time>
      </trkpt>
      <trkpt lat="47.11111" lon="-1.5836">
        <ele>56</ele>
        <time>2021-06-02T17:22:59.000Z</time>
      </trkpt>
      <trkpt lat="47.11121" lon="-1.58341">
        <ele>56</ele>
        <time>2021-06-02T17:23:01.000Z</time>
      </trkpt>
      <trkpt lat="47.11132" lon="-1.58324">
        <ele>56</ele>
        <time>2021-06-02T17:23:03.000Z</time>
      </trkpt>
      <trkpt lat="47.11143" lon="-1.58307">
        <ele>55</ele>
        <time>2021-06-02T17:23:05.000Z</time>
      </trkpt>
      <trkpt lat="47.1116" lon="-1.58282">
        <ele>56</ele>
        <time>2021-06-02T17:23:08.000Z</time>
      </trkpt>
      <trkpt lat="47.11171" lon="-1.58266">
        <ele>55</ele>
        <time>2021-06-02T17:23:10.000Z</time>
      </trkpt>
      <trkpt lat="47.11183" lon="-1.58249">
        <ele>55</ele>
        <time>2021-06-02T17:23:12.000Z</time>
      </trkpt>
      <trkpt lat="47.11195" lon="-1.58232">
        <ele>56</ele>
        <time>2021-06-02T17:23:14.000Z</time>
      </trkpt>
      <trkpt lat="47.11206" lon="-1.58217">
        <ele>56</ele>
        <time>2021-06-02T17:23:16.000Z</time>
      </trkpt>
      <trkpt lat="47.11218" lon="-1.582">
        <ele>55</ele>
        <time>2021-06-02T17:23:18.000Z</time>
      </trkpt>
      <trkpt lat="47.1123" lon="-1.58186">
        <ele>55</ele>
        <time>2021-06-02T17:23:20.000Z</time>
      </trkpt>
      <trkpt lat="47.11237" lon="-1.58178">
        <ele>55</ele>
        <time>2021-06-02T17:23:21.000Z</time>
      </trkpt>
      <trkpt lat="47.11245" lon="-1.5817">
        <ele>55</ele>
        <time>2021-06-02T17:23:22.000Z</time>
      </trkpt>
      <trkpt lat="47.11262" lon="-1.58151">
        <ele>55</ele>
        <time>2021-06-02T17:23:25.000Z</time>
      </trkpt>
      <trkpt lat="47.11276" lon="-1.58139">
        <ele>56</ele>
        <time>2021-06-02T17:23:27.000Z</time>
      </trkpt>
      <trkpt lat="47.11289" lon="-1.58128">
        <ele>56</ele>
        <time>2021-06-02T17:23:29.000Z</time>
      </trkpt>
      <trkpt lat="47.11302" lon="-1.5812">
        <ele>56</ele>
        <time>2021-06-02T17:23:31.000Z</time>
      </trkpt>
      <trkpt lat="47.11316" lon="-1.5811">
        <ele>56</ele>
        <time>2021-06-02T17:23:33.000Z</time>
      </trkpt>
      <trkpt lat="47.11331" lon="-1.581">
        <ele>56</ele>
        <time>2021-06-02T17:23:35.000Z</time>
      </trkpt>
      <trkpt lat="47.11345" lon="-1.58091">
        <ele>57</ele>
        <time>2021-06-02T17:23:37.000Z</time>
      </trkpt>
      <trkpt lat="47.11359" lon="-1.5808">
        <ele>56</ele>
        <time>2021-06-02T17:23:39.000Z</time>
      </trkpt>
      <trkpt lat="47.11373" lon="-1.58073">
        <ele>56</ele>
        <time>2021-06-02T17:23:41.000Z</time>
      </trkpt>
      <trkpt lat="47.11387" lon="-1.58065">
        <ele>55</ele>
        <time>2021-06-02T17:23:43.000Z</time>
      </trkpt>
      <trkpt lat="47.11401" lon="-1.58056">
        <ele>55</ele>
        <time>2021-06-02T17:23:45.000Z</time>
      </trkpt>
      <trkpt lat="47.11409" lon="-1.5805">
        <ele>55</ele>
        <time>2021-06-02T17:23:46.000Z</time>
      </trkpt>
      <trkpt lat="47.11417" lon="-1.58044">
        <ele>55</ele>
        <time>2021-06-02T17:23:47.000Z</time>
      </trkpt>
      <trkpt lat="47.11429" lon="-1.58039">
        <ele>56</ele>
        <time>2021-06-02T17:23:49.000Z</time>
      </trkpt>
      <trkpt lat="47.11442" lon="-1.58033">
        <ele>56</ele>
        <time>2021-06-02T17:23:51.000Z</time>
      </trkpt>
      <trkpt lat="47.11463" lon="-1.58025">
        <ele>55</ele>
        <time>2021-06-02T17:23:54.000Z</time>
      </trkpt>
      <trkpt lat="47.11473" lon="-1.58021">
        <ele>54</ele>
        <time>2021-06-02T17:23:55.000Z</time>
      </trkpt>
      <trkpt lat="47.11481" lon="-1.58015">
        <ele>54</ele>
        <time>2021-06-02T17:23:56.000Z</time>
      </trkpt>
      <trkpt lat="47.1149" lon="-1.58011">
        <ele>53</ele>
        <time>2021-06-02T17:23:57.000Z</time>
      </trkpt>
      <trkpt lat="47.11509" lon="-1.58013">
        <ele>54</ele>
        <time>2021-06-02T17:24:00.000Z</time>
      </trkpt>
      <trkpt lat="47.11523" lon="-1.58013">
        <ele>54</ele>
        <time>2021-06-02T17:24:02.000Z</time>
      </trkpt>
      <trkpt lat="47.11536" lon="-1.58014">
        <ele>52</ele>
        <time>2021-06-02T17:24:04.000Z</time>
      </trkpt>
      <trkpt lat="47.11551" lon="-1.58018">
        <ele>56</ele>
        <time>2021-06-02T17:24:06.000Z</time>
      </trkpt>
      <trkpt lat="47.11572" lon="-1.58019">
        <ele>58</ele>
        <time>2021-06-02T17:24:09.000Z</time>
      </trkpt>
      <trkpt lat="47.11586" lon="-1.58018">
        <ele>57</ele>
        <time>2021-06-02T17:24:11.000Z</time>
      </trkpt>
      <trkpt lat="47.11601" lon="-1.58018">
        <ele>56</ele>
        <time>2021-06-02T17:24:13.000Z</time>
      </trkpt>
      <trkpt lat="47.11614" lon="-1.58024">
        <ele>58</ele>
        <time>2021-06-02T17:24:15.000Z</time>
      </trkpt>
      <trkpt lat="47.11625" lon="-1.58027">
        <ele>58</ele>
        <time>2021-06-02T17:24:17.000Z</time>
      </trkpt>
      <trkpt lat="47.1164" lon="-1.58021">
        <ele>57</ele>
        <time>2021-06-02T17:24:19.000Z</time>
      </trkpt>
      <trkpt lat="47.11653" lon="-1.58026">
        <ele>57</ele>
        <time>2021-06-02T17:24:21.000Z</time>
      </trkpt>
      <trkpt lat="47.11668" lon="-1.58027">
        <ele>57</ele>
        <time>2021-06-02T17:24:23.000Z</time>
      </trkpt>
      <trkpt lat="47.11689" lon="-1.58026">
        <ele>57</ele>
        <time>2021-06-02T17:24:26.000Z</time>
      </trkpt>
      <trkpt lat="47.11703" lon="-1.58028">
        <ele>57</ele>
        <time>2021-06-02T17:24:28.000Z</time>
      </trkpt>
      <trkpt lat="47.11718" lon="-1.58029">
        <ele>57</ele>
        <time>2021-06-02T17:24:30.000Z</time>
      </trkpt>
      <trkpt lat="47.11739" lon="-1.58031">
        <ele>57</ele>
        <time>2021-06-02T17:24:33.000Z</time>
      </trkpt>
      <trkpt lat="47.11753" lon="-1.58032">
        <ele>58</ele>
        <time>2021-06-02T17:24:35.000Z</time>
      </trkpt>
      <trkpt lat="47.11774" lon="-1.58039">
        <ele>58</ele>
        <time>2021-06-02T17:24:38.000Z</time>
      </trkpt>
      <trkpt lat="47.11796" lon="-1.58044">
        <ele>56</ele>
        <time>2021-06-02T17:24:41.000Z</time>
      </trkpt>
      <trkpt lat="47.11808" lon="-1.58047">
        <ele>57</ele>
        <time>2021-06-02T17:24:43.000Z</time>
      </trkpt>
      <trkpt lat="47.11821" lon="-1.58051">
        <ele>59</ele>
        <time>2021-06-02T17:24:45.000Z</time>
      </trkpt>
      <trkpt lat="47.1184" lon="-1.58056">
        <ele>58</ele>
        <time>2021-06-02T17:24:48.000Z</time>
      </trkpt>
      <trkpt lat="47.11858" lon="-1.58058">
        <ele>58</ele>
        <time>2021-06-02T17:24:51.000Z</time>
      </trkpt>
      <trkpt lat="47.11871" lon="-1.58062">
        <ele>58</ele>
        <time>2021-06-02T17:24:53.000Z</time>
      </trkpt>
      <trkpt lat="47.11885" lon="-1.58065">
        <ele>58</ele>
        <time>2021-06-02T17:24:55.000Z</time>
      </trkpt>
      <trkpt lat="47.11896" lon="-1.58069">
        <ele>59</ele>
        <time>2021-06-02T17:24:57.000Z</time>
      </trkpt>
      <trkpt lat="47.11909" lon="-1.58073">
        <ele>59</ele>
        <time>2021-06-02T17:24:59.000Z</time>
      </trkpt>
      <trkpt lat="47.11921" lon="-1.58076">
        <ele>59</ele>
        <time>2021-06-02T17:25:01.000Z</time>
      </trkpt>
      <trkpt lat="47.11933" lon="-1.58079">
        <ele>59</ele>
        <time>2021-06-02T17:25:03.000Z</time>
      </trkpt>
      <trkpt lat="47.11946" lon="-1.58082">
        <ele>60</ele>
        <time>2021-06-02T17:25:05.000Z</time>
      </trkpt>
      <trkpt lat="47.11959" lon="-1.58085">
        <ele>60</ele>
        <time>2021-06-02T17:25:07.000Z</time>
      </trkpt>
      <trkpt lat="47.11971" lon="-1.58089">
        <ele>60</ele>
        <time>2021-06-02T17:25:09.000Z</time>
      </trkpt>
      <trkpt lat="47.11984" lon="-1.58092">
        <ele>61</ele>
        <time>2021-06-02T17:25:11.000Z</time>
      </trkpt>
      <trkpt lat="47.11995" lon="-1.58096">
        <ele>61</ele>
        <time>2021-06-02T17:25:13.000Z</time>
      </trkpt>
      <trkpt lat="47.12007" lon="-1.58096">
        <ele>60</ele>
        <time>2021-06-02T17:25:15.000Z</time>
      </trkpt>
      <trkpt lat="47.12018" lon="-1.58094">
        <ele>60</ele>
        <time>2021-06-02T17:25:17.000Z</time>
      </trkpt>
      <trkpt lat="47.12028" lon="-1.58103">
        <ele>60</ele>
        <time>2021-06-02T17:25:19.000Z</time>
      </trkpt>
      <trkpt lat="47.12038" lon="-1.58113">
        <ele>60</ele>
        <time>2021-06-02T17:25:21.000Z</time>
      </trkpt>
      <trkpt lat="47.12055" lon="-1.58125">
        <ele>60</ele>
        <time>2021-06-02T17:25:24.000Z</time>
      </trkpt>
      <trkpt lat="47.12067" lon="-1.58135">
        <ele>61</ele>
        <time>2021-06-02T17:25:26.000Z</time>
      </trkpt>
      <trkpt lat="47.12079" lon="-1.58143">
        <ele>61</ele>
        <time>2021-06-02T17:25:28.000Z</time>
      </trkpt>
      <trkpt lat="47.12093" lon="-1.5815">
        <ele>61</ele>
        <time>2021-06-02T17:25:30.000Z</time>
      </trkpt>
      <trkpt lat="47.12106" lon="-1.58157">
        <ele>60</ele>
        <time>2021-06-02T17:25:32.000Z</time>
      </trkpt>
      <trkpt lat="47.12118" lon="-1.58166">
        <ele>59</ele>
        <time>2021-06-02T17:25:34.000Z</time>
      </trkpt>
      <trkpt lat="47.1213" lon="-1.58178">
        <ele>59</ele>
        <time>2021-06-02T17:25:36.000Z</time>
      </trkpt>
      <trkpt lat="47.12144" lon="-1.58192">
        <ele>55</ele>
        <time>2021-06-02T17:25:38.000Z</time>
      </trkpt>
      <trkpt lat="47.12151" lon="-1.58201">
        <ele>54</ele>
        <time>2021-06-02T17:25:39.000Z</time>
      </trkpt>
      <trkpt lat="47.12163" lon="-1.58218">
        <ele>54</ele>
        <time>2021-06-02T17:25:41.000Z</time>
      </trkpt>
      <trkpt lat="47.12175" lon="-1.58227">
        <ele>54</ele>
        <time>2021-06-02T17:25:43.000Z</time>
      </trkpt>
      <trkpt lat="47.12188" lon="-1.5824">
        <ele>54</ele>
        <time>2021-06-02T17:25:45.000Z</time>
      </trkpt>
      <trkpt lat="47.12206" lon="-1.58256">
        <ele>54</ele>
        <time>2021-06-02T17:25:48.000Z</time>
      </trkpt>
      <trkpt lat="47.12219" lon="-1.58266">
        <ele>52</ele>
        <time>2021-06-02T17:25:50.000Z</time>
      </trkpt>
      <trkpt lat="47.1223" lon="-1.58279">
        <ele>53</ele>
        <time>2021-06-02T17:25:52.000Z</time>
      </trkpt>
      <trkpt lat="47.12243" lon="-1.58289">
        <ele>54</ele>
        <time>2021-06-02T17:25:54.000Z</time>
      </trkpt>
      <trkpt lat="47.12262" lon="-1.58308">
        <ele>55</ele>
        <time>2021-06-02T17:25:57.000Z</time>
      </trkpt>
      <trkpt lat="47.12274" lon="-1.5832">
        <ele>55</ele>
        <time>2021-06-02T17:25:59.000Z</time>
      </trkpt>
      <trkpt lat="47.12285" lon="-1.58331">
        <ele>55</ele>
        <time>2021-06-02T17:26:01.000Z</time>
      </trkpt>
      <trkpt lat="47.12296" lon="-1.58339">
        <ele>55</ele>
        <time>2021-06-02T17:26:03.000Z</time>
      </trkpt>
      <trkpt lat="47.12302" lon="-1.5835">
        <ele>56</ele>
        <time>2021-06-02T17:26:05.000Z</time>
      </trkpt>
      <trkpt lat="47.12302" lon="-1.5837">
        <ele>56</ele>
        <time>2021-06-02T17:26:07.000Z</time>
      </trkpt>
      <trkpt lat="47.12302" lon="-1.58389">
        <ele>56</ele>
        <time>2021-06-02T17:26:09.000Z</time>
      </trkpt>
      <trkpt lat="47.12308" lon="-1.58407">
        <ele>57</ele>
        <time>2021-06-02T17:26:11.000Z</time>
      </trkpt>
      <trkpt lat="47.12315" lon="-1.58422">
        <ele>58</ele>
        <time>2021-06-02T17:26:13.000Z</time>
      </trkpt>
      <trkpt lat="47.12328" lon="-1.5844">
        <ele>57</ele>
        <time>2021-06-02T17:26:16.000Z</time>
      </trkpt>
      <trkpt lat="47.12334" lon="-1.58457">
        <ele>56</ele>
        <time>2021-06-02T17:26:18.000Z</time>
      </trkpt>
      <trkpt lat="47.12336" lon="-1.58478">
        <ele>56</ele>
        <time>2021-06-02T17:26:20.000Z</time>
      </trkpt>
      <trkpt lat="47.12341" lon="-1.58498">
        <ele>55</ele>
        <time>2021-06-02T17:26:22.000Z</time>
      </trkpt>
      <trkpt lat="47.12345" lon="-1.58516">
        <ele>55</ele>
        <time>2021-06-02T17:26:24.000Z</time>
      </trkpt>
      <trkpt lat="47.1235" lon="-1.58534">
        <ele>54</ele>
        <time>2021-06-02T17:26:26.000Z</time>
      </trkpt>
      <trkpt lat="47.12352" lon="-1.5855">
        <ele>54</ele>
        <time>2021-06-02T17:26:28.000Z</time>
      </trkpt>
      <trkpt lat="47.12356" lon="-1.58566">
        <ele>54</ele>
        <time>2021-06-02T17:26:30.000Z</time>
      </trkpt>
      <trkpt lat="47.12361" lon="-1.58582">
        <ele>55</ele>
        <time>2021-06-02T17:26:32.000Z</time>
      </trkpt>
      <trkpt lat="47.12368" lon="-1.58608">
        <ele>56</ele>
        <time>2021-06-02T17:26:35.000Z</time>
      </trkpt>
      <trkpt lat="47.12371" lon="-1.58627">
        <ele>57</ele>
        <time>2021-06-02T17:26:37.000Z</time>
      </trkpt>
      <trkpt lat="47.12375" lon="-1.58645">
        <ele>57</ele>
        <time>2021-06-02T17:26:39.000Z</time>
      </trkpt>
      <trkpt lat="47.12379" lon="-1.58663">
        <ele>58</ele>
        <time>2021-06-02T17:26:41.000Z</time>
      </trkpt>
      <trkpt lat="47.12384" lon="-1.58682">
        <ele>58</ele>
        <time>2021-06-02T17:26:43.000Z</time>
      </trkpt>
      <trkpt lat="47.12387" lon="-1.587">
        <ele>59</ele>
        <time>2021-06-02T17:26:45.000Z</time>
      </trkpt>
      <trkpt lat="47.1239" lon="-1.58717">
        <ele>60</ele>
        <time>2021-06-02T17:26:47.000Z</time>
      </trkpt>
      <trkpt lat="47.12395" lon="-1.58744">
        <ele>61</ele>
        <time>2021-06-02T17:26:50.000Z</time>
      </trkpt>
      <trkpt lat="47.12399" lon="-1.58761">
        <ele>62</ele>
        <time>2021-06-02T17:26:52.000Z</time>
      </trkpt>
      <trkpt lat="47.12403" lon="-1.58778">
        <ele>61</ele>
        <time>2021-06-02T17:26:54.000Z</time>
      </trkpt>
      <trkpt lat="47.12406" lon="-1.58796">
        <ele>61</ele>
        <time>2021-06-02T17:26:56.000Z</time>
      </trkpt>
      <trkpt lat="47.1241" lon="-1.58822">
        <ele>61</ele>
        <time>2021-06-02T17:26:59.000Z</time>
      </trkpt>
      <trkpt lat="47.12412" lon="-1.58837">
        <ele>60</ele>
        <time>2021-06-02T17:27:01.000Z</time>
      </trkpt>
      <trkpt lat="47.12414" lon="-1.58863">
        <ele>60</ele>
        <time>2021-06-02T17:27:04.000Z</time>
      </trkpt>
      <trkpt lat="47.12416" lon="-1.5888">
        <ele>60</ele>
        <time>2021-06-02T17:27:06.000Z</time>
      </trkpt>
      <trkpt lat="47.12417" lon="-1.58897">
        <ele>60</ele>
        <time>2021-06-02T17:27:08.000Z</time>
      </trkpt>
      <trkpt lat="47.12418" lon="-1.58915">
        <ele>59</ele>
        <time>2021-06-02T17:27:10.000Z</time>
      </trkpt>
      <trkpt lat="47.12419" lon="-1.58934">
        <ele>59</ele>
        <time>2021-06-02T17:27:12.000Z</time>
      </trkpt>
      <trkpt lat="47.12419" lon="-1.58952">
        <ele>57</ele>
        <time>2021-06-02T17:27:14.000Z</time>
      </trkpt>
      <trkpt lat="47.12422" lon="-1.58973">
        <ele>57</ele>
        <time>2021-06-02T17:27:16.000Z</time>
      </trkpt>
      <trkpt lat="47.12424" lon="-1.58993">
        <ele>56</ele>
        <time>2021-06-02T17:27:18.000Z</time>
      </trkpt>
      <trkpt lat="47.12425" lon="-1.59023">
        <ele>55</ele>
        <time>2021-06-02T17:27:21.000Z</time>
      </trkpt>
      <trkpt lat="47.12428" lon="-1.59044">
        <ele>55</ele>
        <time>2021-06-02T17:27:23.000Z</time>
      </trkpt>
      <trkpt lat="47.12429" lon="-1.59063">
        <ele>54</ele>
        <time>2021-06-02T17:27:25.000Z</time>
      </trkpt>
      <trkpt lat="47.1243" lon="-1.59088">
        <ele>54</ele>
        <time>2021-06-02T17:27:28.000Z</time>
      </trkpt>
      <trkpt lat="47.12431" lon="-1.59107">
        <ele>54</ele>
        <time>2021-06-02T17:27:30.000Z</time>
      </trkpt>
      <trkpt lat="47.12432" lon="-1.59125">
        <ele>53</ele>
        <time>2021-06-02T17:27:32.000Z</time>
      </trkpt>
      <trkpt lat="47.12432" lon="-1.59147">
        <ele>54</ele>
        <time>2021-06-02T17:27:34.000Z</time>
      </trkpt>
      <trkpt lat="47.12433" lon="-1.59164">
        <ele>55</ele>
        <time>2021-06-02T17:27:36.000Z</time>
      </trkpt>
      <trkpt lat="47.12437" lon="-1.59181">
        <ele>56</ele>
        <time>2021-06-02T17:27:38.000Z</time>
      </trkpt>
      <trkpt lat="47.12438" lon="-1.59197">
        <ele>56</ele>
        <time>2021-06-02T17:27:40.000Z</time>
      </trkpt>
      <trkpt lat="47.12436" lon="-1.59216">
        <ele>56</ele>
        <time>2021-06-02T17:27:42.000Z</time>
      </trkpt>
      <trkpt lat="47.12435" lon="-1.59236">
        <ele>55</ele>
        <time>2021-06-02T17:27:44.000Z</time>
      </trkpt>
      <trkpt lat="47.12436" lon="-1.59255">
        <ele>55</ele>
        <time>2021-06-02T17:27:46.000Z</time>
      </trkpt>
      <trkpt lat="47.12437" lon="-1.59274">
        <ele>55</ele>
        <time>2021-06-02T17:27:48.000Z</time>
      </trkpt>
      <trkpt lat="47.12438" lon="-1.59293">
        <ele>54</ele>
        <time>2021-06-02T17:27:50.000Z</time>
      </trkpt>
      <trkpt lat="47.1244" lon="-1.59313">
        <ele>55</ele>
        <time>2021-06-02T17:27:52.000Z</time>
      </trkpt>
      <trkpt lat="47.12441" lon="-1.59331">
        <ele>55</ele>
        <time>2021-06-02T17:27:54.000Z</time>
      </trkpt>
      <trkpt lat="47.12443" lon="-1.5936">
        <ele>55</ele>
        <time>2021-06-02T17:27:57.000Z</time>
      </trkpt>
      <trkpt lat="47.12445" lon="-1.59382">
        <ele>53</ele>
        <time>2021-06-02T17:27:59.000Z</time>
      </trkpt>
      <trkpt lat="47.12444" lon="-1.59399">
        <ele>55</ele>
        <time>2021-06-02T17:28:01.000Z</time>
      </trkpt>
      <trkpt lat="47.12445" lon="-1.59415">
        <ele>55</ele>
        <time>2021-06-02T17:28:03.000Z</time>
      </trkpt>
      <trkpt lat="47.12446" lon="-1.59433">
        <ele>55</ele>
        <time>2021-06-02T17:28:05.000Z</time>
      </trkpt>
      <trkpt lat="47.12445" lon="-1.59449">
        <ele>55</ele>
        <time>2021-06-02T17:28:07.000Z</time>
      </trkpt>
      <trkpt lat="47.12447" lon="-1.59466">
        <ele>55</ele>
        <time>2021-06-02T17:28:09.000Z</time>
      </trkpt>
      <trkpt lat="47.12449" lon="-1.5948">
        <ele>55</ele>
        <time>2021-06-02T17:28:11.000Z</time>
      </trkpt>
      <trkpt lat="47.12449" lon="-1.59503">
        <ele>54</ele>
        <time>2021-06-02T17:28:14.000Z</time>
      </trkpt>
      <trkpt lat="47.12449" lon="-1.59517">
        <ele>55</ele>
        <time>2021-06-02T17:28:15.000Z</time>
      </trkpt>
      <trkpt lat="47.12451" lon="-1.59537">
        <ele>55</ele>
        <time>2021-06-02T17:28:17.000Z</time>
      </trkpt>
      <trkpt lat="47.12452" lon="-1.59558">
        <ele>53</ele>
        <time>2021-06-02T17:28:19.000Z</time>
      </trkpt>
      <trkpt lat="47.12453" lon="-1.59576">
        <ele>54</ele>
        <time>2021-06-02T17:28:21.000Z</time>
      </trkpt>
      <trkpt lat="47.12453" lon="-1.59595">
        <ele>55</ele>
        <time>2021-06-02T17:28:23.000Z</time>
      </trkpt>
      <trkpt lat="47.12455" lon="-1.59621">
        <ele>56</ele>
        <time>2021-06-02T17:28:26.000Z</time>
      </trkpt>
      <trkpt lat="47.12457" lon="-1.59638">
        <ele>57</ele>
        <time>2021-06-02T17:28:28.000Z</time>
      </trkpt>
      <trkpt lat="47.12457" lon="-1.59655">
        <ele>58</ele>
        <time>2021-06-02T17:28:30.000Z</time>
      </trkpt>
      <trkpt lat="47.12458" lon="-1.59673">
        <ele>58</ele>
        <time>2021-06-02T17:28:32.000Z</time>
      </trkpt>
      <trkpt lat="47.12459" lon="-1.59692">
        <ele>58</ele>
        <time>2021-06-02T17:28:34.000Z</time>
      </trkpt>
      <trkpt lat="47.12459" lon="-1.5972">
        <ele>58</ele>
        <time>2021-06-02T17:28:37.000Z</time>
      </trkpt>
      <trkpt lat="47.1246" lon="-1.59739">
        <ele>58</ele>
        <time>2021-06-02T17:28:39.000Z</time>
      </trkpt>
      <trkpt lat="47.12461" lon="-1.59758">
        <ele>58</ele>
        <time>2021-06-02T17:28:41.000Z</time>
      </trkpt>
      <trkpt lat="47.12463" lon="-1.59775">
        <ele>58</ele>
        <time>2021-06-02T17:28:43.000Z</time>
      </trkpt>
      <trkpt lat="47.12464" lon="-1.59793">
        <ele>57</ele>
        <time>2021-06-02T17:28:45.000Z</time>
      </trkpt>
      <trkpt lat="47.12465" lon="-1.59812">
        <ele>57</ele>
        <time>2021-06-02T17:28:47.000Z</time>
      </trkpt>
      <trkpt lat="47.12466" lon="-1.59843">
        <ele>55</ele>
        <time>2021-06-02T17:28:50.000Z</time>
      </trkpt>
      <trkpt lat="47.12469" lon="-1.5986">
        <ele>57</ele>
        <time>2021-06-02T17:28:52.000Z</time>
      </trkpt>
      <trkpt lat="47.12467" lon="-1.59878">
        <ele>58</ele>
        <time>2021-06-02T17:28:54.000Z</time>
      </trkpt>
      <trkpt lat="47.12468" lon="-1.59894">
        <ele>58</ele>
        <time>2021-06-02T17:28:56.000Z</time>
      </trkpt>
      <trkpt lat="47.12469" lon="-1.5992">
        <ele>58</ele>
        <time>2021-06-02T17:28:59.000Z</time>
      </trkpt>
      <trkpt lat="47.12471" lon="-1.59943">
        <ele>57</ele>
        <time>2021-06-02T17:29:01.000Z</time>
      </trkpt>
      <trkpt lat="47.12471" lon="-1.59963">
        <ele>56</ele>
        <time>2021-06-02T17:29:03.000Z</time>
      </trkpt>
      <trkpt lat="47.12472" lon="-1.59983">
        <ele>56</ele>
        <time>2021-06-02T17:29:05.000Z</time>
      </trkpt>
      <trkpt lat="47.12473" lon="-1.60001">
        <ele>55</ele>
        <time>2021-06-02T17:29:07.000Z</time>
      </trkpt>
      <trkpt lat="47.12473" lon="-1.6002">
        <ele>55</ele>
        <time>2021-06-02T17:29:09.000Z</time>
      </trkpt>
      <trkpt lat="47.12474" lon="-1.6004">
        <ele>56</ele>
        <time>2021-06-02T17:29:11.000Z</time>
      </trkpt>
      <trkpt lat="47.12477" lon="-1.60069">
        <ele>56</ele>
        <time>2021-06-02T17:29:14.000Z</time>
      </trkpt>
      <trkpt lat="47.12477" lon="-1.60089">
        <ele>56</ele>
        <time>2021-06-02T17:29:16.000Z</time>
      </trkpt>
      <trkpt lat="47.12478" lon="-1.60109">
        <ele>57</ele>
        <time>2021-06-02T17:29:18.000Z</time>
      </trkpt>
      <trkpt lat="47.12479" lon="-1.60129">
        <ele>57</ele>
        <time>2021-06-02T17:29:20.000Z</time>
      </trkpt>
      <trkpt lat="47.12482" lon="-1.60149">
        <ele>57</ele>
        <time>2021-06-02T17:29:22.000Z</time>
      </trkpt>
      <trkpt lat="47.12483" lon="-1.60167">
        <ele>56</ele>
        <time>2021-06-02T17:29:24.000Z</time>
      </trkpt>
      <trkpt lat="47.12484" lon="-1.60198">
        <ele>57</ele>
        <time>2021-06-02T17:29:27.000Z</time>
      </trkpt>
      <trkpt lat="47.12487" lon="-1.60222">
        <ele>56</ele>
        <time>2021-06-02T17:29:29.000Z</time>
      </trkpt>
      <trkpt lat="47.12489" lon="-1.60236">
        <ele>56</ele>
        <time>2021-06-02T17:29:30.000Z</time>
      </trkpt>
      <trkpt lat="47.12493" lon="-1.60253">
        <ele>55</ele>
        <time>2021-06-02T17:29:32.000Z</time>
      </trkpt>
      <trkpt lat="47.12497" lon="-1.60277">
        <ele>54</ele>
        <time>2021-06-02T17:29:35.000Z</time>
      </trkpt>
      <trkpt lat="47.12501" lon="-1.60295">
        <ele>54</ele>
        <time>2021-06-02T17:29:37.000Z</time>
      </trkpt>
      <trkpt lat="47.12507" lon="-1.60313">
        <ele>54</ele>
        <time>2021-06-02T17:29:39.000Z</time>
      </trkpt>
      <trkpt lat="47.12509" lon="-1.60331">
        <ele>55</ele>
        <time>2021-06-02T17:29:41.000Z</time>
      </trkpt>
      <trkpt lat="47.12512" lon="-1.60349">
        <ele>55</ele>
        <time>2021-06-02T17:29:43.000Z</time>
      </trkpt>
      <trkpt lat="47.12515" lon="-1.60367">
        <ele>56</ele>
        <time>2021-06-02T17:29:45.000Z</time>
      </trkpt>
      <trkpt lat="47.12519" lon="-1.60384">
        <ele>56</ele>
        <time>2021-06-02T17:29:47.000Z</time>
      </trkpt>
      <trkpt lat="47.12522" lon="-1.60402">
        <ele>56</ele>
        <time>2021-06-02T17:29:49.000Z</time>
      </trkpt>
      <trkpt lat="47.12527" lon="-1.60428">
        <ele>56</ele>
        <time>2021-06-02T17:29:52.000Z</time>
      </trkpt>
      <trkpt lat="47.1253" lon="-1.60446">
        <ele>56</ele>
        <time>2021-06-02T17:29:54.000Z</time>
      </trkpt>
      <trkpt lat="47.12534" lon="-1.60465">
        <ele>57</ele>
        <time>2021-06-02T17:29:56.000Z</time>
      </trkpt>
      <trkpt lat="47.12536" lon="-1.60483">
        <ele>56</ele>
        <time>2021-06-02T17:29:58.000Z</time>
      </trkpt>
      <trkpt lat="47.12537" lon="-1.60499">
        <ele>57</ele>
        <time>2021-06-02T17:30:00.000Z</time>
      </trkpt>
      <trkpt lat="47.12538" lon="-1.60518">
        <ele>57</ele>
        <time>2021-06-02T17:30:02.000Z</time>
      </trkpt>
      <trkpt lat="47.12539" lon="-1.60536">
        <ele>57</ele>
        <time>2021-06-02T17:30:04.000Z</time>
      </trkpt>
      <trkpt lat="47.12541" lon="-1.60556">
        <ele>57</ele>
        <time>2021-06-02T17:30:06.000Z</time>
      </trkpt>
      <trkpt lat="47.12543" lon="-1.60575">
        <ele>58</ele>
        <time>2021-06-02T17:30:08.000Z</time>
      </trkpt>
      <trkpt lat="47.12544" lon="-1.60604">
        <ele>58</ele>
        <time>2021-06-02T17:30:11.000Z</time>
      </trkpt>
      <trkpt lat="47.12546" lon="-1.60621">
        <ele>58</ele>
        <time>2021-06-02T17:30:13.000Z</time>
      </trkpt>
      <trkpt lat="47.12546" lon="-1.60641">
        <ele>58</ele>
        <time>2021-06-02T17:30:15.000Z</time>
      </trkpt>
      <trkpt lat="47.12548" lon="-1.6066">
        <ele>56</ele>
        <time>2021-06-02T17:30:17.000Z</time>
      </trkpt>
      <trkpt lat="47.12546" lon="-1.60678">
        <ele>57</ele>
        <time>2021-06-02T17:30:19.000Z</time>
      </trkpt>
      <trkpt lat="47.12545" lon="-1.60694">
        <ele>57</ele>
        <time>2021-06-02T17:30:21.000Z</time>
      </trkpt>
      <trkpt lat="47.12544" lon="-1.60714">
        <ele>57</ele>
        <time>2021-06-02T17:30:23.000Z</time>
      </trkpt>
      <trkpt lat="47.12543" lon="-1.60733">
        <ele>56</ele>
        <time>2021-06-02T17:30:25.000Z</time>
      </trkpt>
      <trkpt lat="47.12541" lon="-1.60761">
        <ele>56</ele>
        <time>2021-06-02T17:30:28.000Z</time>
      </trkpt>
      <trkpt lat="47.12542" lon="-1.60783">
        <ele>59</ele>
        <time>2021-06-02T17:30:30.000Z</time>
      </trkpt>
      <trkpt lat="47.1254" lon="-1.60798">
        <ele>59</ele>
        <time>2021-06-02T17:30:32.000Z</time>
      </trkpt>
      <trkpt lat="47.12539" lon="-1.60816">
        <ele>59</ele>
        <time>2021-06-02T17:30:34.000Z</time>
      </trkpt>
      <trkpt lat="47.12538" lon="-1.60841">
        <ele>59</ele>
        <time>2021-06-02T17:30:37.000Z</time>
      </trkpt>
      <trkpt lat="47.12551" lon="-1.60845">
        <ele>59</ele>
        <time>2021-06-02T17:30:40.000Z</time>
      </trkpt>
      <trkpt lat="47.12563" lon="-1.60841">
        <ele>60</ele>
        <time>2021-06-02T17:30:42.000Z</time>
      </trkpt>
      <trkpt lat="47.12576" lon="-1.60837">
        <ele>60</ele>
        <time>2021-06-02T17:30:44.000Z</time>
      </trkpt>
      <trkpt lat="47.12587" lon="-1.60831">
        <ele>60</ele>
        <time>2021-06-02T17:30:46.000Z</time>
      </trkpt>
      <trkpt lat="47.12599" lon="-1.60827">
        <ele>60</ele>
        <time>2021-06-02T17:30:48.000Z</time>
      </trkpt>
      <trkpt lat="47.12611" lon="-1.60823">
        <ele>61</ele>
        <time>2021-06-02T17:30:50.000Z</time>
      </trkpt>
      <trkpt lat="47.12629" lon="-1.60817">
        <ele>61</ele>
        <time>2021-06-02T17:30:53.000Z</time>
      </trkpt>
      <trkpt lat="47.12642" lon="-1.60812">
        <ele>61</ele>
        <time>2021-06-02T17:30:55.000Z</time>
      </trkpt>
      <trkpt lat="47.12654" lon="-1.60808">
        <ele>61</ele>
        <time>2021-06-02T17:30:57.000Z</time>
      </trkpt>
      <trkpt lat="47.12666" lon="-1.60805">
        <ele>61</ele>
        <time>2021-06-02T17:30:59.000Z</time>
      </trkpt>
      <trkpt lat="47.12678" lon="-1.60801">
        <ele>61</ele>
        <time>2021-06-02T17:31:01.000Z</time>
      </trkpt>
      <trkpt lat="47.1269" lon="-1.60797">
        <ele>61</ele>
        <time>2021-06-02T17:31:03.000Z</time>
      </trkpt>
      <trkpt lat="47.12701" lon="-1.60791">
        <ele>61</ele>
        <time>2021-06-02T17:31:05.000Z</time>
      </trkpt>
      <trkpt lat="47.12713" lon="-1.60787">
        <ele>61</ele>
        <time>2021-06-02T17:31:07.000Z</time>
      </trkpt>
      <trkpt lat="47.12723" lon="-1.60792">
        <ele>62</ele>
        <time>2021-06-02T17:31:09.000Z</time>
      </trkpt>
      <trkpt lat="47.12721" lon="-1.6081">
        <ele>61</ele>
        <time>2021-06-02T17:31:11.000Z</time>
      </trkpt>
      <trkpt lat="47.12716" lon="-1.60828">
        <ele>60</ele>
        <time>2021-06-02T17:31:13.000Z</time>
      </trkpt>
      <trkpt lat="47.1271" lon="-1.60844">
        <ele>58</ele>
        <time>2021-06-02T17:31:15.000Z</time>
      </trkpt>
      <trkpt lat="47.12705" lon="-1.60861">
        <ele>61</ele>
        <time>2021-06-02T17:31:17.000Z</time>
      </trkpt>
      <trkpt lat="47.127" lon="-1.60879">
        <ele>61</ele>
        <time>2021-06-02T17:31:19.000Z</time>
      </trkpt>
      <trkpt lat="47.12697" lon="-1.60897">
        <ele>61</ele>
        <time>2021-06-02T17:31:21.000Z</time>
      </trkpt>
      <trkpt lat="47.12694" lon="-1.60915">
        <ele>60</ele>
        <time>2021-06-02T17:31:23.000Z</time>
      </trkpt>
      <trkpt lat="47.12691" lon="-1.60934">
        <ele>60</ele>
        <time>2021-06-02T17:31:25.000Z</time>
      </trkpt>
      <trkpt lat="47.12691" lon="-1.60954">
        <ele>61</ele>
        <time>2021-06-02T17:31:27.000Z</time>
      </trkpt>
      <trkpt lat="47.1269" lon="-1.60973">
        <ele>61</ele>
        <time>2021-06-02T17:31:29.000Z</time>
      </trkpt>
      <trkpt lat="47.12689" lon="-1.61003">
        <ele>61</ele>
        <time>2021-06-02T17:31:32.000Z</time>
      </trkpt>
      <trkpt lat="47.12688" lon="-1.6102">
        <ele>60</ele>
        <time>2021-06-02T17:31:34.000Z</time>
      </trkpt>
      <trkpt lat="47.12689" lon="-1.61038">
        <ele>61</ele>
        <time>2021-06-02T17:31:36.000Z</time>
      </trkpt>
      <trkpt lat="47.12687" lon="-1.61056">
        <ele>60</ele>
        <time>2021-06-02T17:31:38.000Z</time>
      </trkpt>
      <trkpt lat="47.12687" lon="-1.61081">
        <ele>61</ele>
        <time>2021-06-02T17:31:41.000Z</time>
      </trkpt>
      <trkpt lat="47.12685" lon="-1.61108">
        <ele>60</ele>
        <time>2021-06-02T17:31:44.000Z</time>
      </trkpt>
      <trkpt lat="47.12681" lon="-1.61143">
        <ele>62</ele>
        <time>2021-06-02T17:31:48.000Z</time>
      </trkpt>
      <trkpt lat="47.12678" lon="-1.61163">
        <ele>63</ele>
        <time>2021-06-02T17:31:50.000Z</time>
      </trkpt>
      <trkpt lat="47.12674" lon="-1.61191">
        <ele>61</ele>
        <time>2021-06-02T17:31:53.000Z</time>
      </trkpt>
      <trkpt lat="47.1267" lon="-1.61209">
        <ele>61</ele>
        <time>2021-06-02T17:31:55.000Z</time>
      </trkpt>
      <trkpt lat="47.12669" lon="-1.61227">
        <ele>61</ele>
        <time>2021-06-02T17:31:57.000Z</time>
      </trkpt>
      <trkpt lat="47.12668" lon="-1.61245">
        <ele>61</ele>
        <time>2021-06-02T17:31:59.000Z</time>
      </trkpt>
      <trkpt lat="47.1267" lon="-1.61263">
        <ele>61</ele>
        <time>2021-06-02T17:32:01.000Z</time>
      </trkpt>
      <trkpt lat="47.12675" lon="-1.61279">
        <ele>62</ele>
        <time>2021-06-02T17:32:03.000Z</time>
      </trkpt>
      <trkpt lat="47.12681" lon="-1.61297">
        <ele>64</ele>
        <time>2021-06-02T17:32:05.000Z</time>
      </trkpt>
      <trkpt lat="47.12684" lon="-1.61316">
        <ele>64</ele>
        <time>2021-06-02T17:32:07.000Z</time>
      </trkpt>
      <trkpt lat="47.1269" lon="-1.6133">
        <ele>64</ele>
        <time>2021-06-02T17:32:09.000Z</time>
      </trkpt>
      <trkpt lat="47.12695" lon="-1.61342">
        <ele>64</ele>
        <time>2021-06-02T17:32:11.000Z</time>
      </trkpt>
      <trkpt lat="47.127" lon="-1.61358">
        <ele>65</ele>
        <time>2021-06-02T17:32:13.000Z</time>
      </trkpt>
      <trkpt lat="47.1271" lon="-1.61384">
        <ele>67</ele>
        <time>2021-06-02T17:32:16.000Z</time>
      </trkpt>
      <trkpt lat="47.12717" lon="-1.61404">
        <ele>66</ele>
        <time>2021-06-02T17:32:18.000Z</time>
      </trkpt>
      <trkpt lat="47.12724" lon="-1.61421">
        <ele>64</ele>
        <time>2021-06-02T17:32:20.000Z</time>
      </trkpt>
      <trkpt lat="47.12735" lon="-1.61445">
        <ele>64</ele>
        <time>2021-06-02T17:32:23.000Z</time>
      </trkpt>
      <trkpt lat="47.12745" lon="-1.61472">
        <ele>63</ele>
        <time>2021-06-02T17:32:26.000Z</time>
      </trkpt>
      <trkpt lat="47.12751" lon="-1.61488">
        <ele>63</ele>
        <time>2021-06-02T17:32:28.000Z</time>
      </trkpt>
      <trkpt lat="47.1276" lon="-1.61504">
        <ele>61</ele>
        <time>2021-06-02T17:32:30.000Z</time>
      </trkpt>
      <trkpt lat="47.12767" lon="-1.61521">
        <ele>61</ele>
        <time>2021-06-02T17:32:32.000Z</time>
      </trkpt>
      <trkpt lat="47.12773" lon="-1.61537">
        <ele>61</ele>
        <time>2021-06-02T17:32:34.000Z</time>
      </trkpt>
      <trkpt lat="47.12778" lon="-1.61553">
        <ele>60</ele>
        <time>2021-06-02T17:32:36.000Z</time>
      </trkpt>
      <trkpt lat="47.12784" lon="-1.61567">
        <ele>60</ele>
        <time>2021-06-02T17:32:38.000Z</time>
      </trkpt>
      <trkpt lat="47.1279" lon="-1.61581">
        <ele>60</ele>
        <time>2021-06-02T17:32:40.000Z</time>
      </trkpt>
      <trkpt lat="47.12795" lon="-1.61595">
        <ele>60</ele>
        <time>2021-06-02T17:32:42.000Z</time>
      </trkpt>
      <trkpt lat="47.12799" lon="-1.61611">
        <ele>60</ele>
        <time>2021-06-02T17:32:44.000Z</time>
      </trkpt>
      <trkpt lat="47.12804" lon="-1.61625">
        <ele>59</ele>
        <time>2021-06-02T17:32:46.000Z</time>
      </trkpt>
      <trkpt lat="47.1281" lon="-1.61638">
        <ele>57</ele>
        <time>2021-06-02T17:32:48.000Z</time>
      </trkpt>
      <trkpt lat="47.12817" lon="-1.61647">
        <ele>57</ele>
        <time>2021-06-02T17:32:50.000Z</time>
      </trkpt>
      <trkpt lat="47.12821" lon="-1.61665">
        <ele>56</ele>
        <time>2021-06-02T17:32:55.000Z</time>
      </trkpt>
      <trkpt lat="47.12826" lon="-1.6168">
        <ele>55</ele>
        <time>2021-06-02T17:32:57.000Z</time>
      </trkpt>
      <trkpt lat="47.12836" lon="-1.617">
        <ele>58</ele>
        <time>2021-06-02T17:33:00.000Z</time>
      </trkpt>
      <trkpt lat="47.12843" lon="-1.61714">
        <ele>58</ele>
        <time>2021-06-02T17:33:02.000Z</time>
      </trkpt>
      <trkpt lat="47.12847" lon="-1.61728">
        <ele>53</ele>
        <time>2021-06-02T17:33:04.000Z</time>
      </trkpt>
      <trkpt lat="47.12853" lon="-1.61741">
        <ele>53</ele>
        <time>2021-06-02T17:33:06.000Z</time>
      </trkpt>
      <trkpt lat="47.12861" lon="-1.61755">
        <ele>55</ele>
        <time>2021-06-02T17:33:08.000Z</time>
      </trkpt>
      <trkpt lat="47.1287" lon="-1.61773">
        <ele>57</ele>
        <time>2021-06-02T17:33:10.000Z</time>
      </trkpt>
      <trkpt lat="47.12877" lon="-1.61791">
        <ele>58</ele>
        <time>2021-06-02T17:33:12.000Z</time>
      </trkpt>
      <trkpt lat="47.12888" lon="-1.61819">
        <ele>57</ele>
        <time>2021-06-02T17:33:15.000Z</time>
      </trkpt>
      <trkpt lat="47.12894" lon="-1.61837">
        <ele>56</ele>
        <time>2021-06-02T17:33:17.000Z</time>
      </trkpt>
      <trkpt lat="47.12899" lon="-1.61855">
        <ele>56</ele>
        <time>2021-06-02T17:33:19.000Z</time>
      </trkpt>
      <trkpt lat="47.12903" lon="-1.61875">
        <ele>56</ele>
        <time>2021-06-02T17:33:21.000Z</time>
      </trkpt>
      <trkpt lat="47.12909" lon="-1.61904">
        <ele>56</ele>
        <time>2021-06-02T17:33:24.000Z</time>
      </trkpt>
      <trkpt lat="47.12908" lon="-1.61923">
        <ele>54</ele>
        <time>2021-06-02T17:33:26.000Z</time>
      </trkpt>
      <trkpt lat="47.12911" lon="-1.61941">
        <ele>54</ele>
        <time>2021-06-02T17:33:28.000Z</time>
      </trkpt>
      <trkpt lat="47.12915" lon="-1.61957">
        <ele>55</ele>
        <time>2021-06-02T17:33:30.000Z</time>
      </trkpt>
      <trkpt lat="47.12921" lon="-1.61975">
        <ele>55</ele>
        <time>2021-06-02T17:33:32.000Z</time>
      </trkpt>
      <trkpt lat="47.1293" lon="-1.62007">
        <ele>54</ele>
        <time>2021-06-02T17:33:35.000Z</time>
      </trkpt>
      <trkpt lat="47.12934" lon="-1.62023">
        <ele>53</ele>
        <time>2021-06-02T17:33:37.000Z</time>
      </trkpt>
      <trkpt lat="47.12939" lon="-1.62038">
        <ele>54</ele>
        <time>2021-06-02T17:33:39.000Z</time>
      </trkpt>
      <trkpt lat="47.12946" lon="-1.62053">
        <ele>52</ele>
        <time>2021-06-02T17:33:41.000Z</time>
      </trkpt>
      <trkpt lat="47.12952" lon="-1.62069">
        <ele>53</ele>
        <time>2021-06-02T17:33:43.000Z</time>
      </trkpt>
      <trkpt lat="47.1296" lon="-1.62083">
        <ele>54</ele>
        <time>2021-06-02T17:33:45.000Z</time>
      </trkpt>
      <trkpt lat="47.12966" lon="-1.62098">
        <ele>54</ele>
        <time>2021-06-02T17:33:47.000Z</time>
      </trkpt>
      <trkpt lat="47.12973" lon="-1.62108">
        <ele>53</ele>
        <time>2021-06-02T17:33:49.000Z</time>
      </trkpt>
      <trkpt lat="47.12981" lon="-1.62125">
        <ele>53</ele>
        <time>2021-06-02T17:33:51.000Z</time>
      </trkpt>
      <trkpt lat="47.1299" lon="-1.62141">
        <ele>52</ele>
        <time>2021-06-02T17:33:53.000Z</time>
      </trkpt>
      <trkpt lat="47.13" lon="-1.62156">
        <ele>52</ele>
        <time>2021-06-02T17:33:55.000Z</time>
      </trkpt>
      <trkpt lat="47.1301" lon="-1.62171">
        <ele>52</ele>
        <time>2021-06-02T17:33:57.000Z</time>
      </trkpt>
      <trkpt lat="47.1302" lon="-1.62186">
        <ele>54</ele>
        <time>2021-06-02T17:33:59.000Z</time>
      </trkpt>
      <trkpt lat="47.13033" lon="-1.62206">
        <ele>55</ele>
        <time>2021-06-02T17:34:02.000Z</time>
      </trkpt>
      <trkpt lat="47.13045" lon="-1.62224">
        <ele>56</ele>
        <time>2021-06-02T17:34:05.000Z</time>
      </trkpt>
      <trkpt lat="47.13055" lon="-1.62238">
        <ele>57</ele>
        <time>2021-06-02T17:34:07.000Z</time>
      </trkpt>
      <trkpt lat="47.13063" lon="-1.62251">
        <ele>58</ele>
        <time>2021-06-02T17:34:09.000Z</time>
      </trkpt>
      <trkpt lat="47.13072" lon="-1.62264">
        <ele>58</ele>
        <time>2021-06-02T17:34:11.000Z</time>
      </trkpt>
      <trkpt lat="47.13084" lon="-1.62287">
        <ele>56</ele>
        <time>2021-06-02T17:34:14.000Z</time>
      </trkpt>
      <trkpt lat="47.13091" lon="-1.62297">
        <ele>55</ele>
        <time>2021-06-02T17:34:16.000Z</time>
      </trkpt>
      <trkpt lat="47.13099" lon="-1.62305">
        <ele>57</ele>
        <time>2021-06-02T17:34:18.000Z</time>
      </trkpt>
      <trkpt lat="47.13114" lon="-1.62279">
        <ele>60</ele>
        <time>2021-06-02T17:34:22.000Z</time>
      </trkpt>
      <trkpt lat="47.13121" lon="-1.62265">
        <ele>61</ele>
        <time>2021-06-02T17:34:24.000Z</time>
      </trkpt>
      <trkpt lat="47.1313" lon="-1.62248">
        <ele>61</ele>
        <time>2021-06-02T17:34:26.000Z</time>
      </trkpt>
      <trkpt lat="47.13138" lon="-1.62231">
        <ele>60</ele>
        <time>2021-06-02T17:34:28.000Z</time>
      </trkpt>
      <trkpt lat="47.13144" lon="-1.62219">
        <ele>62</ele>
        <time>2021-06-02T17:34:30.000Z</time>
      </trkpt>
      <trkpt lat="47.1315" lon="-1.62205">
        <ele>61</ele>
        <time>2021-06-02T17:34:32.000Z</time>
      </trkpt>
      <trkpt lat="47.13156" lon="-1.62191">
        <ele>63</ele>
        <time>2021-06-02T17:34:34.000Z</time>
      </trkpt>
      <trkpt lat="47.13163" lon="-1.62179">
        <ele>63</ele>
        <time>2021-06-02T17:34:36.000Z</time>
      </trkpt>
      <trkpt lat="47.13169" lon="-1.62165">
        <ele>63</ele>
        <time>2021-06-02T17:34:38.000Z</time>
      </trkpt>
      <trkpt lat="47.13177" lon="-1.62151">
        <ele>61</ele>
        <time>2021-06-02T17:34:40.000Z</time>
      </trkpt>
      <trkpt lat="47.13183" lon="-1.62141">
        <ele>62</ele>
        <time>2021-06-02T17:34:42.000Z</time>
      </trkpt>
      <trkpt lat="47.13191" lon="-1.62126">
        <ele>63</ele>
        <time>2021-06-02T17:34:44.000Z</time>
      </trkpt>
      <trkpt lat="47.13199" lon="-1.62111">
        <ele>64</ele>
        <time>2021-06-02T17:34:46.000Z</time>
      </trkpt>
      <trkpt lat="47.13209" lon="-1.62099">
        <ele>62</ele>
        <time>2021-06-02T17:34:48.000Z</time>
      </trkpt>
      <trkpt lat="47.13215" lon="-1.62086">
        <ele>62</ele>
        <time>2021-06-02T17:34:50.000Z</time>
      </trkpt>
      <trkpt lat="47.13223" lon="-1.62071">
        <ele>63</ele>
        <time>2021-06-02T17:34:52.000Z</time>
      </trkpt>
      <trkpt lat="47.13236" lon="-1.62051">
        <ele>64</ele>
        <time>2021-06-02T17:34:55.000Z</time>
      </trkpt>
      <trkpt lat="47.13244" lon="-1.62039">
        <ele>63</ele>
        <time>2021-06-02T17:34:57.000Z</time>
      </trkpt>
      <trkpt lat="47.13252" lon="-1.62028">
        <ele>64</ele>
        <time>2021-06-02T17:34:59.000Z</time>
      </trkpt>
      <trkpt lat="47.13263" lon="-1.62019">
        <ele>65</ele>
        <time>2021-06-02T17:35:01.000Z</time>
      </trkpt>
      <trkpt lat="47.13272" lon="-1.62009">
        <ele>65</ele>
        <time>2021-06-02T17:35:03.000Z</time>
      </trkpt>
      <trkpt lat="47.13282" lon="-1.61998">
        <ele>64</ele>
        <time>2021-06-02T17:35:05.000Z</time>
      </trkpt>
      <trkpt lat="47.13294" lon="-1.6199">
        <ele>63</ele>
        <time>2021-06-02T17:35:07.000Z</time>
      </trkpt>
      <trkpt lat="47.13307" lon="-1.61981">
        <ele>61</ele>
        <time>2021-06-02T17:35:09.000Z</time>
      </trkpt>
      <trkpt lat="47.13319" lon="-1.61979">
        <ele>60</ele>
        <time>2021-06-02T17:35:11.000Z</time>
      </trkpt>
      <trkpt lat="47.13329" lon="-1.61971">
        <ele>59</ele>
        <time>2021-06-02T17:35:13.000Z</time>
      </trkpt>
      <trkpt lat="47.13344" lon="-1.61955">
        <ele>63</ele>
        <time>2021-06-02T17:35:16.000Z</time>
      </trkpt>
      <trkpt lat="47.13354" lon="-1.61945">
        <ele>64</ele>
        <time>2021-06-02T17:35:18.000Z</time>
      </trkpt>
      <trkpt lat="47.13364" lon="-1.61934">
        <ele>65</ele>
        <time>2021-06-02T17:35:20.000Z</time>
      </trkpt>
      <trkpt lat="47.13375" lon="-1.61927">
        <ele>66</ele>
        <time>2021-06-02T17:35:22.000Z</time>
      </trkpt>
      <trkpt lat="47.13386" lon="-1.61921">
        <ele>67</ele>
        <time>2021-06-02T17:35:24.000Z</time>
      </trkpt>
      <trkpt lat="47.13398" lon="-1.61913">
        <ele>66</ele>
        <time>2021-06-02T17:35:26.000Z</time>
      </trkpt>
      <trkpt lat="47.13408" lon="-1.61904">
        <ele>66</ele>
        <time>2021-06-02T17:35:28.000Z</time>
      </trkpt>
      <trkpt lat="47.13419" lon="-1.61897">
        <ele>66</ele>
        <time>2021-06-02T17:35:30.000Z</time>
      </trkpt>
      <trkpt lat="47.13438" lon="-1.61882">
        <ele>65</ele>
        <time>2021-06-02T17:35:33.000Z</time>
      </trkpt>
      <trkpt lat="47.13449" lon="-1.61872">
        <ele>66</ele>
        <time>2021-06-02T17:35:35.000Z</time>
      </trkpt>
      <trkpt lat="47.13461" lon="-1.61866">
        <ele>66</ele>
        <time>2021-06-02T17:35:37.000Z</time>
      </trkpt>
      <trkpt lat="47.13472" lon="-1.61857">
        <ele>66</ele>
        <time>2021-06-02T17:35:39.000Z</time>
      </trkpt>
      <trkpt lat="47.13491" lon="-1.61847">
        <ele>65</ele>
        <time>2021-06-02T17:35:42.000Z</time>
      </trkpt>
      <trkpt lat="47.13509" lon="-1.6184">
        <ele>65</ele>
        <time>2021-06-02T17:35:45.000Z</time>
      </trkpt>
      <trkpt lat="47.13522" lon="-1.61833">
        <ele>66</ele>
        <time>2021-06-02T17:35:47.000Z</time>
      </trkpt>
      <trkpt lat="47.13535" lon="-1.61827">
        <ele>66</ele>
        <time>2021-06-02T17:35:49.000Z</time>
      </trkpt>
      <trkpt lat="47.13548" lon="-1.6182">
        <ele>65</ele>
        <time>2021-06-02T17:35:51.000Z</time>
      </trkpt>
      <trkpt lat="47.13561" lon="-1.61812">
        <ele>64</ele>
        <time>2021-06-02T17:35:53.000Z</time>
      </trkpt>
      <trkpt lat="47.13573" lon="-1.61802">
        <ele>64</ele>
        <time>2021-06-02T17:35:55.000Z</time>
      </trkpt>
      <trkpt lat="47.1359" lon="-1.618">
        <ele>64</ele>
        <time>2021-06-02T17:35:58.000Z</time>
      </trkpt>
      <trkpt lat="47.13602" lon="-1.61795">
        <ele>64</ele>
        <time>2021-06-02T17:36:00.000Z</time>
      </trkpt>
      <trkpt lat="47.13614" lon="-1.61789">
        <ele>62</ele>
        <time>2021-06-02T17:36:02.000Z</time>
      </trkpt>
      <trkpt lat="47.13624" lon="-1.61786">
        <ele>59</ele>
        <time>2021-06-02T17:36:04.000Z</time>
      </trkpt>
      <trkpt lat="47.13637" lon="-1.61781">
        <ele>60</ele>
        <time>2021-06-02T17:36:06.000Z</time>
      </trkpt>
      <trkpt lat="47.1365" lon="-1.61775">
        <ele>62</ele>
        <time>2021-06-02T17:36:08.000Z</time>
      </trkpt>
      <trkpt lat="47.13668" lon="-1.61766">
        <ele>63</ele>
        <time>2021-06-02T17:36:11.000Z</time>
      </trkpt>
      <trkpt lat="47.1368" lon="-1.61761">
        <ele>61</ele>
        <time>2021-06-02T17:36:13.000Z</time>
      </trkpt>
      <trkpt lat="47.13692" lon="-1.61752">
        <ele>62</ele>
        <time>2021-06-02T17:36:15.000Z</time>
      </trkpt>
      <trkpt lat="47.13702" lon="-1.61743">
        <ele>63</ele>
        <time>2021-06-02T17:36:17.000Z</time>
      </trkpt>
      <trkpt lat="47.13716" lon="-1.61729">
        <ele>59</ele>
        <time>2021-06-02T17:36:20.000Z</time>
      </trkpt>
      <trkpt lat="47.13725" lon="-1.61721">
        <ele>58</ele>
        <time>2021-06-02T17:36:22.000Z</time>
      </trkpt>
      <trkpt lat="47.13735" lon="-1.61716">
        <ele>60</ele>
        <time>2021-06-02T17:36:24.000Z</time>
      </trkpt>
      <trkpt lat="47.13744" lon="-1.61737">
        <ele>57</ele>
        <time>2021-06-02T17:36:27.000Z</time>
      </trkpt>
      <trkpt lat="47.1374" lon="-1.61757">
        <ele>58</ele>
        <time>2021-06-02T17:36:29.000Z</time>
      </trkpt>
      <trkpt lat="47.13734" lon="-1.61775">
        <ele>60</ele>
        <time>2021-06-02T17:36:31.000Z</time>
      </trkpt>
      <trkpt lat="47.1373" lon="-1.61794">
        <ele>61</ele>
        <time>2021-06-02T17:36:33.000Z</time>
      </trkpt>
      <trkpt lat="47.13726" lon="-1.61812">
        <ele>62</ele>
        <time>2021-06-02T17:36:35.000Z</time>
      </trkpt>
      <trkpt lat="47.13725" lon="-1.61829">
        <ele>63</ele>
        <time>2021-06-02T17:36:37.000Z</time>
      </trkpt>
      <trkpt lat="47.13723" lon="-1.61846">
        <ele>64</ele>
        <time>2021-06-02T17:36:39.000Z</time>
      </trkpt>
      <trkpt lat="47.13723" lon="-1.61864">
        <ele>64</ele>
        <time>2021-06-02T17:36:41.000Z</time>
      </trkpt>
      <trkpt lat="47.13723" lon="-1.6188">
        <ele>65</ele>
        <time>2021-06-02T17:36:43.000Z</time>
      </trkpt>
      <trkpt lat="47.13722" lon="-1.61896">
        <ele>65</ele>
        <time>2021-06-02T17:36:45.000Z</time>
      </trkpt>
      <trkpt lat="47.1372" lon="-1.61913">
        <ele>66</ele>
        <time>2021-06-02T17:36:47.000Z</time>
      </trkpt>
      <trkpt lat="47.13721" lon="-1.6193">
        <ele>65</ele>
        <time>2021-06-02T17:36:49.000Z</time>
      </trkpt>
      <trkpt lat="47.13723" lon="-1.61946">
        <ele>66</ele>
        <time>2021-06-02T17:36:51.000Z</time>
      </trkpt>
      <trkpt lat="47.13724" lon="-1.61964">
        <ele>67</ele>
        <time>2021-06-02T17:36:53.000Z</time>
      </trkpt>
      <trkpt lat="47.13726" lon="-1.61982">
        <ele>67</ele>
        <time>2021-06-02T17:36:55.000Z</time>
      </trkpt>
      <trkpt lat="47.13729" lon="-1.61999">
        <ele>67</ele>
        <time>2021-06-02T17:36:57.000Z</time>
      </trkpt>
      <trkpt lat="47.13732" lon="-1.62016">
        <ele>67</ele>
        <time>2021-06-02T17:36:59.000Z</time>
      </trkpt>
      <trkpt lat="47.13736" lon="-1.62032">
        <ele>66</ele>
        <time>2021-06-02T17:37:01.000Z</time>
      </trkpt>
      <trkpt lat="47.13736" lon="-1.6205">
        <ele>66</ele>
        <time>2021-06-02T17:37:03.000Z</time>
      </trkpt>
      <trkpt lat="47.13737" lon="-1.62066">
        <ele>65</ele>
        <time>2021-06-02T17:37:05.000Z</time>
      </trkpt>
      <trkpt lat="47.1374" lon="-1.62081">
        <ele>63</ele>
        <time>2021-06-02T17:37:07.000Z</time>
      </trkpt>
      <trkpt lat="47.13743" lon="-1.62103">
        <ele>63</ele>
        <time>2021-06-02T17:37:09.000Z</time>
      </trkpt>
      <trkpt lat="47.13746" lon="-1.6213">
        <ele>65</ele>
        <time>2021-06-02T17:37:12.000Z</time>
      </trkpt>
      <trkpt lat="47.13748" lon="-1.62149">
        <ele>65</ele>
        <time>2021-06-02T17:37:14.000Z</time>
      </trkpt>
      <trkpt lat="47.13749" lon="-1.62167">
        <ele>65</ele>
        <time>2021-06-02T17:37:16.000Z</time>
      </trkpt>
      <trkpt lat="47.13753" lon="-1.62194">
        <ele>65</ele>
        <time>2021-06-02T17:37:19.000Z</time>
      </trkpt>
      <trkpt lat="47.13754" lon="-1.62212">
        <ele>65</ele>
        <time>2021-06-02T17:37:21.000Z</time>
      </trkpt>
      <trkpt lat="47.13756" lon="-1.62228">
        <ele>65</ele>
        <time>2021-06-02T17:37:23.000Z</time>
      </trkpt>
      <trkpt lat="47.13759" lon="-1.62243">
        <ele>65</ele>
        <time>2021-06-02T17:37:25.000Z</time>
      </trkpt>
      <trkpt lat="47.13761" lon="-1.62272">
        <ele>65</ele>
        <time>2021-06-02T17:37:28.000Z</time>
      </trkpt>
      <trkpt lat="47.13763" lon="-1.62291">
        <ele>65</ele>
        <time>2021-06-02T17:37:30.000Z</time>
      </trkpt>
      <trkpt lat="47.13764" lon="-1.62308">
        <ele>65</ele>
        <time>2021-06-02T17:37:32.000Z</time>
      </trkpt>
      <trkpt lat="47.13764" lon="-1.62325">
        <ele>65</ele>
        <time>2021-06-02T17:37:34.000Z</time>
      </trkpt>
      <trkpt lat="47.13762" lon="-1.62343">
        <ele>65</ele>
        <time>2021-06-02T17:37:36.000Z</time>
      </trkpt>
      <trkpt lat="47.13761" lon="-1.62362">
        <ele>65</ele>
        <time>2021-06-02T17:37:38.000Z</time>
      </trkpt>
      <trkpt lat="47.1376" lon="-1.62381">
        <ele>65</ele>
        <time>2021-06-02T17:37:40.000Z</time>
      </trkpt>
      <trkpt lat="47.13759" lon="-1.62401">
        <ele>65</ele>
        <time>2021-06-02T17:37:42.000Z</time>
      </trkpt>
      <trkpt lat="47.13759" lon="-1.62422">
        <ele>62</ele>
        <time>2021-06-02T17:37:44.000Z</time>
      </trkpt>
      <trkpt lat="47.13763" lon="-1.62442">
        <ele>62</ele>
        <time>2021-06-02T17:37:46.000Z</time>
      </trkpt>
      <trkpt lat="47.13765" lon="-1.62463">
        <ele>61</ele>
        <time>2021-06-02T17:37:48.000Z</time>
      </trkpt>
      <trkpt lat="47.13766" lon="-1.62482">
        <ele>60</ele>
        <time>2021-06-02T17:37:50.000Z</time>
      </trkpt>
      <trkpt lat="47.1377" lon="-1.62518">
        <ele>63</ele>
        <time>2021-06-02T17:37:53.000Z</time>
      </trkpt>
      <trkpt lat="47.13772" lon="-1.62538">
        <ele>63</ele>
        <time>2021-06-02T17:37:55.000Z</time>
      </trkpt>
      <trkpt lat="47.13775" lon="-1.62556">
        <ele>63</ele>
        <time>2021-06-02T17:37:57.000Z</time>
      </trkpt>
      <trkpt lat="47.13775" lon="-1.62577">
        <ele>62</ele>
        <time>2021-06-02T17:37:59.000Z</time>
      </trkpt>
      <trkpt lat="47.13778" lon="-1.62605">
        <ele>62</ele>
        <time>2021-06-02T17:38:02.000Z</time>
      </trkpt>
      <trkpt lat="47.13779" lon="-1.62624">
        <ele>63</ele>
        <time>2021-06-02T17:38:04.000Z</time>
      </trkpt>
      <trkpt lat="47.13781" lon="-1.62642">
        <ele>63</ele>
        <time>2021-06-02T17:38:06.000Z</time>
      </trkpt>
      <trkpt lat="47.13782" lon="-1.6266">
        <ele>64</ele>
        <time>2021-06-02T17:38:08.000Z</time>
      </trkpt>
      <trkpt lat="47.13782" lon="-1.62678">
        <ele>64</ele>
        <time>2021-06-02T17:38:10.000Z</time>
      </trkpt>
      <trkpt lat="47.13783" lon="-1.62697">
        <ele>63</ele>
        <time>2021-06-02T17:38:12.000Z</time>
      </trkpt>
      <trkpt lat="47.13784" lon="-1.62719">
        <ele>64</ele>
        <time>2021-06-02T17:38:15.000Z</time>
      </trkpt>
      <trkpt lat="47.13785" lon="-1.62738">
        <ele>64</ele>
        <time>2021-06-02T17:38:17.000Z</time>
      </trkpt>
      <trkpt lat="47.13785" lon="-1.62759">
        <ele>64</ele>
        <time>2021-06-02T17:38:19.000Z</time>
      </trkpt>
      <trkpt lat="47.13788" lon="-1.62779">
        <ele>64</ele>
        <time>2021-06-02T17:38:21.000Z</time>
      </trkpt>
      <trkpt lat="47.13792" lon="-1.62796">
        <ele>64</ele>
        <time>2021-06-02T17:38:23.000Z</time>
      </trkpt>
      <trkpt lat="47.13798" lon="-1.62814">
        <ele>64</ele>
        <time>2021-06-02T17:38:25.000Z</time>
      </trkpt>
      <trkpt lat="47.13803" lon="-1.62831">
        <ele>64</ele>
        <time>2021-06-02T17:38:27.000Z</time>
      </trkpt>
      <trkpt lat="47.13813" lon="-1.62855">
        <ele>63</ele>
        <time>2021-06-02T17:38:30.000Z</time>
      </trkpt>
      <trkpt lat="47.13819" lon="-1.62869">
        <ele>64</ele>
        <time>2021-06-02T17:38:32.000Z</time>
      </trkpt>
      <trkpt lat="47.13824" lon="-1.62896">
        <ele>64</ele>
        <time>2021-06-02T17:38:35.000Z</time>
      </trkpt>
      <trkpt lat="47.13824" lon="-1.62914">
        <ele>65</ele>
        <time>2021-06-02T17:38:37.000Z</time>
      </trkpt>
      <trkpt lat="47.13821" lon="-1.62933">
        <ele>65</ele>
        <time>2021-06-02T17:38:39.000Z</time>
      </trkpt>
      <trkpt lat="47.13819" lon="-1.62952">
        <ele>64</ele>
        <time>2021-06-02T17:38:41.000Z</time>
      </trkpt>
      <trkpt lat="47.13818" lon="-1.62969">
        <ele>63</ele>
        <time>2021-06-02T17:38:43.000Z</time>
      </trkpt>
      <trkpt lat="47.13818" lon="-1.62988">
        <ele>63</ele>
        <time>2021-06-02T17:38:45.000Z</time>
      </trkpt>
      <trkpt lat="47.13816" lon="-1.63008">
        <ele>63</ele>
        <time>2021-06-02T17:38:47.000Z</time>
      </trkpt>
      <trkpt lat="47.13816" lon="-1.63028">
        <ele>62</ele>
        <time>2021-06-02T17:38:49.000Z</time>
      </trkpt>
      <trkpt lat="47.13814" lon="-1.63049">
        <ele>61</ele>
        <time>2021-06-02T17:38:51.000Z</time>
      </trkpt>
      <trkpt lat="47.13855" lon="-1.63052">
        <ele>63</ele>
        <time>2021-06-02T17:38:58.000Z</time>
      </trkpt>
      <trkpt lat="47.13867" lon="-1.63051">
        <ele>64</ele>
        <time>2021-06-02T17:39:00.000Z</time>
      </trkpt>
      <trkpt lat="47.13881" lon="-1.63048">
        <ele>66</ele>
        <time>2021-06-02T17:39:02.000Z</time>
      </trkpt>
      <trkpt lat="47.13895" lon="-1.63044">
        <ele>64</ele>
        <time>2021-06-02T17:39:04.000Z</time>
      </trkpt>
      <trkpt lat="47.13908" lon="-1.6304">
        <ele>64</ele>
        <time>2021-06-02T17:39:06.000Z</time>
      </trkpt>
      <trkpt lat="47.1392" lon="-1.63034">
        <ele>64</ele>
        <time>2021-06-02T17:39:08.000Z</time>
      </trkpt>
      <trkpt lat="47.13932" lon="-1.63029">
        <ele>65</ele>
        <time>2021-06-02T17:39:10.000Z</time>
      </trkpt>
      <trkpt lat="47.13945" lon="-1.63022">
        <ele>65</ele>
        <time>2021-06-02T17:39:12.000Z</time>
      </trkpt>
      <trkpt lat="47.13963" lon="-1.63012">
        <ele>63</ele>
        <time>2021-06-02T17:39:15.000Z</time>
      </trkpt>
      <trkpt lat="47.13975" lon="-1.63005">
        <ele>63</ele>
        <time>2021-06-02T17:39:17.000Z</time>
      </trkpt>
      <trkpt lat="47.13988" lon="-1.62999">
        <ele>66</ele>
        <time>2021-06-02T17:39:19.000Z</time>
      </trkpt>
      <trkpt lat="47.14005" lon="-1.62991">
        <ele>65</ele>
        <time>2021-06-02T17:39:22.000Z</time>
      </trkpt>
      <trkpt lat="47.14017" lon="-1.62983">
        <ele>66</ele>
        <time>2021-06-02T17:39:24.000Z</time>
      </trkpt>
      <trkpt lat="47.14032" lon="-1.62979">
        <ele>66</ele>
        <time>2021-06-02T17:39:26.000Z</time>
      </trkpt>
      <trkpt lat="47.14045" lon="-1.62978">
        <ele>67</ele>
        <time>2021-06-02T17:39:28.000Z</time>
      </trkpt>
      <trkpt lat="47.14058" lon="-1.62975">
        <ele>67</ele>
        <time>2021-06-02T17:39:30.000Z</time>
      </trkpt>
      <trkpt lat="47.14072" lon="-1.62972">
        <ele>68</ele>
        <time>2021-06-02T17:39:32.000Z</time>
      </trkpt>
      <trkpt lat="47.14085" lon="-1.62974">
        <ele>67</ele>
        <time>2021-06-02T17:39:34.000Z</time>
      </trkpt>
      <trkpt lat="47.14097" lon="-1.62976">
        <ele>68</ele>
        <time>2021-06-02T17:39:36.000Z</time>
      </trkpt>
      <trkpt lat="47.14109" lon="-1.6297">
        <ele>67</ele>
        <time>2021-06-02T17:39:38.000Z</time>
      </trkpt>
      <trkpt lat="47.14121" lon="-1.62979">
        <ele>68</ele>
        <time>2021-06-02T17:39:40.000Z</time>
      </trkpt>
      <trkpt lat="47.14134" lon="-1.62985">
        <ele>67</ele>
        <time>2021-06-02T17:39:42.000Z</time>
      </trkpt>
      <trkpt lat="47.14147" lon="-1.62992">
        <ele>67</ele>
        <time>2021-06-02T17:39:45.000Z</time>
      </trkpt>
      <trkpt lat="47.14159" lon="-1.62998">
        <ele>68</ele>
        <time>2021-06-02T17:39:47.000Z</time>
      </trkpt>
      <trkpt lat="47.14173" lon="-1.63006">
        <ele>69</ele>
        <time>2021-06-02T17:39:49.000Z</time>
      </trkpt>
      <trkpt lat="47.14193" lon="-1.63017">
        <ele>68</ele>
        <time>2021-06-02T17:39:52.000Z</time>
      </trkpt>
      <trkpt lat="47.14206" lon="-1.63022">
        <ele>68</ele>
        <time>2021-06-02T17:39:54.000Z</time>
      </trkpt>
      <trkpt lat="47.14218" lon="-1.63027">
        <ele>68</ele>
        <time>2021-06-02T17:39:56.000Z</time>
      </trkpt>
      <trkpt lat="47.14235" lon="-1.63037">
        <ele>69</ele>
        <time>2021-06-02T17:39:59.000Z</time>
      </trkpt>
      <trkpt lat="47.14247" lon="-1.63041">
        <ele>69</ele>
        <time>2021-06-02T17:40:01.000Z</time>
      </trkpt>
      <trkpt lat="47.14258" lon="-1.63045">
        <ele>68</ele>
        <time>2021-06-02T17:40:03.000Z</time>
      </trkpt>
      <trkpt lat="47.14274" lon="-1.63053">
        <ele>68</ele>
        <time>2021-06-02T17:40:06.000Z</time>
      </trkpt>
      <trkpt lat="47.14286" lon="-1.63056">
        <ele>71</ele>
        <time>2021-06-02T17:40:08.000Z</time>
      </trkpt>
      <trkpt lat="47.143" lon="-1.63065">
        <ele>73</ele>
        <time>2021-06-02T17:40:10.000Z</time>
      </trkpt>
      <trkpt lat="47.14311" lon="-1.63071">
        <ele>73</ele>
        <time>2021-06-02T17:40:12.000Z</time>
      </trkpt>
      <trkpt lat="47.14323" lon="-1.63084">
        <ele>73</ele>
        <time>2021-06-02T17:40:14.000Z</time>
      </trkpt>
      <trkpt lat="47.14335" lon="-1.63092">
        <ele>73</ele>
        <time>2021-06-02T17:40:16.000Z</time>
      </trkpt>
      <trkpt lat="47.14347" lon="-1.631">
        <ele>73</ele>
        <time>2021-06-02T17:40:18.000Z</time>
      </trkpt>
      <trkpt lat="47.1436" lon="-1.63106">
        <ele>74</ele>
        <time>2021-06-02T17:40:20.000Z</time>
      </trkpt>
      <trkpt lat="47.14372" lon="-1.63112">
        <ele>74</ele>
        <time>2021-06-02T17:40:22.000Z</time>
      </trkpt>
      <trkpt lat="47.14385" lon="-1.63118">
        <ele>73</ele>
        <time>2021-06-02T17:40:24.000Z</time>
      </trkpt>
      <trkpt lat="47.14399" lon="-1.63123">
        <ele>72</ele>
        <time>2021-06-02T17:40:26.000Z</time>
      </trkpt>
      <trkpt lat="47.14418" lon="-1.63131">
        <ele>71</ele>
        <time>2021-06-02T17:40:29.000Z</time>
      </trkpt>
      <trkpt lat="47.14429" lon="-1.63138">
        <ele>72</ele>
        <time>2021-06-02T17:40:31.000Z</time>
      </trkpt>
      <trkpt lat="47.14442" lon="-1.63144">
        <ele>72</ele>
        <time>2021-06-02T17:40:33.000Z</time>
      </trkpt>
      <trkpt lat="47.14455" lon="-1.63146">
        <ele>71</ele>
        <time>2021-06-02T17:40:35.000Z</time>
      </trkpt>
      <trkpt lat="47.14467" lon="-1.63146">
        <ele>72</ele>
        <time>2021-06-02T17:40:37.000Z</time>
      </trkpt>
      <trkpt lat="47.1448" lon="-1.63146">
        <ele>72</ele>
        <time>2021-06-02T17:40:39.000Z</time>
      </trkpt>
      <trkpt lat="47.14493" lon="-1.63147">
        <ele>71</ele>
        <time>2021-06-02T17:40:41.000Z</time>
      </trkpt>
      <trkpt lat="47.14505" lon="-1.63144">
        <ele>70</ele>
        <time>2021-06-02T17:40:43.000Z</time>
      </trkpt>
      <trkpt lat="47.14518" lon="-1.63142">
        <ele>69</ele>
        <time>2021-06-02T17:40:45.000Z</time>
      </trkpt>
      <trkpt lat="47.14533" lon="-1.63145">
        <ele>70</ele>
        <time>2021-06-02T17:40:47.000Z</time>
      </trkpt>
      <trkpt lat="47.14553" lon="-1.63142">
        <ele>70</ele>
        <time>2021-06-02T17:40:50.000Z</time>
      </trkpt>
      <trkpt lat="47.14566" lon="-1.63137">
        <ele>70</ele>
        <time>2021-06-02T17:40:52.000Z</time>
      </trkpt>
      <trkpt lat="47.14578" lon="-1.63131">
        <ele>71</ele>
        <time>2021-06-02T17:40:54.000Z</time>
      </trkpt>
      <trkpt lat="47.1459" lon="-1.63125">
        <ele>71</ele>
        <time>2021-06-02T17:40:56.000Z</time>
      </trkpt>
      <trkpt lat="47.14608" lon="-1.63111">
        <ele>71</ele>
        <time>2021-06-02T17:40:59.000Z</time>
      </trkpt>
      <trkpt lat="47.1462" lon="-1.63104">
        <ele>70</ele>
        <time>2021-06-02T17:41:01.000Z</time>
      </trkpt>
      <trkpt lat="47.14632" lon="-1.63098">
        <ele>70</ele>
        <time>2021-06-02T17:41:03.000Z</time>
      </trkpt>
      <trkpt lat="47.14644" lon="-1.63091">
        <ele>71</ele>
        <time>2021-06-02T17:41:05.000Z</time>
      </trkpt>
      <trkpt lat="47.14655" lon="-1.63084">
        <ele>71</ele>
        <time>2021-06-02T17:41:07.000Z</time>
      </trkpt>
      <trkpt lat="47.14668" lon="-1.63078">
        <ele>72</ele>
        <time>2021-06-02T17:41:09.000Z</time>
      </trkpt>
      <trkpt lat="47.14681" lon="-1.63074">
        <ele>72</ele>
        <time>2021-06-02T17:41:11.000Z</time>
      </trkpt>
      <trkpt lat="47.14693" lon="-1.63072">
        <ele>73</ele>
        <time>2021-06-02T17:41:13.000Z</time>
      </trkpt>
      <trkpt lat="47.14706" lon="-1.63071">
        <ele>73</ele>
        <time>2021-06-02T17:41:15.000Z</time>
      </trkpt>
      <trkpt lat="47.14718" lon="-1.6307">
        <ele>73</ele>
        <time>2021-06-02T17:41:17.000Z</time>
      </trkpt>
      <trkpt lat="47.14731" lon="-1.63069">
        <ele>73</ele>
        <time>2021-06-02T17:41:19.000Z</time>
      </trkpt>
      <trkpt lat="47.14742" lon="-1.63068">
        <ele>72</ele>
        <time>2021-06-02T17:41:21.000Z</time>
      </trkpt>
      <trkpt lat="47.14761" lon="-1.63066">
        <ele>72</ele>
        <time>2021-06-02T17:41:24.000Z</time>
      </trkpt>
      <trkpt lat="47.14773" lon="-1.63063">
        <ele>71</ele>
        <time>2021-06-02T17:41:26.000Z</time>
      </trkpt>
      <trkpt lat="47.14787" lon="-1.63063">
        <ele>72</ele>
        <time>2021-06-02T17:41:28.000Z</time>
      </trkpt>
      <trkpt lat="47.148" lon="-1.63063">
        <ele>73</ele>
        <time>2021-06-02T17:41:30.000Z</time>
      </trkpt>
      <trkpt lat="47.14819" lon="-1.63058">
        <ele>74</ele>
        <time>2021-06-02T17:41:33.000Z</time>
      </trkpt>
      <trkpt lat="47.14831" lon="-1.63058">
        <ele>75</ele>
        <time>2021-06-02T17:41:35.000Z</time>
      </trkpt>
      <trkpt lat="47.14843" lon="-1.6306">
        <ele>77</ele>
        <time>2021-06-02T17:41:37.000Z</time>
      </trkpt>
      <trkpt lat="47.14853" lon="-1.6306">
        <ele>77</ele>
        <time>2021-06-02T17:41:39.000Z</time>
      </trkpt>
      <trkpt lat="47.14864" lon="-1.63059">
        <ele>77</ele>
        <time>2021-06-02T17:41:41.000Z</time>
      </trkpt>
      <trkpt lat="47.14874" lon="-1.63059">
        <ele>77</ele>
        <time>2021-06-02T17:41:43.000Z</time>
      </trkpt>
      <trkpt lat="47.1488" lon="-1.63071">
        <ele>77</ele>
        <time>2021-06-02T17:41:45.000Z</time>
      </trkpt>
      <trkpt lat="47.14881" lon="-1.63087">
        <ele>74</ele>
        <time>2021-06-02T17:41:47.000Z</time>
      </trkpt>
      <trkpt lat="47.1488" lon="-1.63103">
        <ele>74</ele>
        <time>2021-06-02T17:41:49.000Z</time>
      </trkpt>
      <trkpt lat="47.14877" lon="-1.63124">
        <ele>75</ele>
        <time>2021-06-02T17:41:51.000Z</time>
      </trkpt>
      <trkpt lat="47.14874" lon="-1.63145">
        <ele>75</ele>
        <time>2021-06-02T17:41:53.000Z</time>
      </trkpt>
      <trkpt lat="47.14874" lon="-1.63165">
        <ele>75</ele>
        <time>2021-06-02T17:41:55.000Z</time>
      </trkpt>
      <trkpt lat="47.14872" lon="-1.63187">
        <ele>75</ele>
        <time>2021-06-02T17:41:57.000Z</time>
      </trkpt>
      <trkpt lat="47.14872" lon="-1.63208">
        <ele>75</ele>
        <time>2021-06-02T17:41:59.000Z</time>
      </trkpt>
      <trkpt lat="47.14872" lon="-1.63229">
        <ele>75</ele>
        <time>2021-06-02T17:42:01.000Z</time>
      </trkpt>
      <trkpt lat="47.14873" lon="-1.6325">
        <ele>75</ele>
        <time>2021-06-02T17:42:03.000Z</time>
      </trkpt>
      <trkpt lat="47.14873" lon="-1.63269">
        <ele>75</ele>
        <time>2021-06-02T17:42:05.000Z</time>
      </trkpt>
      <trkpt lat="47.14872" lon="-1.63289">
        <ele>74</ele>
        <time>2021-06-02T17:42:07.000Z</time>
      </trkpt>
      <trkpt lat="47.14873" lon="-1.63309">
        <ele>73</ele>
        <time>2021-06-02T17:42:09.000Z</time>
      </trkpt>
      <trkpt lat="47.14876" lon="-1.63328">
        <ele>73</ele>
        <time>2021-06-02T17:42:11.000Z</time>
      </trkpt>
      <trkpt lat="47.14879" lon="-1.63356">
        <ele>75</ele>
        <time>2021-06-02T17:42:14.000Z</time>
      </trkpt>
      <trkpt lat="47.14874" lon="-1.63378">
        <ele>75</ele>
        <time>2021-06-02T17:42:16.000Z</time>
      </trkpt>
      <trkpt lat="47.14875" lon="-1.634">
        <ele>74</ele>
        <time>2021-06-02T17:42:18.000Z</time>
      </trkpt>
      <trkpt lat="47.14878" lon="-1.63413">
        <ele>75</ele>
        <time>2021-06-02T17:42:20.000Z</time>
      </trkpt>
      <trkpt lat="47.14873" lon="-1.63436">
        <ele>75</ele>
        <time>2021-06-02T17:42:22.000Z</time>
      </trkpt>
      <trkpt lat="47.14872" lon="-1.63458">
        <ele>73</ele>
        <time>2021-06-02T17:42:24.000Z</time>
      </trkpt>
      <trkpt lat="47.14871" lon="-1.63479">
        <ele>73</ele>
        <time>2021-06-02T17:42:26.000Z</time>
      </trkpt>
      <trkpt lat="47.14871" lon="-1.63499">
        <ele>73</ele>
        <time>2021-06-02T17:42:28.000Z</time>
      </trkpt>
      <trkpt lat="47.1487" lon="-1.63518">
        <ele>73</ele>
        <time>2021-06-02T17:42:30.000Z</time>
      </trkpt>
      <trkpt lat="47.1487" lon="-1.63538">
        <ele>72</ele>
        <time>2021-06-02T17:42:32.000Z</time>
      </trkpt>
      <trkpt lat="47.14869" lon="-1.63557">
        <ele>72</ele>
        <time>2021-06-02T17:42:34.000Z</time>
      </trkpt>
      <trkpt lat="47.14868" lon="-1.63576">
        <ele>72</ele>
        <time>2021-06-02T17:42:36.000Z</time>
      </trkpt>
      <trkpt lat="47.14868" lon="-1.63595">
        <ele>72</ele>
        <time>2021-06-02T17:42:38.000Z</time>
      </trkpt>
      <trkpt lat="47.14869" lon="-1.63625">
        <ele>72</ele>
        <time>2021-06-02T17:42:41.000Z</time>
      </trkpt>
      <trkpt lat="47.14868" lon="-1.63644">
        <ele>71</ele>
        <time>2021-06-02T17:42:43.000Z</time>
      </trkpt>
      <trkpt lat="47.14869" lon="-1.63662">
        <ele>71</ele>
        <time>2021-06-02T17:42:45.000Z</time>
      </trkpt>
      <trkpt lat="47.1487" lon="-1.63681">
        <ele>71</ele>
        <time>2021-06-02T17:42:47.000Z</time>
      </trkpt>
      <trkpt lat="47.14869" lon="-1.63701">
        <ele>71</ele>
        <time>2021-06-02T17:42:49.000Z</time>
      </trkpt>
      <trkpt lat="47.14869" lon="-1.6372">
        <ele>70</ele>
        <time>2021-06-02T17:42:51.000Z</time>
      </trkpt>
      <trkpt lat="47.14869" lon="-1.63739">
        <ele>70</ele>
        <time>2021-06-02T17:42:53.000Z</time>
      </trkpt>
      <trkpt lat="47.14869" lon="-1.63758">
        <ele>70</ele>
        <time>2021-06-02T17:42:55.000Z</time>
      </trkpt>
      <trkpt lat="47.14869" lon="-1.63778">
        <ele>70</ele>
        <time>2021-06-02T17:42:57.000Z</time>
      </trkpt>
      <trkpt lat="47.14868" lon="-1.63797">
        <ele>70</ele>
        <time>2021-06-02T17:42:59.000Z</time>
      </trkpt>
      <trkpt lat="47.14869" lon="-1.63816">
        <ele>70</ele>
        <time>2021-06-02T17:43:01.000Z</time>
      </trkpt>
      <trkpt lat="47.14868" lon="-1.63835">
        <ele>70</ele>
        <time>2021-06-02T17:43:03.000Z</time>
      </trkpt>
      <trkpt lat="47.14867" lon="-1.63855">
        <ele>70</ele>
        <time>2021-06-02T17:43:05.000Z</time>
      </trkpt>
      <trkpt lat="47.14866" lon="-1.63874">
        <ele>71</ele>
        <time>2021-06-02T17:43:07.000Z</time>
      </trkpt>
      <trkpt lat="47.14864" lon="-1.63893">
        <ele>71</ele>
        <time>2021-06-02T17:43:09.000Z</time>
      </trkpt>
      <trkpt lat="47.14861" lon="-1.63911">
        <ele>70</ele>
        <time>2021-06-02T17:43:11.000Z</time>
      </trkpt>
      <trkpt lat="47.14857" lon="-1.63928">
        <ele>71</ele>
        <time>2021-06-02T17:43:13.000Z</time>
      </trkpt>
      <trkpt lat="47.14855" lon="-1.63946">
        <ele>71</ele>
        <time>2021-06-02T17:43:15.000Z</time>
      </trkpt>
      <trkpt lat="47.14854" lon="-1.63962">
        <ele>71</ele>
        <time>2021-06-02T17:43:17.000Z</time>
      </trkpt>
      <trkpt lat="47.14859" lon="-1.63979">
        <ele>71</ele>
        <time>2021-06-02T17:43:19.000Z</time>
      </trkpt>
      <trkpt lat="47.14867" lon="-1.63992">
        <ele>71</ele>
        <time>2021-06-02T17:43:21.000Z</time>
      </trkpt>
      <trkpt lat="47.14876" lon="-1.64004">
        <ele>70</ele>
        <time>2021-06-02T17:43:23.000Z</time>
      </trkpt>
      <trkpt lat="47.14887" lon="-1.64015">
        <ele>70</ele>
        <time>2021-06-02T17:43:25.000Z</time>
      </trkpt>
      <trkpt lat="47.14899" lon="-1.64018">
        <ele>71</ele>
        <time>2021-06-02T17:43:27.000Z</time>
      </trkpt>
      <trkpt lat="47.1491" lon="-1.6401">
        <ele>72</ele>
        <time>2021-06-02T17:43:29.000Z</time>
      </trkpt>
      <trkpt lat="47.14917" lon="-1.63994">
        <ele>72</ele>
        <time>2021-06-02T17:43:31.000Z</time>
      </trkpt>
      <trkpt lat="47.14924" lon="-1.63978">
        <ele>73</ele>
        <time>2021-06-02T17:43:33.000Z</time>
      </trkpt>
      <trkpt lat="47.14932" lon="-1.63963">
        <ele>73</ele>
        <time>2021-06-02T17:43:35.000Z</time>
      </trkpt>
      <trkpt lat="47.14941" lon="-1.63949">
        <ele>72</ele>
        <time>2021-06-02T17:43:37.000Z</time>
      </trkpt>
      <trkpt lat="47.14949" lon="-1.63935">
        <ele>71</ele>
        <time>2021-06-02T17:43:39.000Z</time>
      </trkpt>
      <trkpt lat="47.14957" lon="-1.63921">
        <ele>73</ele>
        <time>2021-06-02T17:43:41.000Z</time>
      </trkpt>
      <trkpt lat="47.14969" lon="-1.63907">
        <ele>75</ele>
        <time>2021-06-02T17:43:43.000Z</time>
      </trkpt>
      <trkpt lat="47.14984" lon="-1.63886">
        <ele>74</ele>
        <time>2021-06-02T17:43:46.000Z</time>
      </trkpt>
      <trkpt lat="47.14994" lon="-1.63871">
        <ele>74</ele>
        <time>2021-06-02T17:43:48.000Z</time>
      </trkpt>
      <trkpt lat="47.15004" lon="-1.63857">
        <ele>75</ele>
        <time>2021-06-02T17:43:50.000Z</time>
      </trkpt>
      <trkpt lat="47.15014" lon="-1.63843">
        <ele>74</ele>
        <time>2021-06-02T17:43:52.000Z</time>
      </trkpt>
      <trkpt lat="47.15024" lon="-1.6383">
        <ele>74</ele>
        <time>2021-06-02T17:43:54.000Z</time>
      </trkpt>
      <trkpt lat="47.15038" lon="-1.63814">
        <ele>74</ele>
        <time>2021-06-02T17:43:56.000Z</time>
      </trkpt>
      <trkpt lat="47.15052" lon="-1.63793">
        <ele>74</ele>
        <time>2021-06-02T17:43:59.000Z</time>
      </trkpt>
      <trkpt lat="47.15062" lon="-1.63781">
        <ele>73</ele>
        <time>2021-06-02T17:44:01.000Z</time>
      </trkpt>
      <trkpt lat="47.15073" lon="-1.63767">
        <ele>70</ele>
        <time>2021-06-02T17:44:03.000Z</time>
      </trkpt>
      <trkpt lat="47.15083" lon="-1.63755">
        <ele>71</ele>
        <time>2021-06-02T17:44:05.000Z</time>
      </trkpt>
      <trkpt lat="47.15099" lon="-1.63738">
        <ele>73</ele>
        <time>2021-06-02T17:44:08.000Z</time>
      </trkpt>
      <trkpt lat="47.15111" lon="-1.63727">
        <ele>73</ele>
        <time>2021-06-02T17:44:10.000Z</time>
      </trkpt>
      <trkpt lat="47.15122" lon="-1.63716">
        <ele>70</ele>
        <time>2021-06-02T17:44:12.000Z</time>
      </trkpt>
      <trkpt lat="47.15133" lon="-1.63705">
        <ele>70</ele>
        <time>2021-06-02T17:44:14.000Z</time>
      </trkpt>
      <trkpt lat="47.1515" lon="-1.63687">
        <ele>72</ele>
        <time>2021-06-02T17:44:17.000Z</time>
      </trkpt>
      <trkpt lat="47.1516" lon="-1.6368">
        <ele>71</ele>
        <time>2021-06-02T17:44:19.000Z</time>
      </trkpt>
      <trkpt lat="47.15171" lon="-1.63668">
        <ele>72</ele>
        <time>2021-06-02T17:44:21.000Z</time>
      </trkpt>
      <trkpt lat="47.15184" lon="-1.63656">
        <ele>72</ele>
        <time>2021-06-02T17:44:23.000Z</time>
      </trkpt>
      <trkpt lat="47.15195" lon="-1.63644">
        <ele>71</ele>
        <time>2021-06-02T17:44:25.000Z</time>
      </trkpt>
      <trkpt lat="47.15207" lon="-1.63631">
        <ele>72</ele>
        <time>2021-06-02T17:44:27.000Z</time>
      </trkpt>
      <trkpt lat="47.15219" lon="-1.63622">
        <ele>73</ele>
        <time>2021-06-02T17:44:29.000Z</time>
      </trkpt>
      <trkpt lat="47.15235" lon="-1.63607">
        <ele>73</ele>
        <time>2021-06-02T17:44:32.000Z</time>
      </trkpt>
      <trkpt lat="47.15246" lon="-1.63597">
        <ele>73</ele>
        <time>2021-06-02T17:44:34.000Z</time>
      </trkpt>
      <trkpt lat="47.15257" lon="-1.63587">
        <ele>75</ele>
        <time>2021-06-02T17:44:36.000Z</time>
      </trkpt>
      <trkpt lat="47.15269" lon="-1.63577">
        <ele>75</ele>
        <time>2021-06-02T17:44:38.000Z</time>
      </trkpt>
      <trkpt lat="47.15281" lon="-1.63566">
        <ele>75</ele>
        <time>2021-06-02T17:44:40.000Z</time>
      </trkpt>
      <trkpt lat="47.15298" lon="-1.63551">
        <ele>75</ele>
        <time>2021-06-02T17:44:43.000Z</time>
      </trkpt>
      <trkpt lat="47.15308" lon="-1.6354">
        <ele>75</ele>
        <time>2021-06-02T17:44:45.000Z</time>
      </trkpt>
      <trkpt lat="47.15327" lon="-1.63524">
        <ele>75</ele>
        <time>2021-06-02T17:44:48.000Z</time>
      </trkpt>
      <trkpt lat="47.15339" lon="-1.63514">
        <ele>74</ele>
        <time>2021-06-02T17:44:50.000Z</time>
      </trkpt>
      <trkpt lat="47.1535" lon="-1.63503">
        <ele>75</ele>
        <time>2021-06-02T17:44:52.000Z</time>
      </trkpt>
      <trkpt lat="47.15361" lon="-1.63493">
        <ele>74</ele>
        <time>2021-06-02T17:44:54.000Z</time>
      </trkpt>
      <trkpt lat="47.15373" lon="-1.63482">
        <ele>74</ele>
        <time>2021-06-02T17:44:56.000Z</time>
      </trkpt>
      <trkpt lat="47.15385" lon="-1.63473">
        <ele>75</ele>
        <time>2021-06-02T17:44:58.000Z</time>
      </trkpt>
      <trkpt lat="47.15403" lon="-1.63457">
        <ele>74</ele>
        <time>2021-06-02T17:45:01.000Z</time>
      </trkpt>
      <trkpt lat="47.15415" lon="-1.63447">
        <ele>75</ele>
        <time>2021-06-02T17:45:03.000Z</time>
      </trkpt>
      <trkpt lat="47.15427" lon="-1.63436">
        <ele>74</ele>
        <time>2021-06-02T17:45:05.000Z</time>
      </trkpt>
      <trkpt lat="47.15438" lon="-1.63424">
        <ele>74</ele>
        <time>2021-06-02T17:45:07.000Z</time>
      </trkpt>
      <trkpt lat="47.1545" lon="-1.63412">
        <ele>73</ele>
        <time>2021-06-02T17:45:09.000Z</time>
      </trkpt>
      <trkpt lat="47.15463" lon="-1.63401">
        <ele>73</ele>
        <time>2021-06-02T17:45:11.000Z</time>
      </trkpt>
      <trkpt lat="47.15477" lon="-1.63392">
        <ele>72</ele>
        <time>2021-06-02T17:45:13.000Z</time>
      </trkpt>
      <trkpt lat="47.1549" lon="-1.63382">
        <ele>72</ele>
        <time>2021-06-02T17:45:15.000Z</time>
      </trkpt>
      <trkpt lat="47.15503" lon="-1.63372">
        <ele>71</ele>
        <time>2021-06-02T17:45:17.000Z</time>
      </trkpt>
      <trkpt lat="47.15516" lon="-1.63362">
        <ele>70</ele>
        <time>2021-06-02T17:45:19.000Z</time>
      </trkpt>
      <trkpt lat="47.15524" lon="-1.63354">
        <ele>70</ele>
        <time>2021-06-02T17:45:20.000Z</time>
      </trkpt>
      <trkpt lat="47.15545" lon="-1.63335">
        <ele>69</ele>
        <time>2021-06-02T17:45:23.000Z</time>
      </trkpt>
      <trkpt lat="47.15559" lon="-1.63321">
        <ele>69</ele>
        <time>2021-06-02T17:45:25.000Z</time>
      </trkpt>
      <trkpt lat="47.15572" lon="-1.63307">
        <ele>69</ele>
        <time>2021-06-02T17:45:27.000Z</time>
      </trkpt>
      <trkpt lat="47.15587" lon="-1.63295">
        <ele>68</ele>
        <time>2021-06-02T17:45:29.000Z</time>
      </trkpt>
      <trkpt lat="47.1561" lon="-1.63276">
        <ele>67</ele>
        <time>2021-06-02T17:45:32.000Z</time>
      </trkpt>
      <trkpt lat="47.15623" lon="-1.63264">
        <ele>68</ele>
        <time>2021-06-02T17:45:34.000Z</time>
      </trkpt>
      <trkpt lat="47.15637" lon="-1.63252">
        <ele>67</ele>
        <time>2021-06-02T17:45:36.000Z</time>
      </trkpt>
      <trkpt lat="47.1565" lon="-1.6324">
        <ele>68</ele>
        <time>2021-06-02T17:45:38.000Z</time>
      </trkpt>
      <trkpt lat="47.15663" lon="-1.63229">
        <ele>68</ele>
        <time>2021-06-02T17:45:40.000Z</time>
      </trkpt>
      <trkpt lat="47.15676" lon="-1.63219">
        <ele>64</ele>
        <time>2021-06-02T17:45:42.000Z</time>
      </trkpt>
      <trkpt lat="47.15689" lon="-1.63208">
        <ele>65</ele>
        <time>2021-06-02T17:45:44.000Z</time>
      </trkpt>
      <trkpt lat="47.15701" lon="-1.63196">
        <ele>66</ele>
        <time>2021-06-02T17:45:46.000Z</time>
      </trkpt>
      <trkpt lat="47.15713" lon="-1.63185">
        <ele>66</ele>
        <time>2021-06-02T17:45:48.000Z</time>
      </trkpt>
      <trkpt lat="47.15725" lon="-1.63175">
        <ele>66</ele>
        <time>2021-06-02T17:45:50.000Z</time>
      </trkpt>
      <trkpt lat="47.15737" lon="-1.63164">
        <ele>67</ele>
        <time>2021-06-02T17:45:52.000Z</time>
      </trkpt>
      <trkpt lat="47.15745" lon="-1.6315">
        <ele>67</ele>
        <time>2021-06-02T17:45:54.000Z</time>
      </trkpt>
      <trkpt lat="47.15758" lon="-1.63143">
        <ele>67</ele>
        <time>2021-06-02T17:45:56.000Z</time>
      </trkpt>
      <trkpt lat="47.15773" lon="-1.63136">
        <ele>67</ele>
        <time>2021-06-02T17:45:58.000Z</time>
      </trkpt>
      <trkpt lat="47.15786" lon="-1.63122">
        <ele>68</ele>
        <time>2021-06-02T17:46:00.000Z</time>
      </trkpt>
      <trkpt lat="47.15799" lon="-1.6311">
        <ele>66</ele>
        <time>2021-06-02T17:46:02.000Z</time>
      </trkpt>
      <trkpt lat="47.15813" lon="-1.63096">
        <ele>65</ele>
        <time>2021-06-02T17:46:04.000Z</time>
      </trkpt>
      <trkpt lat="47.15826" lon="-1.6308">
        <ele>65</ele>
        <time>2021-06-02T17:46:06.000Z</time>
      </trkpt>
      <trkpt lat="47.15841" lon="-1.6307">
        <ele>63</ele>
        <time>2021-06-02T17:46:08.000Z</time>
      </trkpt>
      <trkpt lat="47.15855" lon="-1.63059">
        <ele>63</ele>
        <time>2021-06-02T17:46:10.000Z</time>
      </trkpt>
      <trkpt lat="47.15869" lon="-1.63046">
        <ele>62</ele>
        <time>2021-06-02T17:46:12.000Z</time>
      </trkpt>
      <trkpt lat="47.15884" lon="-1.63034">
        <ele>62</ele>
        <time>2021-06-02T17:46:14.000Z</time>
      </trkpt>
      <trkpt lat="47.15897" lon="-1.63023">
        <ele>62</ele>
        <time>2021-06-02T17:46:16.000Z</time>
      </trkpt>
      <trkpt lat="47.1591" lon="-1.63011">
        <ele>62</ele>
        <time>2021-06-02T17:46:18.000Z</time>
      </trkpt>
      <trkpt lat="47.15923" lon="-1.63">
        <ele>63</ele>
        <time>2021-06-02T17:46:20.000Z</time>
      </trkpt>
      <trkpt lat="47.15935" lon="-1.62989">
        <ele>63</ele>
        <time>2021-06-02T17:46:22.000Z</time>
      </trkpt>
      <trkpt lat="47.15946" lon="-1.62979">
        <ele>64</ele>
        <time>2021-06-02T17:46:24.000Z</time>
      </trkpt>
      <trkpt lat="47.15957" lon="-1.62969">
        <ele>64</ele>
        <time>2021-06-02T17:46:26.000Z</time>
      </trkpt>
      <trkpt lat="47.15968" lon="-1.6296">
        <ele>65</ele>
        <time>2021-06-02T17:46:28.000Z</time>
      </trkpt>
      <trkpt lat="47.15976" lon="-1.62952">
        <ele>61</ele>
        <time>2021-06-02T17:46:30.000Z</time>
      </trkpt>
      <trkpt lat="47.15987" lon="-1.62941">
        <ele>62</ele>
        <time>2021-06-02T17:46:32.000Z</time>
      </trkpt>
      <trkpt lat="47.15999" lon="-1.62929">
        <ele>63</ele>
        <time>2021-06-02T17:46:34.000Z</time>
      </trkpt>
      <trkpt lat="47.1601" lon="-1.62919">
        <ele>63</ele>
        <time>2021-06-02T17:46:36.000Z</time>
      </trkpt>
      <trkpt lat="47.16023" lon="-1.62907">
        <ele>63</ele>
        <time>2021-06-02T17:46:38.000Z</time>
      </trkpt>
      <trkpt lat="47.16035" lon="-1.62896">
        <ele>63</ele>
        <time>2021-06-02T17:46:40.000Z</time>
      </trkpt>
      <trkpt lat="47.16047" lon="-1.62888">
        <ele>63</ele>
        <time>2021-06-02T17:46:42.000Z</time>
      </trkpt>
      <trkpt lat="47.16059" lon="-1.62877">
        <ele>65</ele>
        <time>2021-06-02T17:46:44.000Z</time>
      </trkpt>
      <trkpt lat="47.1607" lon="-1.62868">
        <ele>66</ele>
        <time>2021-06-02T17:46:46.000Z</time>
      </trkpt>
      <trkpt lat="47.16082" lon="-1.62859">
        <ele>67</ele>
        <time>2021-06-02T17:46:48.000Z</time>
      </trkpt>
      <trkpt lat="47.16093" lon="-1.62848">
        <ele>68</ele>
        <time>2021-06-02T17:46:50.000Z</time>
      </trkpt>
      <trkpt lat="47.16105" lon="-1.62838">
        <ele>68</ele>
        <time>2021-06-02T17:46:52.000Z</time>
      </trkpt>
      <trkpt lat="47.16115" lon="-1.62829">
        <ele>68</ele>
        <time>2021-06-02T17:46:54.000Z</time>
      </trkpt>
      <trkpt lat="47.16125" lon="-1.6282">
        <ele>69</ele>
        <time>2021-06-02T17:46:56.000Z</time>
      </trkpt>
      <trkpt lat="47.16136" lon="-1.6281">
        <ele>70</ele>
        <time>2021-06-02T17:46:58.000Z</time>
      </trkpt>
      <trkpt lat="47.16147" lon="-1.62801">
        <ele>70</ele>
        <time>2021-06-02T17:47:00.000Z</time>
      </trkpt>
      <trkpt lat="47.16158" lon="-1.62791">
        <ele>70</ele>
        <time>2021-06-02T17:47:02.000Z</time>
      </trkpt>
      <trkpt lat="47.1617" lon="-1.62781">
        <ele>69</ele>
        <time>2021-06-02T17:47:04.000Z</time>
      </trkpt>
      <trkpt lat="47.16179" lon="-1.62773">
        <ele>70</ele>
        <time>2021-06-02T17:47:06.000Z</time>
      </trkpt>
      <trkpt lat="47.16189" lon="-1.62763">
        <ele>71</ele>
        <time>2021-06-02T17:47:08.000Z</time>
      </trkpt>
      <trkpt lat="47.16199" lon="-1.62753">
        <ele>72</ele>
        <time>2021-06-02T17:47:10.000Z</time>
      </trkpt>
      <trkpt lat="47.16208" lon="-1.62745">
        <ele>73</ele>
        <time>2021-06-02T17:47:12.000Z</time>
      </trkpt>
      <trkpt lat="47.16218" lon="-1.62736">
        <ele>74</ele>
        <time>2021-06-02T17:47:14.000Z</time>
      </trkpt>
      <trkpt lat="47.16229" lon="-1.62728">
        <ele>76</ele>
        <time>2021-06-02T17:47:16.000Z</time>
      </trkpt>
      <trkpt lat="47.16238" lon="-1.62721">
        <ele>76</ele>
        <time>2021-06-02T17:47:18.000Z</time>
      </trkpt>
      <trkpt lat="47.16248" lon="-1.62712">
        <ele>76</ele>
        <time>2021-06-02T17:47:20.000Z</time>
      </trkpt>
      <trkpt lat="47.16258" lon="-1.62703">
        <ele>77</ele>
        <time>2021-06-02T17:47:22.000Z</time>
      </trkpt>
      <trkpt lat="47.16269" lon="-1.62695">
        <ele>77</ele>
        <time>2021-06-02T17:47:24.000Z</time>
      </trkpt>
      <trkpt lat="47.16281" lon="-1.62679">
        <ele>74</ele>
        <time>2021-06-02T17:47:28.018Z</time>
      </trkpt>
      <trkpt lat="47.16283" lon="-1.62645">
        <ele>74</ele>
        <time>2021-06-02T17:47:32.000Z</time>
      </trkpt>
      <trkpt lat="47.16287" lon="-1.62624">
        <ele>71</ele>
        <time>2021-06-02T17:47:34.000Z</time>
      </trkpt>
      <trkpt lat="47.16287" lon="-1.62602">
        <ele>70</ele>
        <time>2021-06-02T17:47:36.000Z</time>
      </trkpt>
      <trkpt lat="47.16291" lon="-1.62585">
        <ele>70</ele>
        <time>2021-06-02T17:47:38.000Z</time>
      </trkpt>
      <trkpt lat="47.16298" lon="-1.62572">
        <ele>71</ele>
        <time>2021-06-02T17:47:40.000Z</time>
      </trkpt>
      <trkpt lat="47.16311" lon="-1.62561">
        <ele>69</ele>
        <time>2021-06-02T17:47:42.000Z</time>
      </trkpt>
      <trkpt lat="47.16322" lon="-1.62554">
        <ele>66</ele>
        <time>2021-06-02T17:47:44.000Z</time>
      </trkpt>
      <trkpt lat="47.16331" lon="-1.62557">
        <ele>67</ele>
        <time>2021-06-02T17:47:45.000Z</time>
      </trkpt>
      <trkpt lat="47.16346" lon="-1.62564">
        <ele>66</ele>
        <time>2021-06-02T17:47:47.000Z</time>
      </trkpt>
      <trkpt lat="47.16358" lon="-1.62569">
        <ele>63</ele>
        <time>2021-06-02T17:47:49.000Z</time>
      </trkpt>
      <trkpt lat="47.1637" lon="-1.62571">
        <ele>63</ele>
        <time>2021-06-02T17:47:52.000Z</time>
      </trkpt>
      <trkpt lat="47.16379" lon="-1.62572">
        <ele>62</ele>
        <time>2021-06-02T17:47:54.000Z</time>
      </trkpt>
      <trkpt lat="47.16393" lon="-1.62563">
        <ele>66</ele>
        <time>2021-06-02T17:47:57.000Z</time>
      </trkpt>
      <trkpt lat="47.16402" lon="-1.62561">
        <ele>65</ele>
        <time>2021-06-02T17:47:59.000Z</time>
      </trkpt>
      <trkpt lat="47.16412" lon="-1.62545">
        <ele>65</ele>
        <time>2021-06-02T17:48:01.000Z</time>
      </trkpt>
      <trkpt lat="47.16422" lon="-1.62534">
        <ele>65</ele>
        <time>2021-06-02T17:48:04.000Z</time>
      </trkpt>
      <trkpt lat="47.16439" lon="-1.62534">
        <ele>65</ele>
        <time>2021-06-02T17:48:07.000Z</time>
      </trkpt>
      <trkpt lat="47.16456" lon="-1.62536">
        <ele>63</ele>
        <time>2021-06-02T17:48:09.000Z</time>
      </trkpt>
      <trkpt lat="47.16469" lon="-1.62541">
        <ele>63</ele>
        <time>2021-06-02T17:48:11.000Z</time>
      </trkpt>
      <trkpt lat="47.16482" lon="-1.62545">
        <ele>63</ele>
        <time>2021-06-02T17:48:13.000Z</time>
      </trkpt>
      <trkpt lat="47.16495" lon="-1.62549">
        <ele>63</ele>
        <time>2021-06-02T17:48:15.000Z</time>
      </trkpt>
      <trkpt lat="47.16508" lon="-1.62554">
        <ele>63</ele>
        <time>2021-06-02T17:48:17.000Z</time>
      </trkpt>
      <trkpt lat="47.16522" lon="-1.62558">
        <ele>63</ele>
        <time>2021-06-02T17:48:19.000Z</time>
      </trkpt>
      <trkpt lat="47.16536" lon="-1.62551">
        <ele>63</ele>
        <time>2021-06-02T17:48:21.000Z</time>
      </trkpt>
      <trkpt lat="47.16548" lon="-1.62538">
        <ele>63</ele>
        <time>2021-06-02T17:48:23.000Z</time>
      </trkpt>
      <trkpt lat="47.16555" lon="-1.62525">
        <ele>62</ele>
        <time>2021-06-02T17:48:25.000Z</time>
      </trkpt>
      <trkpt lat="47.16562" lon="-1.6251">
        <ele>61</ele>
        <time>2021-06-02T17:48:27.000Z</time>
      </trkpt>
      <trkpt lat="47.16567" lon="-1.62492">
        <ele>61</ele>
        <time>2021-06-02T17:48:29.000Z</time>
      </trkpt>
      <trkpt lat="47.16578" lon="-1.62462">
        <ele>61</ele>
        <time>2021-06-02T17:48:32.000Z</time>
      </trkpt>
      <trkpt lat="47.16585" lon="-1.62444">
        <ele>60</ele>
        <time>2021-06-02T17:48:34.000Z</time>
      </trkpt>
      <trkpt lat="47.16593" lon="-1.62426">
        <ele>58</ele>
        <time>2021-06-02T17:48:36.000Z</time>
      </trkpt>
      <trkpt lat="47.16601" lon="-1.62407">
        <ele>58</ele>
        <time>2021-06-02T17:48:38.000Z</time>
      </trkpt>
      <trkpt lat="47.16608" lon="-1.62392">
        <ele>57</ele>
        <time>2021-06-02T17:48:40.000Z</time>
      </trkpt>
      <trkpt lat="47.16615" lon="-1.62376">
        <ele>56</ele>
        <time>2021-06-02T17:48:42.000Z</time>
      </trkpt>
      <trkpt lat="47.16635" lon="-1.62355">
        <ele>55</ele>
        <time>2021-06-02T17:48:45.000Z</time>
      </trkpt>
      <trkpt lat="47.1665" lon="-1.62344">
        <ele>55</ele>
        <time>2021-06-02T17:48:47.000Z</time>
      </trkpt>
      <trkpt lat="47.16664" lon="-1.6234">
        <ele>55</ele>
        <time>2021-06-02T17:48:49.000Z</time>
      </trkpt>
      <trkpt lat="47.16689" lon="-1.62349">
        <ele>57</ele>
        <time>2021-06-02T17:48:51.000Z</time>
      </trkpt>
      <trkpt lat="47.16702" lon="-1.62362">
        <ele>58</ele>
        <time>2021-06-02T17:48:53.000Z</time>
      </trkpt>
      <trkpt lat="47.16711" lon="-1.62376">
        <ele>58</ele>
        <time>2021-06-02T17:48:55.000Z</time>
      </trkpt>
      <trkpt lat="47.16718" lon="-1.62386">
        <ele>56</ele>
        <time>2021-06-02T17:48:57.000Z</time>
      </trkpt>
      <trkpt lat="47.16723" lon="-1.624">
        <ele>56</ele>
        <time>2021-06-02T17:48:59.000Z</time>
      </trkpt>
      <trkpt lat="47.16724" lon="-1.62417">
        <ele>55</ele>
        <time>2021-06-02T17:49:01.000Z</time>
      </trkpt>
      <trkpt lat="47.16719" lon="-1.62432">
        <ele>56</ele>
        <time>2021-06-02T17:49:03.000Z</time>
      </trkpt>
      <trkpt lat="47.16711" lon="-1.62446">
        <ele>56</ele>
        <time>2021-06-02T17:49:05.000Z</time>
      </trkpt>
      <trkpt lat="47.16701" lon="-1.62459">
        <ele>55</ele>
        <time>2021-06-02T17:49:07.000Z</time>
      </trkpt>
      <trkpt lat="47.16707" lon="-1.62476">
        <ele>54</ele>
        <time>2021-06-02T17:49:09.000Z</time>
      </trkpt>
      <trkpt lat="47.16723" lon="-1.62488">
        <ele>55</ele>
        <time>2021-06-02T17:49:11.000Z</time>
      </trkpt>
      <trkpt lat="47.16739" lon="-1.62495">
        <ele>54</ele>
        <time>2021-06-02T17:49:13.000Z</time>
      </trkpt>
      <trkpt lat="47.16753" lon="-1.62499">
        <ele>54</ele>
        <time>2021-06-02T17:49:15.000Z</time>
      </trkpt>
      <trkpt lat="47.16765" lon="-1.62503">
        <ele>55</ele>
        <time>2021-06-02T17:49:17.000Z</time>
      </trkpt>
      <trkpt lat="47.16781" lon="-1.6251">
        <ele>55</ele>
        <time>2021-06-02T17:49:20.000Z</time>
      </trkpt>
      <trkpt lat="47.1679" lon="-1.62518">
        <ele>55</ele>
        <time>2021-06-02T17:49:22.000Z</time>
      </trkpt>
      <trkpt lat="47.16806" lon="-1.62533">
        <ele>54</ele>
        <time>2021-06-02T17:49:25.000Z</time>
      </trkpt>
      <trkpt lat="47.16817" lon="-1.62545">
        <ele>55</ele>
        <time>2021-06-02T17:49:27.000Z</time>
      </trkpt>
      <trkpt lat="47.16825" lon="-1.62557">
        <ele>56</ele>
        <time>2021-06-02T17:49:29.000Z</time>
      </trkpt>
      <trkpt lat="47.16832" lon="-1.62571">
        <ele>58</ele>
        <time>2021-06-02T17:49:31.000Z</time>
      </trkpt>
      <trkpt lat="47.16826" lon="-1.62584">
        <ele>60</ele>
        <time>2021-06-02T17:49:33.000Z</time>
      </trkpt>
      <trkpt lat="47.16819" lon="-1.62593">
        <ele>59</ele>
        <time>2021-06-02T17:49:35.000Z</time>
      </trkpt>
      <trkpt lat="47.16809" lon="-1.62588">
        <ele>59</ele>
        <time>2021-06-02T17:49:44.000Z</time>
      </trkpt>
      <trkpt lat="47.16799" lon="-1.6259">
        <ele>48</ele>
        <time>2021-06-02T17:50:04.000Z</time>
      </trkpt>
      <trkpt lat="47.16809" lon="-1.62598">
        <ele>47</ele>
        <time>2021-06-02T17:50:31.000Z</time>
      </trkpt>
      <trkpt lat="47.16818" lon="-1.62601">
        <ele>48</ele>
        <time>2021-06-02T17:50:45.000Z</time>
      </trkpt>
      <trkpt lat="47.16823" lon="-1.6259">
        <ele>59</ele>
        <time>2021-06-02T17:51:54.000Z</time>
      </trkpt>
      <trkpt lat="47.1682" lon="-1.62578">
        <ele>59</ele>
        <time>2021-06-02T17:52:59.000Z</time>
      </trkpt>
      <trkpt lat="47.16824" lon="-1.62591">
        <ele>58</ele>
        <time>2021-06-02T17:53:46.000Z</time>
      </trkpt>
      <trkpt lat="47.16817" lon="-1.62605">
        <ele>68</ele>
        <time>2021-06-02T17:54:46.000Z</time>
      </trkpt>
      <trkpt lat="47.16809" lon="-1.62618">
        <ele>70</ele>
        <time>2021-06-02T17:54:49.000Z</time>
      </trkpt>
      <trkpt lat="47.16803" lon="-1.6263">
        <ele>70</ele>
        <time>2021-06-02T17:54:51.000Z</time>
      </trkpt>
      <trkpt lat="47.16796" lon="-1.62641">
        <ele>70</ele>
        <time>2021-06-02T17:54:53.000Z</time>
      </trkpt>
      <trkpt lat="47.16788" lon="-1.62654">
        <ele>69</ele>
        <time>2021-06-02T17:54:56.000Z</time>
      </trkpt>
      <trkpt lat="47.16779" lon="-1.62661">
        <ele>69</ele>
        <time>2021-06-02T17:54:59.000Z</time>
      </trkpt>
      <trkpt lat="47.16772" lon="-1.62648">
        <ele>62</ele>
        <time>2021-06-02T17:55:16.000Z</time>
      </trkpt>
    </trkseg>
  </trk>
</gpx>